ECMWFFLT1_sfc_temp_000.txt.gz
Temp
49 49 50 51 52 55 54 54 54 54 55 56 56 57 59 60 61 62 64 65 65 66 65 65 65 65 65 65 65 67 69 69 67 65 64 64 62 63 65 64 63 61 65 66 64 63 59 57 58 61 63 63 63 64 65 65 65 65 63 65 65 65 64
50 51 52 54 54 55 53 54 53 54 55 55 56 57 58 59 60 61 62 64 65 65 66 66 66 66 65 64 64 64 64 66 67 68 66 64 65 64 63 63 65 62 63 64 65 65 59 57 57 58 60 62 63 64 64 65 66 65 65 65 66 65 63
49 50 51 52 53 54 53 54 54 53 53 54 55 56 57 58 59 60 61 62 63 65 65 66 66 66 66 65 65 64 64 65 68 68 66 66 66 66 66 65 63 62 61 61 61 62 61 62 59 59 60 59 58 61 63 64 64 65 65 65 65 64 62
48 48 49 50 51 52 52 53 54 54 54 53 54 55 56 57 58 60 60 61 63 64 64 65 65 66 66 65 65 65 65 64 63 67 67 67 67 66 66 66 65 65 64 62 61 62 62 59 59 59 60 61 61 61 62 63 64 65 65 65 64 63 61
47 47 47 48 50 50 52 52 53 54 54 54 54 54 54 56 57 57 60 61 62 62 63 65 65 66 66 66 65 64 64 64 64 64 66 66 66 67 66 67 66 67 66 66 64 64 63 62 62 59 60 61 62 61 61 61 63 64 64 64 64 62 61
48 48 48 49 51 51 52 52 52 51 53 53 54 54 54 55 56 56 57 59 60 61 63 64 65 66 66 66 64 64 64 64 63 65 64 65 67 66 66 67 68 68 67 67 65 65 65 64 63 60 61 64 60 59 61 62 60 61 62 62 62 62 61
48 49 49 49 51 52 52 51 51 52 52 52 54 54 56 56 56 56 57 58 60 61 62 63 64 65 65 65 64 64 64 64 64 64 65 66 67 68 69 67 67 68 68 67 66 66 64 63 62 62 60 61 62 61 61 62 61 61 60 60 60 60 60
48 49 49 50 50 51 51 52 52 53 53 53 54 55 57 56 57 57 57 57 58 59 60 62 63 64 64 64 64 64 64 65 64 64 65 64 65 67 68 68 68 68 68 68 67 67 68 66 65 64 63 59 58 60 60 61 61 62 58 58 59 58 57
49 49 49 50 50 51 51 50 50 51 52 54 55 55 56 57 57 57 57 57 58 58 59 60 62 62 63 63 63 63 64 66 64 64 65 65 65 67 68 69 69 69 69 68 69 68 68 68 67 65 65 64 61 56 59 58 59 58 60 57 58 58 57
45 46 47 48 49 50 50 50 50 50 51 52 54 56 56 57 57 57 57 57 57 57 58 59 60 61 62 63 63 63 63 64 64 64 65 65 66 66 68 68 68 69 68 68 69 69 68 67 68 67 68 66 65 61 57 56 58 57 58 60 56 56 58
46 46 46 47 49 49 50 50 50 50 51 52 53 54 54 55 56 58 58 57 57 57 57 58 59 61 61 62 62 63 63 64 63 64 65 65 67 67 68 69 69 69 69 68 69 69 68 67 67 68 68 69 68 64 62 59 59 61 58 59 58 55 57
47 46 46 47 48 48 48 49 50 50 51 51 52 52 52 54 55 55 56 57 57 57 57 57 58 59 60 60 61 62 63 63 63 63 64 64 66 66 67 67 68 68 69 68 68 69 69 68 68 69 68 70 69 67 65 63 60 60 62 57 56 58 57
48 47 48 48 48 48 49 49 49 50 50 52 52 52 52 53 54 55 56 57 57 57 57 57 57 58 59 59 60 61 62 63 62 63 64 64 65 65 64 65 66 69 68 68 68 68 68 69 69 69 70 69 68 68 67 65 62 58 59 59 56 57 58
46 48 48 48 48 48 49 49 49 50 51 51 52 51 51 52 53 54 55 56 57 57 57 56 57 57 58 58 59 61 62 63 63 62 63 64 64 63 63 64 66 68 69 68 68 68 69 69 68 69 70 70 68 68 67 65 61 53 55 57 56 56 58
47 48 47 48 47 48 48 49 50 50 49 50 51 51 51 52 52 53 54 55 57 58 58 57 57 57 57 57 58 60 61 62 62 63 62 63 64 64 63 63 65 67 69 68 68 69 69 69 68 68 65 65 68 69 68 66 61 57 53 54 55 57 57
47 47 47 47 47 47 48 48 49 49 49 49 51 51 51 51 52 52 52 53 54 56 58 58 57 56 57 57 58 59 61 62 62 62 62 62 64 64 63 62 64 66 68 67 67 68 68 69 69 68 66 64 65 66 66 67 61 56 53 52 55 55 56
46 46 46 47 47 47 48 48 49 49 49 49 49 50 51 51 51 51 51 53 54 55 57 58 57 57 57 58 58 59 61 62 62 63 63 63 63 63 63 62 63 65 67 66 66 66 67 67 67 67 65 64 65 65 64 63 62 57 55 52 53 55 56
46 46 46 47 47 47 48 48 48 48 48 48 49 49 50 50 50 50 50 51 53 55 57 57 57 57 57 58 58 59 60 62 62 63 64 64 63 63 63 62 63 65 66 66 66 66 66 65 67 66 64 63 63 62 61 62 59 56 54 53 53 55 55
46 46 47 47 47 47 47 47 47 48 48 47 48 49 48 49 49 49 50 51 52 54 57 58 58 57 57 57 58 59 60 61 62 63 63 64 65 64 64 63 64 64 65 65 65 65 64 64 64 64 64 63 64 63 60 59 57 54 55 55 53 51 52
46 46 46 46 47 47 47 47 47 47 47 47 47 47 48 48 49 49 50 51 51 53 55 57 58 57 57 57 58 58 59 60 62 62 63 63 64 64 64 64 64 64 64 65 66 64 63 63 63 63 64 63 61 61 58 58 57 54 53 53 53 52 51
46 47 47 47 47 46 46 46 46 47 47 46 46 47 47 47 48 49 49 50 51 53 54 56 57 58 57 57 57 58 59 59 60 61 62 63 63 63 63 64 64 64 64 64 65 64 63 63 62 62 63 63 62 59 57 56 54 53 52 52 50 49 50
47 47 46 46 46 46 46 46 46 45 46 46 46 47 47 47 47 47 49 50 51 52 53 55 57 57 57 57 57 58 59 60 60 60 61 61 62 61 61 62 63 63 62 60 59 58 59 59 62 60 59 60 59 58 56 54 54 51 46 46 48 49 48
46 46 46 45 45 45 45 45 45 45 45 45 45 46 46 46 47 47 47 49 50 51 52 55 55 52 53 57 57 58 59 59 60 60 59 59 59 59 59 58 59 57 56 56 54 52 52 53 56 61 59 59 57 55 53 51 48 47 51 50 48 47 47
45 45 45 45 45 44 44 44 44 44 44 44 44 45 46 45 46 47 48 48 49 51 52 54 51 48 48 49 55 57 58 59 59 59 58 58 57 55 55 55 56 56 55 54 54 50 50 51 51 51 52 54 55 57 54 51 49 52 51 50 49 49 49
44 44 44 44 44 44 43 43 42 43 43 43 44 44 44 45 46 47 48 49 49 51 52 51 48 47 47 47 50 57 58 58 58 57 56 56 55 53 52 50 49 51 53 55 55 53 50 48 48 48 48 50 50 52 53 56 54 50 46 44 42 44 45
44 43 43 43 43 42 42 41 41 41 41 43 44 43 44 45 45 47 48 49 49 51 52 50 47 47 46 46 46 52 58 57 56 55 54 54 52 51 49 48 46 47 49 50 52 53 53 51 47 47 47 47 48 49 48 47 48 53 52 50 47 46 48
43 42 43 42 42 41 40 40 41 41 42 42 42 43 43 44 45 47 49 49 50 51 52 50 46 47 47 45 45 48 57 55 54 54 54 53 51 51 50 47 45 45 47 49 50 52 52 51 49 50 51 51 49 47 44 44 46 47 48 53 52 50 48
42 42 42 41 41 40 40 40 40 40 40 40 41 42 43 44 46 48 50 51 51 51 52 49 46 46 46 45 45 46 56 55 53 53 54 53 52 51 51 50 48 46 46 48 49 50 51 50 49 49 48 46 46 46 47 48 50 50 49 49 49 48 45
42 41 41 41 40 39 39 39 38 39 40 40 42 43 43 45 46 49 51 51 51 51 53 47 45 46 46 45 45 50 54 54 52 51 50 52 52 51 51 50 49 48 47 47 46 45 47 48 47 44 44 43 42 42 41 42 42 43 45 45 44 44 43
41 41 40 40 39 38 38 38 38 39 38 39 40 41 42 44 47 50 51 52 51 52 51 46 44 45 45 44 45 52 53 54 51 49 48 48 49 50 51 51 49 47 47 47 45 43 44 47 48 46 44 42 41 40 40 41 40 40 40 39 39 39 39
41 40 39 38 37 37 37 37 37 39 38 39 40 41 42 44 47 49 50 50 51 49 47 45 42 43 43 43 47 52 52 51 48 46 44 44 44 46 48 49 49 47 47 46 42 42 43 47 46 45 44 42 40 39 39 41 41 40 40 39 39 39 39
40 39 38 37 37 35 35 36 37 38 39 39 40 41 43 44 46 48 49 49 48 47 46 44 42 42 42 43 47 51 50 49 46 43 43 42 42 43 46 47 47 46 46 44 41 42 43 48 49 47 46 43 40 38 39 41 41 40 40 41 40 42 41
40 39 37 37 36 35 35 35 35 37 39 39 39 41 43 44 43 42 44 45 46 46 45 44 43 41 42 43 46 50 50 47 44 42 43 42 41 41 42 43 44 42 41 41 41 42 43 45 48 48 47 44 40 38 41 42 43 42 41 41 40 40 39
39 39 38 37 36 35 35 35 36 37 38 39 41 42 42 41 40 39 40 41 41 42 44 43 42 41 42 43 44 47 49 48 45 43 42 42 42 41 41 41 41 41 40 40 41 41 43 43 44 46 48 46 44 42 43 42 41 41 41 40 40 40 39
39 38 38 36 34 34 35 36 37 37 37 38 39 39 39 38 37 37 37 38 39 40 42 42 41 41 41 42 42 45 47 47 45 44 42 42 42 41 41 40 40 40 39 39 39 40 40 41 42 45 43 41 39 40 43 43 43 42 42 41 40 40 40
39 38 37 36 34 33 35 35 36 36 35 36 37 37 37 37 36 36 36 36 37 37 39 41 41 41 40 41 42 42 42 43 42 44 42 41 41 39 39 40 40 39 39 39 39 40 40 40 41 40 38 39 39 39 41 43 42 42 41 40 40 39 39
39 38 37 35 34 34 34 35 35 35 35 35 35 35 36 36 36 35 34 34 35 36 37 38 39 39 40 39 40 40 40 40 42 43 43 40 39 38 38 39 38 38 38 39 39 39 39 39 39 39 39 39 39 41 43 42 42 41 39 39 38 38 38

ECMWFFLT1_sfc_temp_003.txt.gz
Temp
56 56 57 58 60 60 60 60 61 61 62 64 64 65 66 66 66 66 67 66 65 67 68 67 65 65 64 65 65 65 65 65 67 65 66 71 68 69 73 72 72 75 76 76 76 72 70 66 66 72 74 73 73 73 74 74 74 73 72 73 76 76 75
58 58 59 60 60 60 59 60 60 61 61 61 63 63 64 65 66 66 66 66 66 66 66 68 69 69 66 64 65 64 64 64 65 66 66 67 69 70 69 69 72 73 74 75 77 77 72 69 69 67 67 71 71 72 72 74 75 74 74 74 76 77 75
57 57 58 58 58 59 58 58 59 60 61 61 61 62 63 64 65 66 65 65 65 66 66 67 68 69 69 67 67 66 66 64 65 64 64 66 70 71 71 70 69 70 71 72 73 73 73 73 69 69 69 66 65 70 72 72 73 74 75 74 74 76 75
54 54 54 55 57 57 57 58 58 59 60 60 60 61 62 63 63 64 65 65 66 66 67 67 67 66 69 69 70 69 67 65 64 64 63 64 67 69 71 71 70 70 69 69 70 71 71 69 70 70 71 73 70 68 70 73 73 76 76 75 74 74 73
53 53 53 53 54 54 55 56 58 58 59 60 60 60 60 62 63 63 64 64 65 65 65 67 68 69 67 69 70 69 68 66 66 65 65 63 65 67 70 72 72 72 72 72 73 73 72 71 71 71 71 74 74 75 75 71 74 75 75 75 75 74 74
54 53 53 53 54 53 55 55 55 56 58 58 58 58 59 60 62 61 62 63 64 65 65 66 67 68 69 68 67 67 68 67 65 64 63 64 65 65 68 71 73 74 73 74 75 74 74 74 73 71 74 75 70 71 74 72 70 73 74 74 75 74 72
53 53 53 53 54 54 54 54 54 55 55 56 57 57 59 60 61 61 62 62 64 65 65 65 66 67 67 69 69 66 66 68 68 66 64 65 65 65 66 66 70 73 73 75 74 74 73 73 72 71 71 72 72 72 73 73 73 68 66 68 69 71 71
53 54 54 55 54 53 53 53 53 54 54 55 56 57 59 59 59 60 61 61 62 63 64 64 65 66 66 67 67 67 67 67 69 68 66 65 66 66 66 66 68 70 74 76 76 74 76 74 74 73 72 68 68 71 69 72 72 71 67 65 66 66 67
53 53 53 54 54 54 53 53 53 53 53 54 55 55 56 57 58 58 59 60 62 63 64 64 65 65 66 66 67 66 66 69 66 67 67 67 67 68 67 66 66 67 72 76 77 76 76 76 75 76 74 72 68 65 68 67 68 70 71 65 63 63 62
53 52 52 52 52 53 54 54 54 54 54 54 54 55 55 56 57 58 59 60 61 62 63 64 64 65 65 65 65 66 66 67 66 65 66 67 67 67 67 67 64 64 67 73 76 77 76 75 76 76 77 74 74 69 66 65 65 66 67 70 63 61 63
53 53 53 52 53 52 53 54 54 53 53 54 54 54 55 55 56 57 58 59 60 61 63 64 64 65 64 65 65 66 67 68 65 64 66 67 67 68 67 67 66 64 66 68 73 75 76 75 75 76 76 77 77 73 71 67 66 68 65 69 69 63 62
54 54 54 54 53 52 52 53 53 53 53 54 54 54 54 55 55 56 57 58 59 60 62 62 64 64 64 64 64 65 66 67 66 64 65 66 67 68 67 66 66 64 65 68 72 75 76 76 76 76 75 77 76 75 74 72 68 69 71 66 69 68 64
55 54 54 52 52 52 52 52 52 52 53 54 54 54 53 54 54 55 55 56 57 59 59 61 63 63 63 63 64 65 66 67 66 65 65 65 67 68 68 66 66 65 66 66 69 73 75 76 76 76 76 76 76 76 75 73 71 67 68 69 67 67 66
54 54 53 52 52 52 52 53 53 53 54 53 54 53 53 54 55 55 55 55 57 58 59 60 62 63 62 62 63 64 65 66 67 67 67 65 64 66 67 67 67 68 68 67 69 72 75 76 75 76 76 76 75 76 75 72 70 69 66 69 67 66 66
54 54 52 52 52 52 52 52 53 53 52 53 53 53 54 54 54 54 55 55 56 57 57 59 61 62 62 61 61 62 63 65 65 67 67 66 66 64 65 66 68 69 69 69 70 73 75 75 75 75 76 75 76 75 76 74 72 65 62 64 65 66 63
54 52 51 51 52 52 52 52 53 52 52 52 54 54 53 53 53 53 53 54 55 56 56 58 59 60 61 61 61 61 63 64 64 65 65 66 67 67 64 64 67 69 69 67 67 70 73 74 76 76 75 76 75 75 77 77 73 68 63 63 64 63 62
53 52 52 52 52 52 53 52 53 52 52 52 52 53 54 54 53 53 52 53 54 55 55 56 58 60 61 62 62 61 62 63 64 65 66 67 68 67 65 63 64 67 67 64 64 65 69 74 74 75 75 75 74 75 75 75 75 70 66 61 62 63 62
53 52 52 52 52 52 52 52 53 53 52 51 52 52 53 54 53 53 52 53 53 53 55 56 57 59 61 62 62 61 62 63 63 65 66 67 65 68 66 65 66 67 66 64 63 63 65 69 74 74 73 75 75 75 74 74 73 71 66 62 61 63 62
52 52 52 52 52 52 52 52 52 52 53 52 52 52 51 52 52 52 52 53 53 53 54 55 56 58 60 62 62 62 62 62 62 64 66 67 68 69 68 67 67 67 66 65 65 64 65 67 72 73 73 73 75 75 73 73 71 69 67 63 61 60 61
53 52 52 52 52 52 52 51 51 51 52 51 50 50 51 51 51 51 51 52 52 53 53 54 54 55 57 60 62 63 61 61 61 63 65 67 68 69 69 69 67 66 67 68 67 66 66 66 69 71 72 70 72 72 71 71 70 68 65 61 59 59 58
53 52 52 53 52 52 51 51 51 51 51 50 50 50 50 50 51 51 51 51 52 52 52 53 54 55 56 58 60 62 62 61 61 62 63 66 67 68 69 69 68 67 67 68 69 69 67 65 67 68 70 70 70 69 68 67 67 67 64 60 57 54 55
53 53 53 52 51 51 51 51 50 50 50 50 50 51 51 51 50 50 50 50 50 51 51 51 53 53 54 56 59 60 62 62 61 61 63 64 66 68 69 70 70 69 66 61 59 61 61 61 66 66 68 69 69 68 67 67 64 64 63 61 58 55 53
53 53 52 51 50 50 50 50 49 49 49 50 50 50 50 50 50 49 49 50 50 49 50 51 50 48 49 55 57 59 61 61 61 62 62 63 65 67 68 69 68 60 58 56 55 53 53 54 57 64 65 68 68 69 67 64 60 58 60 59 57 53 49
53 52 51 50 50 50 50 49 48 48 48 48 48 48 48 48 48 48 48 49 49 49 49 50 46 45 45 45 52 57 60 61 62 62 62 63 64 65 67 69 70 63 59 56 58 50 51 51 52 53 56 58 60 70 68 63 61 59 56 57 55 55 52
51 50 50 50 50 50 49 48 47 47 47 47 47 48 47 47 47 48 48 49 48 48 49 47 44 44 44 44 46 53 57 60 61 62 63 63 65 65 66 67 67 67 66 65 65 58 54 50 50 50 50 51 52 55 57 64 62 58 57 56 54 55 57
50 49 50 50 50 49 48 47 46 46 46 47 47 46 46 46 46 47 47 47 48 49 49 46 44 44 44 44 44 47 54 58 61 62 63 64 65 66 66 66 65 64 65 56 61 62 60 56 48 48 48 49 49 50 50 51 54 62 62 61 58 58 60
49 50 50 49 48 48 47 47 46 46 46 46 45 44 44 45 45 46 46 47 47 48 49 47 44 44 44 43 43 45 54 54 59 62 63 64 64 65 66 66 64 62 62 61 63 60 58 57 55 54 54 57 59 53 48 48 49 51 55 63 62 60 62
49 49 49 48 47 46 46 46 45 45 44 43 42 42 43 44 45 46 46 47 47 47 49 46 44 44 43 43 43 44 53 54 58 61 63 63 64 65 66 66 65 63 61 60 61 58 57 56 56 57 56 56 58 57 58 57 58 61 63 64 64 63 58
49 49 48 47 46 45 44 43 43 43 42 42 42 43 43 43 43 44 45 46 46 46 49 45 44 44 43 43 43 49 53 54 57 61 61 63 64 65 66 66 65 63 61 61 52 47 51 54 56 54 52 53 54 53 50 45 46 49 57 60 59 58 54
48 48 47 45 44 42 41 41 41 42 41 41 41 41 42 42 44 44 45 46 45 46 48 47 44 44 43 43 44 50 52 53 57 59 60 61 61 63 64 66 66 63 60 61 48 44 45 49 53 52 51 50 50 50 49 47 42 41 41 41 41 41 41
49 48 46 43 41 40 40 41 41 42 40 39 39 40 41 42 43 45 45 45 46 46 48 49 45 44 43 43 45 51 52 53 56 57 58 59 61 62 62 55 59 63 60 58 43 44 44 50 51 51 49 49 48 45 44 46 46 43 40 40 40 40 40
49 48 45 42 41 39 39 40 41 41 40 39 39 40 41 42 43 44 46 46 46 46 48 49 46 44 43 43 46 52 53 54 54 54 55 56 58 59 59 54 52 56 58 52 41 43 44 51 52 50 50 48 45 44 44 45 44 44 45 45 43 43 42
48 47 44 42 41 40 41 40 39 38 38 39 38 39 41 42 43 44 46 47 47 48 48 50 52 44 44 43 44 52 54 53 53 54 55 54 51 52 54 55 51 45 45 42 41 42 44 47 49 49 50 48 45 43 46 47 47 47 47 45 45 46 48
47 46 45 43 42 41 40 38 37 38 37 38 38 38 39 40 41 42 45 47 48 50 51 53 53 43 43 44 43 46 53 55 55 56 55 53 53 51 50 51 51 43 41 41 42 42 44 44 46 49 50 48 46 45 46 47 45 44 46 45 46 47 47
47 45 45 44 39 37 38 39 38 37 37 37 38 38 38 38 39 38 39 40 43 46 48 48 52 43 42 43 43 43 52 56 59 58 56 55 55 53 51 50 49 43 40 41 41 42 42 42 43 47 45 41 40 41 45 47 48 48 47 46 46 45 46
46 45 44 43 38 36 37 37 37 37 36 36 38 38 36 37 37 37 38 38 39 41 45 46 43 44 40 41 41 43 46 52 46 57 56 54 54 53 51 49 46 41 40 40 40 40 40 40 41 40 38 39 40 40 42 46 46 46 45 45 44 45 44
46 46 45 42 39 36 35 35 35 36 35 35 36 37 37 36 36 36 36 36 38 39 42 45 43 42 43 40 41 43 43 43 45 55 57 55 52 49 47 46 42 39 39 39 39 39 39 39 38 38 38 38 39 40 42 43 44 43 42 41 43 45 46

ECMWFFLT1_sfc_temp_006.txt.gz
Temp
65 64 64 66 66 67 67 67 69 69 69 70 70 72 72 72 72 72 72 72 72 73 73 74 74 75 73 70 68 68 67 66 66 63 64 67 71 71 75 76 77 79 82 81 82 78 77 73 74 79 80 79 79 78 79 80 80 79 77 77 81 81 79
66 66 67 67 67 67 65 67 67 68 69 69 70 69 70 71 71 71 71 72 71 72 74 74 74 74 73 71 69 68 65 64 65 65 64 65 68 67 72 72 76 77 79 80 82 82 78 75 76 75 74 77 77 77 78 79 80 79 79 78 80 82 80
65 66 66 65 65 65 65 65 66 67 68 69 69 69 69 71 71 71 71 71 71 71 71 73 73 73 72 72 71 70 68 66 65 64 64 64 66 68 72 71 71 73 76 77 77 77 78 78 75 78 74 72 70 74 77 76 78 79 80 79 78 82 82
61 62 63 63 64 63 63 64 65 67 68 67 68 68 68 68 68 70 70 70 71 71 72 72 72 73 73 71 71 71 69 67 66 65 63 64 66 67 67 69 71 73 72 72 73 76 75 74 74 75 77 78 75 72 74 77 78 80 81 80 79 80 81
61 62 61 61 62 61 62 63 65 66 66 67 67 68 68 68 67 67 68 69 70 71 71 71 72 73 73 73 72 71 69 68 68 66 65 63 64 64 66 68 69 71 73 74 77 77 75 74 75 75 77 80 79 79 80 76 79 80 81 81 82 81 81
62 61 61 61 62 62 63 63 63 64 65 65 66 66 67 66 66 65 66 67 68 70 71 72 72 72 72 73 72 70 69 68 68 67 65 64 64 64 64 66 67 70 72 75 77 78 78 77 75 73 79 82 76 78 82 78 76 80 82 81 83 83 82
62 62 62 63 63 63 64 63 62 63 63 62 63 63 65 65 66 65 66 66 67 68 69 70 71 71 71 72 72 70 70 70 69 67 67 67 67 68 67 65 66 67 69 72 73 75 74 75 72 73 74 79 79 80 82 80 80 77 80 83 84 84 83
62 63 63 64 63 62 63 62 62 63 63 64 64 64 64 63 63 63 64 64 65 66 67 68 70 70 70 71 72 71 72 72 70 68 67 66 68 69 67 66 66 66 65 68 70 72 75 77 75 75 74 71 74 76 77 80 79 77 78 81 83 83 81
63 63 63 63 63 62 61 61 61 62 63 63 64 63 63 63 62 62 62 63 64 65 65 67 68 69 70 69 71 71 70 72 71 69 67 68 66 68 69 68 65 64 66 67 69 68 71 75 77 76 75 73 71 69 74 75 77 77 81 76 75 78 77
61 60 61 61 60 61 61 61 62 62 62 62 62 63 62 63 62 62 61 61 62 63 64 66 68 69 69 69 70 70 70 72 71 72 71 69 69 69 70 70 69 66 64 65 67 68 67 66 71 75 77 76 75 73 70 71 73 74 78 78 73 74 78
61 61 61 61 61 61 61 62 62 62 62 63 63 62 62 61 61 61 61 61 61 62 63 64 66 67 68 69 70 70 71 72 71 72 72 71 68 68 69 70 71 70 69 66 64 65 66 65 65 70 74 78 77 74 75 72 72 76 77 77 76 75 75
62 62 61 61 61 60 60 60 61 61 61 62 62 62 62 62 62 63 62 61 60 60 62 63 64 65 67 68 69 69 70 71 71 71 72 72 71 70 68 68 69 68 70 68 67 65 64 65 66 66 68 74 79 76 75 76 72 76 79 71 75 76 74
63 62 61 61 60 60 60 60 60 60 60 62 62 62 63 62 62 61 62 61 60 61 61 63 64 65 65 66 67 68 70 70 70 71 72 72 73 71 70 68 70 70 70 69 68 67 65 65 66 66 67 69 77 77 76 76 73 73 77 77 77 76 74
61 62 61 61 60 60 60 60 60 61 62 61 62 61 61 63 63 62 62 62 62 61 61 61 62 63 64 65 67 68 69 70 70 71 72 71 73 72 72 71 71 69 72 70 69 69 69 69 67 65 66 67 73 78 77 74 73 74 75 78 77 76 74
62 62 61 60 59 60 60 60 61 61 59 60 61 61 62 62 62 61 61 61 62 62 62 63 63 62 63 64 65 67 67 68 69 70 70 72 72 73 72 71 72 73 73 72 71 72 71 70 69 68 66 65 67 76 77 76 74 74 70 72 73 75 73
62 61 60 60 60 60 60 61 63 59 59 60 60 60 60 61 61 62 62 61 61 61 62 63 62 62 61 62 64 65 66 67 67 67 68 70 73 74 72 71 72 72 72 71 72 71 72 71 70 68 67 67 68 73 78 78 76 74 69 69 71 71 71
60 60 59 60 60 60 61 61 62 60 59 59 58 59 60 60 60 60 59 60 61 61 61 61 62 62 62 62 63 64 66 66 67 67 68 70 72 72 72 72 72 72 71 67 69 69 72 71 69 68 67 67 68 72 76 76 77 75 72 67 70 72 72
60 60 59 60 60 60 60 60 61 61 59 58 58 58 58 59 59 59 58 59 60 61 61 62 62 62 62 62 63 63 65 66 67 68 68 69 67 71 72 71 72 73 72 67 65 67 69 68 71 70 68 68 67 71 74 72 74 77 72 68 69 71 71
59 59 59 60 60 60 60 60 60 59 58 57 58 58 57 57 57 58 59 59 60 60 62 62 62 62 63 62 62 62 63 65 66 67 68 69 70 71 71 72 72 73 72 70 67 65 70 71 71 70 68 69 69 71 74 74 74 75 73 70 68 68 68
60 59 59 59 60 60 60 58 58 58 58 57 57 57 57 57 57 57 58 58 58 58 59 60 61 61 61 61 61 62 62 63 65 66 67 68 70 70 71 72 72 72 72 72 70 68 68 69 71 70 69 70 71 71 72 73 73 73 73 69 68 67 66
60 60 60 60 59 59 58 58 58 58 58 57 57 57 57 57 57 57 57 57 58 59 59 59 59 60 61 61 60 60 61 62 64 65 66 67 68 70 70 71 72 73 73 73 72 71 69 69 72 71 68 67 68 72 72 73 71 72 72 70 68 66 67
60 60 60 60 60 59 57 58 58 58 58 58 57 57 57 56 56 56 57 57 58 58 57 57 58 59 59 59 60 59 60 61 62 64 66 67 68 69 70 70 71 73 72 65 60 61 62 63 71 71 70 69 65 66 69 72 72 72 71 69 68 68 67
60 60 59 59 58 58 57 57 57 58 58 57 57 56 56 55 55 54 54 56 56 56 56 57 54 49 49 57 59 60 59 59 61 62 63 65 67 68 69 70 70 62 59 57 55 53 53 53 57 67 71 68 66 65 65 67 69 69 70 68 68 67 64
60 59 59 58 57 57 58 58 58 57 57 56 55 55 55 54 54 54 53 54 54 54 54 55 49 46 45 45 51 55 57 58 60 60 61 63 65 66 68 70 70 65 62 58 61 50 51 50 52 53 55 58 59 65 65 65 70 71 69 68 67 66 65
59 58 58 58 57 58 57 57 56 56 55 54 54 55 53 53 54 54 53 53 53 52 53 50 46 45 44 44 46 52 54 55 57 59 60 62 64 67 68 68 69 70 71 71 72 67 57 49 48 50 50 51 53 54 56 66 68 69 69 68 67 66 67
58 58 57 57 57 57 57 55 55 54 53 53 53 52 52 52 52 53 52 52 52 53 53 49 45 44 44 43 43 46 52 53 54 56 58 60 62 65 67 68 68 69 70 60 65 72 71 65 50 47 48 48 50 49 48 49 54 67 70 69 66 66 67
58 57 56 57 57 56 55 53 53 52 52 52 51 51 51 50 51 51 51 51 51 52 52 49 45 44 44 43 42 43 51 51 52 54 57 58 59 62 65 67 67 68 70 71 72 71 72 70 67 61 59 60 63 56 48 49 48 51 60 69 68 67 68
57 55 56 56 55 55 53 52 51 51 50 49 48 48 49 49 49 49 49 50 49 49 50 46 44 43 43 42 42 43 51 50 50 52 55 57 57 58 63 66 67 68 70 70 71 69 71 71 69 65 63 63 63 63 61 61 60 63 65 69 71 72 70
57 57 56 56 54 53 51 50 48 48 48 48 49 49 48 48 47 47 48 48 47 47 49 44 43 43 42 42 42 47 49 49 49 50 52 55 58 58 60 64 67 68 70 70 63 52 59 71 70 67 64 63 63 64 61 49 51 59 65 68 70 72 70
56 57 57 55 53 51 50 49 48 48 47 47 47 47 46 46 47 47 47 48 48 48 49 47 43 42 42 41 43 49 49 49 49 49 51 54 57 59 59 62 65 68 69 70 60 48 49 56 70 67 64 62 59 57 54 53 42 40 39 41 43 44 45
57 57 57 53 51 50 49 49 49 49 47 46 45 45 46 45 46 46 46 46 46 46 47 47 44 43 42 42 44 48 49 48 49 50 51 53 56 58 60 55 59 67 69 70 51 46 46 58 69 68 65 60 55 52 51 52 50 44 40 41 41 41 42
57 57 55 53 51 48 48 48 49 49 47 46 45 46 45 45 45 45 46 45 45 44 45 46 43 42 42 42 44 48 48 48 48 50 51 52 55 56 60 58 54 59 64 64 45 46 45 57 68 67 63 60 57 56 55 55 51 49 50 50 50 50 48
57 57 54 53 52 49 49 49 48 47 47 46 45 45 44 44 44 44 45 45 45 45 45 46 47 43 43 42 42 47 49 48 48 51 52 53 54 57 59 63 60 49 48 46 42 44 44 50 66 65 63 60 57 54 54 54 52 49 48 49 51 51 50
57 56 54 52 52 50 49 48 47 46 45 45 44 44 43 43 43 44 45 45 44 45 45 46 49 44 43 42 42 42 47 49 50 52 53 53 55 58 60 63 66 53 47 43 43 42 45 47 51 63 62 61 60 54 49 49 45 44 47 48 50 50 49
56 54 54 53 51 48 48 48 47 45 45 45 43 43 43 43 43 44 44 44 43 43 44 44 46 45 43 42 42 41 46 49 52 53 53 56 58 60 61 62 64 52 42 42 42 43 43 45 46 63 62 49 43 42 50 47 45 45 46 48 48 47 47
55 55 54 53 51 46 47 46 45 45 45 44 42 41 42 42 43 43 44 43 43 43 43 44 42 44 43 42 42 42 42 46 46 52 55 57 59 59 60 60 59 44 41 41 41 42 43 43 47 58 42 40 41 41 43 44 43 43 44 47 48 46 45
56 56 55 54 52 47 43 43 43 44 44 42 41 41 41 41 42 42 43 43 42 42 42 42 42 41 43 42 42 41 41 41 44 50 54 55 59 59 59 61 56 40 41 40 41 41 41 44 51 40 40 40 40 42 45 43 43 43 45 46 45 45 46

ECMWFFLT1_sfc_temp_009.txt.gz
Temp
70 69 69 70 70 71 70 70 71 72 73 74 73 73 73 74 74 73 73 73 73 74 75 75 74 75 75 76 75 74 72 72 70 67 67 69 67 68 71 70 72 74 77 78 80 76 74 71 71 79 81 79 80 79 81 82 82 82 80 80 82 82 81
70 70 71 72 71 71 69 70 70 71 71 72 74 73 72 73 73 72 73 73 73 73 75 75 75 76 75 74 73 73 71 70 70 70 69 68 69 69 69 66 68 69 69 75 78 79 76 71 73 73 74 79 78 79 80 81 83 81 81 81 81 82 80
70 71 72 70 69 70 69 69 70 70 71 72 71 72 72 73 72 72 72 72 72 73 73 73 73 73 73 74 74 73 73 71 71 70 69 69 70 70 70 68 65 66 69 71 73 75 76 75 70 73 73 73 72 77 79 79 81 81 82 81 79 81 82
68 68 68 67 69 68 68 68 69 70 71 71 71 71 71 71 71 72 70 70 71 72 73 73 72 73 73 73 73 74 73 72 71 69 68 69 70 70 70 68 67 67 67 68 68 72 74 72 73 73 76 79 77 73 77 80 80 82 83 81 79 79 80
67 67 67 67 67 66 67 67 69 70 70 71 70 71 71 71 71 70 71 70 70 70 71 73 73 73 73 74 74 73 73 73 72 71 70 68 68 69 69 69 67 68 68 67 71 72 72 73 73 72 75 78 80 79 82 78 81 81 82 82 83 81 80
67 68 67 67 68 67 68 68 68 68 69 69 70 70 70 70 70 69 69 69 69 70 70 71 72 74 73 73 73 73 73 73 72 71 68 68 69 69 69 69 68 68 68 70 71 71 70 71 73 66 74 79 75 79 83 79 75 80 82 82 83 84 83
67 67 68 68 68 69 69 68 67 68 68 67 68 67 69 69 69 69 69 69 69 69 70 69 69 71 72 73 73 72 72 72 73 71 70 70 70 70 71 70 69 67 67 67 67 69 68 69 68 66 67 71 76 77 82 82 79 77 79 83 84 85 84
68 68 68 69 68 68 68 68 68 68 67 68 68 69 69 68 67 67 67 67 67 67 68 68 69 69 69 71 71 70 72 73 73 72 71 70 68 69 70 70 69 69 68 68 67 66 67 68 69 66 64 62 67 73 74 82 80 77 78 81 84 84 84
69 69 69 69 68 68 67 67 67 67 67 68 68 68 68 67 66 66 66 66 67 67 67 68 68 69 68 68 70 71 70 73 71 71 72 70 69 69 69 69 69 70 70 69 68 67 66 66 67 69 67 63 62 62 70 74 78 77 81 79 82 84 85
67 67 67 67 67 67 66 66 66 67 67 67 67 67 66 67 66 66 65 66 66 66 66 66 66 67 68 68 68 70 70 71 71 72 72 71 70 70 69 69 69 69 70 70 69 67 66 66 66 66 68 66 65 60 62 67 74 75 79 81 78 81 86
66 66 66 66 66 66 66 66 66 66 66 66 67 66 66 66 65 65 64 64 65 65 65 66 66 67 67 68 69 69 71 71 71 72 72 72 72 72 70 69 69 68 70 70 69 67 66 65 65 66 66 66 65 61 62 60 67 76 78 79 81 81 82
67 67 66 66 66 65 65 65 66 65 66 66 65 65 65 65 65 65 65 65 65 65 66 65 66 65 66 66 67 67 69 70 71 71 72 72 72 72 71 70 70 69 70 70 70 70 68 66 64 65 65 65 63 63 62 63 61 71 79 75 79 82 80
68 67 66 65 65 65 65 65 65 64 64 65 65 65 65 65 65 64 65 65 65 65 66 66 66 65 65 65 67 67 68 69 70 70 71 73 74 73 72 71 71 70 70 70 70 70 71 69 66 64 64 63 64 64 63 62 61 63 73 76 76 80 82
66 67 66 65 65 65 65 65 65 65 66 64 65 65 64 65 65 65 65 65 66 65 65 65 66 65 65 64 66 67 68 68 69 70 71 71 73 73 73 73 73 72 71 69 70 71 70 71 70 67 65 63 63 63 62 61 60 62 68 76 78 79 81
66 66 65 65 64 64 65 64 64 65 64 64 65 64 65 64 64 64 64 65 65 66 65 66 66 65 65 64 64 65 65 67 67 69 70 70 71 72 72 72 73 74 74 72 71 71 73 72 72 70 68 65 63 62 63 62 61 60 64 67 73 80 78
66 65 64 64 64 64 64 64 65 64 64 64 66 65 65 64 64 65 64 64 65 65 66 66 65 65 65 65 65 64 64 65 65 66 67 69 71 73 72 72 73 73 73 72 71 71 72 71 73 73 71 69 66 64 64 64 62 60 61 63 69 72 73
65 65 64 64 64 64 64 64 65 64 65 65 64 65 65 65 64 64 63 63 64 64 64 64 65 66 66 66 65 65 66 65 65 66 67 69 71 70 71 71 72 73 73 72 72 71 72 72 71 70 71 71 69 68 67 66 66 63 62 61 69 70 70
64 64 63 64 64 64 64 64 65 65 64 64 64 64 64 65 63 63 61 62 63 63 63 65 64 65 65 66 65 65 65 66 65 65 66 68 67 69 70 70 72 74 73 72 71 72 72 70 73 72 71 71 71 70 69 68 66 65 63 62 64 69 69
64 64 64 64 63 64 64 64 64 64 65 64 63 63 63 63 61 61 61 62 62 63 64 64 64 65 65 66 66 65 65 65 65 66 66 67 68 69 69 70 70 72 73 71 72 72 72 71 71 71 70 70 70 70 69 68 68 66 65 64 63 62 67
64 64 64 64 64 64 64 64 64 64 64 64 63 63 63 62 61 61 61 61 61 61 62 63 63 63 64 65 65 66 66 65 65 65 65 66 67 68 69 70 70 70 71 72 72 72 72 71 70 70 70 69 71 69 68 69 68 67 66 66 65 64 64
65 64 64 64 64 64 64 64 63 64 64 62 62 62 62 61 61 61 60 61 61 61 61 62 62 63 63 63 63 64 64 64 64 65 64 65 65 67 68 69 70 71 71 72 72 73 73 72 72 70 69 70 70 68 65 67 69 66 65 64 61 62 64
65 65 64 64 63 63 63 63 63 63 62 62 61 62 62 61 60 60 61 61 61 61 60 60 61 62 62 63 63 62 63 63 63 63 64 64 65 65 67 68 69 70 70 65 60 61 63 63 73 71 70 70 68 65 65 68 70 68 64 62 60 62 61
64 64 63 63 63 63 63 62 62 62 62 62 62 62 62 61 61 60 59 60 60 59 59 59 57 51 51 60 62 62 62 62 63 61 61 62 63 64 65 67 68 62 59 58 56 53 52 51 53 65 72 72 68 65 63 64 68 67 65 60 60 61 61
65 64 64 63 63 62 62 62 61 61 61 60 59 60 59 59 58 58 58 58 57 57 57 58 51 48 47 45 53 58 58 58 60 60 60 61 61 62 64 66 68 65 62 58 61 53 50 49 49 49 52 58 60 67 64 63 67 66 63 62 62 63 64
64 64 63 63 63 63 62 61 61 61 59 58 58 58 56 56 57 57 57 57 57 56 57 53 48 47 46 45 46 53 56 56 56 57 57 57 59 61 61 63 65 67 68 69 70 69 61 53 49 48 47 50 50 49 50 62 69 65 64 62 61 62 66
64 64 63 63 62 62 61 60 60 59 58 57 56 55 55 55 55 56 56 55 55 56 56 51 47 46 45 45 44 47 54 54 54 55 56 56 57 58 60 61 62 64 68 60 64 70 71 70 56 49 48 48 49 49 49 47 49 65 68 64 64 63 65
64 63 63 62 61 61 60 59 59 58 57 55 54 53 53 52 53 53 54 54 54 55 55 51 47 46 45 43 43 44 53 53 53 53 54 54 55 56 57 59 60 62 65 67 69 69 70 70 71 67 62 62 64 59 48 48 48 46 54 64 64 65 68
63 63 62 61 60 60 59 59 58 57 55 53 51 51 51 51 51 52 52 53 52 52 53 48 45 44 43 42 42 42 50 51 52 52 52 53 54 54 55 56 58 60 62 64 67 67 69 69 69 69 68 66 67 69 66 64 63 63 61 64 63 64 68
62 62 62 61 60 59 59 58 56 55 53 52 52 52 52 52 51 50 51 51 50 50 52 46 44 44 43 43 42 48 50 50 50 50 51 52 53 54 54 55 56 58 60 60 56 51 56 69 70 69 68 68 68 68 68 61 58 57 62 65 64 65 65
62 61 61 60 60 59 58 57 55 54 52 51 50 50 51 51 51 51 51 50 50 50 51 48 44 43 42 42 43 49 49 49 49 49 49 51 52 53 53 54 55 57 59 61 55 50 48 51 68 68 68 68 67 68 68 63 47 48 51 53 55 53 52
62 61 61 60 59 59 59 57 55 53 51 50 50 50 51 51 51 51 50 50 50 48 49 48 44 43 42 42 43 48 48 47 47 48 48 50 51 52 52 50 53 56 58 60 52 48 48 51 64 68 67 67 66 66 65 60 58 49 41 41 42 45 48
62 61 60 59 59 58 57 56 55 53 51 51 50 51 51 50 50 50 50 50 48 47 48 47 44 43 42 42 44 47 47 46 46 47 47 48 50 51 52 51 50 51 54 55 49 48 47 51 63 66 67 67 66 65 64 60 57 56 55 53 51 51 49
61 60 60 59 59 58 57 56 54 52 51 51 50 50 49 49 48 49 50 49 48 48 47 47 47 43 43 42 42 45 46 44 43 44 46 47 48 50 51 52 51 46 44 45 45 45 46 43 56 66 67 66 65 66 63 60 61 62 60 57 54 52 51
61 60 60 59 58 58 57 54 52 51 49 49 48 47 47 47 47 47 48 49 48 48 48 48 48 43 43 42 41 41 43 43 44 44 46 46 48 48 50 52 54 50 45 44 44 44 46 45 45 59 66 66 68 64 56 60 57 50 56 52 52 52 50
60 59 59 59 58 57 56 54 52 50 49 47 46 46 46 46 47 47 48 48 48 47 48 46 49 46 43 42 41 40 42 43 44 45 45 47 48 49 50 52 54 51 46 45 44 45 45 46 43 54 63 57 48 45 60 60 58 57 53 50 49 49 49
60 59 59 58 57 55 55 53 51 50 48 47 45 45 45 45 45 45 45 45 46 46 48 48 45 47 44 41 41 40 40 41 41 45 46 46 48 49 51 53 54 49 46 46 44 44 46 45 45 52 53 44 43 46 51 59 57 55 51 49 47 46 46
61 60 59 58 57 55 53 51 49 48 47 45 43 42 43 43 43 42 41 41 42 44 46 47 46 44 44 41 40 40 39 39 39 43 47 47 48 50 51 54 53 49 47 46 45 45 45 44 51 48 42 41 43 47 59 56 55 53 48 46 46 46 47

ECMWFFLT1_sfc_temp_012.txt.gz
Temp
66 64 66 66 66 66 66 67 67 67 69 70 69 69 69 69 69 69 69 68 68 69 69 69 68 69 69 70 70 70 70 69 67 65 65 66 63 63 64 63 63 65 68 69 70 67 65 63 66 72 74 73 74 75 76 76 77 76 73 73 77 77 75
67 66 67 68 66 66 66 66 65 67 67 68 69 69 69 70 68 68 68 68 67 68 69 69 69 70 69 68 68 68 68 67 68 67 66 66 66 65 63 62 63 63 64 65 67 67 65 64 66 67 67 72 71 70 73 75 76 73 74 74 76 78 74
67 67 67 66 65 66 65 65 65 66 66 66 67 69 68 69 69 69 67 67 66 67 67 68 68 67 67 67 67 67 68 67 67 67 66 67 67 68 68 66 64 64 65 65 64 64 64 65 63 66 67 67 65 68 71 72 75 74 74 73 73 76 74
66 66 65 64 65 65 65 65 65 66 65 66 65 66 67 68 67 68 67 66 66 66 66 67 66 68 67 67 67 68 67 67 67 67 66 67 67 67 67 66 66 66 65 64 64 65 64 63 62 64 67 71 69 67 70 73 75 78 78 74 73 73 73
65 65 64 64 65 64 64 64 65 65 65 66 66 67 66 67 66 66 67 66 65 65 65 65 66 67 67 68 67 67 67 68 68 68 67 65 66 66 66 66 66 67 67 67 68 68 66 64 64 63 64 67 69 72 74 73 76 77 78 78 77 75 75
65 65 65 65 65 64 64 64 64 65 65 65 65 66 66 66 66 65 65 64 64 65 65 65 65 66 66 66 66 66 66 67 67 67 66 66 66 64 66 67 67 67 67 68 69 68 68 67 65 62 65 65 62 63 68 71 70 77 78 77 78 78 76
65 65 65 65 65 65 66 65 64 64 64 64 65 64 65 65 65 65 65 64 64 64 65 64 64 65 65 66 66 65 66 66 66 66 66 67 66 65 66 66 66 67 68 68 68 67 66 65 62 61 62 62 64 64 66 68 71 71 74 77 78 79 77
65 64 64 66 65 64 65 65 65 65 64 64 64 65 66 65 64 64 63 63 63 63 63 63 64 64 64 65 65 64 65 65 66 66 66 66 67 67 65 64 65 65 68 69 68 67 67 66 65 63 62 59 60 62 61 65 66 69 71 76 79 78 77
65 65 65 65 65 65 65 64 64 64 64 64 64 64 64 64 63 63 63 63 63 63 63 63 63 63 63 63 64 64 63 66 65 65 66 66 66 66 66 66 65 65 66 66 68 68 68 67 65 64 63 61 58 56 60 60 62 62 68 67 75 79 78
64 64 64 64 64 64 64 64 63 63 64 64 64 64 63 63 62 62 62 62 62 62 62 62 63 62 62 62 62 62 62 64 64 65 65 65 66 66 66 66 65 67 67 68 66 68 68 67 66 65 64 62 61 58 56 57 58 60 68 73 68 74 79
64 64 64 64 64 63 63 62 62 62 62 63 64 64 63 62 62 63 62 61 61 62 61 62 62 62 62 61 62 62 64 64 64 65 65 66 66 66 66 67 66 64 67 66 68 68 67 67 66 65 64 64 63 60 59 57 58 62 62 65 67 71 73
64 64 64 64 63 63 62 62 62 62 63 63 62 61 61 61 61 61 61 61 61 62 62 61 62 61 62 61 61 61 62 63 63 63 64 65 66 66 66 66 66 66 66 66 66 67 67 66 66 66 64 65 64 63 61 59 57 60 63 61 64 70 69
65 65 64 63 62 62 63 62 62 62 61 62 61 62 61 61 61 61 61 61 61 62 62 62 62 62 61 60 60 60 61 62 63 63 64 65 67 67 66 65 66 66 67 66 66 65 65 66 66 66 66 65 64 64 62 61 58 59 63 63 64 68 66
64 64 64 63 62 62 62 62 62 62 62 61 61 61 61 62 62 61 62 61 62 61 61 61 61 61 61 60 61 61 61 62 62 63 63 64 65 67 67 67 67 67 68 67 67 66 66 67 67 66 66 65 64 64 63 61 59 59 62 64 63 64 66
64 64 63 63 62 62 62 61 61 62 60 61 61 61 62 61 61 61 61 61 61 61 61 61 61 61 60 60 60 61 61 61 61 61 62 62 64 65 66 66 67 68 69 68 68 68 68 67 66 65 64 65 64 63 63 61 60 59 59 62 61 64 62
64 63 62 62 62 62 62 62 62 61 61 61 62 61 61 61 62 62 61 61 61 61 61 61 60 60 60 60 60 60 60 61 60 60 60 61 62 64 64 64 65 67 68 67 67 67 68 68 69 67 66 66 65 65 64 64 61 59 59 60 62 62 61
63 62 61 61 61 62 62 62 62 61 62 61 61 61 62 62 62 61 60 60 60 60 60 60 60 60 60 60 60 60 61 61 61 61 61 61 61 62 62 63 64 66 67 66 66 67 68 68 67 68 67 66 65 65 65 64 64 62 61 59 61 62 61
62 62 61 61 61 62 62 62 62 62 61 61 62 61 61 61 60 60 59 60 60 60 60 60 60 60 60 60 60 60 61 61 61 61 61 61 61 61 61 61 63 65 66 65 65 66 68 67 69 68 67 68 66 65 66 65 64 64 62 60 61 62 62
62 62 62 61 61 62 62 62 62 61 62 61 61 61 60 60 60 60 60 60 60 60 60 59 59 59 60 60 60 60 60 60 60 61 61 61 62 62 61 61 62 64 64 64 64 65 66 67 68 68 68 68 68 67 65 65 65 64 63 62 61 60 61
62 62 61 61 61 62 62 61 61 61 62 61 60 60 60 60 60 60 60 60 60 59 59 59 59 59 59 59 59 59 59 59 60 60 61 61 62 62 62 62 62 62 63 64 64 64 65 65 66 66 67 67 68 68 64 63 64 64 63 62 62 61 59
62 62 62 62 62 61 61 61 61 61 61 60 59 60 59 59 59 59 59 59 59 59 59 59 59 59 59 59 58 58 59 58 58 59 60 61 61 61 62 62 62 62 62 63 64 65 65 64 65 66 67 67 67 66 65 63 61 61 61 62 62 60 59
63 62 62 61 61 60 60 60 60 60 59 59 59 59 60 60 59 59 60 59 60 59 58 58 59 59 58 58 58 58 58 58 58 58 59 59 60 61 61 62 62 62 62 60 56 55 57 58 63 63 64 65 65 65 65 65 62 60 59 59 59 60 58
63 62 61 60 60 60 60 60 59 59 59 59 59 59 59 58 58 57 57 57 57 57 57 57 55 50 49 54 55 56 55 55 55 55 55 57 58 59 60 60 61 59 56 55 54 52 50 50 51 56 61 63 62 62 61 60 61 61 60 59 59 59 57
62 61 61 60 59 60 60 59 58 59 58 58 57 57 57 57 55 55 55 55 55 55 55 56 50 46 46 45 49 52 53 53 54 54 54 54 54 56 57 58 59 59 58 55 56 52 50 50 49 50 50 51 53 60 60 59 60 60 59 58 58 59 58
62 61 61 61 61 61 59 59 58 58 57 56 56 56 54 54 54 54 53 54 53 53 54 51 47 46 45 44 45 50 52 52 52 53 53 52 53 54 55 56 57 57 59 60 61 61 57 52 50 49 49 49 48 46 48 57 59 58 59 58 58 58 58
62 61 61 61 60 59 59 58 57 57 56 55 54 54 54 53 52 52 52 51 51 52 52 49 46 46 45 43 43 44 49 51 52 52 52 53 53 53 53 54 54 55 57 55 57 59 60 61 54 50 50 51 50 49 47 44 47 57 61 59 60 59 58
61 60 60 60 59 59 57 56 56 55 55 55 53 52 51 51 51 51 51 51 51 51 51 49 46 45 44 44 43 43 47 48 49 50 51 52 53 53 53 52 52 53 55 56 57 58 59 60 61 62 59 59 61 59 51 48 46 44 50 60 59 58 60
60 60 60 59 58 57 56 55 55 55 54 54 51 50 50 50 51 51 51 51 51 50 51 47 44 44 44 43 43 44 47 48 48 49 49 50 51 51 52 52 52 52 53 53 55 55 57 58 59 59 60 62 63 62 63 62 58 56 55 57 60 61 61
60 60 60 58 58 57 55 55 54 54 53 53 52 50 50 50 50 50 50 50 49 49 51 46 44 44 43 43 42 46 48 48 48 48 49 49 50 50 51 51 52 52 52 52 51 47 48 52 53 54 54 56 59 63 64 59 56 56 60 62 61 62 62
59 59 59 58 57 56 54 54 54 54 52 51 49 50 49 49 50 50 50 50 49 49 50 48 44 43 42 42 42 46 46 47 47 47 47 49 50 50 51 51 51 51 51 52 49 46 45 46 51 52 53 54 55 59 62 64 55 50 50 52 53 53 53
60 59 58 57 56 55 55 54 55 54 52 51 50 49 50 49 50 50 49 49 49 48 48 48 45 44 43 43 43 45 46 45 45 46 46 48 48 49 50 49 51 51 50 51 47 45 44 46 50 51 52 53 53 55 59 63 62 55 49 49 50 50 49
59 58 57 56 55 54 54 53 54 54 52 50 48 49 50 49 49 49 49 48 48 47 47 47 45 43 43 42 44 46 46 45 44 44 45 45 47 47 48 49 48 48 49 49 45 44 43 46 49 50 52 53 53 53 57 60 56 54 53 53 53 53 51
59 58 57 55 54 54 54 54 53 50 50 50 50 50 49 49 47 47 48 48 47 48 47 48 47 43 43 43 42 45 45 44 43 43 44 45 44 46 47 48 48 44 43 43 43 43 43 43 46 49 50 51 52 53 58 59 57 57 56 56 57 56 56
57 57 56 55 54 54 54 53 52 49 49 49 48 48 47 47 46 46 47 47 47 47 47 46 46 43 42 42 42 42 44 44 44 44 44 43 44 43 44 46 47 46 43 42 42 42 42 43 44 47 48 48 50 53 50 54 54 49 57 56 55 55 53
58 57 57 56 54 52 53 53 51 49 49 48 47 46 46 46 45 45 45 45 45 46 47 46 45 43 42 41 41 41 42 43 44 44 42 42 43 43 44 45 46 46 43 43 42 42 42 42 42 46 48 45 44 44 48 51 54 53 55 54 53 51 50
58 59 57 56 54 52 52 51 50 49 48 46 46 45 45 44 43 43 43 44 44 44 44 45 43 43 42 41 40 40 40 41 41 42 41 40 41 43 44 45 46 44 43 43 42 42 42 41 42 45 43 43 43 43 44 48 51 52 51 52 50 49 49
58 57 56 55 53 52 51 50 49 48 47 46 45 43 43 43 42 41 41 41 41 42 43 42 42 41 41 40 40 39 39 39 39 41 42 42 42 43 43 44 45 43 43 43 42 42 42 42 44 43 42 42 42 43 46 48 50 51 49 48 47 48 48

ECMWFFLT1_sfc_temp_015.txt.gz
Temp
58 57 57 57 56 58 58 60 60 60 61 61 61 60 62 63 62 60 61 60 60 62 63 62 61 62 63 63 62 63 63 63 63 62 61 62 61 61 63 63 63 63 63 63 63 62 59 58 60 64 67 67 69 71 73 72 73 72 69 70 72 72 70
59 59 58 60 59 58 57 59 58 62 60 63 62 62 61 62 63 62 60 59 59 59 61 62 62 62 61 61 61 62 61 62 62 63 62 61 62 61 61 60 61 61 62 62 63 63 61 59 59 61 63 66 66 66 69 72 72 71 71 71 73 74 71
60 59 58 57 57 56 57 56 58 58 58 59 60 62 62 61 61 60 60 59 59 60 62 60 60 60 61 61 61 60 60 59 61 62 62 62 62 63 63 62 60 60 60 60 60 61 61 62 58 60 60 60 61 64 66 67 70 70 71 70 71 73 72
58 58 57 56 57 56 56 56 56 57 57 57 58 59 60 61 61 61 60 59 59 60 60 60 59 59 60 60 61 62 61 61 61 61 61 61 62 62 62 62 62 61 60 59 60 61 61 60 58 59 62 64 63 62 64 67 70 73 72 70 71 71 72
59 59 57 58 57 57 56 56 57 56 56 58 57 58 58 58 59 60 60 60 59 58 58 58 59 60 61 60 60 60 60 60 61 61 61 60 61 62 62 63 63 63 63 62 63 63 61 61 60 59 60 63 65 66 68 64 66 69 71 71 72 72 71
59 59 57 57 57 57 56 55 55 56 56 57 56 57 57 58 57 58 59 58 57 56 57 57 57 57 58 58 59 59 60 59 60 60 60 60 61 60 61 62 63 63 64 65 64 63 63 62 61 60 62 64 60 60 63 65 62 66 70 70 73 73 73
58 58 57 58 57 57 57 57 56 55 55 54 54 55 57 58 58 58 58 57 57 56 57 56 56 57 57 58 59 59 59 60 59 59 59 60 59 60 61 61 62 63 63 64 64 64 63 61 59 59 60 60 61 61 63 62 64 65 66 70 71 72 72
58 57 57 58 58 57 57 57 57 56 56 54 55 55 57 57 57 57 58 57 56 56 56 56 58 57 57 58 58 58 59 59 60 60 60 59 60 61 60 61 61 62 62 64 63 63 64 63 63 61 59 58 57 57 58 60 61 64 64 67 71 73 72
59 59 58 57 57 58 57 56 55 54 54 54 55 57 57 57 56 57 56 56 55 55 55 55 55 55 55 56 56 57 56 60 59 58 58 59 59 59 60 61 61 61 62 62 63 64 64 63 63 62 61 59 57 55 56 56 58 60 66 64 66 70 71
58 57 57 56 56 57 57 55 54 54 54 54 55 56 56 56 55 55 55 55 55 55 54 55 55 54 55 55 56 55 56 57 58 58 59 59 59 60 60 60 60 61 61 62 63 63 63 63 62 62 62 61 60 57 56 55 55 56 61 67 63 63 70
58 57 56 57 56 56 55 55 54 55 54 54 55 57 57 56 55 58 55 54 53 54 55 56 56 56 56 55 56 56 56 57 56 57 58 59 59 59 60 60 61 61 62 62 62 63 63 63 62 62 62 62 61 59 58 56 56 57 58 62 66 66 66
57 57 56 56 56 56 55 54 54 54 53 54 55 54 55 54 54 54 53 53 53 53 53 54 54 54 55 54 55 55 55 55 55 56 57 58 59 60 59 59 60 60 61 62 62 62 62 62 62 62 62 62 62 61 60 58 56 58 61 59 61 65 65
57 57 56 56 56 55 55 54 54 53 53 53 53 54 53 53 53 52 53 53 53 52 52 53 53 53 54 54 54 54 55 55 55 55 56 58 60 60 59 59 60 60 61 61 61 62 62 62 62 62 63 62 61 61 60 59 57 59 60 60 60 63 65
56 57 56 55 55 54 53 54 53 53 53 53 52 53 53 52 52 52 52 53 52 52 52 52 52 52 53 53 54 53 54 54 55 55 56 57 58 59 59 59 59 61 61 60 61 62 62 62 62 62 62 61 61 61 60 59 58 58 61 59 60 61 63
56 56 56 54 55 54 53 54 52 53 53 52 53 52 52 52 52 53 52 53 53 52 52 52 52 51 51 51 52 55 55 55 54 55 54 55 56 58 58 57 58 59 61 61 61 62 63 62 62 62 61 61 61 61 62 60 59 59 59 57 60 59 60
56 56 55 54 54 54 54 52 53 53 52 52 52 52 53 52 53 52 51 52 51 51 52 52 51 52 51 52 52 53 54 53 53 54 54 54 55 57 57 57 57 58 59 60 60 62 62 63 63 62 62 62 61 62 62 62 60 59 58 59 59 59 58
56 55 55 53 54 53 53 53 53 53 53 52 52 52 52 52 52 51 51 51 51 50 52 52 52 51 52 51 52 53 54 54 54 54 54 55 55 55 55 55 56 57 58 58 59 60 61 62 62 62 62 62 61 62 62 62 62 61 60 59 58 60 58
55 54 54 53 53 53 53 53 53 53 52 52 52 51 52 52 51 51 52 51 51 51 51 51 50 50 51 51 52 53 53 53 53 54 55 55 56 56 55 55 56 56 56 56 57 58 59 60 62 62 62 62 61 62 62 62 61 62 61 59 59 59 59
55 54 54 53 53 53 53 52 52 52 52 52 51 51 51 50 52 51 51 50 50 50 50 50 51 51 51 51 52 53 53 53 54 54 54 55 55 55 55 56 57 57 56 56 57 57 58 59 60 61 62 62 62 61 61 62 61 61 60 60 60 57 58
54 54 54 53 53 53 52 52 52 52 52 52 50 50 50 51 50 51 50 50 51 52 52 51 51 51 51 52 52 52 52 52 52 53 54 54 55 55 55 56 56 56 56 56 56 57 57 57 58 58 60 61 62 61 58 59 60 60 59 59 60 60 58
54 54 54 53 53 53 52 51 51 51 52 51 51 50 50 51 50 51 50 49 49 50 50 50 51 51 52 53 52 51 52 52 52 52 51 52 53 53 54 54 55 56 57 57 57 57 57 57 58 57 58 58 59 60 60 58 57 58 58 59 58 58 57
54 54 54 53 52 52 51 50 50 50 51 51 51 50 51 51 50 48 47 48 48 49 49 50 52 52 50 50 51 51 51 52 53 53 53 54 53 53 53 53 53 54 56 55 51 51 52 54 57 56 56 56 56 55 55 56 55 55 57 58 58 58 56
54 53 53 52 51 50 50 50 50 49 49 49 49 50 50 49 47 46 46 45 46 48 48 49 50 47 46 47 47 48 48 48 49 49 49 50 51 52 52 52 53 54 52 51 51 49 47 47 48 52 55 56 54 54 53 52 54 55 56 56 57 58 56
53 53 51 51 49 50 50 50 49 48 48 49 49 49 48 45 45 45 45 45 45 46 47 48 46 44 44 45 47 46 46 46 47 47 47 47 48 49 50 52 52 53 53 52 52 49 47 46 45 45 46 48 50 53 53 52 52 53 55 56 57 58 57
52 51 51 51 50 50 50 48 48 47 47 48 48 47 45 44 44 45 46 45 44 44 45 47 44 44 44 44 45 47 46 46 46 46 47 47 48 48 49 49 51 51 52 52 53 53 51 49 47 46 46 45 45 45 46 51 53 53 54 55 56 56 57
51 51 51 51 50 49 48 47 47 47 48 46 46 44 42 44 45 45 45 44 42 43 44 45 44 44 44 43 43 45 47 47 46 46 46 47 47 47 47 48 49 50 51 52 53 52 52 52 49 48 47 48 48 48 46 45 45 52 56 55 55 56 57
51 49 49 48 47 47 47 45 45 46 46 46 43 41 44 44 44 43 43 42 42 43 44 45 44 44 43 42 42 43 46 46 46 46 45 46 46 46 46 47 47 47 49 50 51 51 51 51 51 51 52 53 54 53 48 47 46 43 47 54 55 56 58
49 48 48 47 46 46 45 44 46 45 45 44 41 41 41 44 42 43 41 41 42 43 45 45 43 43 43 42 42 41 44 45 45 45 45 46 46 46 46 46 47 47 47 48 49 50 50 50 50 50 50 50 51 51 52 53 54 54 49 49 53 56 59
48 47 47 47 46 46 45 45 47 44 43 41 41 41 42 42 41 39 40 40 41 42 43 43 42 42 41 41 41 44 45 45 44 44 45 45 46 46 46 46 47 47 48 48 48 45 46 48 48 48 48 49 49 50 51 51 50 50 52 53 54 55 57
48 46 47 46 45 45 44 45 43 43 40 39 40 41 42 41 40 40 40 40 40 41 41 43 42 42 42 42 42 44 44 44 44 44 44 45 45 46 46 46 46 46 47 48 47 43 43 44 48 48 48 48 48 48 49 52 50 48 48 47 46 47 49
47 46 45 45 44 43 43 42 42 42 40 39 40 42 40 39 39 39 40 40 41 42 42 44 43 42 42 42 42 42 43 43 43 43 44 45 45 46 46 47 48 47 47 47 45 43 42 44 47 47 47 47 46 46 47 50 52 53 50 49 48 45 45
46 45 45 44 44 43 44 45 41 40 40 39 40 38 40 40 39 40 40 41 45 44 42 43 43 42 42 41 42 41 41 41 40 41 41 42 43 43 44 46 46 46 46 46 43 43 42 44 47 47 47 47 46 45 47 48 49 51 52 53 54 53 49
48 47 44 42 42 44 47 42 39 40 39 40 39 38 40 38 38 39 40 41 42 42 42 42 43 42 42 41 41 41 41 39 39 39 40 40 40 42 43 44 45 43 42 41 41 41 42 42 45 46 46 45 45 45 48 48 49 51 51 51 51 52 52
46 45 44 44 44 46 43 41 39 38 38 38 38 37 37 37 38 39 40 41 42 42 43 42 42 42 41 41 41 40 40 40 40 40 39 39 40 40 41 42 44 44 42 42 41 41 41 41 42 45 46 45 46 47 46 47 47 45 48 48 48 48 50
46 47 45 44 44 43 41 40 39 38 36 37 37 36 36 36 37 38 39 40 41 41 43 44 42 42 41 41 40 40 39 40 41 40 38 38 39 39 40 41 42 43 42 41 41 41 41 41 40 44 45 43 43 42 45 47 47 47 47 47 46 46 47
46 48 46 44 42 42 40 39 38 37 36 36 38 36 36 36 36 37 38 39 40 40 40 41 42 41 41 40 40 39 39 39 39 40 38 37 38 39 40 41 43 42 41 41 40 40 40 40 41 43 41 41 41 41 42 45 45 44 44 44 44 44 45
47 46 44 44 45 41 38 38 37 38 36 38 36 35 34 36 34 35 37 38 38 39 39 39 41 40 40 39 39 39 38 38 38 38 39 38 39 39 40 40 41 40 40 40 40 40 40 40 42 41 40 40 40 41 44 44 43 43 42 41 42 43 44

ECMWFFLT1_sfc_temp_021.txt.gz
Temp
54 54 51 50 49 52 51 54 53 54 52 53 55 54 54 56 54 53 53 54 55 57 57 55 54 55 56 57 57 56 57 57 57 57 56 57 57 58 61 60 61 62 62 62 62 58 57 55 58 63 65 62 62 63 64 65 65 65 64 63 65 65 64
53 52 52 55 53 53 52 54 53 52 53 51 52 53 53 55 58 53 52 53 54 55 57 56 54 55 54 54 54 55 54 55 56 55 54 54 55 56 57 58 59 60 61 61 61 61 58 56 57 58 60 63 63 64 63 63 64 64 64 64 65 66 65
52 51 51 52 51 51 53 53 51 52 51 52 53 53 53 53 54 54 52 52 52 55 55 52 53 53 53 53 52 53 53 53 53 54 54 54 54 54 56 57 58 58 59 60 60 60 60 59 56 56 58 57 57 61 62 64 64 63 64 64 64 65 66
52 52 52 51 50 51 52 52 52 51 49 51 50 53 52 53 53 55 52 53 53 55 54 53 52 53 52 52 52 52 52 52 52 52 52 53 53 53 54 54 55 56 56 56 57 59 58 57 57 58 60 61 60 59 63 65 65 66 66 64 64 65 66
53 54 53 53 51 52 50 52 50 51 51 50 50 51 52 50 53 51 52 52 53 51 52 51 52 52 52 52 52 52 51 51 51 53 51 52 51 52 52 54 54 54 55 56 58 59 58 58 58 57 58 60 60 61 64 63 64 65 66 66 67 67 67
54 54 53 53 52 52 50 50 50 51 50 54 51 52 51 51 52 52 52 52 51 52 51 52 51 51 51 51 52 51 51 51 51 50 51 50 50 51 52 53 54 54 54 55 56 58 58 58 58 56 58 60 57 59 61 61 60 63 65 66 67 68 68
54 54 53 54 52 52 52 52 52 51 50 50 51 51 50 50 51 52 52 51 50 51 53 52 51 51 51 52 51 51 51 51 51 51 51 51 51 51 51 52 52 52 53 54 55 56 57 57 56 56 56 57 57 57 59 59 60 61 63 64 66 67 67
54 54 54 54 53 52 51 52 52 50 50 51 49 50 51 50 50 50 50 49 50 50 51 51 52 50 50 51 51 51 51 50 50 50 50 50 51 50 50 51 51 52 52 54 54 55 56 57 57 57 56 54 55 56 56 56 57 58 61 65 66 66 67
56 55 54 54 52 53 53 53 52 51 52 50 48 50 50 50 50 50 50 48 49 49 50 50 50 50 50 50 50 50 50 52 50 50 50 49 50 49 49 50 50 51 52 53 54 55 56 56 57 58 57 56 53 52 55 54 54 55 59 60 61 64 66
54 54 54 53 53 52 53 52 52 52 50 49 51 50 50 49 48 48 49 48 48 48 49 49 50 49 49 49 49 49 49 49 50 49 49 50 50 50 50 50 50 51 51 52 53 54 55 56 56 57 57 56 56 53 52 52 55 55 57 58 58 58 61
55 55 54 54 53 53 51 51 50 51 51 51 52 53 50 48 51 52 47 49 47 49 48 48 49 49 49 49 49 48 49 49 49 49 49 50 50 50 50 51 50 51 52 51 53 53 53 55 55 56 56 57 57 55 55 53 54 57 57 56 58 59 60
55 55 54 54 53 53 52 52 52 52 49 50 53 50 48 48 47 47 48 48 48 47 47 48 49 49 48 48 49 49 49 48 48 48 48 49 49 50 49 49 50 50 51 51 52 53 53 53 54 55 55 56 57 57 56 56 53 58 60 57 56 59 58
56 55 54 53 52 53 53 52 51 50 50 52 50 49 49 48 48 49 47 48 48 47 47 48 47 47 47 47 47 49 49 47 47 47 47 48 50 49 48 48 49 50 50 50 51 52 51 53 53 53 54 55 55 56 56 55 54 55 58 57 58 59 60
55 55 54 53 54 53 52 52 51 52 50 50 50 49 49 48 47 47 47 49 50 48 47 47 47 46 46 47 47 46 47 47 47 47 47 47 48 48 48 48 48 49 49 49 50 51 51 52 52 53 53 53 54 54 55 54 53 53 57 58 58 58 60
55 54 54 53 53 52 51 51 51 50 51 50 50 50 49 48 47 47 47 47 47 47 47 46 46 45 46 46 46 48 48 47 46 47 47 48 49 49 47 47 48 48 49 49 49 50 51 51 52 51 51 52 51 53 54 53 53 53 53 58 57 57 57
54 53 54 53 53 52 51 51 51 52 51 50 49 51 49 48 48 46 47 47 46 46 46 46 45 45 45 45 44 45 46 45 45 46 46 47 48 48 48 48 48 48 50 48 48 49 49 50 51 51 51 52 51 52 53 54 54 52 52 54 57 57 57
54 53 53 53 53 52 51 51 51 52 51 50 50 49 49 48 48 47 47 46 45 46 46 45 45 45 45 45 44 44 44 44 44 44 45 45 46 47 47 47 48 48 48 47 47 47 48 48 49 49 49 50 50 50 52 53 55 54 54 52 55 56 58
54 54 54 53 52 51 51 51 51 52 50 50 50 49 48 46 47 46 48 47 45 44 44 44 44 44 44 44 44 44 44 44 44 44 44 44 48 46 46 46 47 47 46 46 46 47 47 46 48 48 48 49 49 50 50 51 52 54 53 51 52 54 55
54 54 54 52 51 51 51 51 51 51 51 51 48 48 48 47 49 46 46 44 44 44 43 43 43 44 44 44 43 43 43 44 44 43 43 44 44 45 45 45 46 46 46 46 46 46 46 46 47 47 47 48 48 48 48 48 50 50 50 50 50 50 52
55 53 52 51 51 51 51 51 51 50 50 50 49 47 46 46 47 46 44 44 44 45 44 44 43 42 42 42 43 43 42 42 42 42 43 44 44 44 44 45 45 45 45 45 45 46 46 46 47 46 47 47 47 47 46 46 47 47 48 48 49 49 49
54 52 51 51 51 51 51 50 51 50 49 48 48 47 46 47 46 44 44 44 44 44 43 42 41 41 41 42 42 42 41 42 42 42 42 43 43 44 44 44 45 45 45 45 45 46 45 46 46 46 46 46 46 46 46 45 45 45 45 46 46 47 48
53 52 51 51 50 50 50 50 50 49 49 48 48 47 46 46 44 43 42 43 43 43 43 43 42 42 42 41 40 41 41 42 42 42 42 42 43 43 43 44 44 44 47 50 49 48 48 47 46 45 46 45 45 45 44 44 44 43 43 44 44 46 46
52 51 51 50 50 50 50 49 49 48 48 47 46 45 44 44 44 43 42 41 40 42 42 42 46 46 46 43 41 42 42 42 42 41 42 41 42 42 43 43 45 49 48 48 47 45 44 44 46 46 46 45 45 44 44 43 43 43 43 43 43 44 44
51 51 51 51 50 50 49 49 48 47 46 45 45 45 44 43 41 41 41 40 39 41 41 43 45 42 41 43 43 41 41 41 40 40 40 40 40 42 42 42 42 45 47 47 46 45 44 43 43 43 44 45 46 46 44 43 44 43 43 43 43 43 43
51 51 51 51 50 50 49 48 47 46 44 43 44 44 42 40 40 40 40 38 38 40 41 45 41 41 41 41 43 42 41 40 40 40 40 40 40 41 41 41 42 43 44 44 45 45 45 44 43 43 42 42 42 42 43 45 45 44 43 43 43 43 43
50 50 51 51 50 50 49 48 45 44 44 43 42 41 40 41 40 39 39 38 39 40 39 42 41 41 41 41 41 41 40 39 39 39 39 39 40 40 41 41 42 42 43 46 47 45 44 44 44 43 43 43 43 43 41 40 42 45 46 44 44 44 44
50 50 50 49 48 49 48 47 43 42 42 41 40 40 40 40 38 38 37 38 38 38 38 42 41 41 41 41 40 40 40 39 39 39 39 40 40 40 40 40 41 41 41 42 43 43 43 42 42 43 43 43 44 44 43 42 41 40 42 45 45 44 46
50 48 47 47 47 46 44 40 41 41 41 40 40 40 39 38 38 38 37 35 36 37 38 41 40 40 40 40 40 40 39 40 39 39 39 39 40 40 40 40 40 40 40 40 41 42 41 41 41 42 42 42 42 43 44 44 44 45 44 43 44 45 47
48 49 48 45 44 43 43 43 40 40 39 38 38 38 37 39 38 37 36 34 36 35 35 39 39 40 40 40 40 40 39 38 38 38 39 39 39 39 39 39 39 39 39 39 42 41 42 42 41 41 40 41 41 42 43 45 45 45 46 47 46 46 46
46 46 45 45 44 43 42 41 40 41 41 39 38 38 39 38 37 35 36 36 34 33 33 38 40 40 40 40 40 39 38 38 38 37 38 38 39 39 39 39 39 39 39 39 41 40 40 40 40 39 39 39 40 41 41 44 44 43 43 43 43 44 44
45 45 46 45 43 42 42 41 41 42 41 38 37 38 38 37 35 35 35 34 33 34 34 38 40 40 40 40 40 38 38 37 36 36 37 37 37 38 39 43 43 41 39 39 40 39 39 40 39 38 38 38 38 38 40 42 44 44 44 43 42 42 42
45 44 44 43 42 41 41 40 39 38 39 39 38 37 39 36 35 33 33 34 41 38 34 37 40 39 40 40 40 38 37 36 35 35 36 36 38 38 39 42 42 42 41 40 39 39 39 39 38 38 37 37 36 36 38 40 41 41 42 43 43 43 42
45 44 43 42 42 41 40 39 37 38 38 39 38 36 38 36 34 34 34 35 34 34 34 34 38 39 40 40 40 39 38 35 35 36 37 38 38 39 40 40 41 40 39 38 38 38 38 38 38 38 38 36 36 35 39 40 42 42 43 43 44 45 44
45 45 44 42 41 40 40 38 36 38 37 36 36 36 35 34 34 34 32 33 32 32 35 35 37 39 39 40 39 39 37 36 37 38 38 38 38 37 38 39 39 40 39 39 38 38 38 38 38 39 38 37 38 39 40 39 40 42 42 43 43 44 44
45 44 43 41 39 36 35 37 37 36 34 34 35 35 33 34 32 32 31 31 32 32 35 40 37 39 39 39 39 39 38 38 39 38 37 37 37 37 37 38 38 39 38 38 38 38 38 38 38 39 39 38 38 38 39 40 40 40 40 41 42 42 43
45 44 43 41 39 36 35 36 34 34 33 33 33 33 32 31 31 30 30 30 30 31 32 35 39 38 39 39 38 38 38 38 38 39 37 36 36 37 38 38 39 39 38 38 38 38 38 38 38 38 38 37 37 37 38 39 39 39 39 39 40 40 42
46 44 42 40 39 37 36 35 35 35 34 34 33 33 32 31 30 30 30 30 32 31 32 31 36 38 38 38 38 38 37 37 37 38 38 36 37 37 37 38 38 38 37 37 37 37 37 37 37 37 37 37 37 37 38 38 38 38 37 37 38 39 40

ECMWFFLT1_sfc_temp_024.txt.gz
Temp
53 54 50 49 47 51 52 52 53 52 52 52 53 54 54 56 55 53 54 55 56 56 57 55 54 54 55 56 56 56 56 57 57 56 55 56 55 56 59 59 60 62 62 62 62 59 57 56 58 63 65 64 65 65 65 66 66 66 66 66 67 67 67
52 52 51 53 51 52 51 51 52 52 52 52 52 53 53 56 58 54 54 54 54 55 56 54 54 54 54 53 54 54 54 55 56 56 55 55 55 55 56 56 58 58 60 61 61 61 58 56 57 59 59 64 64 65 64 65 66 66 66 66 67 68 67
52 50 51 51 50 50 52 51 51 52 50 52 50 51 53 53 54 55 54 54 54 55 55 53 54 53 53 53 53 53 53 54 53 55 54 54 55 55 55 56 55 56 57 58 59 58 59 60 56 58 60 59 58 61 64 65 66 67 67 66 66 67 67
50 51 51 51 50 50 52 51 52 51 50 51 48 50 51 52 55 56 54 54 55 57 55 54 53 54 53 53 53 53 53 53 53 53 53 53 54 54 54 54 54 55 54 54 55 56 56 55 55 56 58 60 59 59 63 65 65 67 68 67 67 66 66
52 53 53 52 51 52 51 51 49 50 51 51 50 52 52 52 54 53 54 53 53 52 53 53 53 53 53 53 53 54 53 52 53 53 52 52 52 52 53 54 54 55 55 55 56 56 55 55 55 54 56 58 59 61 64 63 66 66 67 68 69 68 68
53 54 54 53 51 52 50 50 49 51 50 53 53 54 53 51 53 53 53 53 53 54 52 52 52 52 52 53 53 52 52 53 52 52 52 52 51 52 53 53 54 54 55 56 56 56 56 56 56 54 57 59 55 57 61 62 61 65 68 68 69 70 70
53 53 53 54 52 52 51 52 52 52 52 53 51 52 52 50 52 54 54 53 52 52 53 52 52 53 52 53 52 52 52 52 51 52 52 52 51 52 52 52 53 53 54 55 55 56 55 55 54 53 53 55 56 56 59 60 61 62 63 66 68 69 68
54 53 53 54 53 52 51 52 52 50 52 51 51 52 51 52 52 51 52 52 51 51 52 52 52 51 52 53 53 51 52 51 51 52 51 51 52 52 52 51 52 53 53 54 54 55 56 56 55 55 54 52 53 55 55 58 60 60 62 64 68 68 68
55 54 53 53 52 53 52 53 53 51 52 51 50 50 51 52 52 52 52 51 50 51 52 51 51 51 51 52 51 50 51 53 51 51 51 51 51 51 51 51 51 52 53 53 54 55 55 56 56 56 55 54 51 50 54 54 55 57 60 62 63 66 68
53 53 54 53 52 52 52 52 53 52 51 50 51 51 52 50 52 51 51 50 50 50 50 51 50 50 50 51 51 50 51 50 51 51 50 50 51 51 51 51 52 52 53 53 53 54 55 55 56 56 56 55 54 51 50 51 54 55 58 61 61 62 64
54 54 54 53 52 52 51 51 51 51 51 51 52 53 52 51 51 54 50 50 49 49 50 50 50 50 50 50 50 50 50 50 50 50 51 52 50 51 52 51 51 52 53 52 53 53 54 54 55 55 56 56 56 53 52 50 51 57 57 59 61 63 64
53 54 54 53 52 52 52 51 52 53 51 50 52 52 51 51 51 50 50 49 49 49 48 49 49 49 49 49 51 50 49 49 50 50 50 51 52 52 51 50 51 51 52 52 52 53 53 53 54 54 54 55 55 55 54 53 49 56 61 58 59 61 61
55 54 54 53 52 53 53 52 52 51 51 52 52 52 52 51 51 50 49 49 48 48 48 48 48 48 48 48 48 48 49 48 49 49 49 49 50 50 50 50 50 51 51 52 52 52 52 53 53 53 53 54 54 55 55 53 51 52 57 57 58 60 62
54 54 53 53 53 53 53 53 52 53 51 51 51 51 52 52 51 50 49 51 50 49 48 48 48 47 48 47 47 48 47 48 48 48 49 48 49 50 50 49 50 50 51 50 51 52 52 53 53 53 53 53 53 54 54 53 51 51 56 58 58 59 61
55 54 54 53 54 54 53 52 52 51 52 52 52 52 52 51 51 50 50 49 48 47 47 47 46 47 47 46 47 48 47 47 47 47 47 48 48 49 48 48 49 49 50 50 50 51 52 52 52 52 52 52 52 53 53 52 51 51 51 56 55 58 58
55 54 54 54 53 54 53 52 52 52 52 51 51 53 52 51 50 50 50 48 47 46 47 46 46 46 46 47 47 46 46 46 47 46 46 47 47 48 48 48 48 49 49 49 49 50 50 51 52 51 51 52 51 52 53 53 51 50 50 52 56 56 57
54 54 54 54 54 54 53 51 51 52 52 51 51 51 50 50 49 49 49 48 47 46 46 46 46 46 46 46 45 46 45 45 46 46 47 47 46 47 47 47 48 48 48 48 48 49 50 50 50 51 51 51 51 51 52 52 52 50 50 49 53 54 55
55 54 54 55 54 53 51 51 51 52 51 50 51 50 50 49 49 49 49 48 47 46 46 45 46 46 45 45 45 45 45 45 45 46 46 46 48 48 47 47 47 47 47 46 47 48 49 48 50 50 50 51 51 51 51 51 51 51 50 49 50 52 54
55 55 55 55 54 52 51 51 51 51 52 51 50 50 50 49 50 49 48 47 47 46 46 46 46 46 45 45 44 44 45 46 46 45 46 46 46 46 46 46 47 47 46 46 46 47 47 47 48 48 49 50 51 50 49 49 50 49 49 49 49 49 51
55 55 55 55 53 52 51 51 51 51 51 52 50 49 49 49 49 48 47 46 46 47 46 45 45 44 44 43 44 45 44 44 44 44 45 45 45 45 45 46 46 46 46 46 46 46 46 46 47 47 48 48 49 49 48 48 48 48 48 48 49 49 49
53 53 52 51 51 51 52 52 52 52 51 50 50 50 49 49 48 47 46 47 46 46 45 44 43 43 43 43 45 44 43 44 44 44 44 44 44 45 45 45 45 46 46 46 46 46 46 46 47 47 48 47 48 47 47 47 47 47 46 47 47 47 48
53 52 52 52 50 50 51 51 51 51 51 51 50 50 49 48 47 45 45 45 44 44 44 44 44 43 44 44 43 43 43 43 43 43 43 44 44 44 44 44 45 45 47 48 47 47 47 47 47 46 47 47 46 46 46 46 46 45 46 45 46 47 46
52 52 52 51 51 51 51 50 50 50 50 50 49 48 47 47 47 46 44 43 44 45 44 44 47 43 44 45 43 43 42 43 43 42 42 42 43 43 43 44 45 47 47 47 46 45 44 44 45 47 47 47 46 45 45 45 45 45 45 44 45 45 44
51 52 52 51 50 50 50 50 50 50 49 48 47 47 46 45 44 43 43 44 43 43 42 45 42 41 41 42 43 43 42 42 42 41 41 41 41 42 43 44 43 45 46 46 46 44 43 43 43 43 43 44 46 46 45 44 44 44 44 44 45 44 44
50 50 50 50 50 50 50 49 49 49 47 46 46 46 44 43 42 43 43 42 42 42 43 44 40 42 41 41 42 43 42 41 41 41 41 41 41 42 42 42 43 44 44 45 45 45 45 43 42 42 41 41 41 41 43 45 45 44 44 43 43 44 44
50 49 50 50 49 49 49 49 47 46 47 46 45 44 42 43 43 42 43 42 41 43 43 43 41 41 41 41 40 41 41 41 40 41 40 41 40 41 41 42 42 43 43 45 46 46 45 45 44 43 42 42 42 41 40 39 41 45 46 44 43 43 44
49 49 49 48 48 49 49 49 47 46 45 43 42 41 42 42 42 42 42 42 41 40 41 43 41 41 40 40 39 40 41 40 40 40 40 40 40 41 41 41 41 41 42 43 44 43 44 44 44 44 44 44 45 44 42 41 40 40 42 44 44 43 46
48 47 47 47 47 48 48 46 45 44 43 42 41 41 40 41 41 42 41 40 40 40 40 42 40 40 39 39 39 39 40 39 39 39 39 40 40 40 41 41 41 41 41 41 42 43 43 42 42 42 42 42 43 44 44 45 45 45 45 45 45 45 46
47 46 46 46 47 47 45 45 42 41 41 40 40 40 40 42 41 40 39 38 39 39 36 38 39 39 39 39 39 41 39 38 38 39 39 39 40 40 41 40 40 40 41 41 41 40 41 43 42 41 40 41 42 43 43 44 44 44 46 47 47 47 47
46 45 46 46 46 46 45 43 41 42 41 41 41 41 41 41 41 40 38 38 37 37 35 37 38 39 39 39 39 39 38 38 38 37 38 39 39 40 40 40 41 40 40 40 40 38 39 40 41 40 39 39 40 40 41 44 43 41 41 41 42 42 42
46 46 47 47 46 45 44 43 42 44 43 42 41 41 41 39 38 39 39 37 37 37 35 36 39 39 39 39 40 39 38 37 37 37 37 38 38 39 40 41 42 42 41 41 40 38 38 40 40 39 39 38 38 38 39 42 42 43 42 41 41 40 40
46 46 45 43 43 42 42 42 42 44 43 43 41 40 40 40 37 36 37 36 41 38 35 38 39 38 39 39 40 39 38 37 36 36 37 37 38 39 40 41 42 42 42 41 39 39 38 40 40 39 38 38 36 36 38 40 40 40 41 41 42 43 43
45 45 44 43 42 41 40 40 40 41 40 41 40 39 40 39 39 36 35 37 38 38 36 35 38 38 39 39 39 40 39 36 36 36 37 37 37 39 40 40 41 39 38 38 38 38 38 38 39 39 39 37 36 35 40 40 40 40 40 40 41 42 43
45 45 46 44 44 42 41 39 38 39 38 38 38 37 37 36 35 34 33 34 33 34 36 36 37 38 38 39 39 39 38 37 37 37 37 37 37 37 38 39 40 40 38 38 38 38 38 38 38 39 39 38 38 39 40 39 39 39 39 39 40 41 42
44 43 43 42 41 40 40 41 42 39 37 37 37 36 35 36 35 34 32 32 34 34 36 39 37 38 38 39 38 38 38 38 38 38 37 37 37 37 38 38 39 39 38 38 37 37 37 37 37 39 38 38 38 37 38 40 39 39 39 39 39 39 39
44 44 43 42 41 38 39 39 38 37 36 36 36 35 33 33 34 34 33 34 34 33 33 35 38 38 38 38 38 38 38 38 37 39 37 36 36 37 38 38 39 39 37 37 37 37 37 37 37 38 37 37 37 37 37 38 38 37 37 37 37 36 37
43 42 42 41 40 38 37 37 37 37 37 37 36 35 33 32 33 34 35 36 36 36 35 33 35 36 37 37 37 37 37 37 37 38 38 37 37 38 37 38 38 37 37 37 36 36 36 36 37 36 36 36 36 37 37 37 36 36 36 35 35 35 36

ECMWFFLT1_sfc_temp_027.txt.gz
Temp
67 66 66 66 66 67 68 67 68 68 68 70 69 69 69 69 68 68 68 67 67 68 68 67 66 66 66 66 65 66 66 66 66 65 64 65 63 63 64 63 63 63 64 64 63 60 59 58 60 66 69 69 69 70 71 71 72 72 72 73 76 77 76
66 67 67 67 67 66 66 67 68 68 68 67 69 68 69 69 68 67 67 67 67 67 68 67 66 66 64 64 64 64 64 64 65 64 64 64 65 63 64 63 64 63 64 64 64 63 59 58 59 60 61 66 67 66 67 70 71 71 72 73 75 76 77
65 65 67 66 66 65 66 66 67 67 68 68 67 68 68 69 68 68 67 66 66 66 67 66 65 64 64 63 63 63 63 63 64 63 63 63 64 64 64 63 63 63 65 64 64 63 63 62 57 58 59 58 58 63 67 67 70 72 73 72 73 76 75
64 65 64 64 65 65 66 66 66 67 68 67 67 67 67 68 67 68 67 67 67 66 66 66 65 66 64 64 63 63 63 62 63 63 62 62 63 63 62 63 63 63 61 60 62 63 62 61 61 62 63 64 63 61 66 69 69 72 72 70 70 72 73
65 65 65 64 64 65 66 66 66 67 67 67 67 67 66 67 67 66 66 66 66 66 65 66 66 66 66 65 65 64 63 63 63 62 62 61 61 62 61 62 62 62 62 62 63 62 62 63 62 62 63 66 67 67 69 68 71 72 73 73 73 72 72
66 67 67 66 66 66 66 66 65 66 66 66 66 66 66 66 66 65 66 66 65 65 65 66 65 66 65 65 65 64 63 63 63 62 62 60 61 61 61 62 62 63 62 63 63 62 63 62 62 60 65 67 62 64 69 70 68 72 74 74 75 77 77
65 66 67 67 66 67 67 66 66 67 67 66 66 67 67 67 67 67 67 66 66 65 65 65 65 65 65 66 65 64 63 63 63 62 62 62 61 61 62 62 62 63 62 63 62 62 62 61 61 60 60 63 63 63 67 69 71 69 72 75 77 78 78
66 66 67 68 67 66 66 67 67 68 68 68 68 68 67 66 66 66 66 65 65 65 65 64 65 65 65 66 65 63 63 64 63 63 62 61 61 61 61 62 62 62 62 64 63 63 63 62 61 60 59 58 60 62 62 67 69 68 69 73 76 77 78
66 67 67 66 66 66 66 66 66 66 68 68 67 67 66 67 66 66 66 65 65 65 65 65 65 66 65 64 64 63 62 64 63 62 62 62 61 61 61 61 62 62 63 63 63 63 64 63 62 62 61 60 57 57 61 61 64 66 71 69 74 76 77
64 65 65 65 64 65 65 66 67 66 66 66 65 66 65 66 66 66 65 65 64 65 65 65 65 65 65 64 64 63 62 63 63 62 62 62 62 62 61 60 61 62 62 62 63 63 63 63 63 63 63 60 60 56 56 57 60 62 68 70 68 73 76
65 65 66 66 65 64 64 65 65 65 65 65 65 64 65 64 65 65 65 65 64 64 65 65 65 65 64 64 63 63 63 63 62 62 62 62 61 61 61 61 62 62 62 62 62 62 62 62 62 62 63 63 62 58 58 56 58 63 64 68 69 70 74
65 65 66 66 65 64 64 65 64 65 65 64 65 64 64 64 64 64 65 65 64 64 64 64 64 65 65 63 63 63 62 63 63 61 61 61 61 61 60 59 61 61 61 61 61 62 62 62 62 63 63 63 62 60 59 59 55 62 66 64 67 71 70
66 65 65 65 65 65 65 65 65 64 64 65 65 65 65 65 65 64 65 64 64 64 64 64 64 64 64 63 63 63 62 62 62 61 61 61 62 61 60 60 60 60 60 61 61 61 61 62 62 62 62 62 62 61 61 59 56 57 64 64 65 67 70
64 65 65 65 65 65 65 65 65 65 65 64 65 65 65 66 66 65 65 65 65 64 63 63 63 63 63 62 62 62 62 62 61 61 61 60 60 60 60 60 60 60 60 59 60 61 61 61 62 62 62 62 62 62 61 59 57 57 62 66 65 66 68
65 65 64 64 64 65 65 65 65 65 64 64 65 65 67 66 66 66 65 65 65 65 64 64 63 64 63 61 60 60 61 61 61 60 60 60 60 59 58 59 60 59 60 59 59 61 62 61 62 62 62 61 61 61 62 59 59 57 56 62 63 66 65
65 64 64 64 64 65 65 65 65 64 64 64 64 66 66 65 66 66 66 65 65 64 64 64 63 63 63 62 62 60 60 61 60 59 59 59 60 60 58 58 58 59 58 58 58 58 59 59 61 61 60 61 60 60 61 61 58 56 56 58 62 62 63
65 64 64 64 64 65 65 65 65 64 65 65 64 65 66 66 65 65 65 65 65 64 64 63 63 64 63 63 62 61 60 60 60 59 58 59 59 58 58 57 58 58 58 57 57 58 59 59 58 59 58 59 59 59 59 59 59 57 57 55 59 61 62
64 64 64 64 64 65 64 65 64 65 64 64 65 64 64 66 65 65 64 65 65 64 64 64 63 63 62 61 61 60 59 59 58 58 58 57 56 57 57 57 57 58 57 56 56 57 58 56 58 57 57 58 59 59 59 59 59 59 57 55 57 60 61
64 64 64 64 64 64 64 64 64 63 65 64 64 64 64 64 65 66 66 66 65 65 65 64 64 63 61 60 60 59 58 58 58 58 57 57 57 57 56 57 57 57 56 55 55 55 55 55 56 55 56 57 58 58 57 57 57 57 57 56 56 57 60
62 64 64 64 65 65 65 64 63 62 59 59 61 61 63 64 65 66 66 65 65 64 64 63 62 60 60 60 59 58 57 57 56 56 56 57 57 57 57 57 56 56 55 55 54 54 54 54 54 54 55 54 56 56 55 56 56 56 55 55 56 57 57
61 62 64 65 65 64 64 63 62 61 60 57 56 57 59 62 64 65 64 65 64 63 61 61 61 60 60 58 57 56 56 55 55 55 55 56 56 56 56 56 56 56 56 56 55 55 54 53 54 53 55 55 55 54 54 54 54 54 54 54 54 55 57
65 64 64 64 64 64 63 62 61 61 60 58 57 56 57 58 58 60 62 62 61 61 60 59 59 59 58 57 56 55 55 55 54 54 54 55 55 55 55 55 55 55 55 51 48 48 49 49 51 52 53 54 54 53 53 53 53 53 53 53 53 55 55
64 64 64 63 64 63 62 61 61 60 59 58 59 58 57 58 58 56 56 57 57 57 57 55 49 45 49 56 56 55 54 54 54 53 53 53 53 54 54 54 54 50 48 47 46 44 43 43 45 49 51 53 52 52 52 52 52 53 53 52 52 53 52
63 63 64 64 63 61 61 60 60 60 60 60 58 58 58 57 55 55 55 55 55 53 51 50 42 41 41 44 52 54 53 53 53 53 53 52 52 52 53 54 54 52 50 48 49 44 42 42 42 42 43 44 46 50 50 50 51 52 51 51 52 52 52
61 62 62 63 63 62 60 59 57 58 58 57 58 58 56 57 55 54 54 54 53 53 52 44 41 41 41 41 44 53 53 52 52 52 52 52 52 52 52 51 52 52 51 52 52 51 48 44 41 41 41 41 41 41 42 48 49 50 50 50 51 51 52
61 61 62 62 62 60 59 58 58 57 57 58 56 55 55 54 53 54 54 54 53 53 52 42 41 41 41 40 39 46 54 52 51 51 51 51 51 50 50 50 50 50 51 47 49 51 51 52 45 42 41 41 41 41 40 39 41 47 51 50 49 50 52
60 60 61 61 61 60 59 59 58 58 58 56 54 51 49 49 50 52 53 52 52 52 50 42 40 40 40 39 38 43 52 50 50 50 50 50 49 49 49 49 49 49 50 50 50 50 50 50 50 50 50 51 52 50 43 40 39 39 43 48 50 49 52
59 60 60 60 60 60 59 57 56 56 56 54 52 49 48 48 49 49 49 49 49 49 48 40 40 39 39 39 38 42 51 50 50 50 50 49 49 49 49 48 48 48 48 48 49 47 47 47 48 48 48 49 50 51 52 52 52 51 50 49 49 49 51
59 59 59 59 58 59 58 56 55 55 53 51 50 49 48 48 47 47 47 47 46 46 45 38 39 39 39 39 38 50 51 50 50 50 49 49 49 49 49 49 48 47 48 48 45 40 42 46 46 45 45 47 48 49 50 48 46 45 49 51 52 52 53
58 58 58 58 58 58 57 55 53 53 51 50 48 48 47 48 49 47 46 47 48 48 48 41 38 39 39 37 43 52 51 51 50 49 49 49 49 49 48 49 48 48 48 48 44 39 39 40 44 43 43 43 44 46 46 49 45 42 41 40 40 40 40
58 58 58 57 57 58 57 54 52 52 50 48 46 46 46 47 48 48 48 48 49 49 50 44 37 39 38 38 42 50 51 50 49 49 49 49 49 49 49 45 46 47 47 48 42 39 38 41 43 42 42 42 42 42 44 46 47 46 42 41 40 40 40
58 58 57 57 57 54 51 49 48 48 47 46 45 46 47 46 46 46 48 48 47 49 49 45 38 38 38 38 44 51 51 51 49 48 48 48 48 49 50 49 45 45 45 44 39 38 38 40 43 42 41 40 39 40 42 44 44 44 45 45 45 46 45
57 57 57 56 53 50 48 47 45 44 43 43 42 47 47 47 46 45 46 48 47 49 49 50 47 37 39 39 39 48 50 49 48 47 48 47 46 48 49 50 48 42 38 38 37 37 37 37 40 41 41 39 38 38 43 43 43 43 43 43 43 44 44
56 57 56 51 49 48 47 45 44 44 42 41 42 41 41 43 44 43 43 45 46 47 47 49 48 38 38 38 38 39 49 49 49 48 47 46 47 47 47 47 48 44 39 38 38 37 37 37 38 40 40 39 40 41 41 41 41 40 41 41 42 42 43
56 53 50 49 47 46 46 47 47 45 45 45 45 44 43 44 43 41 41 41 44 47 47 43 50 43 38 38 38 37 44 48 47 46 44 45 46 45 44 45 45 43 38 37 37 37 37 37 37 40 39 38 37 37 39 41 41 41 40 40 40 40 41
50 49 48 48 46 45 45 45 46 48 48 48 47 47 48 48 48 48 47 48 49 50 50 49 41 46 41 38 38 38 37 40 39 43 44 43 43 42 44 44 44 40 37 37 37 37 37 36 37 39 37 36 36 36 37 40 39 39 39 39 38 38 39
49 48 47 47 46 43 43 44 45 46 47 47 46 45 46 46 47 47 48 50 51 52 51 51 44 38 41 38 37 37 37 37 37 42 43 42 43 43 43 43 42 38 37 36 36 36 36 36 38 36 36 36 36 36 38 38 37 37 37 36 36 37 38

ECMWFFLT1_sfc_temp_030.txt.gz
Temp
74 72 73 73 74 74 73 73 73 73 75 75 74 75 75 75 74 74 74 73 74 75 75 74 73 73 73 73 72 72 72 72 72 72 71 72 69 69 72 69 68 67 65 64 63 60 59 58 60 65 69 68 70 70 70 71 74 74 75 77 80 81 81
75 74 75 75 74 74 72 73 73 74 74 74 75 74 75 75 74 74 73 73 73 74 76 75 73 73 71 70 70 70 70 70 71 71 71 70 71 70 70 70 71 70 69 66 65 64 59 58 59 60 60 65 65 69 68 68 72 72 72 74 75 76 78
75 75 76 74 73 73 72 72 72 73 73 73 73 74 74 75 74 74 73 72 72 73 73 73 71 70 70 70 69 69 69 68 69 69 69 70 70 70 70 70 69 70 70 70 68 67 66 64 59 58 60 59 59 65 67 66 69 69 70 71 72 75 74
73 73 73 72 73 72 72 72 73 73 74 73 73 73 73 74 73 74 73 73 72 72 73 73 72 72 70 70 69 69 69 68 69 68 68 68 70 69 69 70 70 69 67 66 67 68 66 64 64 64 65 67 64 61 65 69 69 73 76 72 71 72 74
73 72 72 71 72 71 72 72 73 73 73 73 72 73 72 73 73 72 72 72 72 72 72 72 72 73 72 72 71 70 69 69 69 68 68 67 67 68 67 69 69 69 69 68 68 67 65 65 65 64 65 68 69 69 71 68 71 73 75 76 76 77 76
74 74 73 73 73 73 73 73 73 72 73 72 72 72 72 72 73 71 72 72 72 72 72 72 72 72 72 72 70 69 69 69 69 68 67 66 67 67 68 68 70 70 69 69 68 67 67 66 66 64 68 71 65 67 71 71 69 73 75 77 80 82 83
74 74 74 74 74 75 75 73 73 74 73 72 72 72 72 73 73 73 72 72 72 72 71 71 71 72 72 73 71 69 68 69 69 67 67 66 67 67 68 69 68 69 68 68 68 68 66 65 65 65 64 67 68 69 72 73 75 73 74 76 78 80 82
75 75 75 76 75 75 75 74 74 75 74 74 74 74 73 73 73 72 72 71 71 71 71 70 71 71 71 72 71 69 69 69 68 68 67 66 66 66 65 67 68 69 68 70 69 68 69 67 66 65 64 62 65 68 68 74 75 74 74 77 79 79 79
76 76 76 76 76 75 75 75 74 74 75 75 75 74 73 73 72 72 72 71 71 71 71 71 71 72 70 70 70 69 68 70 67 67 67 66 65 65 65 66 68 68 68 69 69 68 69 67 66 66 66 65 62 63 68 68 70 72 77 75 79 81 81
73 74 74 74 74 75 75 75 75 75 75 75 74 74 73 73 73 72 72 71 71 71 71 71 71 71 70 70 70 68 68 69 69 68 68 67 66 67 66 65 67 67 67 68 68 68 68 67 67 67 67 65 65 62 62 64 67 68 74 77 74 78 81
73 74 74 74 74 74 74 75 75 74 74 75 75 73 73 73 72 72 72 71 71 71 70 71 72 71 70 70 69 69 69 69 68 68 68 68 67 67 66 66 67 67 66 67 67 67 67 67 66 67 67 67 66 63 63 61 63 69 70 73 75 75 79
74 74 74 75 74 74 74 74 74 74 74 74 74 73 72 73 72 72 72 71 71 70 71 71 71 70 71 69 69 69 68 69 68 67 67 67 67 67 65 65 66 66 66 66 66 67 67 67 67 68 68 68 66 64 62 62 59 67 71 69 73 77 76
75 74 74 74 74 74 74 74 74 74 74 75 74 73 73 73 72 72 72 72 71 71 71 71 71 71 70 69 69 69 68 68 68 67 67 67 68 66 65 65 65 66 65 66 67 66 66 67 67 67 67 67 67 66 65 62 60 61 69 69 71 74 76
73 74 74 74 73 74 74 74 75 75 76 74 74 73 73 74 74 73 73 72 72 71 71 70 71 70 70 69 69 69 68 69 68 68 67 65 66 66 66 66 66 65 65 64 65 66 67 67 67 67 67 67 67 67 66 64 62 62 67 71 70 71 74
73 74 73 73 72 73 74 74 74 75 74 74 75 74 75 74 74 73 74 73 73 73 72 72 71 70 70 68 67 67 67 68 68 67 66 66 65 65 64 64 65 65 66 65 64 67 68 66 67 68 68 67 67 67 68 65 64 63 61 67 68 72 71
73 72 72 72 72 73 73 73 75 73 74 74 75 75 74 74 74 74 74 73 73 73 72 72 70 70 69 68 68 67 67 67 66 65 64 65 67 67 64 64 64 64 64 63 63 64 65 65 67 67 65 67 66 65 67 67 64 62 62 63 67 68 69
72 72 71 72 72 72 73 73 74 73 74 74 74 74 75 75 74 73 73 73 73 72 72 71 70 70 70 69 68 67 67 67 66 66 65 66 67 65 64 63 63 64 64 63 63 63 65 65 64 65 64 65 65 64 64 64 64 62 62 61 64 68 69
69 70 70 72 72 72 72 73 73 73 72 72 73 73 74 75 74 74 72 73 73 72 72 71 70 70 69 69 69 67 67 67 66 66 65 64 62 64 63 63 63 64 63 62 62 63 64 62 64 64 63 65 65 65 64 64 64 64 62 61 62 66 67
68 68 68 69 70 72 72 73 73 73 74 73 72 72 73 73 73 74 74 74 74 73 73 72 72 71 70 69 68 67 67 66 65 65 64 64 64 64 62 63 63 63 63 61 61 61 62 61 62 62 62 63 65 64 63 63 63 62 62 62 62 62 65
68 68 67 68 68 71 72 72 73 73 73 73 71 69 67 68 70 73 73 73 73 73 72 72 71 70 70 69 68 67 65 64 64 64 64 64 64 63 63 63 63 62 62 62 61 61 61 60 60 60 60 60 62 61 61 61 63 62 62 61 62 63 63
70 69 69 68 66 66 67 69 71 72 73 71 70 69 67 67 69 71 72 72 72 73 72 72 72 71 69 68 67 65 65 63 64 63 62 63 63 62 62 63 63 63 63 63 62 61 60 59 60 59 61 61 61 60 59 60 60 61 60 60 61 61 63
71 72 71 70 69 69 69 70 70 70 70 70 70 69 66 68 68 69 70 70 71 71 70 69 70 69 68 67 66 64 64 64 63 62 62 62 62 62 62 62 62 63 62 56 49 49 50 50 55 56 58 59 59 59 59 59 60 60 60 60 60 62 62
71 71 71 71 71 71 70 68 68 68 68 69 70 70 67 66 69 69 69 70 70 69 68 67 55 51 56 66 65 64 62 62 62 61 60 60 61 61 61 62 61 56 51 50 49 46 44 44 46 51 55 57 57 57 57 57 58 59 59 59 59 60 60
70 70 71 71 71 71 71 70 68 67 67 67 67 67 66 66 68 67 69 69 68 64 60 55 44 44 44 49 61 62 62 61 60 60 60 59 59 60 61 63 62 58 55 51 52 44 44 43 43 43 43 44 47 51 53 54 55 57 57 57 59 59 59
70 70 70 71 71 72 71 70 70 69 66 64 64 64 64 65 66 65 66 66 62 59 56 45 42 42 43 44 50 60 60 60 59 60 60 59 59 60 60 59 60 59 59 59 59 58 51 44 41 42 41 41 42 42 43 49 51 53 54 55 56 57 58
70 70 70 70 70 70 70 70 69 68 67 66 65 64 65 65 66 66 65 63 61 57 54 42 41 42 42 42 41 50 62 59 59 59 59 58 58 58 58 58 58 58 59 52 54 56 57 57 47 41 41 42 41 41 41 39 41 49 52 52 52 53 56
68 69 69 69 69 69 69 69 68 68 68 66 63 63 65 65 65 65 63 61 58 56 53 42 41 41 41 40 39 45 60 57 57 58 58 58 57 57 57 57 57 57 58 58 58 57 57 57 56 56 55 55 55 51 42 40 40 40 44 50 51 50 53
67 68 68 68 68 68 68 68 67 67 67 66 63 62 64 63 63 62 60 59 55 52 49 40 41 40 39 40 38 42 57 55 57 57 57 57 57 56 56 56 56 56 56 56 57 54 54 54 53 52 53 53 54 55 57 56 54 52 50 50 52 53 54
66 67 67 67 67 67 67 67 66 67 66 66 66 65 64 64 60 58 56 54 52 49 46 39 39 40 39 40 37 51 55 54 55 56 56 57 57 58 57 56 56 55 55 54 50 42 44 51 51 50 49 51 52 54 55 52 49 49 53 55 55 54 54
66 66 66 66 66 66 66 66 66 66 65 64 63 62 60 58 57 55 52 51 49 47 45 41 39 39 40 37 41 55 56 58 59 57 57 57 57 57 57 56 55 55 54 54 48 42 40 40 49 49 49 49 50 51 52 55 49 45 43 43 42 41 40
66 65 66 65 65 65 66 66 65 65 63 62 59 59 58 55 54 53 51 50 49 47 48 43 39 39 39 38 43 56 59 59 57 57 57 57 57 57 57 49 50 53 53 53 45 39 38 43 48 48 48 47 47 48 50 52 53 53 45 41 41 42 42
65 65 65 65 65 64 64 64 65 62 61 59 56 55 55 53 52 52 52 50 48 49 49 44 39 39 38 39 46 57 58 58 56 56 56 56 57 57 57 53 47 49 51 50 42 40 39 42 47 47 46 45 44 44 47 49 49 49 50 51 51 50 47
64 64 64 65 65 65 63 60 59 58 55 55 53 52 50 50 49 49 50 51 51 52 50 49 45 38 40 38 38 53 57 56 55 55 55 55 54 55 56 56 53 43 40 39 38 37 37 37 44 46 45 43 42 41 47 48 48 47 47 47 48 48 48
64 64 65 63 64 62 60 56 54 53 51 51 49 49 49 49 48 48 50 51 51 51 52 51 47 38 39 39 37 40 55 54 55 54 53 53 54 53 55 56 56 48 40 39 38 37 37 37 38 44 44 42 43 44 43 44 43 41 43 43 44 44 45
63 63 64 64 61 58 56 55 53 51 51 50 49 48 48 48 48 46 47 47 49 49 49 46 51 39 38 38 38 36 49 53 51 51 50 51 53 53 54 54 54 48 40 38 37 37 37 37 37 43 42 39 38 37 41 42 42 42 42 42 43 43 44
63 61 60 60 58 55 53 52 50 50 49 49 48 48 48 48 47 47 47 48 49 50 51 50 42 49 39 39 38 38 37 43 41 46 49 49 50 51 53 52 52 43 37 37 37 37 37 37 38 41 38 37 37 36 38 41 41 40 41 41 41 41 42
61 60 58 56 54 52 50 49 49 49 49 49 49 49 50 50 51 51 52 53 54 55 57 58 45 42 46 37 38 37 37 36 37 46 47 47 49 50 50 51 48 39 38 38 37 37 37 37 40 37 36 36 36 37 40 40 40 40 40 39 39 39 40

ECMWFFLT1_sfc_temp_033.txt.gz
Temp
75 74 75 75 76 76 75 75 75 75 77 77 76 77 77 76 76 75 75 75 76 77 78 76 75 75 74 74 73 74 74 73 72 71 71 71 68 67 69 65 64 65 65 64 61 61 59 58 59 64 65 65 66 68 70 71 72 73 72 74 78 78 76
76 75 77 77 76 75 74 75 75 76 76 76 77 76 76 76 76 75 75 75 75 76 78 77 75 75 72 71 71 71 71 71 72 71 71 70 70 70 70 71 71 69 66 65 64 63 59 57 60 61 61 65 66 66 66 68 69 70 72 74 75 74 75
76 76 77 75 75 74 73 74 74 75 75 75 75 76 76 77 76 76 75 74 74 75 75 74 74 72 72 71 71 71 71 71 71 71 70 70 71 70 71 70 70 71 72 68 66 67 64 62 61 62 62 61 60 65 67 66 68 68 69 70 71 73 74
75 75 74 73 74 74 73 73 74 75 75 75 75 74 75 75 75 75 74 74 74 74 75 75 74 74 73 72 72 72 71 70 70 70 70 70 71 70 70 70 70 70 68 67 67 68 67 65 65 66 67 68 65 63 66 69 69 71 72 71 72 74 75
75 75 73 73 73 73 73 73 75 75 74 74 74 74 74 74 74 74 74 74 74 74 74 75 75 75 74 74 73 72 71 71 71 71 70 69 69 70 69 69 69 71 70 70 69 69 67 66 65 65 66 70 71 72 73 67 72 73 74 75 77 77 77
75 75 75 74 74 74 74 74 74 74 74 73 74 73 73 73 74 73 73 74 73 73 74 74 74 74 74 74 72 72 71 71 70 69 69 67 68 68 69 70 70 72 71 71 70 69 68 67 67 65 68 70 65 67 71 71 68 72 73 75 77 80 80
75 75 75 75 75 76 76 75 75 75 75 74 74 73 74 74 74 74 74 74 74 74 73 73 73 74 74 76 73 72 71 71 71 70 69 69 68 68 69 70 70 70 69 70 70 70 69 67 66 65 64 66 67 67 71 72 75 72 74 75 77 79 79
76 76 77 77 76 76 76 75 75 76 76 75 75 75 75 74 74 74 74 73 73 73 73 72 73 73 73 75 74 71 71 71 71 70 69 68 68 68 68 69 70 70 69 70 71 69 71 69 67 65 63 61 62 66 67 73 75 75 74 77 78 78 79
77 77 77 78 77 77 76 76 75 76 77 76 76 75 74 75 74 73 74 73 73 73 73 73 73 74 72 73 72 71 70 72 69 69 69 69 67 67 67 68 70 70 69 69 70 70 70 69 68 68 66 63 60 59 65 66 70 73 79 76 80 81 81
76 76 76 76 77 76 76 76 76 76 77 76 76 76 74 75 74 74 73 73 73 73 73 73 73 73 72 72 72 71 70 71 71 70 70 69 69 69 68 68 69 70 69 69 69 68 68 69 69 69 69 65 63 59 59 61 65 67 74 78 75 80 82
76 77 77 77 77 76 76 76 76 76 76 76 76 75 75 74 74 74 74 73 73 73 72 73 74 73 72 72 72 71 72 71 70 70 70 70 69 69 68 68 69 69 68 68 68 68 68 68 68 69 69 69 67 61 60 58 60 66 68 73 76 76 81
77 77 77 78 77 76 76 76 76 76 76 76 76 75 74 74 74 73 74 73 73 72 72 72 73 72 72 72 71 71 71 71 70 69 70 69 69 69 67 67 68 68 68 68 68 69 68 68 68 69 70 69 68 66 63 61 57 64 69 67 72 77 77
78 77 77 76 76 76 76 76 77 76 75 76 76 75 75 75 74 73 74 74 73 73 72 72 72 72 72 72 71 71 71 70 71 69 70 69 70 69 67 67 67 68 67 68 69 68 68 68 68 68 68 68 68 68 67 64 60 59 66 67 69 72 75
76 77 77 77 75 76 76 77 77 77 77 75 76 75 75 75 76 74 75 74 74 73 72 72 72 72 71 71 71 72 71 71 71 70 70 68 69 69 69 69 68 67 67 66 67 68 69 69 68 68 68 68 67 68 67 65 62 62 66 69 69 70 73
76 77 76 76 75 75 76 76 76 77 76 76 76 76 77 76 76 75 75 76 75 75 74 74 72 72 71 71 70 71 70 70 70 71 69 68 68 69 67 67 69 68 69 67 66 68 70 69 69 69 70 69 69 68 69 66 65 63 62 67 67 71 71
74 74 74 75 74 75 75 76 77 76 76 76 77 76 76 76 76 76 76 75 76 75 75 74 73 72 71 71 71 70 69 70 69 69 67 68 70 69 67 66 66 67 66 65 65 66 67 67 69 69 67 68 67 66 68 67 64 62 62 63 67 67 68
70 71 73 73 72 73 73 72 73 76 77 76 76 76 77 77 76 75 75 75 76 75 75 74 73 73 72 72 71 70 70 69 69 69 68 69 70 69 67 66 66 66 66 65 65 65 67 67 66 67 66 67 66 66 66 66 66 63 63 61 65 67 69
68 67 67 66 66 67 69 69 72 77 76 75 76 76 76 77 76 76 74 75 76 75 75 75 74 73 72 72 72 71 70 70 69 69 69 69 67 68 67 66 67 67 66 64 64 65 66 64 66 66 65 67 67 67 66 66 66 66 63 62 63 67 68
67 68 68 69 68 68 69 65 64 67 75 75 75 75 75 76 76 76 77 76 76 77 77 76 75 74 74 73 71 71 70 70 69 69 69 68 68 67 66 66 66 66 65 63 63 63 64 63 64 63 64 65 66 65 63 64 64 63 63 63 63 63 66
66 69 69 69 70 71 70 70 71 70 72 72 73 74 74 74 74 76 77 76 76 76 76 75 74 74 74 74 72 71 69 69 69 68 68 68 68 67 67 66 66 65 64 64 63 63 63 62 62 62 62 62 64 63 62 63 64 63 62 62 63 63 64
71 69 69 70 70 70 70 70 68 69 71 71 72 74 74 74 72 71 72 74 75 76 75 75 75 74 74 73 72 71 70 68 68 67 67 67 67 66 66 66 65 66 65 65 64 64 62 61 62 61 62 62 62 61 61 61 61 62 61 61 62 62 64
73 73 72 72 71 71 71 71 70 71 72 72 71 72 73 73 66 67 69 65 69 67 71 73 74 73 71 71 71 69 69 68 67 66 65 66 66 65 66 65 65 65 64 57 50 53 54 53 57 57 59 60 60 59 59 60 60 61 61 61 61 63 63
73 73 73 73 74 73 73 72 71 71 69 72 73 73 72 69 63 63 65 68 70 69 67 69 61 59 62 71 70 70 67 67 67 66 65 64 64 64 65 65 64 61 57 54 51 47 46 46 48 53 57 58 57 58 58 58 58 59 59 59 60 60 60
74 73 73 74 74 74 75 74 73 72 72 71 70 70 70 62 62 60 62 66 68 66 63 58 45 47 50 56 68 68 66 65 65 65 64 63 63 64 64 65 65 61 56 53 55 47 45 45 44 44 44 46 48 53 53 53 55 56 56 57 58 59 59
73 73 73 74 74 75 74 74 74 73 71 71 70 70 69 66 65 65 65 67 65 60 57 46 44 45 47 49 56 66 64 64 63 63 63 63 63 63 63 63 63 63 62 62 63 60 52 45 43 43 42 42 42 42 44 50 51 52 53 54 55 56 57
72 72 73 73 73 73 73 73 73 73 72 71 70 69 70 69 68 67 66 67 66 62 57 43 44 45 45 44 45 56 64 62 62 62 62 62 62 62 62 61 61 61 63 57 58 59 60 59 46 41 43 43 42 42 41 40 42 50 53 51 51 51 53
71 72 72 72 72 72 72 72 72 72 72 71 69 69 69 68 67 67 65 65 64 60 57 44 43 43 43 43 42 50 64 60 61 61 61 61 61 60 60 60 60 60 61 62 61 60 61 60 60 58 55 54 55 51 42 40 40 40 44 50 51 51 53
71 71 71 71 71 71 71 71 71 71 71 70 69 68 68 67 67 66 65 63 60 57 52 41 42 42 42 42 41 49 61 59 60 60 60 60 60 60 59 59 59 58 59 59 60 55 57 57 57 55 54 54 55 56 57 56 53 51 50 49 51 53 54
70 70 70 70 70 70 70 70 69 70 70 70 70 70 69 68 66 66 64 58 56 53 49 40 41 42 42 41 41 57 58 57 57 58 59 60 60 61 61 60 59 58 59 58 49 40 47 53 54 52 51 52 53 54 55 52 49 50 55 56 56 56 55
69 69 69 69 69 69 68 69 69 70 69 69 69 68 67 66 66 63 59 57 54 52 50 43 40 40 40 39 46 56 56 57 58 57 58 59 60 61 61 61 60 58 57 58 46 37 39 44 51 51 50 50 52 52 52 55 49 45 43 43 44 43 43
69 69 69 68 68 68 69 69 69 70 68 68 68 68 67 66 64 60 57 56 54 51 50 44 39 40 39 38 44 55 57 57 57 58 58 60 61 61 61 54 55 57 56 57 40 37 37 45 50 51 50 49 50 50 51 53 53 53 47 44 43 42 43
69 68 68 68 68 67 68 68 69 69 68 68 67 64 61 60 57 56 54 52 49 49 49 44 39 39 40 40 46 54 56 58 56 57 58 59 60 61 61 56 50 52 55 53 39 39 36 43 50 50 49 48 47 47 49 51 50 50 51 51 52 53 50
67 67 67 67 67 67 68 68 67 67 66 64 62 61 59 55 52 51 51 51 50 50 49 47 44 38 40 39 38 48 54 55 55 56 57 58 57 58 59 59 56 43 42 39 39 38 39 38 46 48 48 47 46 45 49 49 48 46 46 46 47 47 47
66 67 67 66 67 66 67 67 65 65 62 61 59 56 53 51 51 51 51 52 52 50 50 48 45 38 39 40 37 41 53 53 54 55 55 55 56 56 58 58 58 39 39 37 38 36 38 37 38 43 45 45 46 45 42 43 44 42 44 44 45 45 46
66 65 66 66 64 65 66 66 63 62 61 58 55 53 51 50 50 51 52 52 52 51 51 49 49 39 38 39 38 36 48 53 49 51 51 54 55 56 57 57 57 41 37 38 38 37 37 38 37 43 44 40 39 38 42 44 43 43 43 43 43 43 44
64 64 64 64 65 63 64 61 60 59 57 55 53 51 50 50 50 49 50 51 51 51 51 51 45 44 38 38 38 38 37 43 41 48 51 52 52 54 55 55 55 43 40 39 40 39 39 38 39 44 39 38 38 37 38 42 42 41 41 41 41 41 42
65 65 65 65 64 62 59 57 56 56 55 52 50 50 50 50 49 48 48 49 50 52 51 51 45 42 42 38 38 38 37 36 39 49 50 50 52 53 53 53 51 42 41 40 38 39 39 38 42 38 37 37 37 37 41 42 41 40 39 39 39 40 41

ECMWFFLT1_sfc_temp_036.txt.gz
Temp
69 68 70 69 70 70 69 70 70 70 72 72 71 72 71 71 70 69 69 68 69 71 70 68 66 67 67 68 67 67 66 66 66 64 64 65 64 62 64 62 62 62 62 61 61 58 57 56 58 62 64 64 65 65 66 66 68 68 66 67 72 72 70
70 70 70 70 69 70 69 70 70 70 70 70 71 70 70 71 69 69 68 68 67 68 70 69 68 69 67 65 65 65 64 64 64 64 63 62 64 63 63 62 62 61 62 62 61 61 58 55 56 58 59 63 63 63 63 65 67 67 68 68 68 70 67
69 70 70 68 68 69 68 68 69 69 68 69 69 70 69 71 70 69 69 68 68 69 69 68 68 66 66 65 65 65 65 64 64 64 62 63 63 63 64 63 63 63 63 61 61 61 61 60 57 58 59 59 58 61 64 64 65 66 66 67 68 70 69
69 69 67 67 68 68 67 68 69 69 69 68 68 69 69 70 68 69 69 69 68 68 69 69 67 68 67 67 66 66 65 64 64 64 64 64 64 62 63 62 62 63 61 61 60 61 61 59 59 60 62 65 63 61 63 65 65 67 68 67 67 68 70
69 69 67 67 67 67 67 67 68 68 68 68 68 67 68 69 68 68 69 68 68 68 67 68 68 69 68 67 66 65 65 65 65 64 63 62 63 63 62 62 62 63 62 62 63 62 60 59 59 58 60 64 65 67 68 63 66 67 69 70 71 70 70
70 70 69 68 68 68 68 68 68 67 67 67 67 67 67 68 68 67 66 67 66 67 67 67 68 68 67 66 66 65 64 64 63 63 61 61 62 61 62 63 63 64 63 63 63 63 63 63 61 58 61 64 58 60 66 66 62 66 69 70 72 73 73
70 70 69 69 69 69 69 68 68 68 67 67 67 66 67 69 68 68 68 67 67 67 67 67 66 67 69 68 66 65 64 64 64 63 62 62 61 62 62 62 62 62 62 64 63 63 62 61 58 57 57 58 60 61 65 67 68 67 67 69 71 73 72
70 70 70 70 69 69 69 69 69 69 68 68 68 68 69 68 68 68 68 67 68 67 67 67 68 68 66 68 66 65 64 64 64 63 62 62 62 62 61 62 63 61 61 63 62 62 64 61 60 59 57 54 55 57 58 64 67 68 68 69 72 73 73
71 71 71 70 70 70 70 69 69 70 70 69 69 69 68 68 68 68 68 67 68 67 67 67 67 66 67 65 65 65 64 68 63 63 63 62 62 61 62 62 62 61 62 63 63 61 62 62 62 60 60 57 53 51 56 57 60 63 70 67 71 74 74
70 70 69 70 70 70 71 70 69 70 71 70 70 69 68 68 68 67 67 67 67 67 67 67 68 67 66 65 65 65 64 65 65 64 64 62 63 63 62 63 62 60 61 62 62 62 62 62 62 61 61 59 57 53 51 52 55 56 64 68 65 71 74
71 71 71 71 70 70 71 70 70 70 70 70 70 70 68 68 68 69 67 67 66 66 66 67 67 67 66 66 65 65 65 65 64 64 64 63 63 62 62 62 62 60 61 60 61 62 60 61 60 61 61 61 60 57 55 51 52 57 59 63 67 66 71
72 72 72 72 71 70 70 70 70 69 71 71 70 68 68 68 67 67 67 67 66 66 66 66 66 66 66 65 65 65 64 64 63 63 63 63 63 62 62 62 61 60 60 59 60 61 61 59 60 60 60 60 60 58 57 56 51 57 61 58 61 68 68
73 72 72 72 71 71 71 71 70 70 69 70 70 69 68 68 68 67 67 67 67 66 66 66 66 66 65 65 65 66 64 64 64 63 63 63 67 64 62 62 62 60 60 60 61 61 60 60 60 61 60 60 59 59 59 57 54 54 59 59 61 64 68
71 72 72 72 72 71 71 71 71 70 71 69 70 69 69 69 70 69 69 68 68 66 66 65 65 65 64 64 64 64 65 64 65 64 63 62 65 64 62 63 62 61 62 60 60 60 61 61 61 61 61 59 59 59 59 57 54 55 58 61 61 62 65
70 70 71 71 71 71 70 70 70 71 69 70 70 70 71 70 69 70 69 70 69 69 68 67 66 65 64 64 63 66 65 64 63 64 62 63 62 64 62 62 64 61 63 62 61 62 63 61 63 62 62 61 59 59 58 58 55 54 54 57 58 62 63
67 69 69 69 69 70 70 70 71 69 69 70 70 70 71 70 70 71 70 69 70 69 69 68 66 65 64 64 64 64 64 63 62 63 62 62 64 64 61 61 62 61 62 60 60 60 61 61 61 62 60 60 59 58 59 59 56 54 54 55 58 60 60
65 65 65 65 63 63 66 67 66 67 68 68 69 69 70 71 71 70 70 70 70 69 69 68 67 67 67 66 64 64 63 63 63 63 63 63 64 63 61 60 61 61 60 59 59 60 60 60 59 59 58 59 58 58 58 58 58 55 55 54 56 59 60
64 64 62 62 62 62 62 63 63 65 64 65 66 65 67 69 70 71 69 70 71 70 69 70 69 68 67 66 66 65 64 64 63 63 63 63 64 63 61 60 61 61 60 59 58 58 59 58 60 57 57 58 58 58 58 57 57 57 55 54 55 58 59
63 62 61 61 63 64 64 64 64 63 63 63 63 62 62 63 67 70 72 71 71 71 71 71 71 70 69 67 66 65 65 65 65 64 63 63 63 63 61 61 61 62 60 58 58 58 58 58 58 57 57 57 59 58 56 56 57 56 56 55 55 55 56
64 63 62 63 64 64 65 64 64 64 64 64 63 62 63 63 65 62 61 61 64 69 71 71 70 69 70 70 68 66 65 65 65 63 64 63 64 62 62 62 61 61 60 59 58 58 57 57 56 55 55 55 56 55 54 55 56 56 55 54 55 56 56
64 63 62 62 63 65 65 60 60 60 61 62 64 65 66 64 60 61 60 61 62 64 64 65 64 63 68 69 67 66 65 63 63 64 64 63 63 62 61 62 61 61 60 59 58 58 55 53 53 51 53 53 54 53 52 52 53 53 53 53 53 53 53
66 65 64 64 64 64 65 65 63 62 61 62 65 65 63 61 61 61 62 62 63 62 62 60 60 61 62 65 67 66 66 65 63 62 62 63 62 62 61 61 61 60 59 55 51 53 54 54 53 50 50 51 51 51 51 52 52 51 51 51 52 53 52
69 68 68 67 68 67 67 67 67 66 67 67 67 64 61 61 62 62 62 62 62 61 62 62 59 54 52 61 64 66 64 63 63 62 61 61 60 60 60 60 60 62 55 54 52 50 50 50 50 52 50 49 49 49 49 49 49 49 50 49 50 50 50
69 68 68 68 68 68 69 68 67 67 67 67 67 67 65 62 63 62 61 61 61 62 62 63 52 50 51 49 62 62 62 61 62 61 61 60 59 59 60 61 59 58 56 54 53 48 46 46 45 45 46 48 49 49 47 47 47 47 48 48 49 49 49
68 68 69 68 68 68 67 67 67 67 67 66 66 66 65 63 63 62 61 62 61 62 59 50 45 48 51 51 55 62 62 61 60 60 59 59 59 60 60 60 59 59 58 56 56 55 50 45 44 44 43 43 43 43 44 47 47 46 46 46 46 47 48
68 67 67 68 68 68 67 67 66 66 66 66 66 65 65 64 63 63 62 62 62 59 55 43 44 46 47 48 50 57 62 60 59 58 58 58 59 59 58 57 57 57 58 59 57 55 54 53 46 44 44 44 43 42 40 40 42 47 48 46 45 45 46
67 66 67 67 66 66 66 65 65 65 65 65 64 64 64 63 63 63 62 63 59 55 52 43 43 44 44 46 49 54 60 58 58 58 58 58 58 58 57 57 55 54 55 55 54 55 54 53 53 51 48 47 47 47 43 41 41 40 42 45 46 45 48
66 66 66 66 64 64 64 63 64 64 64 64 63 63 63 62 63 63 63 59 53 52 47 41 42 43 44 46 48 51 57 56 57 56 57 57 57 57 57 56 55 53 52 53 53 50 51 51 50 50 48 49 49 50 50 50 48 45 45 44 45 46 47
65 65 65 65 64 64 63 63 63 63 63 63 63 64 64 63 62 62 56 53 51 47 46 40 42 42 43 45 49 56 56 55 55 55 56 57 56 57 57 55 54 53 52 54 44 44 47 49 49 47 47 47 48 48 49 50 48 47 49 48 48 48 49
65 64 65 64 64 63 62 63 62 64 62 62 62 62 62 63 61 55 54 52 49 47 46 42 41 42 42 44 50 54 54 54 54 54 54 56 56 56 57 56 54 53 52 53 42 41 41 46 47 46 46 46 47 47 47 50 48 45 43 42 42 42 42
65 64 64 64 63 63 63 63 62 63 62 61 61 61 61 58 55 55 53 51 50 47 45 42 40 40 40 41 46 52 53 54 53 54 54 55 55 56 57 56 56 53 52 50 37 39 37 44 45 45 45 45 44 44 45 48 49 49 46 45 44 43 42
65 64 64 63 62 62 61 61 62 62 62 62 60 57 57 54 54 52 51 49 49 48 46 43 40 40 39 41 47 52 53 53 52 53 53 53 55 55 56 55 52 49 45 40 37 37 38 41 43 43 43 42 42 42 43 45 44 43 42 42 43 44 44
63 63 63 62 62 62 62 61 61 61 61 60 57 55 54 52 50 49 49 49 48 48 46 45 42 39 40 40 41 50 51 51 51 52 53 53 52 53 53 54 44 36 38 38 37 37 37 38 40 41 40 40 39 39 42 40 41 41 41 41 41 42 42
63 63 63 62 61 61 61 60 60 61 59 57 55 53 51 50 49 48 49 48 48 47 47 45 42 39 40 40 39 43 49 49 49 49 49 49 50 50 51 51 43 39 38 39 39 37 39 38 38 39 39 39 40 41 40 39 40 41 40 40 40 41 41
62 62 62 61 59 59 60 61 60 61 57 54 52 51 50 49 49 48 48 48 47 47 48 47 45 39 39 39 38 38 47 47 45 47 47 48 49 50 50 52 45 40 38 39 39 38 38 37 37 38 39 39 39 38 39 40 39 39 40 40 40 40 40
61 62 61 60 59 58 59 60 59 57 54 52 51 50 49 49 48 47 47 48 48 48 48 47 43 42 38 39 39 39 38 43 40 44 46 46 47 48 50 50 46 38 39 39 38 38 39 39 39 40 39 38 38 38 38 38 39 39 39 40 39 38 39
62 61 61 60 59 58 58 57 56 55 53 52 50 49 49 48 48 47 47 47 48 48 48 47 43 42 41 38 38 39 38 38 41 46 46 45 46 47 48 47 42 38 39 39 39 40 39 38 39 38 38 38 38 38 38 38 39 39 39 38 38 38 38

ECMWFFLT1_sfc_temp_039.txt.gz
Temp
61 61 62 62 62 63 62 63 63 62 62 63 63 62 61 63 63 63 61 62 62 64 63 61 60 60 62 62 60 60 60 60 59 59 58 59 58 58 59 58 58 59 59 59 57 55 53 53 56 59 61 61 62 63 63 64 66 66 65 64 67 67 65
63 62 62 63 62 63 61 60 62 62 62 63 64 62 61 63 64 61 60 61 62 62 64 63 61 61 59 59 59 59 59 59 59 58 57 56 58 57 57 58 58 58 58 57 57 57 55 52 54 55 56 60 60 61 62 63 64 65 66 66 66 68 66
62 62 62 61 60 60 61 60 60 61 60 60 60 60 60 60 60 61 61 61 59 62 63 61 59 59 60 59 58 58 58 58 58 58 57 56 58 56 57 57 56 57 58 56 56 57 57 57 55 55 55 55 56 57 61 61 63 63 65 65 66 68 66
62 61 61 60 59 60 61 60 60 60 60 60 60 61 61 60 59 61 60 61 61 62 61 61 60 60 59 58 59 59 58 58 57 58 58 56 56 57 58 56 56 56 56 55 54 56 55 53 52 54 55 59 58 57 59 60 62 64 65 64 65 66 66
62 62 61 60 60 61 60 60 60 60 60 60 60 59 59 60 60 60 60 59 61 60 61 61 61 62 61 61 59 59 59 58 58 58 56 56 56 56 56 56 56 57 57 57 58 56 57 54 54 52 54 56 56 59 63 59 62 63 63 64 65 65 65
63 62 62 61 60 61 60 60 60 60 58 59 58 60 58 59 59 59 59 59 58 59 58 59 59 60 60 59 59 57 57 57 56 56 55 54 55 56 55 56 56 58 57 57 58 57 56 56 54 51 54 57 53 53 58 61 59 61 64 64 66 66 66
63 62 61 61 61 61 61 61 61 61 60 60 59 59 60 60 59 59 60 58 58 58 59 58 58 59 59 60 58 57 57 56 56 54 55 55 55 55 55 55 56 57 56 57 57 57 56 56 52 52 52 52 53 55 57 58 61 61 62 64 65 66 65
63 62 62 62 61 61 60 62 61 61 61 60 61 61 61 60 59 59 59 59 59 58 59 59 61 59 58 61 60 58 57 56 56 56 55 55 58 56 54 55 57 55 55 56 55 57 57 56 55 55 52 51 49 49 52 55 59 60 61 63 67 67 67
64 63 62 63 61 62 61 62 61 61 62 61 61 62 61 60 59 59 59 58 58 59 58 58 58 58 58 59 58 57 58 61 57 56 55 54 54 55 54 54 55 55 55 56 57 56 55 55 56 54 53 50 49 46 48 48 52 54 62 61 62 66 68
63 63 63 62 61 61 62 61 61 62 62 62 62 62 61 60 60 59 59 58 58 58 59 59 58 58 57 59 59 57 57 57 56 56 55 54 55 54 54 54 54 54 54 54 55 56 56 55 56 55 55 53 51 49 46 47 47 50 55 62 59 60 67
63 63 62 63 63 61 60 60 60 61 61 63 63 63 62 61 60 63 59 58 57 58 58 59 58 59 57 58 57 57 57 57 56 56 56 55 55 55 54 54 54 55 53 52 54 55 54 54 54 55 54 54 52 51 50 48 46 50 52 55 61 59 63
62 63 62 63 63 62 61 61 61 61 62 61 62 62 61 61 61 60 59 58 58 58 57 59 58 58 58 56 58 57 57 56 56 55 55 57 56 55 55 53 53 54 53 53 53 54 53 52 55 54 53 54 54 53 52 51 47 48 55 55 54 59 61
64 65 63 64 63 62 62 62 61 60 62 62 62 62 62 61 61 60 59 59 59 58 58 58 57 57 56 55 56 58 56 56 56 55 56 56 60 55 54 53 53 54 54 52 53 53 54 53 54 56 55 54 52 52 54 53 50 50 51 55 55 57 61
64 63 63 63 63 62 62 62 63 63 61 62 62 62 62 62 61 61 61 60 60 59 59 58 57 56 57 56 56 56 56 57 56 55 56 56 58 56 55 55 54 54 55 53 53 54 53 54 54 54 53 53 53 51 53 52 51 50 50 51 55 57 59
61 61 61 61 62 63 62 61 60 61 62 62 62 62 63 62 61 61 62 61 60 61 60 60 58 57 58 56 56 58 58 57 55 56 55 56 55 59 54 53 56 56 56 55 53 55 55 54 56 54 53 53 52 54 52 54 51 50 51 51 53 56 57
60 61 60 60 60 61 60 60 60 60 60 60 60 61 62 62 62 62 61 62 61 61 61 61 60 59 57 58 57 56 58 56 56 54 55 57 57 56 55 54 53 54 56 54 55 53 53 55 54 55 53 54 53 52 53 53 52 51 50 50 52 55 54
59 59 62 60 59 59 59 59 60 61 60 58 60 60 60 61 61 60 61 61 62 61 61 61 61 61 60 59 58 59 56 57 57 54 56 57 57 56 55 54 53 53 53 52 54 54 52 52 51 52 52 52 52 52 51 51 52 51 48 50 49 54 55
59 58 58 57 59 58 57 58 58 60 60 60 60 60 60 59 60 59 59 60 61 61 62 62 61 61 61 61 60 59 58 59 58 57 56 57 58 56 55 55 54 54 52 52 52 53 51 51 53 52 51 52 53 53 53 52 51 50 48 49 49 52 53
59 59 59 59 59 58 58 60 59 58 59 59 59 60 60 58 58 57 57 58 59 60 60 61 60 60 61 61 61 59 59 60 59 59 56 57 56 56 55 55 53 53 52 51 51 51 51 51 51 50 50 50 51 51 49 50 51 50 50 49 49 49 51
58 57 57 57 56 57 57 57 58 59 58 58 59 58 58 58 56 57 58 58 59 60 60 59 57 59 60 60 59 59 59 59 59 59 57 58 56 56 55 54 53 53 52 51 51 52 49 48 49 47 48 48 48 47 48 48 49 49 48 48 49 49 50
57 57 57 56 56 57 58 57 57 57 59 58 57 58 58 58 57 57 58 58 58 59 58 57 57 57 59 60 60 60 60 59 58 58 57 56 56 56 55 55 54 53 52 51 50 49 49 48 47 49 47 48 46 45 44 46 46 45 45 46 45 45 46
57 56 57 57 56 56 58 58 57 57 56 56 58 57 58 57 57 57 57 57 58 57 58 57 57 57 57 59 58 58 59 59 58 58 56 56 56 56 55 55 54 52 55 56 53 52 52 51 50 48 47 47 47 46 44 44 45 43 43 44 44 45 45
58 58 56 56 57 57 58 58 57 56 57 58 57 58 57 57 56 55 56 57 58 58 58 58 57 53 54 58 57 60 59 59 59 58 57 55 55 55 55 54 56 60 56 53 50 48 47 49 51 52 48 46 45 45 44 43 43 43 44 42 42 42 42
56 57 57 57 57 57 58 58 58 58 58 58 58 57 57 56 56 56 57 57 57 58 58 59 52 47 47 50 56 55 57 57 57 57 56 55 54 54 54 55 54 56 54 52 49 47 49 49 47 47 47 48 49 47 44 42 41 42 42 43 43 42 40
57 57 58 58 58 57 56 56 57 57 57 57 57 57 57 57 57 56 57 57 55 56 56 54 49 47 46 46 50 56 56 57 57 56 56 55 55 54 55 55 55 55 54 53 51 51 49 47 45 44 43 42 42 42 43 43 44 42 41 41 41 41 41
54 55 56 56 56 54 54 55 56 56 56 57 55 55 57 57 56 56 56 55 55 54 56 49 42 45 45 47 48 52 57 56 55 54 54 54 54 53 53 53 55 55 57 58 56 53 51 49 46 44 44 44 43 43 41 39 40 43 43 41 41 41 41
54 53 53 54 54 54 54 53 53 53 54 55 55 55 54 56 56 56 56 54 51 49 45 41 43 45 46 46 46 49 53 53 53 54 55 54 53 52 51 52 52 52 53 53 52 52 51 50 49 45 42 41 42 43 43 41 40 40 41 41 41 41 43
56 55 55 54 53 52 53 51 52 51 52 54 54 54 53 53 56 55 52 50 46 43 42 41 41 42 43 44 45 47 50 51 51 51 51 51 51 51 51 52 50 50 52 53 52 50 50 47 44 45 43 43 43 43 44 44 43 42 42 41 41 41 42
52 52 54 54 54 54 52 51 52 51 52 51 50 51 50 51 50 49 49 46 44 41 40 41 41 42 43 44 46 50 50 49 49 49 49 49 50 51 51 50 50 50 50 51 46 45 44 44 44 45 44 41 40 41 42 45 45 44 43 42 41 41 42
54 54 54 55 55 54 53 52 52 51 53 49 48 49 46 47 47 46 44 44 43 41 40 40 41 42 44 45 46 49 48 49 49 49 49 49 51 50 50 50 50 50 49 45 40 38 40 42 41 40 39 38 39 39 40 43 44 43 41 41 41 40 40
54 54 52 54 53 51 51 50 51 52 54 49 46 46 46 46 44 44 44 43 44 42 39 40 42 42 43 44 48 51 51 51 49 48 49 50 50 51 52 53 52 47 42 40 39 39 40 41 39 38 37 36 36 36 37 39 41 41 41 41 41 41 41
53 53 53 52 52 53 51 52 51 48 48 47 46 44 45 44 42 42 42 42 45 42 39 40 41 41 42 44 48 50 50 49 48 49 49 49 50 49 47 45 45 43 41 39 38 39 39 40 38 37 36 36 35 34 36 35 35 36 36 37 38 39 39
52 52 51 50 49 50 50 49 50 47 45 46 44 42 43 42 41 41 41 42 42 41 40 39 39 41 42 43 45 50 49 48 47 46 47 48 47 48 44 41 40 38 38 38 37 37 38 39 37 37 36 34 33 34 36 35 37 36 35 35 35 36 37
53 52 52 52 51 50 49 50 48 46 45 45 43 42 42 41 41 40 40 40 41 39 41 39 40 40 41 41 42 44 44 44 43 44 45 45 46 46 44 40 38 39 38 37 37 38 39 39 39 36 34 33 35 37 38 34 36 39 35 35 36 36 36
52 54 52 52 50 49 48 50 51 46 44 43 43 41 40 41 40 39 39 39 40 40 42 43 41 40 40 41 41 42 42 42 41 42 41 42 43 44 43 40 38 38 38 38 38 39 39 39 38 36 36 37 37 37 37 36 36 35 34 34 34 34 35
51 54 53 51 50 48 47 48 48 45 45 43 43 41 40 40 40 39 39 40 38 39 39 41 41 39 39 39 39 40 40 40 40 42 40 38 39 40 41 38 38 39 39 39 39 39 39 39 39 36 37 37 37 37 37 35 35 34 34 35 35 35 37
50 49 48 48 47 46 45 45 44 45 45 44 42 41 39 40 39 39 39 38 39 39 40 40 41 41 40 38 39 38 38 40 40 40 39 38 39 40 39 39 38 38 39 39 39 38 38 38 37 37 37 37 37 37 34 34 33 34 35 35 35 36 37

ECMWFFLT1_sfc_temp_042.txt.gz
Temp
58 57 57 57 57 58 58 57 58 58 58 58 59 59 59 61 60 59 58 58 59 59 60 58 57 57 59 59 58 57 57 57 57 57 57 58 57 58 59 57 57 58 57 57 55 55 52 53 54 56 58 58 59 60 61 62 63 64 64 63 64 66 64
59 59 58 58 57 57 56 56 58 57 57 57 57 57 57 60 61 57 57 57 58 58 60 59 57 57 56 56 56 57 56 55 56 54 54 54 53 56 58 57 57 57 56 56 56 56 53 49 51 52 54 55 56 58 59 59 62 63 63 62 63 65 64
59 58 58 57 56 56 56 56 56 56 56 56 56 56 57 59 58 58 57 57 56 59 59 57 56 57 56 56 55 55 55 55 54 54 54 53 54 53 54 56 56 55 55 55 55 54 54 53 53 53 53 52 52 54 57 60 61 62 63 64 63 61 63
59 59 57 56 55 55 57 55 55 56 56 56 57 56 57 57 57 58 57 56 57 59 58 57 56 56 55 55 56 55 55 55 54 54 54 54 54 54 54 53 53 54 54 53 53 53 52 51 49 51 51 55 55 52 57 58 59 60 61 62 63 64 65
60 60 58 57 57 57 55 55 55 55 55 56 55 56 56 56 57 56 57 56 57 56 56 56 56 57 56 56 56 55 54 53 54 55 53 53 54 53 53 53 54 54 53 53 53 53 54 52 51 50 52 53 52 54 57 58 56 60 61 63 64 64 65
60 60 59 58 57 57 56 55 55 55 55 56 55 57 56 55 56 57 57 57 56 56 55 55 55 55 55 55 55 54 54 54 53 53 52 51 52 53 52 52 53 54 53 53 54 54 52 52 51 48 51 52 52 51 51 55 57 57 61 62 63 64 63
59 59 58 59 57 57 57 57 57 56 56 56 56 56 57 55 55 56 56 55 55 54 55 55 54 55 55 56 54 54 53 51 52 52 52 51 51 50 51 53 53 53 52 53 52 54 53 52 50 49 49 47 48 51 51 54 57 57 59 60 61 63 63
60 58 58 59 58 57 56 57 56 56 55 56 57 58 55 55 55 55 54 54 55 54 54 55 57 54 54 56 55 53 53 52 53 54 53 53 54 52 51 51 53 53 53 54 52 53 54 53 52 52 49 50 45 44 48 49 52 54 55 56 59 63 63
61 60 59 58 57 58 58 58 57 56 57 56 56 56 55 56 56 55 55 54 54 54 54 54 54 54 54 54 53 53 54 56 54 53 52 53 52 50 50 50 53 51 51 52 53 51 51 53 53 50 48 48 46 45 45 46 48 50 54 57 55 60 63
61 61 61 59 59 59 59 58 58 58 57 58 58 57 56 55 56 55 55 55 54 54 54 54 54 53 54 55 54 53 53 53 53 53 52 53 51 51 51 51 51 51 50 50 51 52 52 51 52 51 51 50 48 45 44 47 44 48 51 56 56 56 62
62 62 62 62 60 59 59 59 58 57 57 59 59 59 57 56 56 59 56 55 54 54 54 53 54 53 54 54 53 53 53 52 53 52 52 52 52 51 51 51 50 50 49 49 49 49 50 49 50 51 50 49 49 48 47 46 44 46 50 51 54 56 59
62 63 63 63 61 60 59 59 59 60 58 57 59 57 56 57 57 56 56 55 55 55 53 54 53 53 53 53 53 53 53 52 51 52 53 53 53 52 50 51 50 51 49 50 50 51 50 50 51 50 49 50 50 49 48 46 45 45 51 52 50 53 55
63 64 63 62 61 61 61 60 60 58 59 59 59 59 58 58 58 57 56 57 56 55 55 54 54 53 52 55 53 55 53 52 53 52 53 53 54 51 50 51 52 52 51 50 51 51 50 51 50 50 51 51 49 48 48 48 47 48 47 52 51 53 55
62 63 63 62 62 61 62 61 60 61 60 59 59 59 59 59 59 59 58 58 58 57 56 55 54 54 53 54 53 54 53 52 54 52 53 53 54 51 51 51 51 53 50 50 50 51 52 50 49 51 51 49 49 50 51 48 48 49 48 46 50 53 55
59 59 60 62 62 61 60 60 60 58 60 60 60 60 60 60 59 59 59 59 59 58 58 57 55 54 55 54 54 55 55 53 53 53 51 52 52 54 51 50 53 52 51 50 50 53 51 51 52 51 50 50 48 50 48 50 47 48 48 50 50 51 53
57 57 57 58 59 59 58 58 59 60 59 58 59 60 61 60 60 60 59 59 58 58 58 59 57 56 56 55 55 54 55 54 53 53 53 53 53 52 51 50 50 51 53 51 49 48 49 50 51 51 49 50 50 48 49 49 48 46 45 47 46 51 51
57 57 57 56 57 58 58 58 57 58 57 57 57 57 58 58 58 58 59 59 58 59 58 58 58 58 58 57 56 56 55 55 54 54 55 54 53 52 51 50 49 50 50 50 50 48 48 49 49 49 48 48 48 48 47 47 47 46 44 46 46 50 50
55 57 57 57 57 58 58 58 57 58 57 57 57 57 57 58 60 59 59 59 58 57 58 58 58 58 58 57 58 57 56 56 55 54 55 55 56 54 53 53 52 50 49 49 48 48 47 47 48 48 47 47 48 47 47 46 45 46 44 44 45 46 49
55 55 56 55 56 57 58 58 57 56 57 57 56 56 56 56 57 57 58 58 57 57 57 58 58 58 57 56 57 56 56 56 56 56 54 55 55 54 54 53 52 51 50 50 49 47 47 47 47 46 46 47 47 46 45 45 45 45 45 44 43 44 45
55 55 55 56 55 56 56 57 58 58 58 57 56 55 56 56 56 56 57 57 58 57 57 58 58 57 57 58 57 56 55 55 56 56 55 55 55 54 55 54 52 52 51 50 50 48 46 45 47 45 47 46 45 44 43 42 43 43 42 42 43 43 44
55 55 55 54 55 56 56 55 56 57 57 57 56 57 56 57 56 56 56 57 57 57 56 56 56 56 58 59 59 58 57 55 55 54 55 54 54 54 54 54 53 53 53 51 51 48 48 48 46 45 44 45 43 44 43 42 42 42 41 41 40 40 40
54 54 54 54 54 54 55 56 55 54 54 55 55 56 56 57 56 55 54 54 55 55 55 56 56 56 57 58 57 57 57 57 56 56 55 55 53 53 53 54 53 53 55 56 53 51 51 50 48 48 45 44 44 45 43 41 42 41 41 41 41 41 40
54 53 53 53 54 54 54 54 53 53 54 54 53 54 55 55 55 55 54 54 54 54 55 56 56 53 54 57 55 57 55 55 56 56 56 54 54 55 56 56 56 58 56 54 50 47 46 47 49 50 47 45 45 44 44 43 41 40 41 40 39 39 40
53 53 52 52 51 52 54 53 53 53 53 53 53 53 53 54 53 54 54 54 53 54 56 57 51 46 46 50 54 53 54 53 54 54 55 55 54 54 54 56 57 57 54 52 50 45 45 45 46 47 47 47 47 45 42 43 40 40 41 40 40 39 37
52 51 52 51 50 51 52 52 53 53 52 52 53 51 52 54 54 53 53 51 52 54 54 52 48 46 45 45 49 54 54 54 54 54 55 55 55 55 55 55 55 55 53 53 52 49 47 45 44 43 42 42 42 43 44 44 42 41 39 39 38 38 37
49 48 50 51 52 51 51 51 52 51 51 52 52 51 53 54 54 52 52 52 52 51 48 40 43 44 43 43 44 49 52 52 52 51 53 53 53 54 54 53 53 53 54 56 53 49 49 49 43 43 43 43 42 40 39 40 43 43 40 38 37 37 37
51 51 50 49 48 48 48 48 48 48 50 50 50 48 48 50 52 50 50 50 49 42 40 42 42 43 42 42 41 45 51 50 50 50 50 51 51 51 52 52 52 51 52 52 51 51 50 50 47 46 43 40 41 43 41 40 39 39 40 40 38 37 39
50 48 48 50 48 48 48 47 48 48 48 49 48 50 48 47 48 50 48 45 41 40 41 41 41 42 42 42 42 45 46 47 47 47 48 49 49 51 51 51 51 51 51 50 50 50 50 48 47 45 42 40 39 39 39 40 40 39 39 38 37 37 37
48 47 47 47 50 49 46 45 47 46 45 43 43 43 43 43 46 43 42 41 40 39 39 41 40 40 41 42 44 48 47 47 47 47 48 48 49 50 51 51 51 50 47 44 42 41 43 45 43 40 38 37 37 37 38 42 41 40 39 37 38 39 37
49 48 48 48 48 48 48 49 48 45 44 41 41 41 40 41 41 41 40 39 40 38 38 41 41 42 42 43 45 46 47 47 48 49 49 49 48 49 49 50 48 45 43 42 40 38 39 41 40 38 36 34 35 35 37 39 41 40 39 40 40 40 39
50 49 48 50 49 49 47 45 45 45 44 41 41 40 40 39 39 39 39 38 39 40 38 40 42 42 43 44 46 47 47 49 49 49 48 46 44 44 46 49 45 43 42 41 39 39 39 42 40 38 36 35 34 33 35 36 38 38 39 40 40 39 39
49 50 49 47 46 48 48 48 43 41 41 41 40 39 40 38 37 37 37 39 45 39 37 40 41 41 42 44 46 45 47 48 47 45 46 45 44 42 41 44 45 44 43 41 38 39 39 39 37 35 33 34 34 31 33 32 33 33 34 34 35 36 37
46 47 47 44 44 46 45 42 41 41 40 40 39 38 38 38 37 36 36 37 39 37 38 38 39 41 42 43 44 47 46 44 44 45 46 46 42 41 41 40 41 38 38 38 38 38 38 38 36 34 32 32 33 32 33 32 34 33 32 34 33 34 35
49 48 47 48 46 46 44 42 40 40 40 39 38 37 37 36 37 35 35 36 36 37 38 37 38 40 41 41 42 44 46 44 44 45 45 44 43 41 40 40 40 39 37 38 37 37 37 38 39 33 32 31 33 34 36 33 35 38 33 33 34 34 34
45 47 45 46 46 45 42 42 40 39 39 38 38 36 35 36 37 35 35 36 36 36 41 42 39 40 40 41 41 43 45 44 45 45 44 42 42 41 40 40 39 39 37 37 37 37 38 38 37 37 33 36 36 36 35 34 34 33 33 33 31 31 32
46 47 45 43 42 44 42 40 38 40 39 38 37 36 35 35 36 36 35 35 35 35 36 39 41 40 40 40 40 40 41 41 40 45 44 41 40 40 40 39 40 40 37 37 37 37 38 37 38 35 36 36 36 36 36 33 32 32 31 31 32 32 32
44 44 43 42 41 40 40 38 38 41 39 38 37 36 36 36 35 35 36 35 36 36 36 37 40 40 39 39 39 38 38 39 40 42 42 40 39 38 37 36 37 38 37 38 38 37 37 37 35 37 37 37 36 37 34 32 31 32 32 31 30 31 31

ECMWFFLT1_sfc_temp_045.txt.gz
Temp
56 56 54 54 54 56 55 55 55 55 55 56 56 55 55 57 57 56 55 56 56 56 57 55 54 54 55 56 55 54 55 55 57 57 57 58 56 58 59 57 57 57 56 56 54 54 50 53 53 55 56 57 58 59 60 60 60 61 60 60 62 62 62
55 57 55 56 55 54 55 54 55 54 54 54 55 55 55 56 58 55 54 55 55 56 57 56 53 53 53 54 54 55 54 53 54 55 54 52 55 57 57 56 56 55 54 55 56 54 51 48 51 50 52 54 54 57 58 59 60 61 60 60 62 62 61
56 55 54 54 54 54 55 53 53 54 54 54 54 54 54 55 55 56 55 54 54 56 56 53 53 53 53 53 52 52 52 53 52 52 51 50 52 53 56 55 54 52 53 53 52 51 52 51 51 52 51 51 53 54 54 56 58 59 60 61 60 60 61
56 56 55 53 53 53 55 53 53 53 53 54 54 54 54 55 55 56 55 54 55 56 56 55 54 53 52 53 53 53 52 52 52 52 53 52 52 52 52 51 52 53 53 51 52 51 50 50 49 51 49 52 54 53 57 56 58 59 60 59 60 60 61
58 57 56 55 53 54 53 53 52 52 53 54 52 53 53 54 55 54 54 53 54 53 53 53 53 53 53 53 53 53 52 51 52 53 52 52 52 52 51 50 50 51 52 52 50 50 52 50 51 49 49 50 50 52 56 55 58 59 60 61 61 60 60
59 57 55 54 53 54 52 52 52 53 52 53 54 54 53 53 54 54 53 54 53 53 52 53 52 52 53 52 52 52 52 52 51 52 52 50 51 52 50 50 50 52 51 49 51 50 49 49 49 48 49 49 50 49 51 52 54 54 59 59 60 59 59
58 58 57 56 54 53 54 52 53 54 53 53 52 54 54 53 53 54 53 52 52 52 52 51 51 52 52 52 52 52 51 49 51 51 50 50 50 49 49 51 51 50 51 51 50 51 49 50 47 47 47 46 44 48 47 51 53 56 56 56 58 60 59
60 59 58 57 55 54 52 52 52 52 53 52 53 53 53 52 52 52 52 52 52 52 52 53 54 52 52 53 52 51 51 50 51 51 50 51 52 50 50 50 51 49 48 49 50 50 50 50 50 50 46 48 47 44 46 46 49 53 53 53 56 60 59
60 59 58 57 55 53 53 53 52 52 52 52 51 54 53 52 52 52 54 51 51 51 51 51 51 51 51 52 51 51 51 53 52 50 49 50 49 48 48 48 51 48 48 49 50 49 49 50 50 45 47 44 44 48 44 47 47 51 53 55 53 57 59
59 59 59 57 56 55 54 53 53 53 51 52 55 53 52 52 52 51 52 52 51 51 51 52 52 50 51 53 52 51 51 50 52 50 49 50 47 48 48 48 49 48 47 48 48 49 49 48 49 48 48 49 45 42 42 44 46 46 52 53 55 55 58
60 60 60 59 57 57 54 54 53 53 54 54 54 55 52 52 52 57 51 53 51 51 52 51 51 50 51 51 51 51 51 50 50 49 50 50 48 49 49 48 48 48 47 49 47 47 48 48 47 49 47 46 47 47 44 44 45 43 49 49 52 54 56
60 60 60 60 58 58 57 56 55 56 54 54 55 54 52 52 52 53 52 52 52 52 51 51 51 50 51 50 50 51 50 50 50 50 50 51 49 51 49 49 48 49 48 49 50 50 49 50 48 47 47 48 48 46 45 42 44 44 47 49 48 50 53
59 60 60 59 58 59 59 57 56 54 55 55 54 54 54 53 53 53 52 53 53 52 51 51 50 51 50 51 51 51 50 50 51 50 50 49 51 49 48 49 48 48 48 50 50 50 48 49 49 48 48 48 47 46 46 43 43 46 44 49 48 50 52
59 60 59 59 60 60 59 58 57 57 56 55 54 54 54 54 54 54 53 53 53 53 52 52 50 50 50 51 50 51 49 50 50 50 50 50 50 49 49 48 48 49 48 50 48 50 49 48 48 48 48 47 47 47 47 46 46 45 45 44 46 49 51
58 57 59 58 58 57 57 56 55 55 56 56 55 55 55 55 56 56 55 54 53 53 53 53 52 51 52 51 50 52 52 50 51 50 50 50 49 51 49 50 50 49 48 49 47 50 49 48 50 49 47 47 46 47 46 48 44 44 45 46 46 48 49
58 57 56 56 55 56 56 55 56 55 55 55 56 56 56 56 56 57 57 57 56 55 55 54 53 52 52 52 52 51 52 50 51 50 50 50 50 49 48 49 49 48 49 49 46 46 47 48 48 48 46 46 46 45 45 46 46 44 43 44 43 48 47
56 56 57 56 56 56 56 55 56 56 56 56 56 57 57 57 56 56 57 57 57 57 57 56 55 54 55 54 53 53 52 51 51 51 52 52 50 50 50 48 48 48 48 48 46 46 46 46 47 47 46 45 46 46 44 45 45 44 42 43 42 46 47
54 54 54 54 55 55 54 54 55 56 56 56 56 55 56 57 57 57 58 58 57 56 56 56 55 54 54 53 53 53 53 53 52 52 52 53 54 52 50 51 50 48 48 48 45 46 46 46 46 47 46 45 46 45 45 45 44 43 42 42 42 40 43
53 53 52 53 54 54 54 53 54 54 55 56 55 54 54 54 56 57 57 57 57 56 56 55 54 55 55 53 52 52 53 53 53 53 52 52 53 52 52 51 50 50 49 50 48 46 45 46 45 45 45 45 45 44 43 43 43 42 42 41 41 41 40
53 53 53 53 54 54 54 55 55 54 54 54 54 55 55 55 54 55 57 57 57 57 57 57 56 56 56 54 53 53 53 52 52 52 52 53 53 52 52 52 51 51 52 52 52 51 49 48 48 46 46 45 44 43 43 41 42 42 41 40 39 40 40
54 54 54 54 54 55 54 54 55 55 54 54 54 55 55 55 56 56 56 56 56 56 56 56 56 56 56 57 56 55 55 55 54 53 52 52 52 52 53 53 52 52 53 53 54 53 52 50 48 48 45 44 42 42 41 41 40 40 39 39 39 38 38
54 54 54 54 54 54 55 55 55 55 54 54 55 55 56 56 56 56 56 55 55 55 55 56 56 56 55 56 56 56 56 55 55 54 53 52 51 51 51 52 52 52 54 56 54 52 52 51 49 48 46 43 42 41 39 40 40 38 38 39 39 38 38
54 53 53 53 53 53 53 54 53 53 54 53 54 54 54 55 55 56 56 55 54 53 54 55 55 52 52 55 55 56 55 54 54 54 54 53 51 51 52 52 53 57 56 55 51 47 46 48 50 50 48 45 43 40 39 38 38 39 39 39 38 37 37
52 52 51 51 50 51 51 52 50 50 51 53 54 54 53 53 54 54 54 53 53 53 53 54 50 47 46 46 52 52 53 53 52 53 52 52 52 51 51 52 54 56 55 52 49 44 44 44 44 44 45 46 46 43 39 39 38 37 40 38 37 37 36
48 48 49 49 48 48 48 49 50 49 49 50 50 51 51 52 52 51 51 49 50 49 50 47 43 47 45 44 46 52 52 52 53 52 52 51 52 52 53 53 54 54 53 53 51 49 46 43 42 41 41 42 42 42 43 42 40 37 36 37 36 36 35
48 48 49 49 48 46 46 47 47 47 48 47 47 48 48 49 48 48 49 50 48 48 48 42 40 41 41 42 42 47 51 51 51 51 51 52 52 52 52 52 51 52 54 55 53 50 49 46 42 41 42 42 41 40 38 40 41 40 35 37 37 35 34
47 46 45 45 45 46 47 49 47 45 45 46 45 48 46 45 46 46 47 47 46 42 41 43 41 40 40 39 39 42 48 48 49 49 49 49 50 49 49 50 50 50 51 52 51 51 50 48 48 47 46 45 44 42 41 40 39 38 39 38 37 37 35
45 44 46 46 43 43 44 44 46 44 43 46 46 47 44 41 44 46 44 42 40 40 40 41 40 40 41 41 41 43 43 43 44 43 43 44 45 46 47 49 50 49 49 48 48 50 49 48 47 45 43 42 41 40 39 38 38 37 38 36 35 36 35
44 43 42 41 42 43 42 43 44 44 40 39 39 38 39 41 41 39 39 38 39 39 38 40 40 40 41 41 43 45 43 43 43 43 44 43 44 44 46 47 46 44 44 44 42 42 44 46 44 42 41 40 40 39 39 41 40 40 38 35 35 35 35
44 43 42 44 44 45 45 44 44 41 41 38 38 38 37 37 36 36 37 37 36 37 36 39 40 40 40 41 43 43 43 44 44 43 41 41 42 44 44 44 43 42 42 41 39 39 40 43 43 42 41 40 39 39 37 37 40 39 39 39 39 39 39
46 44 44 47 46 45 43 42 39 40 39 39 38 37 37 36 36 36 35 35 38 37 36 39 41 41 41 43 44 44 43 44 42 41 40 41 42 44 47 48 46 43 42 41 39 39 40 43 42 41 40 38 38 36 35 34 35 36 38 39 39 38 38
45 45 46 45 43 45 42 40 39 38 38 38 37 36 37 36 35 35 35 37 44 37 36 40 41 41 41 43 44 42 44 43 41 39 39 40 42 43 43 45 45 44 43 40 38 39 39 42 40 37 33 33 34 31 31 31 30 32 32 34 34 35 36
43 42 43 44 41 42 40 39 37 38 36 37 37 35 36 34 34 33 33 34 36 35 36 37 38 41 41 42 43 45 44 43 40 39 39 40 39 39 40 41 41 39 38 38 38 38 38 38 39 37 34 31 32 34 31 31 34 33 31 32 31 31 33
44 42 43 44 42 41 39 39 37 37 37 36 35 35 34 34 34 33 33 33 34 36 38 36 37 39 41 41 42 44 44 43 40 39 38 39 38 38 38 39 39 39 38 38 37 37 37 37 37 34 30 29 31 35 35 31 33 38 32 31 32 32 32
43 45 42 42 41 39 39 37 37 37 36 35 35 33 33 33 33 33 33 33 34 34 39 42 36 39 40 41 41 42 43 40 41 41 39 39 39 39 39 39 38 38 37 37 37 37 38 37 38 35 31 36 36 36 32 34 32 31 31 32 30 30 31
43 45 44 42 41 40 37 38 36 37 36 34 34 33 32 32 33 33 33 33 32 32 32 37 40 38 39 39 39 40 40 40 41 41 40 38 37 36 36 36 38 39 36 37 37 37 37 37 38 35 36 36 36 35 36 32 32 31 30 30 32 31 30
43 43 44 42 41 40 36 35 36 38 37 37 34 33 32 33 32 33 33 35 35 34 34 34 38 39 38 38 39 39 38 38 39 39 39 37 37 38 38 38 39 37 37 37 38 37 37 37 34 36 36 36 36 37 32 31 30 31 31 30 30 30 30

ECMWFFLT1_sfc_temp_051.txt.gz
Temp
69 67 66 66 67 68 68 67 68 68 68 69 69 69 70 70 70 69 70 70 70 71 71 71 69 69 69 68 67 66 66 67 68 67 66 68 65 66 68 67 65 64 64 63 64 64 65 59 61 66 67 65 66 67 66 67 68 68 68 68 70 72 72
68 67 67 68 67 68 67 67 68 69 68 67 69 69 69 70 70 69 70 70 70 70 71 71 69 69 69 68 68 68 67 66 66 66 67 68 67 67 66 66 66 65 65 64 64 65 64 63 61 62 61 65 65 65 66 67 69 68 68 68 69 69 70
67 67 68 67 67 68 67 66 67 68 69 68 68 68 69 70 69 70 70 69 68 69 69 69 68 68 67 67 66 66 66 65 66 68 67 66 67 68 68 68 67 67 69 68 66 65 65 66 60 58 60 59 55 61 66 67 68 69 70 70 69 70 70
66 66 66 65 66 67 67 67 67 67 68 68 68 67 67 69 68 69 69 69 69 68 69 69 68 69 67 66 66 66 66 66 66 64 64 65 67 67 67 69 69 69 67 67 67 67 66 63 63 62 62 63 60 59 61 66 69 72 72 70 69 69 70
67 67 67 66 67 67 67 66 66 67 67 67 68 68 67 68 68 68 68 69 69 68 68 68 68 69 68 68 68 67 66 66 66 66 66 66 66 67 66 68 68 68 68 68 69 69 69 67 66 64 64 66 67 67 68 67 71 71 71 72 72 71 70
67 68 68 67 67 67 67 66 67 67 67 67 68 68 67 67 69 69 69 69 68 67 67 68 67 67 68 68 68 67 67 66 67 67 66 65 66 67 66 67 68 69 67 67 68 68 68 70 68 65 67 69 64 65 69 70 68 71 72 71 72 72 71
67 68 68 68 67 68 68 67 68 68 68 68 67 68 67 68 69 69 68 68 68 68 67 66 67 67 68 71 69 68 66 66 66 66 65 64 64 65 67 67 67 67 67 68 68 68 68 68 68 66 64 66 67 67 69 70 70 69 69 71 72 72 70
67 67 68 68 67 67 67 67 67 68 68 68 68 67 66 67 67 68 68 68 67 67 67 67 67 67 67 69 69 66 66 66 67 66 66 65 65 65 65 66 66 67 67 69 69 68 70 69 69 67 66 61 62 64 64 68 68 66 67 69 71 70 69
66 66 66 65 66 67 67 68 67 67 68 68 67 67 66 68 67 67 68 68 67 67 68 68 68 68 68 68 68 67 65 67 66 65 65 65 64 64 65 66 67 66 67 67 69 68 69 68 68 68 69 67 63 59 63 62 64 63 67 67 69 69 69
64 64 64 63 63 64 66 67 68 68 67 67 67 67 67 67 68 68 68 67 67 67 67 68 68 68 68 68 68 67 66 67 67 66 66 66 65 65 66 65 66 66 66 66 67 67 67 67 69 69 71 69 68 64 61 60 60 61 64 67 66 67 69
66 66 65 64 64 64 65 66 67 66 67 68 68 67 68 67 67 67 68 67 67 67 68 68 69 68 68 68 67 67 67 67 66 66 66 67 66 66 65 66 67 66 66 67 66 65 67 67 68 68 70 70 70 67 65 62 59 62 62 64 66 65 67
66 65 65 65 65 66 65 66 67 68 67 67 67 67 67 68 68 67 68 67 67 67 67 67 68 68 69 68 67 67 66 68 67 66 66 66 66 66 66 65 66 66 66 65 65 66 65 67 68 70 68 69 69 69 67 65 60 60 63 61 63 66 65
66 65 64 65 65 66 67 67 67 66 67 67 67 66 68 68 68 67 67 68 67 68 68 67 68 68 68 68 68 68 67 68 68 67 67 66 67 67 66 66 66 66 65 66 66 65 65 65 66 68 68 68 68 67 68 67 63 59 62 62 63 64 64
64 65 64 65 66 66 66 67 67 68 67 66 66 66 67 68 69 68 68 68 68 67 67 67 66 67 68 68 68 68 68 68 68 68 67 65 66 67 68 67 66 65 66 66 66 66 66 66 66 66 67 68 67 67 68 66 63 60 60 62 62 63 63
66 66 66 65 65 65 66 66 66 67 67 66 67 67 67 68 69 69 69 69 69 68 68 68 67 67 68 66 66 65 66 67 68 67 66 67 67 66 66 67 67 65 66 67 66 69 68 67 69 69 68 68 67 66 66 67 65 64 59 61 62 64 63
65 65 65 66 66 67 66 66 67 67 67 67 68 69 69 69 69 70 70 69 70 69 69 68 67 68 67 67 67 66 65 66 66 66 66 67 68 68 66 66 66 66 65 65 65 66 66 67 69 68 66 67 66 65 66 67 66 63 62 60 61 63 62
65 66 65 66 66 66 66 66 67 68 68 68 68 69 70 69 68 69 69 70 70 70 69 68 68 68 68 68 67 67 67 65 65 65 66 68 68 66 66 66 66 65 65 65 65 65 66 66 66 66 65 65 64 63 63 64 66 65 64 62 60 64 62
65 65 65 66 65 65 66 67 67 68 68 68 69 68 67 68 67 68 68 70 70 69 69 68 68 67 67 67 67 66 67 66 65 66 65 65 63 65 66 65 67 66 65 65 64 65 65 64 67 66 65 66 65 64 63 64 64 65 64 62 60 60 61
64 64 65 65 65 65 66 66 66 66 68 69 67 67 68 68 68 69 70 70 69 69 68 67 68 68 68 67 66 66 66 66 65 66 65 65 65 63 63 65 66 66 66 65 64 64 64 64 65 64 65 66 67 64 62 62 62 62 63 62 61 60 59
64 64 64 64 65 66 66 66 66 66 66 67 67 67 68 69 69 69 70 69 69 68 68 68 67 66 66 66 66 65 65 65 64 63 62 64 64 63 63 63 63 64 63 65 65 63 62 62 62 63 63 62 64 63 62 62 63 62 62 61 61 60 60
64 64 64 65 65 66 66 67 67 67 67 67 67 68 68 68 67 68 68 68 67 66 66 66 67 67 67 66 66 65 64 63 64 64 63 63 63 62 62 62 63 63 63 63 64 64 63 62 61 61 62 62 62 62 62 61 61 62 61 61 60 60 60
65 65 65 65 65 65 66 66 66 66 66 66 66 67 67 67 66 66 67 66 66 65 65 65 66 66 66 66 65 64 64 64 64 64 64 64 64 64 65 65 65 64 62 60 56 57 58 58 61 60 61 61 60 61 61 62 61 61 60 60 60 59 59
65 65 65 65 66 65 65 65 64 64 65 66 66 66 65 65 65 65 65 65 65 64 64 64 59 52 52 63 65 65 65 65 65 64 64 64 65 65 64 65 65 60 56 55 53 49 48 49 53 61 62 61 61 61 61 60 60 61 60 60 59 57 56
65 65 65 65 65 64 63 63 63 64 63 64 63 63 63 63 63 63 64 64 63 62 63 61 44 42 42 43 57 64 64 65 65 64 64 63 63 65 65 66 66 61 57 54 54 45 45 45 47 49 49 51 54 59 58 57 59 60 59 57 55 54 52
64 63 60 60 61 63 62 61 62 63 62 61 62 61 61 62 62 62 62 63 63 62 62 46 40 40 40 40 44 58 62 63 63 63 64 64 64 64 64 64 64 63 61 61 60 54 48 43 42 41 41 41 40 39 43 55 58 57 56 54 51 52 52
63 61 60 60 60 60 60 58 59 60 61 60 59 59 59 58 59 59 61 62 60 58 58 41 40 40 40 39 39 49 60 61 62 62 63 63 63 63 63 63 63 62 62 55 57 56 54 50 43 41 42 42 41 41 40 39 42 55 57 54 52 51 51
64 63 63 62 61 61 61 61 60 61 61 59 59 57 57 57 56 57 56 58 57 58 59 43 39 40 41 39 38 47 59 59 62 61 61 60 60 61 62 62 63 62 61 60 60 58 58 56 56 56 55 54 52 48 42 41 41 42 49 54 52 51 51
63 63 63 63 63 64 63 61 61 61 62 61 60 59 58 57 54 53 54 56 60 59 55 39 39 39 39 40 39 49 62 60 61 60 59 59 59 59 60 60 61 61 60 60 60 58 59 58 57 56 55 54 55 54 54 54 54 53 52 52 53 52 51
62 63 63 63 63 63 61 61 60 59 59 58 56 55 53 54 54 54 55 59 61 61 55 38 39 39 39 39 42 61 61 60 59 59 59 58 59 59 60 60 60 59 59 58 48 45 52 59 58 56 54 53 53 51 49 44 41 43 48 52 53 53 53
58 59 62 63 63 62 61 60 59 60 60 59 59 58 57 57 58 59 58 60 61 61 58 44 38 39 39 40 52 62 60 61 59 58 57 57 58 58 57 59 60 59 58 56 44 42 44 50 57 55 54 52 51 51 49 48 41 39 38 38 37 37 36
59 60 63 64 61 59 59 59 59 58 63 62 60 58 58 58 57 57 57 57 56 59 58 46 38 40 40 41 52 61 62 60 58 57 56 56 58 57 53 47 54 59 56 53 39 41 43 53 57 55 54 51 50 49 48 47 47 45 37 38 37 38 38
58 58 59 59 59 60 61 61 58 58 59 61 58 58 58 60 57 56 55 54 47 54 57 51 40 40 39 42 55 62 62 62 59 58 58 56 56 57 55 50 43 48 51 44 37 39 40 50 55 54 53 51 49 49 48 49 50 50 51 50 50 49 46
57 57 58 56 56 58 56 57 57 58 57 61 60 58 57 58 57 56 54 55 54 54 56 56 49 38 41 41 46 61 62 62 59 57 58 58 56 56 55 54 47 38 38 37 38 38 39 42 52 52 53 53 51 48 49 49 48 49 49 49 49 49 48
60 61 62 59 57 56 56 55 52 54 56 56 57 56 55 55 55 54 54 54 56 54 54 55 50 39 40 41 42 50 61 60 60 59 58 57 58 56 55 54 52 39 37 38 38 37 38 39 42 52 51 50 48 46 46 50 45 41 48 48 48 48 49
59 59 58 58 56 56 56 57 58 58 59 57 56 55 54 55 56 54 54 53 54 54 51 46 55 42 40 40 41 44 58 58 58 58 57 57 57 56 55 53 52 41 37 37 37 37 38 39 40 49 44 37 35 37 47 49 49 50 49 49 49 49 49
58 58 57 58 58 56 54 55 54 56 56 56 56 54 53 54 54 54 54 54 54 54 53 52 42 50 40 40 39 42 45 51 43 57 58 57 56 54 53 51 47 37 37 37 37 37 38 38 41 42 35 36 36 36 42 49 48 48 48 48 47 46 47
58 58 58 58 59 58 54 55 54 55 56 57 57 56 55 54 56 55 55 54 54 55 54 55 44 42 45 38 39 39 40 41 43 56 58 57 55 53 53 51 46 37 37 37 37 37 37 39 41 35 36 35 37 41 48 48 48 46 46 45 45 45 46

ECMWFFLT1_sfc_temp_054.txt.gz
Temp
75 73 74 75 76 77 76 76 77 77 78 79 78 79 79 78 77 77 77 77 77 78 78 77 75 75 76 76 74 74 75 75 74 73 72 73 72 72 74 72 72 72 72 72 70 65 63 62 63 70 72 71 72 73 73 74 74 74 72 73 75 78 75
76 75 76 76 76 75 74 75 76 77 77 77 78 77 78 78 77 77 76 77 76 77 79 79 77 76 75 74 74 74 73 73 73 73 74 73 72 72 72 71 73 73 74 73 72 73 70 65 65 66 66 70 70 71 72 73 74 73 74 73 74 75 75
75 75 76 74 74 75 73 74 75 76 77 76 76 77 77 78 77 77 77 76 75 76 77 76 76 75 74 74 74 74 73 73 74 73 72 73 73 73 74 73 72 73 73 74 74 73 73 73 68 66 67 65 62 64 69 71 72 73 74 75 74 74 74
74 74 73 72 74 74 73 74 74 75 76 76 76 75 75 76 76 76 76 76 76 76 77 77 76 77 75 74 74 74 74 73 74 73 73 73 74 74 74 75 74 74 72 71 71 73 72 70 69 68 68 67 63 60 60 66 71 75 76 74 74 75 74
74 74 73 72 73 73 73 73 74 74 74 75 75 75 74 75 75 75 75 75 75 75 75 76 76 77 76 76 76 75 74 74 74 74 73 73 73 74 73 74 74 74 74 74 75 73 71 71 70 69 69 69 69 68 70 71 75 76 77 78 78 77 76
75 75 74 73 74 73 74 74 74 74 74 74 74 74 74 74 76 74 75 75 74 74 75 76 75 76 76 76 75 74 74 73 74 73 73 71 72 72 73 74 76 76 75 76 76 75 74 73 72 70 73 75 67 69 73 74 74 78 79 78 79 79 78
75 75 75 74 74 75 75 74 74 74 74 73 73 73 74 76 76 75 74 74 75 75 74 74 74 76 76 77 75 74 73 73 73 72 72 72 72 72 74 74 74 75 74 75 75 75 74 74 73 72 71 73 73 73 76 77 77 75 75 78 79 78 77
76 76 77 76 75 75 75 74 75 75 75 75 75 74 75 74 74 75 75 74 74 74 74 74 75 75 75 76 75 73 73 74 73 73 72 72 71 71 71 73 73 74 74 77 76 76 78 76 75 73 72 68 69 71 71 75 75 73 73 75 78 77 76
77 77 76 76 76 75 75 75 74 75 75 75 75 74 74 75 74 74 75 74 75 74 75 75 75 75 74 74 74 73 73 75 72 72 72 72 70 71 71 73 73 73 74 75 76 75 77 76 76 75 74 73 69 66 69 68 70 70 76 74 75 77 76
75 75 75 74 74 75 75 75 75 75 75 75 74 74 74 75 74 75 74 74 74 74 74 74 74 75 74 74 73 72 72 74 73 72 72 72 71 72 72 72 73 73 73 74 74 75 74 76 77 77 78 75 74 70 67 66 66 68 71 76 73 74 76
75 75 75 74 74 74 74 75 74 74 74 74 74 74 74 74 74 74 74 74 74 74 74 75 76 75 74 74 74 74 74 73 72 73 73 73 72 72 72 73 74 73 73 74 73 73 74 74 75 76 77 77 76 73 71 67 65 69 68 71 74 73 75
75 75 75 75 74 74 73 74 74 73 74 74 74 74 74 74 74 74 74 74 74 74 74 74 74 75 75 73 73 73 73 74 73 72 72 72 72 72 71 71 72 72 73 72 73 74 74 75 76 77 76 76 75 74 72 71 65 66 71 67 70 74 74
75 76 75 74 74 74 74 73 73 73 73 75 75 74 75 75 74 74 74 74 74 74 74 74 75 74 74 74 74 74 73 73 73 72 73 73 75 73 72 71 72 73 73 74 74 73 74 74 75 76 76 75 74 74 74 72 67 64 70 70 70 72 73
73 74 74 74 74 74 73 73 74 75 76 74 75 74 75 76 76 75 75 75 76 74 74 73 74 74 74 73 74 74 74 74 74 74 73 71 73 73 73 73 72 72 73 72 73 74 74 75 75 75 76 76 74 74 74 71 68 65 67 70 71 72 72
73 74 73 73 74 74 73 73 73 75 74 75 75 75 76 76 76 76 76 77 76 76 75 75 74 75 74 73 72 73 73 74 73 73 72 73 72 73 72 73 73 72 74 73 72 76 76 75 77 77 76 75 75 73 75 73 70 68 64 68 70 72 71
72 71 72 73 73 74 74 73 74 73 74 74 76 76 76 76 76 77 77 76 77 76 76 76 75 74 74 74 74 73 73 73 72 72 71 72 74 74 72 71 72 72 72 71 71 73 73 74 77 76 74 75 74 73 74 75 72 68 67 67 70 71 71
71 71 71 73 73 74 74 74 74 73 73 73 74 75 77 77 77 76 76 77 77 77 76 75 75 76 75 75 74 74 73 73 73 73 72 73 74 73 72 71 71 71 71 70 71 72 73 73 73 74 73 73 72 71 72 72 73 71 70 67 69 73 71
70 71 71 73 72 74 74 74 74 74 73 73 74 74 76 77 76 76 75 76 77 77 76 76 75 75 74 74 74 73 74 74 73 73 73 73 70 72 71 71 72 72 71 70 70 71 73 70 74 73 73 74 73 72 71 72 73 73 71 68 67 70 70
70 71 72 72 73 74 74 74 74 74 75 74 74 75 76 76 76 77 77 78 78 77 77 76 76 76 76 74 73 73 73 73 73 74 73 73 73 73 71 72 72 72 70 69 69 70 71 70 72 71 72 74 75 72 70 70 71 70 70 70 69 66 68
71 71 71 72 73 74 74 74 75 74 74 74 74 75 76 76 76 77 78 77 76 76 76 76 75 74 74 74 73 73 72 72 72 72 72 73 73 73 73 73 72 72 71 70 69 69 70 69 69 69 71 70 72 70 68 70 71 69 69 69 69 69 69
71 71 72 73 73 73 74 73 74 73 72 72 74 76 76 76 76 77 77 77 77 76 75 75 75 74 74 74 72 72 72 71 71 71 70 71 71 72 71 72 72 72 72 71 69 67 68 65 67 68 69 69 70 69 68 69 68 69 69 68 68 68 69
71 71 71 72 72 73 73 74 73 73 72 73 74 76 75 75 74 75 76 75 75 74 74 73 74 73 73 72 72 71 71 72 71 71 71 71 71 71 71 71 71 72 71 66 60 61 61 59 68 66 66 67 67 67 67 68 68 68 68 67 67 68 68
71 71 71 71 72 73 73 73 73 73 73 73 72 73 74 74 74 74 73 74 73 71 71 71 56 47 50 67 72 73 71 71 71 71 70 70 70 71 71 71 71 65 59 57 55 51 50 50 54 62 63 64 64 65 65 66 66 65 64 64 65 64 64
71 71 71 72 71 72 71 68 67 66 67 67 67 69 71 72 72 71 72 72 70 70 70 61 42 43 44 44 62 70 70 70 70 70 69 69 69 69 70 72 71 65 61 59 59 46 49 47 47 49 44 47 53 61 61 59 61 62 63 63 62 62 62
71 70 71 71 71 70 67 67 67 66 66 65 66 66 68 69 69 70 70 71 70 69 64 45 41 41 43 43 47 65 71 71 70 71 71 70 71 71 70 69 69 68 68 67 68 61 52 44 44 41 41 42 41 39 44 56 61 61 60 60 60 61 61
70 69 69 69 69 69 69 68 67 65 65 66 65 65 67 67 68 69 70 70 69 68 63 41 40 39 40 40 42 53 73 70 70 70 70 70 70 70 70 69 68 67 66 57 62 65 63 55 43 41 41 42 42 42 41 39 43 55 61 60 59 59 59
70 70 70 69 69 68 67 66 66 67 67 66 65 66 64 67 69 70 70 70 69 68 63 43 39 40 41 40 42 49 72 69 69 69 69 69 68 69 68 69 69 68 67 65 67 65 63 60 58 58 59 61 59 50 43 43 44 45 53 59 58 57 58
71 71 71 70 70 69 68 66 66 67 67 66 66 66 68 69 68 69 70 70 70 67 59 38 41 38 40 40 42 46 71 68 69 69 68 67 68 67 67 67 68 68 67 67 67 63 63 62 62 62 62 61 62 61 60 59 59 59 59 58 59 58 58
71 72 71 71 70 69 69 69 68 69 69 69 69 69 69 69 68 68 69 69 69 67 60 37 39 40 39 42 39 62 69 69 68 68 67 67 68 68 68 67 68 66 66 64 50 47 57 65 63 62 61 61 60 57 53 45 40 43 50 55 57 57 57
70 71 72 71 71 69 69 69 69 71 69 69 69 69 68 69 70 69 68 69 68 66 64 46 38 39 39 38 45 70 69 70 68 67 67 67 67 65 64 65 68 66 63 61 46 44 45 53 65 63 61 60 59 58 55 52 43 40 39 39 37 37 36
70 69 71 70 69 69 70 70 70 71 70 69 69 69 70 69 69 70 69 68 68 67 64 48 39 41 39 39 46 68 70 69 67 66 66 66 66 64 57 45 57 65 61 58 40 41 40 54 65 63 60 58 58 57 55 53 53 50 38 39 40 40 39
71 69 67 68 69 68 69 69 70 71 71 70 69 70 71 70 69 69 68 66 54 62 65 52 38 42 38 42 54 70 69 70 66 66 66 65 65 64 60 52 44 51 55 47 37 41 41 53 64 61 60 59 57 57 56 56 56 55 54 53 52 50 48
70 71 71 69 69 69 69 69 69 69 69 71 70 70 70 70 68 68 67 66 65 66 65 63 52 37 42 44 41 61 70 68 66 65 66 65 64 63 61 59 49 38 38 37 39 38 39 42 59 60 60 60 58 55 57 57 55 56 57 56 57 57 56
69 70 71 69 69 68 68 68 67 67 66 67 68 67 66 67 67 66 67 67 66 65 64 63 54 39 41 41 43 45 70 67 67 67 66 66 66 64 63 61 56 40 37 38 39 39 40 40 44 58 57 56 53 48 49 57 51 42 54 55 55 55 57
69 68 70 69 67 66 67 68 66 64 65 64 64 63 63 65 67 66 66 66 66 65 58 50 63 41 40 41 42 40 61 67 64 68 65 66 66 66 64 60 57 43 37 38 38 39 39 41 42 55 47 38 36 38 52 55 57 57 57 57 57 57 57
67 68 68 68 68 67 67 67 66 66 66 65 65 64 63 65 65 65 65 66 66 65 64 58 44 55 38 41 40 43 41 56 46 63 65 65 64 64 61 56 49 38 38 38 39 39 39 39 43 46 36 37 41 36 41 56 56 55 56 56 55 55 55
68 68 68 68 68 67 66 67 67 67 67 66 66 64 64 64 64 64 64 65 65 66 65 65 47 43 49 37 40 39 41 41 45 62 65 66 66 63 60 56 48 37 38 37 37 38 38 41 45 36 37 36 36 38 53 55 54 55 51 52 52 53 54

ECMWFFLT1_sfc_temp_057.txt.gz
Temp
76 75 76 77 78 78 77 77 78 78 79 80 79 80 80 80 79 78 78 78 79 81 80 78 76 76 76 77 76 76 75 75 74 72 71 71 66 65 74 73 73 73 71 66 68 68 64 59 62 69 73 72 72 72 73 74 74 73 73 74 76 77 76
76 76 77 78 77 77 76 77 78 78 78 79 79 79 79 80 79 78 78 78 78 80 81 79 77 78 76 75 74 74 74 74 74 73 72 71 72 71 72 73 73 71 74 68 68 70 65 63 62 65 66 70 70 71 72 74 75 74 74 74 75 76 75
76 77 78 76 76 76 75 75 76 76 77 77 78 79 79 80 79 79 78 77 77 78 78 78 77 76 76 75 75 74 75 74 74 74 72 73 73 74 75 74 72 73 72 66 66 64 64 64 61 64 65 65 63 66 71 72 73 75 76 76 76 76 75
76 76 75 74 75 75 74 75 76 76 77 76 76 76 77 78 77 78 77 77 78 78 79 78 77 78 77 76 76 76 75 74 74 74 74 74 75 74 75 75 74 74 72 71 68 67 64 60 62 67 68 70 67 65 68 73 75 77 78 76 76 76 75
76 75 74 74 75 74 75 75 76 76 75 76 76 76 75 77 76 76 77 77 77 77 77 78 78 79 78 77 76 76 75 75 75 74 73 72 73 74 74 75 75 76 75 75 75 73 71 68 70 69 70 72 72 72 74 74 78 78 79 79 79 77 77
76 76 76 75 76 75 76 75 75 75 75 75 75 74 75 76 76 76 76 76 75 76 76 77 77 77 77 77 76 75 74 74 74 73 72 71 72 72 74 76 77 77 76 77 77 74 73 75 73 71 73 75 68 70 75 76 75 79 79 79 79 79 79
76 76 76 76 76 77 77 76 76 76 75 74 74 74 76 76 76 76 76 75 76 76 76 76 76 78 78 78 76 75 74 74 74 74 73 73 72 73 74 74 75 76 76 77 77 77 74 74 74 72 72 72 73 73 76 77 78 75 76 79 79 79 77
76 77 77 77 77 76 76 76 76 76 76 75 76 75 76 75 75 76 76 75 75 75 76 75 76 76 76 77 76 74 74 74 74 73 73 72 72 73 73 74 74 74 75 78 77 76 79 76 76 74 72 69 71 73 72 76 76 74 74 77 79 78 76
76 77 77 77 77 77 76 77 76 76 76 76 76 75 76 76 75 75 76 76 76 76 76 77 76 76 76 75 75 75 74 77 74 74 74 73 72 72 73 75 75 74 75 76 77 76 78 77 76 76 75 74 68 65 70 69 72 72 77 74 76 78 77
76 76 76 76 76 76 77 76 76 77 76 76 75 76 75 76 76 76 76 75 75 76 76 76 76 76 76 75 75 74 73 74 74 74 73 73 73 74 74 74 74 75 75 75 75 76 76 77 78 78 79 75 74 69 67 66 67 68 73 77 73 75 78
76 76 76 76 76 76 76 76 76 75 75 76 76 76 76 75 76 76 76 75 75 76 76 77 78 77 76 76 76 75 75 75 74 74 74 74 73 74 73 74 75 74 74 75 75 75 75 76 77 77 78 78 76 72 72 67 65 70 69 74 76 75 77
76 76 76 77 76 76 76 76 76 75 75 76 76 75 75 76 75 76 76 76 75 75 76 76 76 76 77 75 75 75 75 76 74 73 74 74 74 74 73 73 74 74 75 74 75 75 76 77 77 78 77 77 76 74 73 70 65 68 73 69 72 77 76
75 75 76 76 76 76 76 76 76 75 75 76 76 76 76 76 76 75 76 76 75 76 76 76 77 76 76 75 76 75 75 75 75 74 75 76 77 74 74 73 74 74 75 76 75 75 76 76 76 77 77 76 75 75 75 72 68 65 71 72 72 74 75
74 74 74 75 75 76 76 76 76 76 77 76 76 76 76 77 77 77 77 77 77 76 75 75 76 76 75 75 75 75 76 76 76 75 74 73 76 75 75 74 74 74 74 74 75 75 76 77 76 76 77 77 75 75 74 71 68 66 68 72 73 73 74
74 73 72 74 75 76 76 76 76 77 75 76 77 77 78 77 77 77 78 78 77 77 76 76 76 76 75 74 74 75 75 76 75 75 74 74 74 74 73 74 75 73 75 74 74 79 78 77 78 78 77 77 76 75 76 73 70 68 65 69 71 74 73
73 72 70 74 75 76 75 76 77 75 76 76 77 77 77 77 77 78 78 77 78 77 77 77 76 76 75 74 74 74 74 75 74 73 73 73 76 75 73 73 73 73 73 73 73 74 74 76 78 78 76 77 75 74 76 76 73 69 68 69 71 71 72
73 71 72 75 75 75 75 76 77 76 77 77 77 77 78 78 78 78 77 78 78 78 78 77 76 77 76 76 75 75 75 74 74 74 74 75 76 74 73 72 72 73 73 71 72 73 74 75 74 76 75 75 74 73 73 73 73 72 71 69 70 73 72
72 73 73 74 74 75 75 75 76 77 76 76 77 77 77 78 77 78 76 78 78 77 77 77 76 76 76 75 76 75 75 75 74 74 73 74 73 74 73 72 73 74 73 71 71 72 74 72 75 75 74 76 75 73 73 73 74 74 71 68 68 71 72
71 71 71 72 73 74 74 74 75 75 76 76 77 76 76 77 77 77 78 79 79 78 78 77 78 77 77 76 75 75 75 75 74 74 74 74 75 74 73 73 73 73 72 70 70 71 71 72 73 73 74 74 75 74 71 72 72 72 71 71 70 69 69
70 70 70 71 72 74 75 75 75 76 76 76 76 75 76 76 76 77 77 77 77 78 78 78 77 76 76 77 76 75 74 73 73 73 74 74 75 74 74 74 73 73 72 72 71 70 70 70 68 68 68 69 71 73 70 70 71 71 69 69 70 69 69
68 70 72 71 73 74 75 75 75 76 76 76 75 76 76 75 75 75 73 73 77 77 76 75 77 77 76 76 74 74 73 70 70 71 70 72 73 73 73 73 73 73 73 73 72 71 69 68 68 68 69 70 69 68 69 70 69 68 68 67 67 67 68
65 70 71 73 72 73 74 74 76 76 75 75 75 77 77 77 72 71 69 73 73 73 72 67 64 64 70 70 74 69 68 66 66 65 66 68 70 71 73 73 73 73 69 61 58 60 58 60 69 68 69 70 68 67 64 64 64 60 61 64 65 67 66
67 71 71 69 70 72 73 72 73 75 75 76 74 69 66 63 65 65 70 73 70 69 68 63 54 46 49 63 64 60 62 64 66 65 65 64 67 69 71 72 71 60 58 57 57 51 49 49 50 60 67 66 65 65 65 63 61 60 61 62 64 64 64
71 69 70 71 69 63 64 65 66 68 67 68 68 68 68 65 61 61 64 67 67 67 62 57 42 42 44 44 60 63 65 64 65 66 68 67 66 65 65 71 70 64 62 59 60 47 49 47 45 44 43 46 53 64 65 62 64 64 64 63 63 63 62
72 70 68 68 67 68 66 64 66 68 69 69 69 69 69 69 68 66 63 63 64 62 58 43 42 42 42 41 46 62 69 71 70 70 70 72 71 71 70 70 70 69 70 67 70 62 52 42 41 42 42 43 42 39 44 58 63 63 63 63 62 61 60
69 67 67 64 62 61 65 65 66 67 67 69 69 69 70 68 65 67 66 65 62 63 58 41 42 41 43 41 41 49 70 72 71 71 71 70 70 71 71 70 69 68 67 60 65 68 63 56 44 41 42 43 43 43 42 40 45 57 62 61 60 60 62
70 69 67 65 65 66 67 68 67 67 68 67 67 67 66 66 64 62 61 62 63 64 60 42 42 41 42 40 40 45 71 71 71 71 71 71 70 70 69 70 70 68 68 67 68 68 66 61 59 58 59 61 60 51 44 43 45 46 55 61 60 60 62
69 71 71 71 70 69 69 68 68 68 66 65 64 64 63 63 66 66 64 65 65 64 60 37 40 39 40 39 40 43 69 70 71 70 70 69 70 69 69 69 70 70 69 67 63 62 66 63 62 61 62 62 61 62 63 62 62 62 62 61 61 61 60
73 72 71 70 70 68 68 67 67 68 67 67 67 68 69 69 68 69 70 69 67 64 56 37 39 39 39 40 39 58 70 70 70 70 69 69 69 70 69 69 69 68 67 64 50 45 54 64 65 64 62 62 62 60 56 46 40 44 52 57 58 57 57
73 72 72 71 70 69 69 69 70 70 68 68 69 69 69 70 70 70 69 69 67 64 60 44 39 39 39 38 44 65 70 70 70 68 68 68 67 65 62 62 69 66 65 62 43 45 43 46 65 63 62 61 61 60 58 54 44 41 40 40 38 38 38
73 73 73 72 70 70 71 71 72 72 70 69 69 70 71 71 71 71 70 70 70 67 64 48 40 42 38 37 44 63 70 70 67 67 67 67 65 64 58 46 58 66 63 59 39 40 37 53 63 65 63 60 60 60 58 57 57 53 40 41 40 40 40
73 72 72 72 71 71 71 71 72 72 72 72 70 71 72 71 71 71 70 69 60 65 65 53 39 40 40 39 51 67 70 70 67 67 68 66 66 64 61 52 44 49 54 47 37 40 39 50 63 64 63 61 59 59 59 59 58 58 56 55 54 52 50
71 70 71 71 71 71 72 72 71 71 71 73 71 72 71 72 69 70 69 68 67 68 66 64 53 38 42 43 39 57 67 69 66 66 67 67 65 63 62 59 50 39 39 38 39 39 41 41 58 64 63 61 59 58 60 60 60 59 58 58 59 58 57
71 71 73 71 71 71 72 71 70 70 70 72 72 71 70 71 69 69 68 68 68 68 67 64 55 39 43 40 39 46 68 68 68 69 68 66 67 64 61 60 57 40 38 38 40 39 41 41 44 60 57 55 52 47 50 59 54 47 56 57 57 57 58
71 70 71 71 70 70 71 71 70 70 70 70 69 68 68 68 69 68 68 68 68 66 63 57 63 41 40 43 39 41 61 67 65 69 67 68 68 68 60 59 56 43 37 39 39 39 40 41 43 56 48 40 39 40 54 56 58 59 59 59 60 59 60
69 70 70 70 70 69 70 70 69 69 68 68 67 67 66 66 67 67 68 67 68 66 65 62 52 55 37 40 39 42 38 54 46 65 67 66 67 59 60 56 49 38 38 38 39 39 40 40 46 47 37 40 43 36 40 56 58 58 57 58 57 56 57
70 69 69 69 69 69 68 69 69 69 69 68 67 66 66 66 66 66 66 65 65 66 64 64 51 48 46 37 38 39 40 37 40 60 64 67 68 61 59 55 47 37 38 38 37 38 38 42 47 37 38 38 37 38 51 56 57 57 54 54 55 56 56

ECMWFFLT1_sfc_temp_060.txt.gz
Temp
71 70 71 71 72 72 71 72 72 73 74 74 73 75 74 74 73 73 73 71 73 74 73 72 70 70 71 72 70 70 70 69 68 66 65 67 64 62 64 63 63 66 66 65 65 61 60 56 58 66 67 65 66 66 68 70 69 67 65 65 65 65 65
72 71 72 72 71 72 71 71 71 73 72 73 74 73 73 74 72 71 72 72 72 73 74 73 72 72 70 69 69 68 68 68 69 68 66 65 66 64 64 64 65 65 64 65 65 64 61 58 57 59 60 64 64 64 65 68 69 69 68 66 67 68 67
70 71 71 70 70 71 70 69 70 70 71 71 71 72 72 74 72 72 72 72 71 72 72 72 70 70 69 69 68 68 68 68 68 68 67 67 68 68 69 68 66 65 64 63 63 62 62 62 59 59 61 59 58 62 65 65 68 68 69 69 68 68 67
70 70 69 69 69 69 69 69 69 69 70 70 70 70 71 72 70 71 71 72 71 71 72 72 70 71 70 69 69 69 69 68 66 67 66 67 67 66 67 66 66 66 65 62 61 62 61 59 59 59 63 64 61 59 64 67 69 72 72 69 69 69 67
71 70 69 68 69 69 69 68 69 68 68 70 69 69 69 70 70 70 70 70 70 70 70 70 70 71 70 70 68 67 67 67 67 66 65 65 65 66 65 66 65 67 67 66 65 64 62 61 62 62 64 65 66 65 68 66 72 72 73 72 71 69 68
71 71 70 69 70 69 69 69 68 67 68 68 67 68 69 69 69 69 69 68 69 69 69 70 70 70 69 68 68 68 66 66 66 65 64 64 64 63 64 65 66 68 68 68 68 65 64 63 64 64 67 67 61 62 68 68 66 73 74 72 72 71 70
71 70 70 70 70 70 70 69 68 68 67 67 68 68 69 70 69 69 69 69 69 69 69 68 68 69 69 70 68 67 66 66 66 65 65 65 64 65 66 64 65 66 65 68 67 67 66 65 63 64 62 64 65 66 69 69 70 67 68 71 71 71 69
71 70 71 71 71 70 70 70 70 69 68 69 68 68 69 68 69 69 69 68 69 69 69 68 70 68 67 69 68 66 66 67 67 66 65 65 66 66 64 64 65 64 64 68 67 67 70 67 67 66 64 60 60 61 61 67 68 67 66 68 71 69 68
71 71 70 71 71 70 70 70 69 69 69 68 69 69 69 69 68 69 69 69 69 70 69 69 68 68 68 67 67 66 66 71 66 66 65 65 64 65 65 65 65 65 66 66 69 67 68 67 68 67 67 65 61 58 59 59 61 64 70 66 68 70 68
71 71 70 70 70 71 71 70 69 70 69 69 69 69 69 69 69 68 68 69 69 69 68 69 69 68 68 67 67 66 66 67 66 66 65 65 65 65 65 65 64 64 65 66 67 67 68 67 68 67 67 64 63 59 56 56 58 58 66 70 64 66 70
72 72 71 71 70 70 70 70 70 69 69 70 70 70 69 69 69 70 68 69 68 69 70 70 70 69 68 67 68 67 68 67 66 66 66 66 65 65 65 66 65 64 65 65 66 66 66 67 66 67 66 66 65 61 59 57 56 60 60 64 67 66 68
72 71 72 71 71 70 70 70 70 69 69 69 69 68 68 69 68 68 68 69 69 69 69 69 70 69 69 67 68 68 68 67 66 64 66 66 66 66 65 64 65 65 65 64 65 66 66 67 65 67 65 66 65 64 63 60 55 58 62 59 63 69 67
68 71 70 70 70 70 71 71 70 69 68 70 69 70 69 70 69 68 69 69 69 69 70 71 70 70 69 68 68 69 68 68 68 66 67 68 71 68 65 64 64 65 65 66 65 65 66 66 66 65 66 66 65 65 64 61 57 56 60 61 63 67 68
64 67 70 71 70 70 70 71 70 70 70 69 70 70 70 70 71 70 70 70 70 69 69 70 70 70 69 69 69 69 70 71 69 67 66 67 70 69 67 66 66 68 67 65 65 66 67 67 67 67 67 65 64 66 65 62 58 57 60 63 63 64 67
64 65 69 69 70 71 70 70 70 70 69 70 70 71 72 70 70 71 71 71 70 71 70 70 70 70 70 68 68 71 71 71 68 68 68 67 67 70 67 66 67 65 69 66 65 69 68 67 69 69 67 67 65 65 65 64 61 58 57 61 61 64 63
63 64 67 68 69 71 70 70 71 69 69 69 70 71 71 70 71 71 71 70 71 70 70 70 70 71 68 69 68 69 69 68 67 67 68 68 69 69 68 66 65 66 68 65 65 66 65 67 69 71 68 67 66 65 67 66 62 59 59 59 63 64 64
62 62 66 68 69 70 70 70 71 70 71 70 71 70 71 72 71 70 71 71 71 71 71 70 71 71 71 70 70 69 69 68 69 68 68 69 70 67 68 67 65 67 66 66 65 64 66 66 65 66 66 65 65 65 64 64 64 62 61 60 62 65 64
62 62 65 66 68 69 70 70 70 71 70 70 71 69 71 71 71 71 70 72 72 71 71 71 70 70 69 70 71 69 69 70 68 69 68 67 69 67 66 66 68 67 66 64 64 63 65 64 68 65 65 66 66 65 66 65 64 65 61 60 60 63 64
62 62 63 65 67 69 70 70 70 70 71 71 70 70 70 71 72 72 72 73 73 72 72 71 71 71 70 69 68 68 67 64 63 63 62 63 62 62 66 67 68 67 65 64 63 63 63 65 66 64 63 64 66 64 62 63 64 62 62 60 61 61 62
61 60 64 66 67 69 70 69 71 71 70 70 69 69 70 70 70 71 72 72 73 71 69 70 70 69 70 69 65 63 61 61 61 61 61 61 61 61 60 61 65 66 66 66 66 64 64 63 63 61 62 62 64 63 62 62 62 61 60 60 60 60 60
61 62 64 64 62 62 67 68 67 68 69 69 69 70 70 70 69 71 70 68 64 64 65 66 66 66 66 64 62 62 60 59 60 60 60 60 59 61 61 60 61 62 65 65 65 64 63 62 61 61 62 62 61 60 59 59 58 58 57 57 57 55 58
63 63 62 61 61 61 60 62 66 68 68 69 70 71 71 71 69 67 65 64 64 63 62 60 57 57 64 64 63 62 61 61 61 61 60 60 61 61 59 61 61 62 61 58 54 55 54 57 62 60 61 61 60 59 58 58 58 55 56 55 56 57 56
64 63 61 61 61 60 59 59 59 63 68 69 68 66 64 65 65 64 63 62 62 61 60 58 49 45 49 60 62 61 61 60 60 59 59 59 59 60 61 60 62 60 58 56 53 47 46 47 51 55 57 58 58 58 57 56 56 57 56 56 57 55 54
63 62 61 61 60 59 59 60 61 63 63 65 65 65 65 64 62 62 61 61 60 60 58 52 43 41 41 44 60 62 61 61 61 60 59 60 59 60 61 62 63 59 59 56 50 43 43 43 43 44 44 46 51 56 56 56 57 58 56 55 56 55 52
62 62 61 61 61 61 60 60 60 61 63 63 64 65 65 64 63 62 62 61 60 59 56 45 40 42 41 41 45 57 63 62 62 61 61 60 61 62 63 61 63 65 64 62 57 53 47 43 42 42 42 43 42 42 46 53 54 54 54 54 53 53 52
60 61 61 61 60 60 60 60 60 61 64 64 64 62 62 62 62 62 62 61 60 59 56 41 42 41 42 40 40 48 62 64 64 63 64 64 64 64 63 63 63 64 65 62 62 57 54 51 44 43 45 46 44 43 41 42 45 53 54 53 52 52 53
60 60 59 59 59 60 61 62 62 62 63 64 63 61 59 59 61 60 60 59 59 59 56 44 41 42 41 39 39 43 61 65 64 65 64 64 63 62 62 62 62 61 61 61 61 58 57 54 52 53 53 54 52 48 44 44 46 48 52 54 53 51 53
62 61 60 61 62 63 63 62 63 64 64 63 62 61 59 59 60 60 60 60 60 58 55 40 40 39 39 39 40 41 63 66 65 64 63 63 62 60 61 63 63 60 58 56 52 56 58 56 54 56 54 54 53 54 51 50 49 52 54 54 53 52 51
63 63 63 63 63 63 62 63 63 63 63 63 63 63 62 61 60 60 61 61 60 58 51 36 38 38 39 40 38 53 63 63 63 63 62 60 58 57 57 58 61 58 56 53 45 41 46 56 57 56 55 54 53 50 48 45 42 43 47 48 48 48 47
66 66 66 65 65 64 64 63 63 64 63 63 62 62 62 62 63 62 61 62 59 57 55 41 37 38 38 37 46 61 62 65 63 61 60 59 57 55 54 58 61 57 54 50 41 40 43 49 56 56 56 54 54 52 49 48 43 42 41 40 40 40 41
68 67 67 66 65 64 64 65 64 64 63 63 63 63 63 63 64 64 63 62 60 58 56 44 38 38 38 37 44 56 61 62 61 60 59 59 57 54 52 53 58 56 52 48 40 41 42 51 55 56 55 53 53 52 49 50 51 48 40 42 42 41 40
68 68 67 66 65 65 65 64 65 65 64 64 63 64 65 65 64 63 63 62 59 59 56 48 38 38 38 38 48 59 61 64 60 60 59 57 57 55 51 48 49 49 48 42 40 41 41 48 55 55 55 54 53 52 49 50 50 48 46 46 45 44 44
66 66 66 65 65 65 65 65 64 65 64 66 65 65 64 64 63 62 61 61 62 61 58 55 45 39 39 38 38 55 60 62 60 60 60 59 57 55 52 50 45 39 40 40 40 40 41 43 51 51 52 50 49 46 49 52 50 50 51 51 49 49 47
67 67 67 65 65 65 66 64 64 64 64 66 64 63 63 62 63 62 62 61 61 61 61 57 47 36 39 39 39 49 60 61 61 61 60 58 58 55 53 51 47 40 39 40 40 40 41 42 45 49 47 46 45 42 44 49 48 49 50 49 48 48 50
65 66 65 65 64 64 65 65 64 65 64 64 64 63 62 61 62 61 61 62 61 61 60 55 53 39 40 41 41 45 58 59 54 60 60 60 58 56 53 50 47 40 39 39 40 40 41 42 43 47 41 39 40 37 44 46 49 50 50 49 48 48 49
64 65 65 64 63 62 63 63 64 64 63 62 62 62 61 61 62 61 61 61 61 61 59 56 48 47 39 40 39 39 41 51 44 59 59 56 54 54 51 47 43 40 39 39 39 39 40 43 43 41 37 39 38 37 41 46 48 49 48 48 48 49 46
66 64 64 63 63 62 62 63 63 63 62 61 61 60 60 60 60 59 59 59 60 60 59 57 48 44 42 37 39 38 37 38 42 54 58 56 54 51 49 46 42 38 39 39 39 39 40 41 42 40 39 38 38 39 42 45 45 48 46 46 46 46 47

ECMWFFLT1_sfc_temp_063.txt.gz
Temp
64 63 64 64 65 66 66 66 66 66 68 68 67 66 64 64 64 64 63 64 65 67 66 65 64 64 66 66 64 63 63 63 62 61 59 60 58 59 60 60 61 62 61 62 62 58 57 53 54 60 61 60 61 62 62 63 63 62 62 63 63 64 63
65 65 65 65 65 66 64 63 64 65 65 65 67 66 65 66 66 65 63 65 65 65 67 66 65 65 63 63 63 63 62 62 62 61 60 60 60 59 60 59 60 60 61 61 61 62 57 54 54 56 56 59 59 61 62 62 63 62 62 62 63 63 61
65 64 65 64 63 63 63 63 63 63 62 62 63 63 63 64 63 65 65 65 64 65 65 65 64 64 63 62 61 61 62 62 60 60 60 60 60 60 60 60 60 59 60 60 59 59 59 58 54 55 55 55 55 59 61 61 62 62 63 63 62 61 60
65 64 64 63 63 63 63 63 62 62 62 62 62 64 63 63 63 64 63 64 64 65 65 64 62 63 62 62 63 62 62 61 60 60 61 60 60 59 60 60 60 61 58 57 58 59 57 55 55 55 56 58 57 57 60 61 63 64 64 62 62 61 60
66 65 64 62 63 63 63 62 61 61 62 63 62 62 63 64 64 62 63 63 63 63 62 63 64 64 64 63 61 62 61 61 61 61 60 60 59 60 60 59 59 60 61 61 61 60 58 58 58 56 56 58 59 59 63 60 64 65 64 64 63 61 61
66 65 64 63 63 63 62 62 62 61 60 61 61 63 60 61 63 63 64 63 63 62 62 63 62 62 62 61 61 60 59 59 59 59 58 57 59 58 58 59 60 61 61 61 62 62 61 60 59 57 58 59 54 57 60 61 60 63 64 64 64 63 62
65 65 64 64 63 63 64 63 63 61 61 62 61 60 61 63 62 63 62 62 61 62 63 62 62 63 63 62 62 60 59 58 60 59 59 58 59 59 60 60 59 59 59 60 61 62 61 60 56 57 57 57 57 60 62 61 63 61 62 63 64 63 62
65 65 64 64 63 64 64 64 63 61 61 61 61 62 63 62 62 62 63 63 63 62 63 63 64 63 62 63 62 60 61 60 60 59 58 59 61 60 58 58 60 59 59 61 60 62 63 61 61 59 57 56 54 55 56 59 59 59 61 60 64 62 61
65 65 64 64 64 65 64 64 62 62 61 61 62 62 62 62 62 62 63 62 61 62 62 62 61 60 59 59 58 59 59 63 59 59 58 59 58 57 57 57 60 59 60 60 61 60 60 61 62 61 59 58 56 53 53 54 56 57 63 59 61 62 61
63 63 63 63 64 64 63 63 63 62 62 62 63 62 62 62 61 60 61 61 61 62 62 62 62 61 61 61 61 59 59 58 59 59 58 59 57 58 57 57 58 58 59 59 62 61 60 60 62 61 61 57 58 57 51 50 53 52 60 61 57 61 62
64 63 63 63 64 63 63 63 63 63 63 63 64 64 62 60 61 63 61 62 63 63 62 63 63 61 60 60 60 60 59 58 58 58 58 58 57 56 56 58 57 58 58 61 60 59 60 61 60 60 58 58 58 59 51 50 52 54 54 58 58 58 61
63 63 63 63 64 64 63 63 64 63 63 63 63 62 61 61 61 60 60 60 60 61 61 61 61 62 61 59 59 59 58 58 57 57 59 60 59 59 57 58 57 58 58 59 59 62 61 61 60 61 59 59 58 59 58 52 50 56 53 55 58 62 60
63 64 63 64 64 63 63 64 63 63 62 63 61 61 62 62 61 60 60 61 62 62 62 62 63 62 61 61 61 62 59 59 59 58 60 60 64 59 57 58 57 59 58 59 60 59 59 62 62 60 61 60 58 57 57 53 51 54 56 54 57 60 61
63 65 65 65 64 63 63 64 64 63 62 61 61 61 62 62 61 61 61 62 62 60 60 62 61 60 61 61 61 60 59 60 60 58 58 60 61 59 58 58 59 59 57 60 58 60 60 59 59 60 60 59 59 60 60 55 55 54 57 55 56 59 61
62 64 65 65 65 65 64 64 63 63 62 61 62 62 62 62 61 62 62 61 61 61 61 61 60 62 62 60 60 62 62 60 59 59 59 59 60 63 59 59 60 59 59 58 56 61 59 61 63 62 62 61 58 59 57 55 53 52 54 58 58 59 60
61 62 63 64 65 65 65 65 66 64 63 62 61 62 62 62 62 61 61 61 61 61 62 61 60 62 61 60 60 61 61 59 59 59 59 59 63 61 59 58 59 59 60 58 56 57 59 60 60 61 60 61 60 57 58 58 56 54 54 55 56 58 58
60 61 61 62 63 64 65 65 65 65 63 62 63 61 62 63 63 63 62 62 62 61 62 62 62 63 63 60 61 61 60 60 60 59 59 59 60 59 57 57 58 59 58 57 57 58 58 60 58 59 59 57 60 61 60 57 56 52 53 54 57 58 58
59 60 60 61 61 62 63 65 65 65 63 64 62 61 62 63 63 65 65 64 63 62 64 64 62 62 62 61 60 59 58 58 58 58 58 58 59 57 57 57 57 57 56 57 56 57 59 58 61 60 59 59 58 59 60 60 59 58 55 55 57 58 57
59 59 60 60 60 59 61 63 63 63 64 64 62 61 63 63 64 64 63 61 61 62 62 62 62 61 60 59 59 59 59 59 58 57 57 57 57 57 57 57 57 57 57 57 57 56 57 58 60 60 60 59 59 58 57 57 57 57 57 55 53 57 55
58 58 58 58 59 60 60 60 63 64 62 64 62 62 63 63 61 61 62 63 62 62 61 61 61 61 61 60 59 58 58 57 57 56 55 57 57 57 57 57 57 57 57 58 58 59 58 57 58 56 56 56 58 57 56 55 56 56 55 55 54 53 54
59 58 58 59 59 59 60 60 60 61 63 64 64 63 65 62 59 61 60 61 61 60 59 58 59 59 60 59 58 56 56 56 56 55 54 54 56 57 57 57 58 58 58 58 58 58 59 57 56 55 54 56 55 55 54 54 54 53 53 53 53 54 52
58 58 58 59 58 59 59 60 60 59 61 63 65 63 62 61 60 60 60 59 60 59 58 56 56 57 58 59 58 56 56 55 55 55 55 55 55 55 55 57 58 57 58 55 53 54 55 57 56 54 53 53 53 54 53 53 53 52 50 49 51 50 50
58 58 57 57 57 57 57 57 57 59 60 60 60 60 60 60 59 58 59 58 58 57 55 54 52 50 53 58 58 57 57 56 55 54 54 55 55 55 56 55 57 58 55 53 51 47 46 49 53 54 53 52 52 53 52 51 50 49 49 49 49 49 48
58 58 58 57 57 57 58 58 58 59 59 59 59 60 60 59 58 58 58 57 56 55 52 50 43 42 42 48 58 57 57 57 56 55 54 54 54 54 54 56 55 55 55 52 48 44 44 44 44 45 46 49 53 53 51 50 50 49 49 50 47 47 45
58 57 57 57 58 58 57 57 58 58 59 58 59 59 59 59 58 57 58 57 55 53 50 45 40 41 41 43 49 57 58 58 57 56 56 55 56 55 56 57 56 58 55 54 52 50 47 44 43 43 43 44 43 45 48 51 49 48 47 49 48 46 46
57 57 57 57 57 57 56 57 58 57 57 58 58 58 58 58 57 57 57 56 54 52 50 41 40 41 40 40 40 49 58 57 57 56 56 55 55 55 55 57 58 58 57 57 54 50 50 48 44 44 44 44 44 43 41 42 45 50 49 48 47 45 46
57 57 57 56 55 55 56 55 55 56 56 56 56 56 55 56 56 56 56 55 54 52 50 43 40 41 40 40 38 43 55 55 56 56 56 55 55 54 56 57 55 53 53 53 52 51 50 49 48 49 48 48 48 47 44 44 44 45 48 49 48 46 45
56 56 56 56 55 55 55 55 55 55 55 56 55 54 54 55 54 54 55 55 53 52 51 41 39 39 40 39 39 41 56 58 56 54 53 53 53 54 56 55 53 51 49 48 48 50 51 50 49 49 48 47 45 44 45 46 47 47 48 48 47 46 45
56 56 56 55 55 55 54 55 54 54 54 55 54 54 54 55 54 54 55 54 52 50 45 37 38 39 39 40 39 48 55 56 55 53 52 52 52 53 54 53 52 49 48 47 44 43 48 50 50 49 47 45 43 42 42 44 43 45 47 46 46 45 44
55 55 55 55 54 53 54 54 54 56 56 55 55 55 55 55 55 55 54 53 52 49 46 38 38 39 39 39 44 53 55 55 54 52 51 51 52 53 53 52 50 48 47 45 42 41 45 48 50 49 47 46 45 43 42 43 41 40 40 41 41 41 40
54 54 54 54 54 54 54 55 57 57 56 56 55 55 55 55 55 55 55 53 52 51 48 39 37 38 39 38 46 53 54 53 52 51 49 48 49 50 51 52 51 48 46 43 41 43 45 48 48 48 48 46 44 43 43 45 46 43 42 41 41 40 41
56 55 55 56 56 55 55 55 55 55 55 54 54 54 54 55 54 53 52 53 54 52 48 42 38 38 38 36 42 51 54 53 52 50 50 48 47 46 47 48 49 48 46 43 41 43 44 48 48 47 47 46 44 42 42 43 43 44 44 44 43 43 42
53 55 57 57 56 56 55 54 54 54 54 54 55 53 53 55 54 52 52 52 53 51 49 45 40 37 37 36 40 50 53 52 51 50 50 49 47 44 43 42 42 40 40 40 41 41 42 44 47 46 46 44 42 43 42 43 44 41 42 43 42 42 42
57 57 56 56 55 55 56 54 54 54 55 55 53 54 52 53 54 53 52 52 51 49 50 46 40 37 38 37 38 48 51 52 52 51 50 48 47 45 43 41 41 40 40 40 40 41 41 42 43 44 43 42 42 42 40 41 42 44 43 43 42 42 44
58 59 57 56 55 55 55 55 54 54 53 54 56 53 50 52 53 53 52 53 52 51 51 49 42 38 41 42 42 45 52 49 50 52 49 48 46 45 42 40 40 39 39 39 40 40 40 40 41 43 41 39 37 38 40 41 41 41 41 41 40 39 39
57 59 59 58 55 54 52 53 53 55 52 51 51 52 52 53 52 51 51 51 51 51 50 47 43 42 40 40 39 40 44 47 45 54 51 49 46 44 41 40 40 41 39 39 39 39 39 39 40 39 38 37 37 38 40 39 38 40 39 39 39 40 39
56 55 55 56 56 55 54 53 54 53 53 53 53 51 51 51 51 51 51 49 51 50 49 47 42 42 41 39 39 40 42 44 47 51 53 49 45 44 41 40 40 39 40 40 40 40 39 40 38 37 36 37 38 39 38 38 38 40 38 36 37 39 40

ECMWFFLT1_sfc_temp_066.txt.gz
Temp
62 60 61 60 60 62 62 62 62 62 63 63 62 61 61 62 61 61 61 62 62 62 63 62 61 61 63 62 61 60 60 60 60 59 57 59 57 56 58 59 60 60 58 57 57 55 54 53 54 58 58 58 59 60 60 61 62 62 62 62 61 60 59
62 62 61 62 61 61 61 61 62 61 61 61 63 62 61 62 62 62 61 62 62 62 63 62 60 61 60 60 60 60 59 58 59 58 59 57 58 58 58 57 59 58 58 58 58 56 52 52 50 53 55 57 58 58 59 60 61 61 60 59 59 58 57
62 61 60 60 60 59 60 59 59 60 59 60 59 59 60 61 61 62 62 62 60 62 62 61 60 60 60 59 58 58 58 58 57 57 56 56 58 59 59 59 58 57 58 57 56 55 56 53 53 52 54 54 54 55 57 58 59 58 59 58 57 57 56
62 61 60 59 58 59 59 58 59 59 59 59 60 60 59 60 61 62 60 60 61 62 61 61 60 60 59 58 59 59 58 58 57 56 57 56 57 56 58 59 59 60 58 56 55 55 53 52 53 52 53 54 55 54 56 57 59 59 59 57 57 57 56
63 62 61 59 59 60 59 58 58 59 59 59 59 58 59 60 61 59 60 59 60 60 60 60 60 60 59 59 58 58 57 56 56 58 56 56 56 55 55 57 59 58 58 59 58 57 55 55 56 54 53 55 56 56 58 57 59 59 59 58 58 57 56
64 63 62 60 60 60 59 58 59 58 58 59 58 59 57 59 60 60 60 60 59 60 59 59 57 58 58 58 58 57 57 57 56 57 57 55 56 56 55 55 56 58 59 58 59 57 57 56 56 55 54 54 53 54 56 58 55 58 58 58 58 57 56
63 63 62 62 60 60 60 60 59 58 59 59 58 58 58 59 59 59 60 58 58 58 59 58 58 58 58 59 58 57 56 55 56 56 55 54 55 55 56 56 56 58 57 58 58 58 57 56 54 55 55 53 52 57 56 56 58 56 57 58 58 57 56
63 63 62 61 60 60 60 61 60 58 58 57 59 57 58 58 58 59 60 59 59 59 59 58 59 56 56 58 57 55 55 55 56 56 55 57 58 57 56 56 57 56 56 58 59 59 59 58 57 56 56 54 51 50 52 54 53 53 56 56 58 57 55
62 61 60 60 60 61 60 60 59 58 58 57 57 57 58 59 59 59 60 59 58 58 58 57 56 56 55 56 55 56 57 59 57 56 54 56 55 54 54 55 58 56 56 58 60 58 58 57 57 56 56 57 54 49 49 50 51 52 58 53 57 57 55
62 61 60 60 60 60 60 59 58 57 58 58 59 58 58 57 57 58 59 58 58 58 57 56 56 54 55 55 56 56 57 55 57 55 54 55 52 54 55 55 55 55 55 56 58 60 60 57 57 55 57 58 57 54 48 46 49 48 56 54 53 56 56
62 61 61 62 61 60 59 59 58 59 59 59 60 59 58 56 58 60 58 58 57 58 57 56 57 56 55 55 54 54 54 54 55 54 54 54 54 55 55 56 55 54 54 54 55 56 58 58 58 57 55 53 54 57 49 48 48 46 51 55 51 55 56
62 62 63 63 62 62 61 60 60 59 58 58 60 57 56 56 56 56 57 57 57 58 57 57 56 56 56 55 55 55 54 54 55 54 54 56 55 56 56 55 54 55 53 55 55 55 55 58 58 57 55 56 56 55 55 50 48 51 50 53 55 55 57
64 64 63 63 63 63 62 62 61 61 60 59 58 57 57 57 57 57 57 57 57 57 58 57 57 56 57 57 56 57 54 54 55 54 54 54 59 55 55 56 54 55 54 56 56 55 54 54 56 57 56 56 54 53 54 52 51 53 49 48 51 55 57
63 64 64 64 64 63 63 63 63 63 62 60 59 59 59 57 57 57 57 58 58 57 58 57 57 56 57 56 55 55 55 55 55 55 54 55 55 55 54 55 55 55 54 56 54 55 56 55 55 55 56 56 55 54 56 53 53 51 54 51 53 56 57
63 64 64 64 64 63 63 63 63 63 63 61 62 61 60 58 57 57 57 57 57 58 58 57 56 57 58 56 56 58 56 55 54 55 55 55 54 57 53 55 55 55 55 55 55 57 56 57 58 58 56 57 55 56 54 51 49 47 51 55 56 56 55
61 61 61 62 63 64 63 63 64 64 63 62 62 62 61 59 59 57 57 57 57 57 58 58 57 58 57 57 57 56 56 55 55 55 55 54 55 54 54 53 53 53 57 56 55 54 54 56 56 58 56 56 57 54 55 55 51 50 53 54 52 56 55
60 60 59 59 62 63 63 63 64 63 63 62 62 62 62 61 60 58 58 57 58 58 58 59 58 58 59 59 58 57 56 56 56 56 56 55 55 55 54 54 54 52 54 55 54 55 55 55 55 55 55 54 56 55 54 54 54 47 49 54 54 55 54
59 59 59 59 60 62 63 64 63 63 62 63 62 62 61 61 61 61 61 60 60 59 58 58 58 58 58 58 58 58 57 56 56 56 55 56 58 54 54 54 54 52 54 55 52 55 55 55 56 55 55 54 54 54 55 55 54 52 52 52 54 54 53
58 59 59 59 59 60 61 62 63 64 65 63 61 62 62 62 63 63 63 60 59 58 58 58 57 57 57 57 57 56 57 56 56 56 54 55 55 54 54 54 54 53 54 55 53 53 54 54 55 55 54 55 54 54 53 52 53 54 54 49 49 54 52
56 57 58 58 59 60 60 60 62 62 63 63 62 61 62 62 60 62 60 60 61 61 60 59 58 58 58 58 57 57 56 56 55 55 55 55 55 54 54 54 54 54 55 53 53 53 52 53 55 53 53 53 53 53 53 52 53 54 53 52 51 50 51
57 58 57 58 58 58 58 58 57 58 60 61 62 62 62 61 60 61 61 61 61 61 60 59 59 59 58 57 56 55 55 55 54 53 53 54 54 54 55 55 54 54 55 54 54 53 54 54 54 53 51 53 53 53 52 51 52 52 52 50 48 48 47
56 56 57 57 57 58 59 59 58 58 60 60 62 62 61 61 60 60 59 59 59 59 60 59 58 58 57 56 56 56 55 55 54 54 53 53 53 53 54 54 54 53 56 57 55 55 56 56 55 53 51 52 52 52 50 50 51 49 48 49 48 45 46
56 56 56 56 56 56 57 58 58 58 58 59 60 60 61 60 60 59 58 57 57 57 57 58 57 54 55 57 56 56 55 54 55 55 54 53 52 53 54 53 55 57 54 53 51 47 47 50 54 55 53 53 52 51 50 49 48 47 49 48 46 45 45
55 56 56 55 55 56 56 56 55 55 56 56 58 59 59 59 59 59 59 57 55 54 55 55 49 46 47 51 56 55 55 55 55 55 55 54 53 53 52 53 52 54 53 52 48 44 45 45 45 45 46 49 52 53 50 49 47 46 46 45 43 44 43
55 55 54 55 55 55 54 55 56 55 55 55 56 57 57 59 58 57 57 56 55 54 52 49 42 43 45 47 51 56 55 55 55 55 54 54 54 54 54 52 52 53 52 51 50 48 46 43 43 43 43 43 42 42 45 49 48 47 46 47 45 43 43
54 53 53 53 53 54 54 54 55 55 56 56 56 57 56 56 56 56 56 54 53 52 51 42 41 43 44 45 47 52 56 55 55 54 54 54 54 54 54 53 53 53 54 56 53 49 48 46 44 44 45 45 44 43 40 41 44 49 48 48 46 43 42
52 52 53 53 53 52 53 53 53 53 54 55 56 56 55 54 54 55 55 54 53 52 51 44 41 42 42 42 42 48 56 55 54 54 54 55 55 54 55 54 52 51 50 50 49 49 48 48 48 48 47 47 47 46 44 43 42 43 46 48 47 45 45
52 52 52 52 52 52 52 51 52 51 54 54 55 54 54 54 54 54 54 53 52 51 52 42 40 40 40 40 39 44 55 54 53 52 51 53 54 54 54 53 52 50 48 48 49 50 49 48 48 48 46 45 44 44 44 45 45 46 47 47 47 47 45
50 50 52 51 51 52 52 51 51 51 51 52 52 52 53 54 53 53 53 52 52 51 48 39 39 39 39 39 39 51 54 53 51 50 50 51 52 52 51 51 49 47 46 46 47 46 48 49 48 47 45 43 43 43 42 42 40 44 46 46 46 45 45
50 49 50 50 51 51 51 50 51 51 51 51 52 51 52 53 53 54 53 51 51 50 47 41 38 39 39 38 44 53 52 51 50 50 50 50 50 50 50 50 49 47 46 46 44 43 44 47 47 46 44 43 42 42 43 43 42 41 41 42 42 43 42
51 51 50 50 50 49 50 51 50 51 51 51 51 51 51 52 52 53 53 51 51 50 49 40 37 39 39 38 47 52 52 51 49 49 47 47 48 48 50 51 51 48 46 45 42 42 43 47 47 45 44 43 42 41 41 42 43 41 41 40 40 40 40
50 50 50 50 50 50 49 52 51 52 52 52 54 53 52 51 50 50 50 50 53 51 49 41 38 38 38 37 48 52 51 50 48 47 47 44 44 45 46 47 50 47 47 44 40 42 43 47 47 46 45 44 42 41 41 40 41 42 43 44 43 40 40
54 51 50 52 51 50 50 51 51 52 51 53 52 50 52 52 51 49 48 50 51 50 48 44 40 38 37 37 42 51 50 50 48 46 46 47 44 41 40 40 42 40 40 40 41 41 43 44 47 45 45 44 43 42 41 39 40 39 40 41 39 38 38
54 55 54 52 51 49 49 50 49 49 50 48 49 49 49 48 49 47 48 48 49 47 49 46 39 38 37 38 40 48 50 51 49 48 46 45 44 42 41 40 39 40 40 40 40 41 41 42 43 45 44 43 40 42 38 38 40 43 40 39 38 38 39
53 52 52 51 50 51 51 51 49 47 48 48 49 48 47 47 48 47 46 47 48 47 48 48 41 37 39 40 41 45 50 50 50 49 46 44 43 43 42 40 40 40 39 40 40 40 40 41 41 43 40 38 38 39 40 38 39 37 38 38 37 37 37
52 52 52 51 49 49 49 50 50 47 49 50 49 49 48 47 47 46 46 46 45 45 45 44 42 42 40 41 41 43 46 47 44 50 48 45 44 42 40 40 41 41 39 39 39 39 40 40 41 39 37 38 38 38 39 38 38 38 36 37 37 36 35
52 51 52 52 50 49 49 49 48 49 48 48 47 46 45 47 47 46 47 48 45 45 43 42 42 43 43 40 40 42 43 45 45 49 49 47 44 42 41 40 40 39 39 39 39 39 39 40 38 37 38 38 38 39 38 39 37 37 36 36 36 35 35

ECMWFFLT1_sfc_temp_069.txt.gz
Temp
60 58 58 58 58 60 59 59 59 59 59 60 60 59 59 60 59 58 59 59 59 59 61 58 58 57 59 59 58 58 59 60 60 59 57 57 58 57 58 57 57 58 55 54 56 55 55 53 55 59 60 59 60 60 61 62 62 62 60 60 59 57 56
60 59 59 59 58 59 58 58 59 58 58 58 59 59 58 60 61 60 59 59 59 59 60 59 57 57 57 58 58 58 58 56 58 58 58 56 56 56 56 56 57 55 56 56 55 55 53 54 53 55 55 59 60 60 60 61 60 60 59 58 58 57 55
60 59 59 58 58 58 58 56 57 58 57 57 56 56 58 59 60 59 59 58 58 59 60 58 57 57 56 56 55 56 56 56 55 58 58 56 55 56 57 57 56 54 56 56 53 55 55 54 54 54 55 56 55 57 59 58 58 57 57 56 55 55 54
60 60 59 58 58 58 58 56 57 57 56 57 57 57 57 58 58 59 58 58 58 60 59 58 57 57 56 56 56 56 55 55 55 55 55 55 55 55 56 57 57 58 55 53 54 53 51 52 53 53 55 57 56 55 56 57 56 57 57 55 55 55 54
60 60 60 58 58 58 57 56 55 56 55 56 56 56 56 57 58 57 57 57 57 57 57 57 56 57 56 56 55 55 54 53 53 55 54 55 54 55 54 55 55 56 56 57 56 54 55 55 56 54 54 56 56 55 56 54 57 57 56 57 56 55 54
62 61 59 58 57 57 57 56 56 55 55 58 55 57 56 56 58 57 57 57 56 56 56 56 55 55 56 55 55 54 53 53 52 53 54 52 54 56 54 53 54 56 55 55 56 56 55 56 56 53 52 52 51 52 54 52 53 55 55 55 55 55 54
61 61 59 59 57 57 58 57 57 56 56 56 55 56 55 56 57 57 57 55 55 54 55 54 54 55 55 56 55 54 54 52 52 53 53 52 52 52 53 55 55 55 55 57 57 58 57 57 55 55 53 52 52 53 52 51 55 53 55 54 54 53 53
61 60 59 59 58 57 57 58 56 55 57 55 56 56 56 56 55 56 56 55 55 54 55 55 56 54 54 56 55 54 54 52 53 54 53 54 55 53 53 54 55 55 55 56 57 57 59 59 58 56 55 51 48 47 49 50 48 50 51 53 54 54 53
61 59 58 58 57 58 58 58 56 55 57 55 55 55 56 57 57 56 55 54 54 54 54 53 53 54 53 54 54 55 55 56 54 53 52 53 52 51 52 52 56 54 56 56 57 56 57 56 57 56 56 55 52 47 46 48 46 50 53 52 54 53 53
60 59 59 58 57 56 57 57 56 55 55 56 57 55 55 55 56 56 55 54 54 54 53 53 53 51 52 54 55 54 54 52 54 52 52 54 50 52 52 53 53 53 54 57 57 57 56 55 56 55 56 57 55 52 45 44 48 45 52 49 51 54 53
61 60 60 59 57 57 55 56 55 56 55 56 57 57 55 55 56 58 55 53 53 53 53 52 52 52 53 53 52 52 52 52 53 52 53 52 51 52 53 53 52 53 53 56 57 57 56 56 55 56 53 52 55 55 44 46 47 44 50 50 48 53 51
60 61 60 59 58 58 57 56 56 56 55 55 57 55 55 55 54 54 53 53 53 53 52 52 53 52 53 53 53 52 51 52 53 52 51 53 53 54 54 53 51 51 52 53 55 56 55 56 54 54 52 52 52 50 52 48 46 49 48 51 51 50 53
61 61 60 59 58 58 58 57 56 56 56 56 54 54 54 54 54 53 53 54 53 52 53 53 53 53 52 52 53 55 51 52 53 52 51 52 55 54 54 53 51 51 51 53 53 55 54 54 55 55 54 54 50 51 51 48 49 51 48 46 49 53 53
59 59 59 60 59 58 58 58 58 58 56 56 55 55 55 54 53 54 54 54 53 53 54 54 54 52 52 52 52 51 51 52 53 51 53 53 52 54 54 53 51 51 51 53 51 53 55 54 54 55 55 52 52 51 53 46 49 49 52 47 47 52 52
60 60 59 59 59 59 58 58 57 57 59 58 58 58 58 56 54 54 55 55 54 54 54 54 53 52 52 52 53 54 52 52 52 50 52 52 51 54 53 53 52 51 51 52 51 54 54 54 55 54 53 54 52 53 49 48 48 48 50 51 54 51 51
59 59 59 59 59 59 58 58 58 58 56 56 56 58 58 58 57 56 55 55 55 55 55 54 53 53 52 53 53 53 52 51 52 52 52 51 52 51 53 52 51 52 53 53 51 51 52 54 55 56 54 54 54 53 51 49 49 49 50 50 49 52 51
58 58 58 58 59 58 58 57 58 57 57 56 57 55 56 56 56 57 57 56 57 57 56 55 54 54 54 54 53 53 53 53 52 52 53 52 52 52 52 53 51 51 52 52 50 51 51 51 52 53 54 53 55 54 51 51 53 46 46 52 51 51 50
58 57 58 57 58 58 59 58 58 58 56 57 58 58 58 58 59 60 59 58 58 57 56 55 55 55 55 54 54 54 53 53 52 52 52 53 56 52 53 52 51 51 51 52 50 51 50 51 52 53 52 51 52 51 52 53 50 50 51 50 49 49 48
57 58 57 58 59 60 60 59 58 57 58 57 56 58 58 59 61 60 59 58 59 58 58 57 57 55 54 54 53 54 53 53 54 53 52 52 52 52 53 52 51 50 50 52 50 49 50 51 52 51 52 52 52 52 52 50 51 52 52 48 49 49 48
57 57 58 59 59 59 60 59 59 60 59 59 59 58 58 60 60 61 60 59 59 59 59 58 57 56 55 54 54 54 53 52 53 52 53 53 52 52 52 52 51 52 52 50 51 51 51 50 52 50 50 51 50 52 51 50 52 52 51 49 47 48 48
57 58 58 57 58 59 59 59 60 60 59 60 60 61 61 62 60 60 60 60 59 59 59 58 56 55 55 55 55 54 54 53 53 53 53 53 53 52 52 52 52 52 53 52 52 50 52 52 51 51 49 51 51 51 50 49 50 50 50 48 45 46 43
56 57 57 56 56 57 58 59 59 59 59 60 61 62 62 61 59 59 58 59 59 58 59 58 57 56 56 55 54 54 53 53 53 53 52 52 52 52 53 53 51 51 54 57 54 54 54 55 54 52 49 49 50 50 49 49 49 47 46 48 45 43 45
56 55 56 56 56 56 57 58 59 59 59 59 60 60 59 59 60 59 59 57 57 57 58 58 57 54 54 57 55 55 53 52 52 52 52 51 51 51 52 51 54 58 56 55 53 49 48 50 53 54 51 50 50 50 49 48 47 47 48 47 46 46 45
55 56 54 55 56 58 58 55 56 58 58 58 58 58 58 59 59 58 58 57 56 56 57 57 51 47 48 51 56 55 54 52 51 52 52 51 51 51 50 49 49 53 53 52 47 43 43 43 43 44 45 48 51 52 50 47 45 46 46 44 43 44 43
54 54 54 55 56 54 54 54 55 56 56 57 57 57 57 57 57 56 56 56 56 55 55 53 47 44 45 46 51 55 54 54 53 53 53 52 52 51 50 50 49 50 49 50 49 48 45 43 42 42 42 41 41 40 44 49 47 46 45 46 44 42 43
52 51 52 53 53 53 53 53 53 54 54 54 55 56 56 55 54 54 55 55 54 54 54 48 43 44 43 43 45 52 54 54 54 53 52 52 52 52 51 51 50 50 52 55 51 48 48 47 45 45 45 45 44 42 39 40 44 48 48 47 45 41 41
50 50 50 50 50 50 51 52 52 51 52 52 53 53 53 53 53 54 54 54 54 53 53 47 42 43 43 42 43 48 53 54 53 53 53 53 53 52 51 51 50 50 48 49 49 48 48 47 47 47 46 45 45 45 43 42 42 43 46 48 48 46 43
52 51 50 50 50 49 49 49 50 49 50 51 51 52 53 53 53 53 53 53 52 53 54 45 41 41 42 42 42 47 53 53 53 52 52 52 53 53 52 52 51 50 48 47 48 48 48 46 46 45 44 43 43 42 42 43 44 45 47 46 47 48 45
52 52 52 50 50 50 48 48 49 48 49 50 50 49 49 51 51 51 52 51 51 51 50 41 40 41 41 41 41 50 51 50 49 49 49 50 52 53 52 51 50 48 47 47 46 44 46 47 46 44 43 42 42 42 42 42 40 43 45 46 45 45 43
50 51 52 51 49 49 49 48 48 47 49 48 48 48 50 51 51 51 51 50 50 50 46 41 40 40 40 39 41 51 50 50 49 48 48 49 50 51 51 50 49 48 46 46 44 41 43 46 45 44 43 41 41 42 42 42 42 40 40 40 40 40 39
50 50 50 49 48 47 47 47 47 48 50 49 49 49 49 50 49 50 50 51 51 48 47 45 40 40 39 38 43 51 50 50 48 47 46 46 48 48 49 51 51 47 47 46 41 41 42 46 45 43 43 42 42 42 40 41 42 42 41 41 40 39 39
49 48 49 48 47 47 47 48 48 48 48 49 50 50 49 49 49 49 51 50 52 50 50 44 39 39 39 39 42 50 50 49 47 46 46 45 44 46 47 49 50 48 48 46 40 41 42 46 45 44 43 43 41 40 41 38 41 41 39 39 38 37 37
48 47 46 46 47 46 46 47 49 50 48 48 48 47 48 47 48 49 49 48 49 50 50 45 41 38 39 39 40 49 49 50 48 46 46 47 45 42 42 43 44 43 43 41 40 40 41 43 45 43 44 43 42 42 40 38 39 37 38 36 35 37 37
47 47 46 45 45 46 47 46 46 47 47 46 48 48 47 46 47 49 48 48 48 48 49 46 42 38 38 39 39 45 49 51 49 47 46 45 45 44 42 40 40 41 40 40 40 40 41 42 43 45 44 44 43 44 40 40 39 41 38 38 38 37 38
48 48 48 47 46 46 45 46 46 46 45 45 45 43 43 45 45 45 44 45 46 46 47 47 42 39 37 37 39 42 48 49 49 48 45 44 43 43 42 40 40 40 39 40 40 40 40 41 41 44 42 40 38 39 41 39 37 37 37 36 36 36 37
47 47 47 46 45 45 45 45 44 45 45 45 44 43 43 43 44 44 44 43 41 42 42 43 42 42 40 38 39 41 44 47 44 49 48 45 44 44 41 40 40 41 38 39 40 40 40 40 41 40 38 38 39 39 39 37 37 36 35 35 36 36 34
46 45 45 46 45 45 45 45 45 45 44 44 44 45 43 42 41 42 43 43 41 40 39 39 39 39 39 40 41 41 42 43 44 48 49 48 45 43 41 40 41 39 39 39 40 40 40 41 40 38 39 38 38 39 37 37 35 36 35 34 34 33 34

ECMWFFLT1_sfc_temp_072.txt.gz
Temp
60 59 59 58 59 60 60 59 59 58 59 60 60 59 60 61 59 58 59 59 59 59 61 60 60 59 60 61 62 62 61 61 61 61 60 59 60 59 59 58 59 59 57 56 61 59 57 54 55 59 61 60 60 60 60 60 60 60 59 59 60 59 59
59 59 59 60 59 59 58 58 58 57 57 57 58 59 59 60 61 59 59 59 59 60 60 58 58 59 60 60 60 60 60 60 61 61 60 59 59 58 57 57 58 57 58 58 58 59 58 56 54 56 56 59 60 59 59 59 59 59 59 59 59 60 59
59 58 59 58 58 58 58 56 57 57 57 57 57 58 58 59 59 60 59 59 59 60 60 58 58 58 59 60 60 61 60 60 59 60 60 59 59 58 59 59 58 57 59 58 57 58 58 58 56 55 56 56 54 55 58 57 58 58 59 58 58 58 58
59 59 57 57 57 57 57 56 56 56 56 56 57 57 57 58 59 60 58 58 60 61 59 58 58 58 58 58 57 58 59 60 59 58 58 58 59 59 59 60 60 61 58 56 57 57 58 56 55 55 56 58 56 55 56 58 58 59 60 58 58 58 58
60 60 59 58 58 58 57 56 55 57 56 55 55 56 57 58 59 58 59 58 58 57 57 57 57 57 57 57 56 57 56 56 57 58 58 57 58 59 58 58 58 57 56 60 59 58 59 58 57 55 55 57 57 57 58 58 60 60 59 59 58 57 57
60 60 58 57 57 58 57 56 57 57 55 57 56 57 56 57 58 57 57 57 57 57 56 57 56 56 56 56 56 55 54 56 56 57 58 58 58 59 59 57 57 58 58 58 59 60 60 60 58 55 56 57 55 55 57 57 58 59 59 59 59 58 59
59 59 58 58 57 58 58 58 58 58 57 57 56 57 56 57 58 58 57 56 56 56 56 56 56 56 56 56 55 55 54 53 54 55 55 55 56 57 58 58 58 58 58 59 60 60 59 58 57 56 55 54 54 56 55 57 57 58 59 59 59 59 58
60 59 58 59 58 57 57 58 57 56 57 56 56 56 56 57 56 56 57 56 56 56 56 56 56 55 56 57 56 54 54 53 54 55 54 55 56 56 57 58 57 58 58 59 61 61 62 61 59 58 57 53 53 52 54 54 53 56 57 58 59 59 57
60 59 58 58 57 58 58 58 57 56 56 55 55 56 56 57 57 57 56 55 54 55 55 55 55 56 55 56 55 55 55 56 54 54 53 54 54 55 56 57 58 57 58 59 61 61 61 61 61 60 60 59 55 52 51 53 53 56 57 58 59 58 59
59 59 59 57 57 57 57 57 57 56 55 56 56 56 56 55 56 56 56 54 54 54 54 54 54 54 55 56 55 55 54 54 54 53 53 53 53 54 55 57 58 57 57 58 59 59 59 59 60 60 61 60 59 55 51 50 53 52 58 56 59 59 58
60 59 58 57 56 56 55 56 55 56 55 56 57 57 56 55 56 58 55 54 53 54 54 54 54 54 54 54 53 53 53 54 54 54 54 53 54 55 55 55 57 57 57 58 59 58 59 59 59 59 58 59 59 58 51 52 52 50 56 53 54 59 57
59 59 58 58 57 57 56 56 56 56 54 55 56 55 55 55 55 54 55 54 54 54 53 54 54 54 55 55 54 53 53 54 55 54 53 55 55 56 55 55 55 56 56 57 57 58 58 59 59 58 57 57 54 56 56 55 53 54 54 57 56 55 59
59 59 58 58 57 57 57 56 56 55 55 56 55 55 56 55 55 55 54 55 54 54 54 53 54 54 54 54 54 55 53 54 55 55 54 54 56 55 55 55 55 55 55 57 58 58 58 58 58 57 57 55 54 55 56 54 55 55 53 53 54 56 57
59 59 58 58 58 57 56 57 57 56 55 55 55 55 55 55 55 55 55 56 56 55 55 54 53 54 54 53 53 53 53 55 56 54 55 55 55 56 55 55 54 54 56 58 57 57 58 58 57 57 56 56 55 55 56 54 55 55 55 51 53 56 56
59 59 58 58 57 57 56 56 56 56 57 55 56 56 56 55 55 55 56 55 55 55 55 55 54 54 55 54 54 54 54 54 54 54 55 55 54 55 55 55 54 54 56 58 57 59 59 58 59 59 57 57 57 56 53 54 53 54 55 55 55 55 56
58 58 58 58 58 57 56 56 57 57 56 55 55 57 56 56 56 56 56 55 55 56 56 55 54 54 54 55 55 54 53 54 55 55 55 54 55 55 55 54 54 54 55 56 56 57 56 58 58 60 58 57 57 56 54 54 55 54 55 54 53 56 54
57 58 58 57 57 57 57 56 57 57 56 56 56 55 56 56 55 55 56 56 56 56 56 56 55 55 55 55 55 55 54 54 54 55 56 55 55 55 55 55 54 54 55 55 54 55 55 56 56 57 57 56 56 56 55 55 57 54 53 55 53 56 54
57 57 57 57 57 57 57 57 57 57 56 56 56 55 56 56 56 56 57 57 57 56 57 57 56 55 55 55 55 56 55 55 55 55 54 55 56 55 55 55 54 54 54 54 53 54 54 56 56 56 56 56 56 55 56 57 55 56 57 55 52 53 52
56 57 57 57 57 57 56 56 56 56 57 57 55 55 56 56 58 57 57 57 58 58 58 58 58 57 56 56 55 55 56 55 54 55 55 55 54 55 56 54 53 53 54 55 53 52 53 54 55 56 56 56 57 56 56 55 56 56 57 54 53 53 53
56 56 57 57 57 57 57 56 57 57 56 57 56 56 56 57 57 58 57 58 58 59 59 58 58 57 57 57 57 56 55 55 54 54 54 54 54 55 55 54 54 53 54 54 54 54 53 53 54 54 55 55 56 57 55 55 56 56 55 53 52 52 53
56 56 56 57 57 57 56 56 56 56 56 56 56 57 57 58 58 58 58 59 58 59 59 58 58 57 57 57 56 56 56 55 54 54 53 53 53 54 54 55 54 54 54 54 54 54 55 54 53 54 53 54 54 55 55 54 55 55 55 54 52 52 50
56 57 57 57 56 57 57 57 56 56 57 57 57 58 58 59 59 58 58 58 58 58 59 58 57 57 56 56 55 56 55 55 55 55 53 52 52 53 53 53 53 53 56 56 54 53 54 54 55 54 52 53 54 54 53 54 54 54 53 53 51 51 52
57 56 57 57 56 55 56 57 57 57 57 58 58 58 59 59 59 59 58 58 58 58 58 58 56 53 54 57 56 55 55 54 54 54 54 52 52 52 52 52 56 58 56 54 51 47 46 48 52 55 54 53 53 53 53 53 53 53 53 53 52 51 50
55 56 56 56 55 55 56 57 57 57 57 57 58 57 57 58 58 58 58 58 57 57 57 57 50 46 48 51 56 56 56 55 54 54 54 53 53 52 52 52 53 55 55 53 48 43 43 43 44 45 46 48 52 55 53 52 52 53 53 52 50 51 50
53 54 54 55 55 54 53 53 55 56 56 56 56 56 56 57 57 57 57 58 57 56 56 53 46 45 45 46 50 56 56 55 55 54 54 53 52 52 52 52 52 52 52 51 50 49 46 42 42 42 41 41 41 41 46 53 52 51 51 51 49 49 50
51 51 52 51 52 53 53 53 52 52 54 55 55 55 55 56 56 56 57 56 56 55 55 48 44 43 43 42 43 51 55 55 55 54 54 54 53 52 52 52 52 52 53 54 52 50 50 48 44 43 44 44 43 41 39 40 45 55 54 53 50 47 49
51 50 51 51 51 51 50 50 50 50 51 52 53 53 52 53 53 54 54 54 54 53 53 47 42 43 43 43 42 46 55 55 55 55 54 54 54 53 53 53 53 52 52 52 51 51 51 51 51 50 49 48 48 47 44 42 42 44 49 53 52 51 48
52 52 51 51 50 50 49 48 50 50 50 51 50 50 50 52 51 51 52 52 52 52 50 43 43 43 43 42 41 42 54 54 54 54 53 54 54 53 53 53 53 52 50 50 51 51 51 50 49 47 46 46 46 46 46 47 49 50 50 51 53 53 49
53 54 52 50 50 50 49 48 49 49 49 49 48 48 49 50 50 51 51 51 50 52 47 40 41 42 42 42 41 50 53 54 54 53 52 52 53 53 53 53 52 51 50 50 47 44 47 50 49 48 46 46 46 46 44 42 41 44 48 51 51 50 49
50 51 51 51 50 49 49 50 49 49 50 48 49 50 49 50 51 51 50 50 50 48 47 42 41 41 41 40 43 50 52 52 52 52 52 52 53 53 53 53 52 51 49 49 44 41 42 46 49 48 47 46 46 47 45 44 42 40 40 40 40 40 40
49 49 49 48 48 48 49 48 48 48 49 48 49 49 49 49 49 49 50 49 49 49 49 43 39 40 40 40 44 50 52 52 51 50 50 50 51 52 52 51 52 51 50 49 41 41 42 48 49 48 47 47 47 46 44 45 45 43 41 40 40 39 39
46 46 46 46 47 46 47 48 49 50 49 50 49 48 48 50 48 47 49 49 52 50 49 48 41 40 40 39 43 49 51 52 50 48 49 48 48 50 51 51 50 49 51 47 39 41 42 47 48 48 48 48 47 46 45 45 45 45 45 44 43 44 42
46 46 45 45 46 46 46 47 47 49 50 50 49 48 48 49 49 48 47 47 49 49 49 49 44 39 40 39 40 47 50 52 51 49 48 49 48 48 48 49 47 42 42 41 40 40 41 44 48 48 49 48 47 46 45 44 44 43 42 41 41 41 40
45 45 45 44 45 45 45 45 46 47 47 48 48 47 46 47 47 47 47 47 47 47 48 49 46 39 39 39 39 40 48 50 51 50 49 48 49 49 47 47 48 43 40 40 40 40 41 42 44 48 49 49 49 47 43 44 41 42 42 42 42 42 42
45 45 45 45 44 44 44 45 44 44 45 46 47 46 45 44 45 45 45 46 47 47 48 48 46 40 38 38 38 38 44 50 51 51 49 48 47 47 49 48 48 43 39 40 40 40 40 41 42 48 46 41 39 40 44 42 42 42 42 42 43 42 42
44 44 44 44 43 43 43 44 44 44 44 44 44 44 44 43 43 43 44 44 44 45 44 45 42 43 39 38 37 38 38 42 43 49 48 48 49 48 47 47 46 41 39 39 40 40 40 40 42 44 38 38 39 38 40 42 42 42 42 42 42 41 41
44 43 44 44 43 43 43 43 43 43 43 44 44 45 43 43 44 45 44 43 43 42 41 42 41 41 41 39 39 38 38 38 40 48 49 48 46 46 45 45 45 39 39 39 39 39 39 41 43 38 38 38 38 40 42 42 42 41 41 41 41 40 40

ECMWFFLT1_sfc_temp_075.txt.gz
Temp
69 67 68 69 71 71 71 71 71 71 72 73 73 74 74 73 73 73 73 72 73 74 73 73 73 73 73 73 72 72 72 72 71 70 69 69 67 66 66 67 67 69 70 70 71 67 63 56 56 61 63 64 63 63 65 65 66 65 65 65 65 67 67
71 70 70 70 70 70 69 70 71 72 71 71 73 72 72 73 72 72 72 72 72 73 74 74 73 73 72 71 70 70 70 71 72 71 71 70 70 68 66 67 69 69 70 70 70 70 65 62 58 57 57 63 63 62 63 63 65 65 65 65 66 67 66
68 69 71 69 70 70 69 69 69 70 71 70 70 71 71 73 72 73 73 73 72 72 73 74 73 71 71 71 71 71 71 70 71 71 70 71 71 70 71 68 67 68 69 69 68 68 68 68 61 57 61 61 58 58 61 63 65 65 66 66 65 66 67
67 68 68 68 69 69 69 68 69 70 71 71 71 70 70 72 71 72 72 72 72 72 73 72 72 73 72 71 71 71 71 71 71 70 70 70 71 69 69 70 70 70 69 67 67 68 67 63 60 60 64 66 62 58 59 62 63 66 67 67 67 68 69
67 68 69 68 68 69 68 68 69 69 69 69 70 70 69 71 71 71 71 71 71 71 71 72 72 73 72 72 71 71 71 70 71 70 71 69 69 71 69 70 72 72 71 71 72 71 68 66 64 62 63 65 64 62 61 61 65 65 66 68 70 69 70
66 67 67 68 69 68 68 67 68 69 69 69 70 70 69 69 71 70 71 71 71 70 70 71 70 70 71 71 71 70 70 70 70 70 71 70 70 70 71 71 72 73 72 73 73 71 71 70 68 65 66 66 58 58 62 64 61 65 67 68 70 71 71
66 66 67 65 65 67 69 69 70 70 70 70 69 70 70 70 71 71 71 70 70 70 70 69 69 70 70 73 71 70 69 68 69 69 70 69 70 70 71 70 71 72 72 72 72 71 70 69 68 66 62 63 63 61 62 62 64 64 66 69 71 71 71
68 69 68 67 66 68 70 71 71 71 71 70 71 70 69 69 69 69 69 69 69 69 69 69 69 69 68 71 71 68 67 68 68 69 69 69 68 69 69 71 70 71 71 73 72 72 73 71 69 67 65 62 62 63 62 65 67 67 66 69 72 71 71
69 69 68 67 67 68 70 71 70 70 71 70 69 68 68 69 69 68 69 69 69 69 69 69 69 70 68 69 69 68 67 68 67 67 68 68 68 68 69 70 71 71 71 72 73 73 74 72 71 70 69 67 62 60 63 63 66 65 70 68 70 71 71
68 68 67 66 66 68 69 71 70 69 68 69 68 68 67 68 69 69 69 68 68 68 68 69 69 69 69 70 70 68 67 68 68 68 67 69 68 68 69 69 71 70 70 71 73 72 72 72 73 72 73 71 69 64 61 61 62 63 66 71 67 68 71
69 69 68 67 67 67 67 68 68 67 68 68 68 67 68 67 67 68 69 68 68 69 69 69 70 69 69 70 69 69 68 68 67 67 68 69 68 69 69 70 71 70 70 71 71 71 71 71 71 72 72 73 73 68 66 63 61 66 65 67 71 68 70
69 69 68 68 67 67 67 68 69 68 66 67 68 67 68 68 68 68 69 69 68 68 69 68 68 69 70 69 69 68 67 69 69 67 68 68 68 69 69 69 70 70 69 69 69 70 70 70 70 71 71 72 71 71 69 67 62 64 69 65 68 73 70
69 68 67 67 67 68 68 69 68 66 67 68 68 69 69 69 69 69 69 69 68 69 69 68 70 69 70 70 70 70 68 70 70 69 68 69 70 69 69 69 70 70 69 70 70 69 70 70 70 71 71 71 70 70 71 69 66 62 66 68 69 70 71
66 67 67 67 68 68 68 69 69 69 68 67 68 69 69 70 71 70 70 70 71 69 69 68 69 70 70 69 69 69 70 72 71 70 69 67 69 70 70 70 69 69 70 70 70 70 70 70 70 70 71 71 70 70 71 69 66 63 64 67 69 70 71
66 66 66 67 68 68 68 68 68 68 68 68 69 70 70 69 70 71 71 71 71 71 71 70 70 71 71 69 68 69 70 72 71 70 69 69 68 69 68 70 70 69 71 71 70 72 72 71 72 72 71 72 71 70 72 71 68 65 62 65 66 69 68
66 66 66 66 66 67 67 68 69 69 69 68 69 70 70 70 70 72 71 70 71 71 72 71 70 70 70 71 71 69 69 71 71 71 70 70 71 70 69 68 68 68 69 69 69 72 71 72 74 74 72 72 72 71 72 73 69 66 64 65 67 67 68
65 65 65 65 65 65 66 66 68 69 69 69 69 68 70 71 70 71 70 71 71 71 71 71 71 72 72 72 72 72 71 71 72 72 72 72 72 71 70 68 68 68 69 69 69 70 71 71 71 73 72 71 71 70 70 70 72 69 67 64 66 70 68
65 65 65 65 64 64 65 66 67 69 68 68 68 68 69 70 70 71 70 71 72 72 72 72 71 71 71 72 72 72 72 72 71 71 71 71 69 72 72 71 69 69 69 69 68 69 71 69 72 71 71 72 72 71 70 71 71 71 68 66 65 68 68
66 65 65 64 64 64 64 66 67 68 70 69 68 69 69 70 71 72 72 73 73 73 73 73 73 73 73 71 71 71 71 71 71 71 71 71 72 72 71 71 69 70 70 69 69 69 69 69 70 70 70 71 72 70 69 70 70 70 70 68 66 64 66
61 63 64 64 64 64 65 65 67 68 69 69 69 69 70 70 70 72 73 72 72 72 72 72 72 71 72 72 71 71 70 70 69 69 70 71 71 70 71 71 70 69 70 71 69 68 68 67 67 68 69 68 71 69 68 69 71 69 69 67 67 67 65
63 63 64 65 65 64 65 65 67 68 68 69 69 71 71 71 70 71 71 72 71 70 69 69 71 70 70 70 69 69 70 69 69 69 68 68 69 70 70 70 71 70 71 71 71 70 68 68 68 67 67 68 68 68 68 69 69 69 68 67 66 65 66
62 62 64 65 66 65 66 66 66 67 67 68 69 71 72 72 70 70 70 70 69 67 67 67 65 64 64 65 66 67 69 71 70 69 68 68 67 67 69 68 68 69 66 61 57 61 63 63 69 68 66 67 67 67 68 69 68 69 68 67 66 66 65
62 63 63 64 65 66 66 67 67 67 67 68 69 69 70 70 70 69 69 69 67 65 66 65 60 54 57 66 66 67 67 69 70 70 68 67 66 66 67 67 66 59 57 55 53 50 49 51 55 65 69 67 67 68 68 67 68 69 68 66 66 65 64
62 61 60 60 61 63 65 65 66 67 67 67 66 67 68 68 68 69 70 69 66 63 64 63 51 47 48 52 65 65 65 65 68 69 69 68 67 67 67 68 68 61 58 56 54 43 46 46 48 50 53 57 62 69 67 66 68 68 67 67 67 66 66
61 59 58 57 57 57 58 60 62 64 64 65 65 66 66 66 66 67 67 68 66 64 65 52 45 45 45 45 51 65 67 66 66 69 70 69 69 68 68 67 67 66 66 66 65 59 51 43 43 43 44 46 46 47 51 65 68 66 67 67 65 66 66
61 61 60 58 57 57 57 58 59 61 63 63 64 64 64 64 65 66 67 66 65 64 65 47 44 43 44 43 43 51 70 69 68 68 69 70 70 69 68 67 66 64 65 55 61 64 62 56 44 41 42 43 42 42 43 43 50 66 69 67 66 65 66
61 60 60 59 59 59 59 57 57 59 60 61 62 62 62 63 64 65 65 64 64 64 65 47 43 42 43 42 42 46 67 68 69 70 69 69 68 68 67 68 67 65 64 63 64 64 64 62 61 60 61 63 61 53 45 44 46 46 58 68 67 65 63
58 60 60 60 59 58 58 58 57 56 60 61 62 61 62 62 62 63 64 64 64 63 58 41 42 42 42 42 41 43 61 65 67 68 68 68 68 68 68 67 68 67 65 64 64 62 64 64 64 62 62 61 61 59 58 59 61 63 63 65 67 66 63
56 58 59 59 59 58 56 56 56 56 57 59 59 61 61 63 62 62 62 63 63 64 57 40 41 41 41 41 40 53 60 63 65 67 67 66 67 67 67 67 67 66 65 64 54 47 55 65 64 62 60 59 59 56 52 45 41 46 59 65 66 64 64
53 55 57 58 58 56 56 56 56 58 59 59 59 60 60 61 62 63 62 62 63 62 62 45 40 41 41 40 45 58 61 63 64 64 65 65 65 65 65 66 67 66 63 64 49 42 45 52 64 62 61 59 57 57 54 50 43 40 40 40 40 40 40
53 53 54 55 55 56 57 57 57 57 59 60 60 60 60 61 61 61 61 62 62 62 63 51 40 40 40 39 47 60 62 63 63 63 63 63 64 64 64 55 59 65 63 63 43 42 42 55 63 61 58 56 55 55 53 54 53 48 41 40 40 39 39
54 54 54 54 54 54 54 56 59 61 60 62 61 62 62 62 61 60 60 60 54 57 62 53 39 40 40 39 47 57 61 63 63 63 63 62 61 60 61 57 52 56 61 55 40 41 41 53 62 59 58 57 55 55 54 55 54 55 55 55 54 54 51
55 55 56 55 55 55 56 57 57 58 58 59 59 59 60 60 59 58 58 58 58 59 59 59 47 38 40 40 41 54 60 62 63 62 62 63 61 60 59 61 55 44 45 43 40 40 41 46 59 60 61 61 59 55 57 57 58 58 57 57 56 55 55
54 54 55 55 56 55 56 56 56 56 55 56 56 56 56 57 57 56 56 55 56 57 57 56 51 40 40 40 39 43 57 60 62 62 62 59 61 60 58 58 61 48 41 41 40 40 41 43 48 59 61 62 62 57 53 57 53 48 56 54 54 54 55
53 53 54 55 56 56 56 57 56 56 58 58 57 55 55 56 57 57 58 57 57 56 54 47 52 41 39 39 38 38 50 57 58 61 59 58 60 61 61 60 61 51 40 40 39 40 41 42 44 60 57 44 41 43 56 55 56 57 56 56 56 55 55
51 52 52 54 54 54 55 56 56 56 57 58 58 57 57 59 60 60 60 60 58 57 55 54 41 48 40 38 38 39 39 47 40 53 59 60 60 61 60 58 55 45 39 39 39 39 40 40 44 52 38 40 42 42 48 57 57 57 57 56 56 55 55
51 51 51 52 53 53 53 54 55 55 55 56 57 57 57 57 59 59 60 60 59 57 56 57 45 40 45 37 38 37 38 37 40 54 58 60 59 55 55 56 51 39 39 39 39 39 39 41 48 39 39 40 40 44 56 56 55 56 54 55 55 54 55

ECMWFFLT1_sfc_temp_081.txt.gz
Temp
69 70 71 72 74 75 76 77 79 78 80 80 79 81 80 80 79 77 78 77 75 76 77 76 76 76 76 74 75 75 73 72 72 71 71 72 70 71 76 73 73 73 71 69 72 68 66 62 60 68 71 71 72 71 71 73 74 72 72 69 68 74 75
68 69 70 72 72 76 73 75 76 79 79 79 80 80 80 81 79 78 78 78 75 74 78 79 73 78 74 74 74 74 74 71 71 71 71 72 71 70 72 70 71 75 76 73 70 71 68 64 62 64 64 68 70 70 70 72 73 72 72 73 75 76 75
69 69 70 71 74 71 72 72 70 74 78 77 78 80 79 79 78 78 78 78 78 79 79 79 79 75 74 75 75 75 74 72 71 72 72 73 74 71 71 70 73 74 75 75 74 68 67 70 64 65 66 64 63 65 69 70 71 71 73 74 75 76 77
67 68 68 67 66 69 68 68 69 74 77 77 76 78 78 79 78 79 79 79 79 79 81 80 78 78 77 73 75 76 75 75 74 72 72 73 73 72 73 72 73 72 71 72 72 73 70 68 67 66 66 68 65 62 67 71 71 73 75 75 77 77 77
67 66 67 63 68 67 67 67 72 76 76 77 78 77 77 78 78 78 79 79 79 79 80 80 80 81 79 78 77 75 75 74 74 72 72 72 72 73 73 73 71 71 71 72 75 74 69 70 70 68 64 68 70 70 71 70 72 74 75 77 79 77 77
66 66 65 69 69 70 71 72 74 75 76 76 76 76 76 77 78 77 78 78 78 79 79 80 80 81 80 78 77 77 77 75 73 72 69 71 73 71 73 72 72 75 75 74 75 73 72 71 71 68 69 72 65 66 71 71 69 75 76 77 79 79 78
66 67 66 67 68 68 70 73 75 76 76 76 76 76 77 79 79 79 79 79 79 79 79 79 79 79 79 80 78 77 77 77 76 75 73 71 71 69 72 71 75 76 74 73 74 74 72 69 68 68 67 67 68 69 72 73 73 71 75 78 80 80 79
67 66 66 67 68 68 71 74 76 77 77 77 78 77 79 79 78 78 79 78 78 78 78 78 79 78 78 81 79 76 76 76 77 74 74 75 75 74 73 74 72 72 73 73 72 73 74 72 71 70 69 64 64 67 69 73 72 73 74 77 80 78 77
68 66 66 66 68 68 74 76 76 76 77 78 78 78 78 79 78 78 79 78 78 78 78 79 78 79 79 79 79 77 77 79 76 76 76 76 75 75 74 73 73 70 74 76 75 75 78 77 76 74 73 70 65 62 67 68 71 71 76 74 77 78 77
69 67 66 68 72 74 76 76 76 78 77 76 76 77 78 78 78 78 78 78 77 78 78 79 79 79 79 79 78 78 78 78 77 77 76 76 75 76 76 76 74 75 75 74 76 76 75 76 76 75 75 72 70 65 63 64 67 68 72 76 72 75 78
71 71 70 72 74 75 75 76 76 76 75 76 77 77 78 78 78 78 77 77 77 78 78 79 80 80 79 79 79 79 79 78 77 77 77 76 76 76 76 76 77 76 78 76 74 75 76 74 74 75 74 75 73 67 67 64 65 70 70 74 76 74 76
74 72 74 76 76 75 75 75 75 75 76 76 77 77 77 78 77 77 77 77 77 77 78 78 79 79 80 78 78 78 78 79 78 77 77 77 76 76 76 75 76 76 77 76 77 77 76 75 75 76 76 76 73 70 69 68 64 69 73 70 74 78 76
77 75 76 76 75 76 77 77 76 75 75 77 77 78 78 78 78 77 78 78 77 78 78 78 79 79 79 78 78 79 78 79 79 78 78 78 79 77 76 75 75 76 76 77 77 76 76 77 77 79 78 77 75 73 72 71 68 67 73 74 74 76 77
75 77 76 76 76 77 77 77 77 76 77 76 77 77 78 78 79 78 79 78 78 77 77 77 78 78 78 78 79 79 79 80 80 79 78 77 78 77 76 76 76 77 77 75 75 76 78 78 79 79 79 78 75 75 74 71 68 67 72 76 75 76 77
75 77 76 76 77 78 78 77 77 78 76 77 78 78 79 78 79 79 79 79 79 79 78 78 78 78 78 77 77 79 79 80 79 78 77 78 78 79 77 77 77 76 77 77 77 79 78 78 80 80 80 79 78 76 77 75 72 69 67 72 73 77 75
74 76 75 75 76 78 77 77 78 77 77 77 78 78 78 78 79 80 79 79 79 79 78 78 78 78 77 77 78 78 78 78 77 76 76 77 79 79 78 76 75 75 77 76 76 78 78 79 81 81 79 80 79 78 80 76 73 70 69 70 73 74 74
71 74 75 75 76 76 76 77 77 77 78 77 78 77 78 79 79 79 78 79 79 79 78 78 78 79 78 78 78 78 78 77 78 78 78 79 79 78 77 76 75 76 76 75 76 77 78 79 79 80 79 79 78 78 78 78 77 73 71 69 72 75 74
69 74 75 76 75 76 76 76 76 78 77 77 77 77 78 79 79 79 77 79 79 79 79 79 78 78 78 78 79 78 78 79 78 79 79 79 77 78 77 77 77 78 76 75 75 76 77 76 80 79 78 79 78 78 77 77 77 76 73 71 71 75 75
66 74 74 75 76 76 76 76 77 77 78 77 77 78 77 78 78 79 80 81 80 80 80 80 80 80 79 79 78 78 78 78 78 79 78 79 79 79 78 77 77 77 76 75 74 76 77 76 78 77 78 79 80 78 76 76 77 75 74 73 72 72 73
65 66 71 74 75 77 77 77 78 77 77 77 77 76 77 78 78 79 80 80 80 80 80 80 80 79 80 80 79 78 78 77 78 78 79 79 79 79 79 79 78 77 76 76 75 75 76 75 75 75 76 75 78 76 74 75 77 76 74 73 73 73 72
67 70 70 71 75 76 76 76 77 78 78 77 77 78 78 78 78 80 80 81 81 80 80 80 80 80 80 79 78 78 77 77 77 77 77 78 78 78 79 79 78 78 78 78 76 76 75 74 75 74 75 75 75 74 74 74 74 75 73 73 72 71 73
67 68 71 73 74 75 76 76 77 77 77 77 77 79 79 79 78 80 80 80 81 80 79 79 79 78 79 78 79 77 77 77 77 76 77 77 77 78 78 78 79 77 70 61 53 58 58 60 73 74 75 75 73 73 73 73 73 73 74 73 71 72 72
65 67 68 70 72 73 74 75 75 76 76 77 78 78 79 79 79 79 79 79 80 78 78 75 57 46 52 72 78 77 76 77 76 76 76 76 76 77 77 77 75 61 59 58 55 51 50 51 52 63 68 70 72 73 73 72 72 73 72 71 72 71 69
65 64 65 66 68 71 73 73 74 75 75 76 76 77 78 78 78 78 79 78 77 76 75 67 43 44 44 43 67 77 76 76 77 75 76 75 75 75 76 77 76 68 65 62 58 43 47 49 50 48 47 50 56 65 70 70 72 73 72 71 71 72 71
64 63 64 65 65 65 68 73 73 74 74 74 75 76 76 77 77 77 77 78 75 75 73 48 43 43 43 42 47 66 76 76 75 76 75 76 76 76 76 76 75 74 75 75 77 66 57 47 47 47 46 48 49 47 50 65 68 69 67 66 69 71 71
62 61 61 61 62 63 63 64 66 66 67 71 74 74 75 75 75 76 77 77 75 75 71 42 42 40 41 44 40 54 75 75 75 76 76 76 76 76 75 72 68 71 76 68 72 75 75 67 48 43 45 45 44 45 48 45 48 64 69 66 66 64 67
62 61 60 60 60 60 61 60 60 61 62 65 68 69 70 71 73 74 74 75 74 74 66 44 41 40 42 41 41 49 75 73 74 76 76 76 74 70 66 63 64 63 63 65 71 74 75 74 72 68 67 69 72 62 45 42 42 42 53 66 68 68 70
64 64 64 63 62 61 61 62 63 63 63 64 66 67 67 68 68 70 71 72 73 67 55 40 40 40 41 41 41 47 72 73 74 74 74 74 75 70 72 68 65 62 64 65 67 72 74 74 74 73 72 72 72 73 73 73 71 71 70 70 71 71 71
64 66 67 67 65 64 63 63 63 63 63 64 65 64 64 65 66 68 69 69 68 63 51 39 39 41 40 43 40 61 71 72 72 72 72 73 74 75 74 71 68 65 64 62 58 54 64 73 74 72 71 72 73 73 70 48 42 44 52 59 64 68 73
61 62 64 66 67 66 64 62 62 64 62 62 62 62 64 63 64 65 67 68 68 62 57 43 39 40 42 40 46 67 71 72 72 71 72 73 74 74 74 71 69 65 62 65 54 48 53 57 71 71 70 70 71 71 70 57 44 40 40 40 39 39 41
62 61 63 65 64 65 65 65 66 67 65 64 62 64 66 66 65 65 65 64 64 61 57 46 40 41 41 41 45 62 69 71 71 71 72 72 73 73 72 60 64 64 61 65 47 44 47 59 69 69 69 68 68 67 68 63 61 53 41 43 42 42 43
66 65 64 62 63 63 65 65 65 62 61 62 65 66 64 63 62 62 62 63 59 60 56 49 40 42 40 40 48 63 67 69 69 69 70 70 69 68 69 63 59 57 62 53 38 46 43 56 68 68 68 67 64 61 62 62 61 60 60 59 58 57 54
68 68 68 66 64 60 59 60 62 62 61 61 59 59 60 60 59 59 60 62 63 64 62 59 50 38 41 41 40 51 65 67 68 69 69 67 68 67 65 63 56 44 42 41 41 40 43 43 62 66 66 65 63 59 58 58 59 61 60 61 61 61 61
67 68 69 68 68 67 67 66 61 61 64 65 63 64 63 62 61 61 62 62 63 64 63 60 50 40 43 40 39 42 62 66 66 66 66 69 69 67 62 62 62 44 41 42 43 40 40 41 41 58 62 64 63 60 55 58 54 51 60 60 59 58 57
65 66 67 68 67 67 69 70 70 70 70 69 67 65 64 63 62 63 65 65 66 64 60 55 60 43 40 41 40 38 52 59 51 58 65 69 70 69 70 69 66 49 42 44 42 42 40 40 40 55 61 49 42 44 61 61 60 60 60 58 57 54 56
63 64 65 66 66 66 68 68 68 69 69 68 67 67 68 69 69 67 66 67 66 65 63 61 49 53 40 42 38 40 37 44 39 55 61 63 66 68 70 68 58 40 42 41 41 39 40 38 41 55 43 38 43 45 53 62 61 59 58 57 56 55 54
63 64 64 64 64 64 65 66 67 67 68 69 69 69 69 69 69 69 70 69 70 69 68 64 49 46 46 36 38 36 36 36 38 50 52 60 63 61 59 57 49 37 38 38 38 38 38 40 51 43 38 40 41 46 61 59 58 59 55 55 54 55 56

ECMWFFLT1_sfc_temp_084.txt.gz
Temp
69 68 68 68 70 70 68 69 69 69 70 71 68 71 73 73 72 72 71 72 72 74 72 71 71 71 72 72 71 71 70 70 69 66 66 68 65 65 68 67 66 67 67 66 67 63 60 56 58 63 65 64 64 66 66 64 65 65 64 64 66 66 66
70 70 70 70 67 68 67 67 67 67 67 69 68 68 72 74 73 71 73 73 72 73 73 72 71 73 72 70 69 69 69 68 69 69 68 67 67 65 65 66 67 66 67 67 68 67 62 59 58 59 59 64 65 64 66 66 66 65 66 63 65 70 69
68 69 70 67 67 67 66 66 66 66 67 66 66 67 69 73 74 73 73 73 72 73 71 70 72 72 71 71 70 70 69 68 69 69 68 67 68 67 68 67 65 65 64 63 65 64 64 64 59 59 61 61 59 61 65 64 64 65 68 67 68 70 68
69 68 66 65 65 66 67 67 66 65 67 66 66 67 68 71 72 71 71 70 73 73 73 72 70 71 71 70 71 71 71 69 68 68 69 69 68 68 68 67 66 66 63 60 63 65 64 62 61 61 62 64 61 59 62 66 66 68 71 69 71 70 67
69 68 66 64 65 66 67 66 67 67 68 67 67 67 72 74 73 72 73 74 74 74 74 73 72 72 71 71 70 70 70 70 70 70 69 68 68 68 67 66 66 67 67 66 66 64 64 62 63 62 61 64 64 64 66 63 67 70 71 73 71 69 68
69 68 67 65 66 67 67 67 67 66 69 70 71 71 72 73 73 72 73 73 73 72 74 75 74 74 72 71 70 71 71 70 69 69 68 68 68 68 67 68 68 68 68 68 67 67 67 67 65 62 64 66 61 62 65 65 62 69 72 71 71 70 68
68 68 67 66 67 68 69 68 68 69 69 70 71 71 72 73 73 73 73 73 73 73 73 73 73 74 74 74 72 71 70 70 70 68 68 69 68 67 68 67 68 68 67 69 69 68 67 66 64 63 62 63 64 63 63 61 68 67 70 73 73 71 70
68 68 68 69 68 67 68 69 69 70 70 71 72 71 73 73 73 73 73 72 73 73 72 72 74 72 72 74 73 71 69 69 67 69 69 68 69 68 68 67 68 68 68 70 68 69 69 68 67 65 63 60 59 62 61 65 68 69 68 71 72 69 68
69 68 68 67 68 68 67 68 70 71 72 72 72 73 73 73 73 72 73 73 73 73 72 72 72 72 72 71 70 71 71 72 68 69 68 68 68 69 69 68 69 68 69 69 70 69 69 68 68 67 65 64 60 57 61 61 64 67 72 67 69 69 68
68 68 66 67 66 66 66 67 70 72 73 72 72 73 73 73 72 72 72 72 73 72 72 72 73 74 73 72 71 70 70 72 71 70 67 68 67 68 69 68 68 68 69 69 70 70 69 68 69 68 68 65 64 61 58 58 59 62 68 70 65 67 69
69 68 67 67 66 66 67 68 71 71 71 72 73 73 72 72 72 73 71 71 72 72 73 73 74 74 73 71 72 71 71 71 70 70 70 70 69 67 69 69 69 69 69 69 68 68 69 69 68 68 67 68 67 62 61 59 58 62 61 67 69 66 67
69 68 68 67 66 67 68 70 71 71 71 71 72 71 72 72 72 71 71 71 71 72 73 72 72 73 73 71 71 70 70 71 70 69 70 71 70 69 69 69 69 69 69 68 69 69 68 68 68 68 67 67 65 65 63 61 57 61 65 62 66 70 67
69 68 67 66 65 66 71 71 71 71 70 72 71 72 72 72 71 71 71 71 71 72 72 72 73 72 71 71 71 72 71 72 72 70 70 71 74 70 68 69 69 69 69 69 69 69 68 68 68 69 68 66 66 66 64 62 60 59 63 63 66 68 68
68 68 67 67 64 67 70 71 71 71 72 71 72 72 73 73 73 72 72 72 72 71 71 72 72 72 70 72 71 71 72 73 73 71 70 70 72 71 70 70 70 70 70 69 69 69 70 70 70 69 69 67 65 66 64 61 60 60 63 65 65 67 69
69 70 68 67 68 70 72 71 71 72 72 72 73 74 74 73 72 73 73 73 72 72 72 71 72 72 71 70 69 74 73 74 71 71 70 70 70 73 70 69 71 70 72 71 69 73 71 70 73 72 70 69 68 66 67 65 62 60 58 63 63 68 67
70 69 69 69 70 73 72 72 73 72 72 72 73 73 73 72 73 73 73 72 72 71 72 71 72 71 70 70 71 72 71 70 69 69 69 69 72 72 69 69 68 69 71 69 68 70 69 70 73 74 71 71 70 68 70 69 65 61 61 61 64 65 65
68 70 70 71 72 72 73 72 73 72 73 72 74 72 73 74 73 72 72 72 72 71 72 71 73 72 72 71 71 71 70 69 71 71 70 71 73 71 69 68 68 68 69 67 68 68 70 69 68 70 69 68 67 68 68 67 68 63 62 61 62 66 65
66 68 70 71 71 72 72 72 72 74 72 72 73 72 72 74 73 73 72 73 73 72 72 72 71 71 71 72 72 70 70 71 71 71 71 71 72 70 69 68 69 69 68 68 68 68 69 68 73 69 68 70 69 68 68 68 68 67 63 61 61 64 65
64 66 69 70 71 71 71 72 72 72 73 73 72 72 72 72 74 74 74 74 73 73 73 72 72 72 72 72 70 70 71 71 71 70 71 71 71 70 69 69 69 69 69 68 68 69 69 71 71 69 69 71 71 69 66 68 66 66 64 62 62 61 64
63 63 66 69 70 71 72 71 72 72 72 72 72 71 72 72 72 73 73 73 73 73 73 73 71 71 72 72 71 71 70 71 70 69 72 70 70 70 70 70 68 68 69 69 68 68 67 67 68 67 66 66 68 66 63 66 67 66 65 63 64 61 61
64 65 67 69 70 71 71 71 71 72 72 71 71 73 73 72 72 72 73 73 73 72 71 72 73 72 72 71 70 70 70 70 69 71 70 70 70 71 70 70 69 69 69 69 69 69 69 66 66 65 66 66 66 65 65 66 64 63 63 63 61 60 61
66 66 67 69 70 70 70 71 72 72 71 71 72 73 73 73 72 73 73 72 73 72 71 66 65 67 70 72 71 69 70 71 69 70 71 69 70 70 70 70 67 64 63 60 56 57 58 61 68 65 64 65 66 66 64 64 64 64 63 62 61 63 60
66 67 68 68 69 69 69 71 70 70 71 71 71 72 73 72 72 72 72 72 71 70 66 64 54 50 52 66 71 71 70 69 70 69 68 68 68 70 71 67 65 62 59 57 54 50 48 50 55 62 62 63 62 63 64 63 62 64 63 62 61 60 59
65 65 64 65 66 69 69 69 69 70 70 70 71 71 71 71 71 72 73 71 70 67 63 55 43 43 43 49 66 68 69 68 68 68 67 66 67 68 66 64 65 66 65 64 58 45 49 48 46 48 50 54 60 62 62 61 63 62 61 61 61 61 60
62 61 61 63 64 65 67 67 68 69 68 69 71 71 71 71 72 72 71 71 68 64 56 43 40 41 41 41 47 64 68 68 67 65 67 67 65 64 63 62 62 62 64 63 66 63 55 48 49 47 45 46 48 51 54 62 62 61 61 59 58 59 60
60 59 59 60 61 63 63 63 63 64 64 65 67 68 70 70 70 72 70 70 66 60 53 41 41 41 41 41 41 55 70 67 67 67 66 64 62 62 61 61 60 61 64 63 63 62 64 63 52 45 45 46 45 44 46 46 51 62 62 60 59 58 60
58 58 58 58 58 59 59 59 60 61 62 63 64 64 65 65 66 67 68 65 60 56 51 42 40 41 41 41 39 49 68 67 67 65 63 62 61 59 61 62 60 61 62 62 60 60 62 61 62 63 61 60 62 56 44 43 44 47 54 61 60 60 61
58 58 59 59 59 58 59 59 59 59 60 60 61 61 62 63 64 65 65 63 59 53 48 40 41 41 41 40 39 48 65 67 67 66 63 63 62 62 63 65 63 63 62 61 62 59 60 59 59 61 61 63 62 65 62 57 55 56 57 59 60 60 60
59 60 60 60 60 60 60 61 61 61 61 61 62 62 63 63 63 63 63 61 58 55 48 39 40 40 40 40 41 59 65 66 67 67 67 67 66 66 65 64 65 63 62 62 57 49 53 59 60 60 59 63 63 61 52 45 41 42 49 52 52 51 50
60 60 61 61 61 61 61 61 61 62 61 61 61 61 62 61 62 61 61 59 57 55 52 42 40 40 40 39 47 61 64 66 66 66 67 67 68 66 65 65 65 61 61 61 51 46 45 50 59 58 58 61 62 61 55 51 42 40 41 41 41 41 41
60 61 62 62 62 61 61 60 61 62 61 60 60 62 63 62 61 61 60 59 58 55 52 44 40 40 40 39 45 57 62 64 64 64 64 65 66 64 61 60 61 60 58 60 46 42 42 51 58 59 60 60 60 60 55 56 55 48 41 42 42 43 43
59 59 58 59 60 59 60 62 61 60 60 61 61 61 61 60 59 59 60 59 57 56 54 49 41 40 40 40 45 53 59 62 62 62 63 63 63 64 61 58 55 55 57 51 39 41 40 50 57 57 58 59 59 58 57 57 55 52 52 52 52 53 52
61 61 61 61 61 58 58 59 61 61 60 61 60 60 60 60 59 59 59 60 60 59 55 52 45 40 41 40 41 51 57 60 58 59 62 62 63 62 60 59 49 40 42 41 40 40 42 41 53 56 57 57 56 56 56 57 57 56 55 55 53 54 53
63 64 63 60 60 61 61 59 58 59 58 59 59 57 58 59 59 58 58 58 58 58 57 53 46 39 40 40 40 45 56 54 53 55 58 61 61 57 58 58 52 41 40 39 40 39 41 40 40 51 54 56 56 55 54 56 53 51 54 53 52 52 52
62 62 63 63 62 62 63 62 60 58 57 57 58 57 57 56 58 58 58 59 59 58 57 53 53 41 40 40 39 42 52 51 47 52 58 60 60 57 55 52 49 41 38 38 38 38 39 40 38 46 52 45 43 46 55 56 54 54 53 53 51 50 51
60 62 61 62 62 62 63 63 64 63 60 58 58 59 60 59 59 59 60 61 60 59 57 54 46 48 40 40 38 38 40 45 39 53 55 56 57 56 55 54 50 40 38 39 39 39 40 37 41 45 37 37 38 40 44 55 54 55 53 53 52 51 50
61 61 61 61 61 60 61 62 62 62 62 62 61 60 59 58 59 59 59 59 59 59 58 56 48 45 42 36 36 36 36 37 39 51 52 57 57 54 52 51 47 40 40 39 37 37 37 38 42 37 37 37 38 39 50 55 54 55 53 50 49 50 52

ECMWFFLT1_sfc_temp_087.txt.gz
Temp
64 64 65 65 66 66 65 66 66 65 67 66 66 66 66 68 67 67 67 67 66 67 66 66 64 65 66 66 65 65 65 66 66 63 62 63 62 62 63 62 62 64 64 61 63 60 59 56 57 61 62 62 62 62 62 63 63 63 63 63 63 63 63
65 65 65 65 65 65 64 64 65 64 64 65 66 66 65 66 65 65 66 66 66 67 68 67 66 67 65 65 64 63 65 65 65 64 63 62 62 62 62 60 62 62 62 63 62 62 60 57 56 58 58 62 62 61 62 62 63 62 63 62 63 64 63
65 65 65 64 64 63 63 63 63 62 63 63 64 65 64 66 65 65 66 65 65 67 67 67 67 67 66 65 65 65 65 65 64 65 64 63 63 63 63 62 62 59 60 61 61 61 60 61 57 57 58 58 57 59 60 60 62 63 63 62 63 63 62
65 65 63 63 62 62 62 62 62 62 63 62 62 63 64 65 65 65 65 65 66 67 67 67 67 67 66 65 66 66 65 65 65 64 64 64 64 63 63 62 61 62 59 58 60 61 60 57 58 57 58 59 59 57 59 61 62 63 63 62 63 62 61
65 64 63 62 62 62 62 61 61 62 62 62 63 63 63 64 64 64 64 64 64 67 68 67 67 68 66 66 65 65 65 64 64 65 64 63 64 63 62 62 62 62 61 61 62 62 61 59 60 58 57 59 59 59 62 61 63 64 65 64 63 62 61
65 64 63 63 63 63 63 62 62 62 62 62 62 62 63 64 64 64 64 64 66 67 67 67 67 68 66 66 65 66 65 64 64 64 63 63 63 62 62 63 63 64 63 62 63 62 62 62 61 58 59 61 56 58 60 60 59 64 65 64 63 62 61
64 64 63 63 63 63 63 63 63 63 63 63 63 63 65 65 66 66 67 67 66 67 67 67 66 67 66 67 66 66 65 64 64 63 63 62 63 63 64 64 63 63 62 63 64 63 63 62 60 59 58 58 59 58 59 60 61 62 61 64 64 63 62
63 63 63 64 64 63 63 64 64 64 64 65 65 66 68 68 67 67 67 66 66 66 67 67 68 66 65 67 66 66 65 65 65 64 62 63 64 63 62 62 63 62 62 63 63 64 66 64 63 61 60 56 54 56 56 57 59 60 60 60 64 62 60
64 64 63 64 64 64 64 64 64 64 65 66 68 68 67 67 67 67 67 67 66 66 66 66 67 66 66 65 64 65 65 67 64 64 62 63 63 62 61 62 63 63 63 64 65 64 65 64 64 62 62 60 56 53 56 56 56 57 63 59 60 61 60
63 64 64 64 63 63 64 65 65 65 66 68 67 67 66 67 67 67 67 67 66 66 65 65 65 64 66 65 65 64 64 64 64 64 63 64 63 62 62 62 62 63 63 63 65 65 65 65 64 63 64 61 61 58 54 51 53 54 58 61 57 59 60
64 64 64 63 63 63 63 64 64 65 66 67 68 68 67 66 66 68 65 65 66 65 65 65 65 67 66 64 65 64 64 64 63 62 62 63 63 63 63 63 63 63 63 63 63 64 65 65 65 64 63 61 60 60 57 54 54 55 55 58 59 57 58
64 64 64 63 63 63 64 63 65 67 67 67 67 66 65 65 66 64 63 64 65 64 64 64 64 66 65 64 65 64 64 64 63 62 62 63 63 63 63 62 62 63 63 64 64 64 64 65 64 64 63 63 62 59 58 56 54 55 59 56 58 62 60
65 64 64 63 63 64 64 65 66 67 67 67 67 66 66 65 65 64 64 66 65 63 65 64 64 65 65 66 66 65 64 64 64 63 63 63 67 64 63 63 63 63 62 63 64 64 63 64 64 63 63 62 62 61 60 57 56 56 57 58 58 60 61
64 64 64 63 63 64 64 66 67 68 68 66 66 66 66 66 65 64 64 64 64 64 63 63 64 65 65 63 63 64 63 64 65 63 63 63 65 65 64 64 64 63 63 64 63 64 64 64 64 63 63 61 61 61 61 58 57 56 56 59 59 59 61
64 64 63 63 63 64 65 66 66 68 67 66 67 67 67 67 66 65 65 63 63 63 62 62 63 64 63 62 62 66 64 64 64 63 63 63 62 66 63 64 65 64 65 65 63 65 65 63 64 63 62 63 61 62 62 60 56 55 54 56 56 60 60
64 63 63 63 64 65 65 65 67 66 66 66 66 68 68 67 66 65 64 64 64 62 63 63 61 62 62 62 61 61 63 64 63 62 63 63 63 63 64 64 63 63 65 63 62 64 62 63 64 66 63 63 63 61 62 63 59 56 56 54 57 59 59
64 63 63 63 64 64 65 65 65 65 66 66 66 68 69 66 64 64 64 64 64 62 63 63 63 64 63 61 61 63 62 63 64 64 62 63 64 64 63 62 61 62 62 61 62 61 62 61 63 65 63 62 63 63 61 60 62 59 57 56 57 60 59
63 63 63 63 63 64 65 65 64 65 65 64 65 67 67 63 64 64 64 64 63 63 63 62 63 63 62 60 62 63 64 63 62 61 63 65 66 63 61 61 61 61 59 62 61 61 61 61 64 64 64 63 63 63 62 62 62 62 59 58 57 59 60
62 63 64 64 64 66 66 65 64 64 64 64 66 67 64 64 66 65 64 64 64 65 63 62 64 62 61 61 62 60 60 61 62 64 64 65 64 63 62 60 60 60 59 60 60 58 59 60 64 60 61 63 64 62 61 61 62 61 61 59 58 58 56
61 62 63 64 65 66 65 65 66 65 64 66 66 64 62 64 64 64 63 64 65 65 63 64 63 61 62 62 61 62 62 61 61 62 62 63 62 62 62 61 60 59 59 58 60 59 59 59 61 59 58 58 60 63 61 60 61 61 60 59 56 57 58
61 62 63 65 65 65 65 65 65 64 66 66 64 63 64 65 64 63 64 65 62 61 61 61 62 62 62 63 62 61 61 61 62 61 61 62 62 61 61 60 59 59 58 57 58 58 59 59 59 59 58 58 58 58 58 59 59 58 58 57 56 53 58
61 62 64 65 65 65 65 64 64 64 65 65 65 64 64 63 63 63 63 62 61 61 59 58 58 60 62 63 62 62 62 62 61 61 62 62 61 61 61 61 60 60 61 59 55 55 57 60 61 59 57 58 58 57 56 57 59 56 55 56 55 55 55
60 61 63 64 64 63 63 64 64 63 64 64 64 64 63 62 61 62 62 61 60 58 56 54 51 51 57 62 61 63 63 62 62 61 61 60 60 60 60 59 62 63 59 57 54 50 48 50 53 57 57 57 57 57 55 55 55 56 56 56 55 54 53
60 60 60 61 61 62 63 64 64 64 65 63 63 63 63 62 60 62 61 59 56 53 49 48 44 45 48 56 63 62 61 61 61 60 59 59 59 59 58 59 58 61 61 60 53 46 47 47 46 46 46 50 53 56 57 55 54 54 53 54 53 54 53
58 58 60 60 60 61 61 61 61 61 61 61 61 62 63 61 61 61 59 56 53 50 46 43 41 43 44 49 56 63 62 62 60 59 59 58 58 58 59 59 59 59 60 59 58 55 50 45 45 45 47 48 49 46 45 53 56 55 55 56 54 54 53
57 57 57 58 59 59 59 60 60 60 60 60 61 61 60 61 61 59 57 55 52 50 47 41 41 42 42 44 50 59 62 61 59 59 59 58 58 57 58 60 58 58 62 62 59 57 56 55 49 47 47 48 47 49 50 46 43 53 53 55 55 54 55
57 57 57 57 58 58 58 57 58 58 59 60 60 60 60 59 58 57 56 54 51 48 47 42 41 42 42 42 45 55 62 61 60 60 59 58 57 56 57 56 57 58 58 58 55 56 56 55 55 55 56 56 56 55 48 45 45 44 47 55 54 55 54
57 57 57 57 57 57 57 57 58 58 58 58 58 58 58 58 57 56 55 54 51 47 45 41 41 41 42 44 47 53 61 61 61 59 58 57 56 56 56 57 55 55 57 57 55 53 56 55 54 55 54 55 56 56 56 55 52 52 52 53 53 55 54
57 57 57 57 57 57 57 58 58 57 57 58 58 58 58 59 58 57 56 54 52 49 45 40 41 41 43 45 50 58 59 59 58 58 57 57 56 56 56 56 56 55 54 55 48 42 45 52 54 54 53 53 55 55 52 45 41 42 48 51 51 51 50
56 56 57 57 57 57 57 57 57 57 57 57 57 57 57 57 57 56 55 54 52 49 47 41 40 41 42 45 52 59 60 60 60 61 61 61 59 59 58 57 56 54 55 51 41 40 42 49 53 53 54 53 54 55 54 49 43 41 41 42 44 44 44
56 56 56 57 57 56 56 56 56 57 57 57 57 57 58 57 57 56 55 54 52 49 47 42 40 41 42 44 51 57 58 59 58 59 59 59 58 56 53 53 53 53 51 47 39 40 43 51 53 53 53 53 54 54 54 52 52 48 43 42 42 41 41
56 56 56 56 56 55 55 57 57 57 57 57 57 57 57 56 56 55 55 54 53 51 48 44 41 41 41 43 51 56 57 57 56 56 57 57 56 54 52 48 46 46 46 42 38 40 41 49 52 51 51 50 51 51 52 51 49 48 47 48 48 49 49
56 56 56 55 54 55 55 56 57 57 57 57 57 56 56 56 56 55 55 55 53 51 48 46 43 41 42 44 47 55 55 55 54 54 56 55 53 52 51 49 45 38 38 38 38 39 39 40 49 48 49 49 49 50 51 52 50 49 48 48 48 47 47
56 57 57 55 54 54 54 55 56 56 55 55 55 55 56 55 55 54 54 54 53 51 49 46 43 41 42 43 45 48 52 52 52 54 53 51 51 50 49 47 45 40 38 38 38 39 39 37 38 45 46 47 46 43 43 50 51 48 48 48 47 47 47
57 57 57 57 55 55 55 55 55 55 55 55 55 54 54 53 53 53 52 52 52 50 50 47 44 40 40 40 41 44 49 47 46 53 52 50 49 49 47 45 45 41 38 40 39 39 38 37 38 44 40 36 36 37 42 45 48 49 49 47 47 47 46
53 53 54 55 54 52 53 54 54 54 55 55 55 54 54 54 54 52 51 51 50 50 48 45 41 40 38 38 38 38 39 42 42 51 50 49 47 46 46 44 44 41 39 39 38 37 37 38 42 39 35 36 38 39 42 46 46 49 48 49 48 47 45
54 52 52 51 51 50 50 50 50 50 52 52 54 54 52 53 53 51 50 49 50 49 48 47 42 39 38 36 36 35 35 36 37 45 49 48 46 45 45 45 43 41 40 40 37 36 37 37 38 35 36 40 42 42 45 47 48 50 48 48 48 48 49

ECMWFFLT1_sfc_temp_093.txt.gz
Temp
63 63 64 64 63 63 63 63 64 65 65 65 64 64 64 65 64 64 63 63 63 63 63 62 62 62 62 61 62 63 61 62 61 61 59 59 59 59 59 57 57 59 58 55 59 57 57 55 56 60 61 61 62 62 62 62 62 62 61 62 62 61 61
64 64 64 64 63 64 63 63 64 64 63 64 64 64 64 65 64 63 63 62 63 63 64 62 62 62 62 62 61 61 61 61 61 61 60 59 59 58 58 55 58 57 56 58 58 55 57 56 56 57 57 60 60 60 61 62 62 62 62 61 62 62 61
63 63 63 63 63 63 63 62 63 63 63 63 63 64 64 64 64 64 63 63 63 63 63 62 62 62 62 62 62 62 61 61 60 61 61 60 60 59 59 57 55 55 56 56 55 56 57 56 55 56 57 57 56 58 60 61 61 61 61 60 59 59 59
62 63 63 63 63 63 63 62 62 62 62 62 62 61 63 63 63 64 63 63 63 64 63 62 62 62 62 61 62 62 61 61 61 61 60 59 60 60 58 59 59 60 57 54 56 57 55 54 56 57 58 59 58 57 59 61 61 61 60 57 56 56 57
62 63 63 63 63 63 63 62 62 62 62 61 60 60 61 62 63 62 63 63 63 63 63 63 63 63 62 62 61 61 61 61 60 61 60 59 59 59 58 59 59 59 57 58 59 58 57 56 58 57 57 58 58 58 60 60 60 60 58 57 56 56 58
62 62 63 63 63 63 63 62 62 61 61 61 60 60 60 61 62 62 61 62 62 63 64 63 63 63 62 61 62 61 61 61 61 61 60 60 60 60 59 58 59 59 58 58 59 57 57 58 59 57 58 59 56 57 59 60 57 59 59 57 56 56 58
62 62 62 63 63 63 63 63 63 62 61 62 61 60 61 62 62 63 63 63 63 63 63 63 63 63 62 62 62 61 61 61 61 60 61 60 60 60 60 59 59 58 57 59 59 59 58 58 56 57 56 56 57 57 58 57 60 57 56 56 56 56 57
62 62 62 62 62 62 62 63 63 63 62 61 61 61 61 62 62 62 62 62 62 62 62 63 63 63 63 63 62 62 61 61 61 61 60 60 61 59 58 59 59 57 58 59 60 59 60 60 59 58 58 55 55 56 55 57 56 52 52 53 55 55 55
61 61 61 61 62 62 62 62 63 63 62 61 61 61 61 62 61 61 62 61 61 61 61 62 62 62 62 62 61 61 61 62 61 60 60 60 60 59 59 57 59 58 58 59 60 60 60 60 60 59 59 59 56 53 54 55 54 52 55 52 54 54 54
61 61 61 61 61 61 61 62 62 63 62 62 62 61 61 61 61 61 61 61 61 61 61 61 62 62 62 62 62 61 61 60 61 61 59 60 59 59 58 58 59 58 58 59 60 60 60 60 60 60 60 60 59 56 53 52 52 49 53 51 52 54 53
62 62 61 61 61 61 61 61 62 62 62 62 62 62 61 61 61 63 61 60 60 61 61 61 61 61 61 60 61 61 61 61 60 58 59 60 59 58 58 58 58 57 58 59 60 60 60 60 59 60 59 57 57 57 54 52 51 48 51 52 49 51 52
61 62 62 61 61 61 61 61 61 62 62 62 62 61 61 61 61 61 60 59 60 61 61 61 61 61 61 60 59 59 58 60 60 58 57 59 58 59 58 58 56 57 58 59 59 59 59 59 58 59 58 58 54 53 55 51 49 49 51 52 51 52 52
62 62 62 61 61 61 62 62 61 60 61 62 62 62 61 61 61 61 59 59 60 60 60 60 61 60 60 60 60 60 58 59 59 59 58 58 61 59 59 58 57 58 57 58 59 59 58 59 59 59 59 57 53 54 54 50 50 51 52 51 48 51 52
62 62 61 62 61 62 61 60 60 61 61 60 61 61 61 61 61 61 60 60 60 60 60 59 59 60 60 59 58 59 58 59 59 57 58 57 59 59 59 59 57 57 58 58 58 58 58 58 59 59 59 57 53 54 56 49 49 49 52 49 49 51 51
62 62 62 61 61 60 60 61 61 61 61 61 61 61 61 62 62 62 61 60 60 60 60 60 59 60 59 58 57 59 59 58 58 57 57 58 57 59 57 58 57 56 57 58 58 59 59 59 59 59 58 58 55 55 56 51 48 49 50 51 48 50 50
61 62 62 61 60 59 61 62 62 61 61 60 61 62 61 62 63 63 61 60 59 58 59 59 59 59 59 58 58 58 58 59 59 58 58 57 58 58 57 57 56 56 59 58 57 58 58 59 59 60 58 58 57 56 55 55 52 51 51 49 48 49 50
61 61 61 60 59 60 60 60 61 62 61 60 60 61 62 62 63 62 61 60 59 58 59 59 59 59 59 58 58 58 57 57 57 58 58 58 58 58 57 57 55 57 57 57 57 57 57 57 58 58 57 55 57 56 55 54 56 51 50 52 49 51 50
60 60 59 59 60 60 60 60 61 61 60 60 61 61 62 61 62 61 61 61 59 59 59 60 59 58 57 58 59 59 58 57 57 57 58 58 60 58 58 58 58 57 56 56 54 55 56 56 57 57 58 57 56 56 56 55 55 52 52 53 49 49 48
59 60 59 59 60 60 60 60 60 60 61 61 61 62 62 61 62 61 61 60 60 60 60 60 60 59 58 57 58 59 59 58 57 57 56 58 58 59 58 58 57 56 55 56 55 54 55 56 56 55 56 56 56 55 55 53 53 52 54 52 50 48 48
59 58 58 59 60 60 60 60 60 61 61 61 61 61 61 61 59 61 59 59 60 60 60 60 59 58 57 57 58 58 58 57 57 56 55 56 57 57 59 58 56 55 56 55 55 55 55 54 56 54 56 56 55 55 54 54 53 53 51 50 49 50 49
58 58 59 60 60 60 60 59 60 61 61 60 61 61 60 60 58 59 58 57 57 58 60 58 57 57 57 58 58 58 58 57 56 55 54 54 55 55 55 55 54 54 54 54 55 54 55 54 52 52 52 55 55 54 53 52 51 52 50 49 49 49 48
59 58 59 60 60 59 60 60 61 60 61 61 61 61 59 58 58 57 56 56 56 56 57 56 57 58 57 58 59 59 58 57 56 55 54 54 54 54 54 54 54 54 57 60 56 56 57 57 55 53 51 53 54 53 52 52 52 50 49 50 49 48 48
59 58 59 59 58 59 59 60 61 60 60 60 58 58 57 58 57 56 56 54 54 54 53 53 56 54 56 60 59 59 58 57 56 56 56 55 55 55 55 54 58 60 57 55 53 49 48 51 55 56 54 54 54 53 52 51 50 50 50 49 49 48 47
58 58 58 57 57 58 58 57 59 60 58 57 58 58 58 57 56 55 55 54 52 51 50 52 49 47 49 53 59 59 58 57 56 56 56 56 55 55 54 54 54 57 57 55 50 46 45 45 44 46 48 52 56 56 53 51 49 50 51 51 48 46 47
57 57 58 57 57 57 57 57 58 57 56 56 56 57 57 56 55 54 53 52 50 49 49 50 45 47 48 50 54 59 58 58 57 56 57 56 55 55 55 55 54 54 53 53 52 51 49 45 44 45 44 44 43 44 47 51 51 50 50 51 48 51 50
56 56 57 57 57 57 57 56 55 56 56 55 56 56 55 55 54 54 53 51 49 49 48 46 45 47 47 48 50 55 57 57 57 56 56 55 54 54 54 55 54 54 56 57 55 52 52 51 47 46 47 48 47 44 41 41 43 50 51 51 50 49 50
55 55 55 56 56 55 55 54 54 54 55 55 55 54 54 54 53 53 52 51 49 48 48 46 46 46 47 47 49 53 58 57 56 55 54 53 53 52 53 54 54 53 52 51 51 52 51 51 50 52 52 51 51 50 46 44 44 43 48 51 51 51 51
55 56 56 55 55 55 53 53 54 54 55 54 54 53 53 52 52 52 51 50 50 48 47 44 44 45 46 47 48 51 57 57 55 54 54 54 54 55 55 54 52 51 51 50 47 47 52 51 51 51 50 50 50 48 48 47 46 47 49 49 49 49 49
55 55 55 55 55 54 53 53 53 53 52 52 51 52 51 52 51 51 50 50 50 48 45 44 44 45 46 46 49 56 55 55 55 54 54 54 54 55 54 53 51 50 50 48 46 42 48 51 52 51 50 49 49 49 48 46 42 43 43 43 45 46 46
54 54 55 55 54 54 53 52 52 53 52 51 51 51 51 51 51 51 50 49 49 48 46 42 43 45 45 47 51 56 55 54 53 52 52 52 53 53 52 52 51 50 49 48 42 41 43 47 51 50 49 48 47 48 47 48 46 42 41 41 40 40 40
54 53 54 54 54 54 54 53 53 52 52 52 51 51 51 50 50 50 49 49 48 46 46 43 40 44 45 48 51 55 54 53 52 51 50 51 51 51 53 55 53 51 49 46 39 41 44 49 50 48 48 47 47 46 46 46 48 48 45 43 41 40 40
54 54 53 53 54 54 54 53 53 52 52 52 51 51 50 50 49 48 49 49 50 48 46 45 42 43 45 48 53 56 55 53 51 50 49 48 49 49 47 46 47 47 46 41 37 39 42 47 48 47 46 46 45 45 45 44 45 45 46 47 47 45 43
50 52 53 53 54 54 54 54 54 53 52 51 51 50 50 49 48 47 47 47 46 46 46 45 42 41 44 47 49 55 54 53 50 50 50 50 49 47 46 46 44 38 38 38 38 38 39 42 47 45 46 46 46 45 45 44 44 43 43 43 44 42 42
47 48 50 51 51 52 53 54 54 54 53 52 51 49 48 47 47 46 46 46 45 45 46 44 42 40 42 44 46 49 53 52 51 51 49 48 48 47 46 44 44 40 38 38 38 38 38 38 41 44 44 45 43 42 41 45 44 43 43 43 43 43 44
47 47 48 50 50 50 52 54 54 54 52 51 50 48 47 47 46 45 45 45 45 45 45 44 44 41 41 43 43 46 51 51 51 51 50 48 47 46 45 44 43 39 37 37 38 38 38 38 39 43 39 37 36 37 43 44 42 43 43 43 43 42 43
47 47 46 47 49 49 50 53 53 52 51 49 48 47 47 47 46 45 45 45 45 45 44 43 41 42 40 41 42 43 44 47 45 52 51 48 47 45 45 43 42 38 37 37 37 37 39 39 40 38 36 37 38 38 41 40 42 42 42 42 42 42 41
48 47 46 46 47 47 48 49 51 50 49 48 47 46 46 46 45 45 44 43 44 44 44 44 41 40 40 39 39 40 40 41 43 47 49 47 45 44 44 42 41 36 37 36 36 36 35 36 36 36 38 39 39 40 42 42 42 41 39 39 40 40 41

ECMWFFLT1_sfc_temp_096.txt.gz
Temp
63 63 64 64 64 64 63 63 64 64 65 65 65 65 65 65 64 64 64 63 63 63 64 63 63 62 62 63 64 63 62 63 63 62 61 61 60 60 60 59 59 60 61 58 63 60 58 55 57 60 62 62 62 62 63 63 63 62 62 62 62 63 63
63 63 64 64 63 63 63 63 64 64 64 65 65 64 64 64 65 64 63 63 63 63 64 63 63 63 62 62 62 62 62 62 63 63 62 61 61 59 58 57 59 60 60 60 61 59 59 56 56 57 57 60 61 61 62 63 62 62 62 62 62 63 62
62 63 64 63 63 63 62 62 63 64 63 63 64 64 64 64 64 64 63 63 63 63 64 63 63 62 62 62 63 63 62 62 62 62 63 62 62 60 61 59 59 58 59 59 59 59 60 60 57 56 58 57 57 59 61 61 61 61 62 61 61 61 61
62 63 63 62 62 62 62 62 62 63 63 63 63 63 64 64 64 64 63 63 63 64 64 63 63 63 63 63 63 63 62 62 61 61 62 61 61 61 60 61 61 62 60 58 59 59 58 57 57 57 59 60 59 58 59 61 61 61 61 59 59 60 60
63 63 63 62 62 62 62 62 62 62 62 62 62 62 63 63 64 63 63 63 63 63 63 63 63 64 63 63 62 62 62 62 62 62 61 61 61 61 60 60 61 62 60 61 61 61 59 59 60 58 58 59 59 59 59 59 60 60 60 60 60 60 61
62 63 63 63 63 63 63 62 62 61 62 61 61 62 62 63 64 63 62 62 62 63 63 63 63 63 62 62 62 62 62 62 62 62 62 61 61 61 61 60 61 61 61 60 61 60 60 61 61 58 59 61 57 57 59 60 58 60 60 59 60 60 61
62 62 63 63 63 64 64 63 63 62 62 62 62 63 63 63 63 64 63 63 63 63 64 63 63 63 63 63 63 62 62 62 62 62 62 62 62 62 62 60 60 61 60 61 61 61 60 60 59 59 58 58 59 58 58 58 60 59 59 59 60 60 60
62 61 62 63 63 63 64 64 64 64 63 64 63 63 62 62 63 63 63 63 63 63 63 63 63 63 62 63 63 62 62 62 62 62 61 61 61 61 61 61 60 60 60 61 62 62 63 62 61 61 60 56 56 58 56 58 59 58 57 57 59 59 59
62 62 61 62 63 64 64 64 63 63 64 64 64 63 62 62 62 62 63 62 62 62 63 63 62 62 62 62 62 62 62 62 61 61 61 61 62 61 61 60 61 60 60 61 62 62 63 63 63 62 62 60 57 54 56 56 57 57 58 58 58 58 58
62 62 61 61 62 63 63 63 63 63 63 63 63 62 61 62 62 62 62 62 61 61 62 62 62 62 62 62 62 61 61 62 62 62 60 61 61 60 60 60 61 60 60 61 62 62 62 62 63 63 64 62 61 57 54 54 56 56 57 58 58 57 57
62 62 62 61 61 61 61 62 63 62 62 62 63 62 62 62 61 63 61 61 61 61 62 62 62 62 62 62 62 62 62 62 61 60 61 61 60 60 60 60 60 60 60 61 61 61 62 62 62 62 62 62 61 60 58 55 56 56 57 55 56 57 55
62 62 62 62 61 61 61 61 61 61 61 62 62 61 61 61 61 61 61 60 60 61 61 61 62 62 62 61 61 61 61 61 61 60 60 61 60 61 60 60 60 60 60 60 60 61 61 62 61 60 59 61 60 60 59 56 55 55 56 57 56 57 57
62 62 62 60 60 61 60 60 60 60 61 62 61 61 61 61 60 60 60 60 60 61 61 61 61 61 61 61 61 61 60 61 61 60 59 60 61 61 60 60 60 60 59 60 60 61 61 61 61 61 61 60 59 59 58 55 55 56 55 56 56 56 56
61 61 62 62 60 60 60 61 61 61 61 61 62 61 61 61 61 61 60 60 61 60 60 60 60 61 61 60 60 61 60 61 61 60 59 59 61 61 61 60 59 59 60 60 60 60 60 60 61 61 60 59 58 58 60 55 55 54 55 53 54 56 55
61 61 61 61 60 60 61 61 61 61 61 60 61 61 61 61 61 61 61 60 60 61 61 61 60 61 60 59 59 60 60 61 61 59 60 60 60 61 60 60 59 59 60 60 60 61 61 61 61 61 61 60 59 58 58 57 54 54 55 55 54 54 55
60 61 61 60 60 61 60 60 61 61 61 60 61 61 61 61 61 61 61 60 60 60 60 60 60 60 60 60 59 59 60 61 60 59 60 60 60 60 60 60 59 59 60 59 59 59 60 61 62 62 61 61 59 59 59 59 56 55 55 54 53 54 54
60 61 60 60 60 60 60 60 61 61 61 60 60 61 61 62 61 61 61 60 60 60 60 60 60 60 60 60 60 60 59 60 60 61 60 60 60 60 60 59 58 59 59 59 58 59 60 60 61 61 61 60 59 58 59 58 60 56 55 56 52 56 54
60 60 59 59 59 59 60 60 61 61 60 60 60 60 60 61 61 60 61 61 60 60 60 60 60 59 59 60 60 60 59 59 59 60 60 60 61 60 59 60 58 59 59 58 58 59 59 59 61 61 61 60 60 59 58 59 59 58 56 56 53 53 53
60 59 59 59 59 59 60 60 60 60 61 60 60 60 60 60 61 62 62 61 61 60 60 60 61 60 59 59 59 59 59 59 59 59 59 60 61 61 60 60 59 59 59 59 58 58 59 60 60 60 60 60 60 58 58 57 58 57 58 56 55 52 52
59 59 58 59 59 59 60 60 60 59 60 60 60 60 61 60 60 62 61 61 61 60 60 61 60 60 59 59 59 58 57 57 58 58 59 60 60 60 61 60 59 59 60 60 59 59 58 58 59 59 60 59 58 58 57 57 58 57 57 55 53 53 53
59 59 58 59 59 59 60 59 60 60 60 60 60 60 60 60 59 60 60 60 60 60 60 60 59 59 59 59 59 58 58 57 57 57 57 57 58 59 59 59 59 59 59 59 60 59 59 59 58 59 58 59 58 58 57 56 56 56 55 55 55 53 53
59 59 58 58 59 59 59 59 59 60 60 60 60 60 59 59 58 58 57 58 59 59 59 59 59 59 58 58 58 58 58 57 57 56 56 56 56 56 57 56 56 57 60 58 54 55 55 56 58 59 55 57 57 57 56 55 55 55 54 55 53 52 53
59 58 58 58 58 58 59 59 59 59 60 59 59 58 58 58 58 58 57 56 56 57 57 58 58 54 56 59 58 58 57 57 58 58 57 56 56 56 56 57 59 59 56 54 51 47 46 48 52 55 56 56 57 56 56 55 55 55 55 54 55 53 53
58 58 57 57 57 58 58 58 59 59 58 57 56 57 57 57 57 57 57 57 55 54 55 57 49 47 48 52 58 58 58 57 58 58 57 57 56 55 55 56 56 57 56 54 50 45 45 45 44 45 47 50 54 57 55 54 54 54 55 55 52 52 54
57 57 57 56 56 56 57 57 57 57 56 55 56 57 56 56 55 55 55 55 54 53 54 51 45 46 47 49 53 59 58 58 57 57 57 56 56 56 56 56 56 57 57 56 55 54 50 45 44 44 43 43 42 42 46 54 54 53 53 54 52 54 53
56 56 56 56 56 56 56 56 56 57 56 55 56 56 55 55 54 53 54 54 52 52 51 45 44 46 46 47 48 55 59 58 57 56 57 57 56 56 56 55 54 54 55 57 55 55 56 54 47 46 46 46 45 44 41 41 43 54 55 54 54 53 54
54 54 55 55 55 55 55 54 54 53 54 54 54 54 53 53 53 53 53 53 51 50 50 45 44 45 45 45 47 52 58 57 56 56 56 56 56 55 55 55 54 52 53 53 54 54 54 54 54 54 53 53 53 50 46 44 44 44 50 55 55 55 54
54 54 54 55 54 54 53 53 53 52 53 53 54 53 53 52 52 51 51 51 51 48 48 43 43 43 44 46 47 50 57 56 56 55 55 55 55 55 55 54 53 52 52 52 51 54 54 54 54 53 52 51 51 50 50 50 50 51 52 53 54 54 53
54 54 54 54 54 53 52 52 51 51 51 50 51 51 51 51 51 50 51 51 50 48 45 41 43 44 44 46 48 56 56 55 55 55 55 54 54 54 54 53 52 52 51 50 46 45 49 54 54 53 51 51 51 50 49 47 43 42 47 49 51 51 50
53 53 53 53 53 52 52 51 51 51 51 50 50 50 50 50 50 50 50 50 49 47 47 42 41 44 45 45 50 55 55 54 53 53 53 53 54 54 54 54 53 52 50 49 43 42 44 49 53 52 50 49 50 50 48 48 45 42 40 40 39 39 39
53 53 53 52 52 52 51 51 51 51 50 50 49 49 49 49 49 49 49 48 49 48 47 43 41 44 45 47 51 55 54 53 51 51 50 51 51 51 52 54 54 52 49 46 41 43 45 51 51 50 50 48 49 49 48 47 50 48 41 40 40 39 40
50 52 52 52 52 51 51 50 51 51 50 50 49 49 49 48 47 47 47 48 49 48 47 45 42 43 44 46 51 54 54 52 50 49 48 47 48 48 48 46 44 45 45 42 39 41 44 49 51 50 49 49 48 47 45 45 46 48 50 51 50 50 49
48 49 51 52 52 51 51 50 50 49 49 49 48 48 47 47 46 46 46 46 46 46 46 45 43 42 44 46 48 54 52 50 49 48 49 48 47 47 47 46 43 38 38 38 39 39 41 44 50 50 51 50 48 46 46 46 45 47 48 47 47 47 47
46 47 49 51 52 52 52 51 51 50 49 48 47 47 47 46 46 45 46 45 45 45 47 46 44 41 42 44 46 48 52 51 49 48 47 47 47 46 46 45 43 39 38 38 38 39 40 40 43 48 49 47 46 44 43 46 45 44 47 47 47 47 47
47 47 48 50 52 52 52 52 51 50 49 48 48 47 47 46 46 45 45 45 45 44 45 45 45 42 42 43 43 46 50 50 50 50 48 48 47 46 45 44 42 39 38 38 38 38 39 39 40 44 40 38 37 39 45 45 46 46 46 46 46 46 45
46 46 46 47 49 50 51 51 50 50 49 48 47 47 46 46 46 45 45 44 44 44 44 43 42 42 41 41 42 42 44 47 45 52 50 48 47 45 45 43 41 39 38 38 38 38 39 39 41 40 37 37 38 38 42 45 45 45 44 44 45 44 43
45 46 45 46 48 49 49 48 48 48 48 47 46 46 45 46 46 45 44 44 44 44 44 44 41 41 41 40 41 41 41 41 43 47 49 47 46 46 45 42 40 37 37 37 37 37 37 38 39 38 38 38 39 40 44 44 44 43 42 42 43 43 43

ECMWFFLT1_sfc_temp_099.txt.gz
Temp
67 68 70 71 71 68 67 67 67 66 67 67 67 67 68 68 68 69 69 70 69 69 68 67 65 67 69 70 70 71 72 73 72 70 68 69 68 68 70 69 68 69 71 70 72 69 67 61 61 66 68 66 67 68 69 69 69 68 66 65 66 67 68
68 69 71 71 69 67 66 67 67 67 67 67 68 67 68 68 68 68 70 69 70 71 72 70 69 69 67 66 66 68 69 71 72 71 68 68 69 69 67 67 69 70 71 71 71 71 68 64 62 62 62 64 64 65 68 68 68 66 66 64 66 67 67
67 68 69 68 69 67 66 66 66 66 67 67 68 69 68 69 69 69 69 69 69 71 73 74 73 69 67 68 68 68 69 70 71 71 69 70 70 71 71 70 69 69 70 69 69 69 68 69 65 63 64 63 60 61 65 64 64 65 66 66 66 67 68
67 67 67 68 68 68 67 66 66 66 67 67 67 67 68 69 69 69 68 69 71 71 72 74 70 67 67 68 68 69 69 69 70 70 70 70 71 70 71 71 71 71 68 68 68 69 68 65 66 65 65 65 65 64 62 63 64 68 68 66 68 69 68
67 66 66 66 68 68 67 66 66 66 66 67 66 66 66 68 68 67 69 69 70 70 71 73 73 72 70 70 69 70 71 71 71 69 70 70 70 71 70 71 72 73 73 73 73 72 70 69 68 66 66 65 66 65 62 61 64 67 68 67 69 70 69
67 66 66 66 67 67 68 67 66 65 66 66 65 65 66 67 67 65 67 68 70 71 72 73 73 73 73 73 73 71 71 71 71 71 71 70 71 70 71 72 73 74 73 74 74 73 72 72 70 66 66 68 64 60 61 64 62 67 68 67 70 73 72
67 67 66 67 68 68 68 67 65 66 66 66 65 65 67 68 68 69 69 69 71 72 73 72 72 72 73 74 73 72 71 72 72 71 71 70 70 71 72 71 72 73 73 73 73 73 71 70 69 68 64 66 67 63 61 63 67 66 67 69 70 73 72
66 65 65 66 67 66 67 67 67 68 67 67 67 68 68 68 69 69 70 70 71 72 72 72 72 73 72 74 74 73 72 72 71 71 70 69 69 70 71 72 72 72 73 74 74 73 75 73 72 70 67 63 62 62 60 64 67 68 69 70 71 70 71
64 64 64 64 64 64 66 66 67 68 67 66 67 68 68 68 68 69 70 71 72 72 72 72 72 73 72 72 73 72 71 73 70 69 69 68 69 70 70 72 72 73 73 73 74 74 76 74 73 72 71 69 64 59 62 61 64 66 71 69 69 69 70
64 63 63 64 65 65 65 66 65 66 65 65 65 66 66 68 69 70 70 70 71 71 71 71 72 73 72 72 73 72 71 72 71 71 71 68 68 70 71 71 72 73 72 73 74 74 73 73 74 74 74 71 70 66 62 62 63 64 67 71 70 67 69
66 66 65 65 64 62 63 64 64 64 63 64 65 65 65 66 67 69 70 70 70 70 70 70 71 73 72 72 72 72 73 72 71 71 72 72 70 71 71 71 72 73 73 72 73 72 73 72 73 73 74 74 73 70 67 65 65 68 67 68 71 69 68
67 67 67 64 63 62 62 63 64 65 64 65 65 65 65 66 66 68 69 70 70 70 70 66 68 68 71 71 71 71 72 71 72 71 72 71 71 71 71 70 72 72 71 71 72 72 72 72 72 73 73 73 72 71 70 69 65 66 71 67 69 72 70
68 67 65 62 62 62 62 64 65 64 65 66 66 66 66 65 66 68 68 70 70 71 69 66 66 65 66 68 68 71 71 71 72 71 71 72 73 71 70 71 71 72 71 72 72 72 72 72 72 73 72 72 71 71 71 70 68 65 67 69 69 69 70
65 65 64 64 63 62 63 64 65 65 66 66 67 66 66 66 65 67 66 68 71 71 70 66 66 64 64 65 66 71 72 73 72 72 72 70 71 70 71 71 71 72 72 71 72 72 72 72 71 72 72 72 71 71 71 69 69 66 65 66 68 69 69
67 67 66 64 63 63 64 64 66 66 65 67 67 67 67 66 66 64 65 66 66 68 71 70 67 66 65 66 69 72 72 72 72 72 71 71 69 70 70 70 70 72 72 73 72 74 73 72 73 73 72 73 72 71 72 71 70 69 65 64 66 68 67
64 65 64 63 63 64 64 65 67 66 66 67 68 68 68 68 67 67 67 67 67 68 72 72 69 67 67 68 71 71 71 72 71 71 71 71 72 72 71 71 71 71 71 71 70 72 72 72 74 74 73 73 73 71 73 74 71 69 68 66 67 68 67
64 63 62 63 64 66 66 66 66 67 68 68 68 68 68 68 68 68 69 70 70 72 72 72 72 72 72 72 72 72 72 72 72 72 72 73 73 72 72 70 70 70 70 70 70 70 71 72 72 73 73 73 72 71 71 71 72 71 70 67 66 71 69
63 63 63 64 65 66 67 67 66 67 67 67 68 68 67 69 68 68 68 69 71 71 71 72 72 71 72 72 73 72 72 72 72 72 72 73 71 73 72 71 71 71 71 70 69 70 71 70 72 72 72 73 73 72 71 71 73 73 71 69 66 67 68
63 64 64 65 65 65 66 67 67 67 68 68 67 67 67 67 68 68 69 71 71 71 71 72 73 72 72 72 72 72 72 71 72 73 72 72 73 73 72 72 71 71 71 70 70 70 71 70 72 71 72 73 74 72 70 71 71 71 71 71 69 64 65
63 64 64 65 65 65 65 66 66 66 67 68 67 67 68 68 68 69 70 70 70 70 70 71 72 72 72 72 71 71 70 71 71 71 71 72 73 73 73 73 72 71 71 72 71 70 70 70 70 71 71 70 72 71 69 70 72 70 70 69 69 68 67
63 63 64 64 64 64 65 65 66 67 67 67 67 68 68 68 66 67 66 65 66 68 69 70 71 71 71 71 71 71 71 70 70 70 69 71 71 72 72 72 72 72 72 73 72 71 70 70 71 70 71 71 71 70 69 70 69 70 69 69 69 67 68
62 62 62 63 63 63 64 65 65 66 67 67 67 68 67 65 64 63 64 65 67 68 68 68 68 69 69 70 71 70 70 71 70 69 69 69 69 70 70 70 70 71 67 62 57 61 63 64 71 71 69 70 69 69 69 70 69 69 69 69 68 68 67
62 62 61 61 63 63 63 63 64 66 66 65 66 66 66 64 64 62 63 64 66 67 68 67 62 57 60 70 70 69 69 70 69 68 67 66 67 68 68 68 65 57 55 54 51 47 47 51 54 64 71 70 69 69 69 68 68 69 69 68 69 67 66
62 61 60 60 61 63 64 63 63 64 64 63 64 64 64 63 63 63 65 65 66 66 66 66 51 49 51 55 66 68 69 69 69 68 67 66 66 66 67 67 65 60 58 54 52 44 44 44 44 44 44 48 55 67 70 67 68 69 68 69 69 67 68
61 60 60 60 60 61 62 61 61 62 62 61 61 63 63 64 63 61 61 63 63 64 66 53 45 46 48 50 57 69 70 69 69 69 69 67 67 67 66 66 66 66 66 64 61 57 50 44 43 43 43 44 42 40 45 62 68 67 67 68 66 67 67
60 59 59 59 60 61 61 60 60 59 58 59 61 61 61 61 61 59 59 61 62 63 63 44 44 45 46 47 51 62 71 70 69 69 69 69 68 67 67 66 65 65 64 60 64 64 62 57 47 45 46 46 44 44 42 40 45 64 70 67 67 65 66
59 58 58 58 57 58 58 57 57 57 57 58 59 59 59 58 58 59 60 62 62 61 61 46 43 44 45 46 48 58 71 69 69 69 69 68 67 67 67 66 65 64 65 66 67 66 66 64 64 65 65 65 63 57 49 48 48 48 58 68 68 65 63
57 57 57 56 55 55 56 56 55 55 56 56 56 56 59 58 58 59 60 61 60 58 54 42 42 43 44 46 48 57 69 67 67 66 66 65 65 66 67 67 66 65 65 66 66 64 66 66 65 63 63 62 62 61 60 61 61 64 65 66 66 64 63
57 57 56 54 53 53 53 53 53 53 53 52 53 54 56 59 60 60 59 59 59 57 52 41 42 43 44 46 50 66 67 66 65 65 64 63 64 65 66 66 66 65 64 63 52 49 58 67 66 64 62 62 62 59 55 47 41 44 54 60 61 60 57
56 57 57 55 53 52 52 52 52 53 52 52 51 51 53 57 59 60 59 60 59 57 54 44 41 43 44 47 56 67 66 65 64 62 61 62 64 64 64 65 65 64 62 59 46 45 48 57 66 64 62 62 61 59 57 54 42 39 40 39 39 38 38
54 56 56 56 54 52 51 51 51 52 51 51 50 51 51 52 54 56 57 57 58 56 53 46 42 43 45 49 57 66 65 63 61 61 60 60 60 59 55 50 58 62 59 55 42 44 48 60 65 63 62 60 60 57 56 58 58 50 39 39 39 39 39
53 54 54 54 54 52 51 51 51 51 50 50 49 50 50 50 50 52 53 53 52 54 54 49 42 42 44 48 59 65 64 62 60 59 59 58 58 57 53 48 45 50 53 46 39 42 46 58 64 63 62 61 58 56 54 59 60 60 60 59 58 58 55
51 51 54 55 54 53 53 51 50 50 49 49 49 49 49 49 49 49 51 52 52 54 53 51 46 42 44 45 48 63 64 61 59 58 59 59 55 52 51 49 44 39 39 40 41 41 43 47 61 62 63 61 58 54 56 58 58 60 59 59 58 58 58
49 50 53 55 55 54 53 52 51 51 50 49 49 48 48 49 49 48 48 49 50 50 52 51 47 41 42 43 45 52 58 56 54 53 54 54 52 49 48 46 45 40 39 39 40 40 41 43 48 59 59 59 57 54 54 57 52 49 56 55 56 57 58
48 49 51 54 53 52 53 53 52 51 50 49 48 48 48 48 47 46 46 46 46 47 47 46 48 42 41 42 42 46 53 52 51 51 50 51 49 47 46 46 44 40 38 39 39 39 40 41 42 51 46 39 39 41 53 53 53 54 53 54 54 54 55
48 48 48 50 51 50 50 50 50 51 50 49 48 48 48 48 48 47 46 46 46 46 45 44 42 43 41 41 41 42 43 46 45 53 52 50 47 46 46 45 43 39 38 39 39 39 40 40 42 42 38 38 39 40 46 53 54 55 54 54 53 52 52
48 48 48 47 47 47 47 48 47 47 48 48 48 47 46 47 46 45 45 45 45 45 45 44 41 40 41 40 40 41 41 41 43 49 50 49 49 48 46 44 41 38 38 38 38 38 38 40 42 38 39 39 41 45 53 54 54 54 51 52 52 52 52

ECMWFFLT1_sfc_temp_102.txt.gz
Temp
75 75 75 76 76 76 74 73 74 72 73 73 70 70 70 71 71 70 72 72 72 69 69 69 69 71 73 72 73 69 67 71 75 75 73 75 71 72 75 74 71 75 76 76 75 72 68 65 64 68 69 66 68 69 69 71 72 72 73 74 74 76 76
75 76 78 78 76 76 73 74 74 73 71 72 72 70 70 71 70 70 73 72 72 69 71 72 70 73 72 71 71 67 67 73 75 75 73 73 74 73 72 71 73 72 74 76 75 75 72 68 62 62 63 69 70 68 67 70 72 72 72 72 73 74 73
74 74 76 76 75 76 74 73 73 73 72 70 71 72 71 71 71 72 72 73 70 73 73 71 73 74 73 73 74 74 75 74 75 74 70 74 75 71 74 69 69 70 69 71 75 75 74 74 64 65 65 65 63 65 67 69 70 71 73 74 72 73 73
73 73 73 72 74 74 74 74 74 73 72 70 69 70 72 72 72 73 72 73 74 69 71 69 72 74 73 74 75 75 75 75 75 74 73 74 72 67 68 72 71 70 68 70 72 73 74 71 71 67 64 68 68 64 67 70 70 73 75 73 73 73 74
73 73 73 72 72 73 72 72 73 72 69 69 68 67 69 72 73 72 72 71 74 74 72 69 69 73 73 75 75 75 75 75 75 74 73 71 70 69 70 74 71 69 70 71 70 73 70 74 72 71 71 67 65 70 68 68 70 71 73 74 76 75 75
73 73 72 73 72 70 72 71 70 70 70 69 69 67 68 71 72 71 70 70 73 74 72 69 68 71 71 72 73 73 74 74 74 71 69 67 67 72 75 78 70 68 69 74 67 73 74 75 75 72 75 76 71 68 69 69 68 72 74 74 78 79 77
73 74 74 73 72 71 72 72 71 71 71 71 69 66 68 71 72 71 71 72 74 76 72 69 68 70 71 71 71 70 71 71 70 70 71 73 70 73 74 71 70 68 69 69 75 74 75 74 74 73 72 73 71 69 70 70 73 72 72 76 78 78 76
73 73 74 74 70 69 70 72 72 71 71 72 70 69 70 70 70 70 71 71 72 74 71 67 68 69 71 70 71 71 70 69 68 70 68 70 74 75 74 73 74 72 70 75 77 78 80 78 76 74 73 68 66 68 68 72 73 74 73 76 78 78 77
70 69 69 71 69 68 69 71 72 71 71 72 71 71 71 71 71 72 70 69 72 71 69 69 69 68 69 70 71 69 66 66 68 69 68 74 73 74 74 74 70 69 75 78 80 79 81 78 77 77 75 72 67 64 66 67 71 71 76 74 77 80 79
69 68 68 68 68 69 70 71 72 73 72 72 71 71 71 72 72 71 69 68 69 72 71 69 72 69 68 70 69 67 66 67 69 72 73 74 75 73 70 70 69 70 73 78 79 80 79 78 79 78 78 71 70 64 63 66 68 68 73 77 74 76 80
71 71 71 69 69 70 70 71 71 72 72 73 72 72 72 73 72 72 71 70 70 73 74 74 76 74 72 66 68 67 68 68 68 67 71 75 74 74 72 72 69 68 78 77 78 78 78 78 79 79 78 77 69 65 72 69 65 72 73 77 77 74 77
73 73 72 71 71 71 72 71 70 72 73 73 72 71 71 72 72 72 70 70 69 69 72 73 74 75 75 70 68 67 68 69 71 71 69 73 73 72 68 69 72 70 77 76 78 78 78 78 78 79 79 77 76 74 71 70 65 70 76 72 77 80 78
70 69 72 72 71 71 72 73 72 70 71 72 72 72 71 72 73 72 71 69 66 70 71 72 74 73 71 66 67 67 72 74 73 70 70 67 71 73 74 72 68 74 77 78 77 78 77 77 78 79 77 76 75 76 75 73 69 68 75 75 76 78 79
70 72 72 72 71 70 72 72 72 71 71 70 72 72 71 72 74 73 72 69 72 69 67 68 71 71 72 72 71 72 76 76 76 70 69 70 76 76 74 73 73 74 77 78 78 77 78 78 78 78 79 78 77 76 76 74 72 70 72 76 76 77 78
72 71 70 70 70 70 71 72 72 71 70 72 72 71 72 72 73 74 74 73 72 73 70 71 70 71 71 71 72 74 75 76 75 72 71 73 77 77 76 75 77 78 79 79 78 80 79 78 79 79 79 78 70 73 77 77 74 66 68 72 75 78 76
69 68 68 67 65 69 70 71 72 71 71 72 72 72 72 73 73 75 74 73 74 72 73 74 72 70 70 71 73 73 73 72 67 71 73 76 78 78 77 76 77 77 77 77 77 78 78 78 80 80 79 78 75 76 79 78 76 72 70 71 74 75 75
66 67 66 65 67 69 70 70 72 71 72 72 72 72 73 74 74 73 74 74 73 73 72 72 70 70 71 72 74 74 73 70 67 71 73 76 78 78 76 76 76 76 76 75 76 77 78 78 77 78 77 77 76 75 77 77 78 75 74 71 73 77 76
65 65 65 65 66 68 68 69 71 73 73 72 72 72 73 74 74 74 71 73 74 72 72 71 70 69 71 73 74 73 73 71 69 73 72 72 76 78 77 76 77 77 76 75 75 76 78 76 79 78 77 78 78 77 76 77 77 78 75 72 72 77 76
65 66 66 65 65 66 68 70 71 71 72 71 71 71 72 72 73 74 74 73 75 75 73 69 69 70 72 71 71 71 70 69 67 70 78 78 78 78 77 77 76 77 77 75 74 76 77 76 79 77 78 79 80 78 76 76 77 76 76 75 73 72 75
65 66 66 67 68 67 67 69 71 71 70 70 70 70 70 71 70 73 72 69 69 72 72 71 67 68 70 69 69 70 70 71 73 77 78 78 79 78 78 78 77 77 77 77 75 75 75 75 75 76 77 76 79 76 75 75 76 75 74 74 74 74 73
65 65 66 67 68 68 68 69 69 71 70 68 68 68 70 71 70 68 71 73 70 71 72 68 68 68 68 68 69 70 73 75 76 77 76 78 78 78 78 78 78 77 77 78 77 76 75 74 75 75 75 76 76 74 74 75 74 74 74 74 74 73 74
66 66 66 66 66 67 67 68 69 69 69 69 66 68 68 67 72 72 71 71 73 73 71 69 67 66 68 67 67 74 76 76 76 75 76 77 77 78 77 77 78 77 67 60 53 59 62 62 74 75 74 76 76 74 74 75 74 75 75 74 74 75 74
67 67 66 65 66 66 65 64 64 65 67 68 67 67 67 67 67 69 70 71 72 71 70 69 64 58 62 71 75 76 75 75 76 76 75 75 75 76 77 76 68 57 56 54 51 47 47 48 51 65 75 77 75 74 74 74 74 75 75 73 74 73 72
67 67 67 67 66 65 64 64 64 64 65 64 63 64 63 64 65 65 67 68 68 70 69 68 55 52 54 59 72 75 75 75 75 75 75 74 74 74 75 74 71 63 61 59 56 43 44 44 44 44 43 48 56 71 76 73 74 75 75 74 75 74 73
66 66 68 68 67 65 64 64 64 64 64 63 63 64 64 63 64 64 64 66 66 68 71 56 49 48 50 54 61 74 75 75 75 74 74 74 74 74 73 72 73 72 72 71 70 64 53 44 43 42 43 44 43 40 45 64 73 74 73 74 73 73 73
65 66 67 67 66 65 63 62 62 63 63 62 63 64 64 63 61 62 62 63 65 67 66 45 47 46 48 51 54 65 77 76 75 74 74 74 75 74 73 72 72 71 69 62 68 69 67 60 47 45 47 49 47 47 46 42 46 66 76 73 73 72 73
64 64 65 64 63 63 62 59 58 60 61 62 60 60 61 60 60 61 62 63 62 64 60 46 45 45 47 48 50 58 79 75 76 75 74 74 74 74 74 73 72 70 70 72 72 70 70 68 68 69 71 71 69 60 51 51 53 53 63 74 74 71 71
64 64 63 62 60 59 58 57 58 58 57 56 57 57 58 57 58 58 60 61 61 58 53 41 43 43 45 47 48 57 76 74 75 74 74 74 74 74 74 73 73 72 73 73 73 71 73 73 72 71 70 69 68 65 60 59 58 63 70 71 70 69 68
64 65 63 62 59 58 58 58 56 56 55 55 56 56 57 57 57 58 59 59 58 56 51 40 42 43 44 47 49 73 74 75 74 73 73 74 74 74 75 74 74 73 73 72 55 51 64 74 73 71 69 68 66 62 55 45 41 44 55 60 62 60 58
62 63 62 61 60 58 58 58 56 55 54 54 54 54 54 55 56 57 58 59 57 55 52 43 41 43 46 46 58 75 74 74 73 71 71 71 71 70 68 71 74 72 70 68 49 48 52 61 72 71 69 67 66 65 61 57 45 41 40 40 39 39 40
61 61 60 59 58 58 58 58 57 56 53 52 51 52 54 54 54 54 54 56 57 55 53 46 41 42 43 40 54 73 74 72 71 70 69 68 67 65 60 47 61 70 67 64 43 47 46 61 72 70 69 66 65 64 62 61 59 51 41 41 40 40 41
59 59 59 59 58 58 57 57 58 58 55 53 51 52 53 53 52 53 55 56 54 56 57 51 42 42 42 42 60 74 72 71 67 67 68 67 66 66 63 54 45 52 58 49 39 43 42 58 72 70 68 66 63 62 61 61 59 61 62 63 62 61 58
57 58 58 58 59 59 59 58 57 56 55 54 52 52 51 52 51 51 54 55 55 56 56 54 48 41 43 46 47 70 71 70 66 64 67 67 64 62 61 59 50 40 39 40 41 40 42 46 69 69 68 65 62 61 66 67 64 68 68 66 64 63 63
56 57 57 56 56 57 58 57 56 55 55 55 54 52 51 50 49 50 51 51 51 50 52 54 48 41 43 44 47 54 67 66 62 58 61 63 61 56 55 52 49 41 39 39 40 40 42 42 48 64 62 61 61 60 62 66 61 56 65 62 62 61 61
55 55 57 57 55 54 55 56 56 54 54 55 54 53 52 50 49 48 49 49 49 49 48 46 52 43 41 42 43 47 60 58 57 57 53 53 52 50 48 46 46 40 38 39 39 40 41 42 44 53 48 41 42 47 64 64 64 63 62 61 61 59 60
52 53 54 54 54 53 53 53 52 53 52 51 52 52 53 53 52 50 49 49 49 49 50 47 42 45 41 41 41 41 43 49 46 53 51 49 49 48 47 46 44 40 39 39 39 40 41 42 44 44 39 41 42 44 54 64 62 60 59 58 57 57 58
54 52 51 52 51 50 50 51 50 50 52 51 49 47 49 50 50 49 48 48 49 49 49 48 42 40 42 40 41 41 40 40 43 51 51 50 49 47 46 44 41 38 39 39 39 39 39 40 41 39 40 41 45 50 61 61 60 59 55 55 56 57 58

ECMWFFLT1_sfc_temp_105.txt.gz
Temp
76 76 77 77 78 78 77 77 77 77 77 78 77 78 77 77 76 75 75 74 74 74 72 71 68 69 71 74 74 76 75 76 75 72 71 71 67 69 71 72 72 73 72 69 70 69 67 62 63 68 70 69 69 71 73 71 69 70 72 72 72 73 74
77 77 78 78 77 77 76 75 76 77 77 76 78 77 77 77 76 75 73 71 72 73 73 69 67 69 68 69 70 70 72 73 74 74 72 71 70 69 70 69 73 72 69 68 68 70 68 66 65 65 66 70 69 70 70 71 70 70 74 74 76 77 76
77 78 77 77 77 74 71 68 70 75 76 76 76 77 77 78 77 75 74 72 68 68 70 69 72 72 71 73 72 71 71 71 72 71 69 69 71 70 70 72 71 70 70 69 67 66 67 70 63 64 66 65 63 66 70 67 69 72 75 75 74 76 76
76 76 75 74 75 71 69 67 67 73 76 76 76 76 76 76 76 76 72 69 68 69 69 69 69 69 69 69 69 71 72 72 71 71 70 69 71 72 74 74 73 71 69 69 68 69 66 66 67 68 66 70 67 65 68 69 72 75 75 76 76 76 76
76 75 75 74 72 72 69 68 70 72 75 76 75 75 74 75 75 74 73 71 68 70 70 69 69 70 70 70 70 70 71 71 71 70 71 69 69 69 73 73 74 73 71 72 72 71 70 69 70 69 69 73 71 72 71 70 74 76 75 76 77 77 77
76 76 75 74 71 69 69 70 71 72 74 74 75 75 74 74 73 73 72 71 69 69 69 69 68 69 70 68 68 68 69 69 68 67 66 68 67 65 69 73 73 70 69 73 74 73 74 75 72 70 73 75 68 67 71 72 71 75 77 77 79 79 78
75 75 72 70 67 70 69 70 71 73 73 74 75 75 75 75 74 73 74 71 71 70 68 68 68 70 69 68 67 66 66 69 68 68 67 68 67 71 73 71 71 72 73 75 75 74 74 71 70 69 68 70 71 69 72 73 75 72 74 79 80 79 78
75 75 75 73 70 68 71 73 73 74 74 76 77 76 76 74 74 74 73 72 70 70 69 68 70 70 68 68 70 72 72 67 67 67 67 69 71 72 70 68 67 70 74 77 76 75 78 75 75 71 70 65 63 69 66 72 74 74 74 78 80 78 77
76 75 75 74 74 73 73 73 74 72 74 75 77 77 77 75 73 73 73 70 70 70 70 70 70 70 70 67 69 72 71 73 70 69 68 68 70 70 67 67 68 69 75 76 77 76 77 77 76 74 72 71 66 63 67 66 69 68 76 75 78 79 77
74 74 74 74 74 74 74 73 70 73 73 72 72 74 75 75 74 74 74 73 71 71 70 70 70 70 70 69 69 70 71 72 72 71 70 70 69 68 66 66 68 71 73 76 77 75 75 74 77 78 76 74 73 68 65 65 66 65 72 77 74 76 79
75 75 75 75 74 74 72 70 72 72 72 73 71 72 75 74 73 74 73 73 72 72 71 71 71 70 70 70 70 70 71 71 70 71 70 69 68 66 66 66 67 69 73 75 73 74 73 74 76 76 73 73 76 72 70 66 65 70 70 76 77 75 78
76 76 76 75 73 72 71 70 71 71 70 72 72 72 72 74 74 73 73 74 72 72 73 71 69 69 69 69 69 70 71 71 69 69 70 68 68 66 65 64 66 69 73 71 72 72 72 75 73 76 77 76 76 74 70 69 62 68 75 70 74 79 79
77 76 76 75 72 71 69 67 67 66 66 71 71 70 74 73 74 72 73 69 71 73 73 72 70 67 66 66 68 69 70 71 70 70 70 70 69 67 67 67 70 72 72 71 70 72 73 76 76 73 74 75 74 73 71 69 67 66 70 72 72 77 80
75 76 75 73 71 70 67 67 68 68 69 71 73 73 75 75 75 74 75 69 71 71 71 71 70 67 65 66 68 69 71 72 71 70 68 69 69 68 69 67 70 73 73 71 70 72 73 74 74 73 75 72 71 72 71 69 67 67 70 75 74 77 80
74 74 72 71 70 68 66 66 67 68 69 69 74 76 76 76 76 76 73 73 71 73 73 74 71 69 66 67 70 72 73 72 71 69 67 68 70 69 67 70 71 74 74 73 73 75 77 77 79 76 75 75 75 77 72 72 68 67 67 71 74 79 78
72 71 71 70 69 68 68 68 69 68 68 68 71 74 75 75 75 74 72 70 70 72 73 70 72 70 69 70 71 71 72 70 68 67 66 67 71 71 69 71 73 75 74 72 72 75 75 76 78 77 76 77 75 75 77 76 73 69 69 70 74 76 76
70 70 69 69 68 68 68 67 66 65 67 67 66 71 76 73 75 72 71 73 75 74 75 71 69 72 73 72 72 70 68 66 66 67 67 69 70 71 72 71 73 74 72 71 73 74 73 73 74 75 75 75 75 76 75 73 74 72 72 70 74 77 76
70 69 69 69 68 69 68 66 66 68 69 68 71 71 69 75 71 69 67 68 72 70 70 69 70 70 70 69 71 67 64 67 67 68 70 70 69 68 70 70 73 75 73 72 71 72 73 71 73 74 72 75 77 75 75 74 76 76 73 72 73 77 76
69 69 69 69 69 68 67 67 68 69 70 71 71 68 67 67 69 68 68 69 69 70 66 67 69 70 68 67 66 67 65 67 68 72 72 72 71 71 71 73 71 74 75 73 72 71 73 73 70 75 75 75 75 74 71 76 76 76 75 74 74 73 74
67 68 68 68 69 69 70 68 68 69 70 68 68 67 66 67 67 67 67 67 66 68 71 73 74 74 74 73 70 66 67 70 72 72 71 71 71 71 69 71 70 72 74 74 71 72 73 72 71 70 71 74 75 74 74 73 75 76 75 74 75 74 74
68 68 68 69 69 70 69 70 70 68 66 66 65 66 66 66 67 68 67 66 66 68 71 71 71 74 75 74 73 73 70 71 72 71 70 69 67 67 69 73 72 69 70 72 73 71 73 66 65 65 68 71 72 72 72 74 74 74 74 74 73 73 74
69 69 69 69 69 70 69 70 69 71 70 69 66 66 68 69 69 68 68 67 66 68 68 70 70 71 71 72 72 72 72 72 71 69 68 66 66 66 67 70 71 72 68 62 58 62 63 64 68 66 64 65 64 68 69 73 73 73 74 73 73 74 73
69 69 70 69 69 69 70 69 70 70 69 67 65 66 68 67 67 67 66 66 67 67 66 68 65 59 62 69 70 70 68 68 69 67 65 66 67 66 71 70 66 59 57 55 53 49 49 51 55 66 67 67 66 70 71 71 72 72 72 71 72 72 71
68 68 69 69 69 69 69 68 68 69 69 66 65 66 66 66 65 65 65 66 65 65 66 66 52 51 52 56 66 67 67 67 66 65 65 66 66 67 70 71 68 63 61 58 54 44 46 45 44 44 45 49 58 70 69 67 72 69 70 70 72 72 71
67 67 68 68 69 68 67 67 66 66 67 67 66 65 65 65 65 66 65 64 64 65 66 57 48 48 49 50 58 68 67 65 64 64 65 65 68 70 70 71 72 73 72 71 68 63 53 44 44 45 45 46 45 45 49 64 69 70 70 71 68 67 70
67 66 66 67 67 66 66 65 64 63 62 62 65 64 65 66 65 65 64 64 64 64 61 44 45 46 48 48 50 61 66 65 64 64 69 69 70 71 71 71 70 72 71 66 71 71 68 62 49 47 49 50 49 48 46 45 50 65 71 68 67 65 69
66 66 66 66 66 65 64 62 62 61 61 61 62 62 61 61 62 63 63 62 60 58 54 44 41 42 44 46 49 56 72 67 68 70 70 73 74 71 70 73 71 69 71 73 74 72 71 69 70 70 72 72 69 61 52 50 51 53 64 73 70 66 67
64 64 65 65 64 63 62 62 61 61 60 59 59 58 58 60 60 59 60 59 58 55 51 41 41 41 42 43 44 52 74 74 74 72 72 74 71 72 70 70 71 72 73 73 73 72 72 73 73 72 69 66 64 60 57 57 57 65 70 69 68 66 64
63 64 64 64 63 62 62 61 60 60 59 59 58 58 57 57 58 58 58 58 55 53 50 41 41 41 42 43 43 66 73 73 71 70 71 69 64 67 70 67 68 70 73 72 54 50 65 75 72 70 66 65 63 59 54 46 42 48 57 61 61 60 58
61 63 63 63 62 60 60 60 60 60 59 58 56 55 54 55 56 56 56 56 55 53 51 43 40 40 41 39 53 70 70 69 72 73 69 67 67 63 61 68 73 71 69 64 45 41 41 57 71 69 68 66 65 63 60 57 46 43 43 43 42 43 44
61 61 61 61 60 60 59 60 60 60 58 56 53 54 53 54 54 53 53 54 54 52 51 46 41 41 43 41 49 67 64 60 65 70 69 69 66 63 57 47 62 70 65 59 41 41 42 61 70 69 68 65 64 62 61 61 61 54 43 43 43 43 45
60 60 59 59 60 59 58 58 59 60 59 57 55 55 54 53 52 51 50 49 49 50 50 48 42 41 42 44 56 66 62 61 61 64 68 67 65 62 59 53 45 48 52 47 40 42 43 56 66 68 68 67 64 63 62 63 61 61 61 60 59 59 57
59 59 59 58 58 58 59 58 57 58 57 57 56 56 55 54 53 50 50 49 47 47 48 48 44 41 42 44 48 63 61 60 63 65 66 64 62 59 57 54 48 40 40 40 41 42 42 47 63 68 70 67 64 61 64 65 64 65 66 66 64 66 65
58 58 59 59 58 57 57 56 56 56 56 56 56 55 54 54 54 53 52 49 48 46 46 46 46 40 41 42 45 53 62 60 58 56 55 54 55 54 52 51 49 42 40 40 41 41 43 44 48 58 58 58 57 56 60 65 62 56 62 61 62 63 64
57 56 57 57 56 55 56 56 55 54 54 55 55 55 55 55 54 53 52 51 49 47 46 43 45 42 41 42 42 45 55 56 56 54 48 47 47 48 49 47 47 42 39 40 40 42 42 43 44 55 50 44 44 46 63 63 63 63 62 61 62 62 63
55 55 54 54 53 53 54 54 55 55 53 53 52 52 52 53 53 53 52 51 50 49 48 45 41 43 40 41 41 41 42 48 45 52 49 47 46 45 46 46 45 41 40 40 40 40 42 43 46 46 42 43 45 46 53 59 59 59 59 60 60 60 60
56 54 53 53 52 51 51 51 52 53 54 53 51 50 50 51 51 50 50 50 51 52 51 49 43 40 40 39 40 41 41 41 43 48 47 45 44 43 43 43 42 40 40 41 41 41 40 41 44 41 42 42 44 50 58 57 57 58 56 58 58 59 60

ECMWFFLT1_sfc_temp_111.txt.gz
Temp
67 67 69 69 68 69 68 68 68 69 70 70 70 69 68 65 63 63 65 64 64 65 65 65 65 65 65 65 65 66 65 65 64 62 61 62 61 61 62 62 63 63 62 61 62 60 59 57 58 62 62 62 62 63 63 63 63 63 63 64 65 65 64
67 68 68 69 68 67 67 67 68 68 69 68 67 67 66 65 64 64 64 64 64 65 66 65 65 65 65 64 64 64 64 64 64 63 62 62 62 61 61 61 62 61 61 62 62 61 58 57 58 59 59 62 62 62 62 63 63 64 64 64 65 66 64
67 67 67 66 66 66 65 65 65 66 66 65 65 66 65 65 65 65 65 64 64 65 65 65 65 65 65 65 65 64 64 64 64 64 63 62 63 63 63 62 60 61 61 61 60 60 59 61 58 58 59 59 58 61 62 62 62 63 64 64 65 65 65
66 66 65 64 63 63 64 64 65 66 66 65 63 64 64 66 65 65 64 65 65 66 64 63 64 63 64 64 65 65 65 63 63 64 63 63 63 63 63 62 61 62 61 60 60 60 59 59 58 58 59 61 61 59 61 62 62 64 64 64 64 64 64
67 66 65 65 63 63 63 63 64 65 66 65 62 63 64 64 64 64 65 65 66 65 64 64 64 65 64 64 63 64 64 63 64 64 63 63 63 63 63 63 63 63 62 62 62 63 61 61 61 58 58 60 61 60 62 60 63 64 63 64 64 65 65
68 68 67 66 65 64 64 63 63 63 64 63 61 62 62 63 63 63 64 65 65 65 64 64 64 65 64 64 64 63 63 63 63 64 63 63 63 62 62 63 63 63 62 62 63 63 63 62 61 58 60 62 58 58 60 61 60 64 63 64 65 66 67
67 66 65 66 66 65 64 63 63 63 63 63 62 61 62 63 63 64 65 64 64 64 64 64 65 65 65 64 64 63 63 63 64 64 63 64 63 63 63 62 62 62 62 63 63 63 62 62 60 60 59 60 60 59 60 61 63 60 62 63 66 67 68
65 65 65 68 68 67 65 64 64 63 63 63 61 63 63 63 63 63 63 63 64 64 64 64 64 64 65 65 65 64 64 64 64 64 63 63 63 63 63 63 63 63 63 64 64 64 65 64 64 61 60 57 57 58 58 60 61 62 61 63 67 68 68
64 64 65 65 66 66 65 64 63 63 63 64 62 63 63 63 63 63 63 63 64 64 65 64 64 64 64 65 64 64 63 65 64 64 64 63 64 64 64 63 63 63 64 65 66 66 66 64 65 63 62 61 58 54 57 57 58 60 65 63 67 69 67
66 65 65 65 65 65 64 64 64 63 63 63 62 62 62 63 63 63 62 63 63 64 65 64 64 64 64 63 63 63 63 64 64 63 63 63 63 63 63 64 63 64 64 66 66 66 64 63 64 63 63 61 61 58 55 55 56 57 64 67 64 67 68
65 66 66 66 65 65 64 63 63 63 62 63 63 63 62 62 63 64 62 63 63 63 63 63 63 63 63 63 64 64 64 63 63 63 63 63 62 62 63 63 64 64 65 66 65 64 64 63 63 63 62 62 61 59 59 56 55 59 62 67 68 64 65
65 66 65 65 64 64 63 63 62 62 62 62 63 62 62 62 63 62 63 63 63 63 64 64 63 62 63 63 64 63 63 63 62 62 62 63 63 63 63 63 63 63 65 65 64 64 64 64 63 63 62 62 61 61 60 59 56 58 65 62 65 67 66
67 67 66 64 64 63 63 63 63 62 62 63 62 63 63 63 63 62 62 62 62 63 63 63 63 63 63 64 63 62 63 63 62 62 62 63 63 63 64 63 63 63 64 64 64 64 64 64 64 63 63 62 61 62 61 59 58 59 62 61 64 66 67
66 66 65 64 63 63 63 63 63 63 63 62 63 62 62 62 62 62 62 62 62 62 61 61 63 64 63 63 63 62 63 63 62 62 63 63 64 63 63 64 63 64 64 64 63 64 63 65 64 63 64 62 61 62 62 60 58 57 58 62 65 65 67
63 63 62 62 62 62 62 62 62 63 62 62 63 62 62 62 62 62 62 62 62 62 62 63 62 62 61 62 62 63 62 62 63 63 63 62 63 64 63 63 63 63 64 64 64 65 65 66 65 63 64 64 62 62 64 61 59 57 58 61 64 67 66
62 63 62 61 61 62 62 63 63 62 62 62 63 62 62 62 63 63 62 62 62 62 62 63 62 62 61 62 62 62 62 62 62 62 62 63 64 64 63 62 62 63 64 64 64 65 65 65 65 63 61 62 62 61 62 63 61 59 60 61 64 65 65
63 63 62 61 61 62 63 63 63 62 62 62 62 63 63 63 63 62 62 62 62 62 62 62 62 63 63 63 62 62 62 62 62 62 63 64 64 63 63 62 62 62 63 63 63 62 62 61 60 61 62 61 61 61 61 61 62 63 61 61 63 66 66
63 63 63 63 63 64 64 64 63 62 62 62 62 62 62 63 62 62 62 62 63 62 62 62 62 61 62 62 63 62 62 62 62 62 63 63 65 63 62 62 62 62 62 62 61 60 61 61 61 61 60 61 61 61 62 60 61 62 62 61 62 65 64
63 64 64 64 64 64 64 64 63 62 62 62 63 63 63 62 62 62 62 62 62 62 61 62 61 61 62 61 62 62 62 62 62 62 62 63 62 63 62 62 63 63 62 61 60 61 61 61 61 60 60 60 61 60 59 59 60 59 59 61 63 61 62
63 63 63 63 63 62 61 62 62 62 62 63 63 62 62 62 62 62 61 62 62 61 61 61 61 61 62 62 62 62 61 61 61 61 62 63 62 62 63 63 62 63 62 62 61 61 60 60 60 60 60 61 61 59 58 59 59 60 59 58 59 61 61
63 63 63 62 61 60 61 61 61 62 61 61 61 61 61 62 63 63 62 61 61 62 62 61 61 61 62 62 61 61 61 61 61 62 62 62 62 62 63 62 61 62 63 62 61 61 61 60 60 60 60 60 60 59 59 58 58 58 58 58 59 59 58
63 63 62 61 60 60 60 61 61 61 61 61 62 61 62 61 61 60 60 59 60 60 60 61 61 61 61 62 61 61 61 61 61 61 61 61 62 62 62 62 62 61 63 63 59 60 60 60 61 59 59 59 60 59 59 58 58 58 59 59 59 60 58
62 62 62 60 60 60 60 60 59 59 59 60 60 60 60 60 59 57 56 57 56 54 53 52 50 51 56 60 61 61 60 60 61 61 60 61 61 61 62 62 63 63 61 59 56 55 53 54 58 60 60 60 59 59 58 59 59 59 60 59 61 59 57
61 60 60 60 59 59 59 58 58 58 58 58 58 58 58 57 57 56 55 54 53 53 51 49 44 41 43 48 61 60 60 59 60 60 61 60 59 59 59 59 58 60 59 58 56 51 50 51 51 52 54 56 59 61 60 58 59 60 60 60 60 59 59
60 59 59 59 59 59 58 57 56 56 56 55 55 56 55 55 55 55 54 53 51 50 50 46 40 42 43 43 50 60 60 60 60 60 60 60 60 59 58 58 58 59 58 57 54 52 47 45 46 46 48 48 51 52 53 58 59 59 59 58 59 59 60
59 58 58 58 58 58 57 55 55 54 54 54 53 52 51 52 52 53 54 52 50 49 48 44 41 43 43 43 48 57 60 60 59 59 59 60 59 59 58 58 59 59 59 58 56 53 52 51 48 47 47 47 47 44 44 49 53 60 60 60 59 57 57
57 57 58 57 57 57 56 55 54 54 54 53 51 50 50 49 50 50 51 51 51 49 47 44 40 44 46 46 49 54 59 57 55 54 54 55 58 60 59 59 58 57 58 57 56 57 58 57 56 56 55 54 53 52 48 47 47 49 55 58 57 54 54
56 56 56 56 56 56 55 54 54 54 53 52 50 49 48 48 48 48 48 50 50 49 48 42 42 47 48 49 49 51 56 55 53 52 51 51 51 54 58 59 58 57 58 58 58 59 59 57 55 54 54 52 51 51 50 52 56 57 55 55 53 53 53
55 55 55 55 54 54 54 54 53 53 53 52 52 51 49 48 47 46 47 48 48 48 47 41 43 47 48 48 49 54 53 52 51 50 49 48 48 48 50 52 53 54 54 55 53 49 53 56 55 55 53 53 52 50 49 47 46 49 52 53 52 51 49
54 54 54 53 53 53 53 53 54 54 52 51 50 49 48 47 47 46 46 46 46 46 46 43 42 46 47 48 50 53 52 50 49 48 48 48 47 47 48 49 49 49 48 48 44 44 48 52 55 55 54 53 53 52 50 49 45 44 44 43 43 43 44
53 53 53 52 52 52 53 53 54 54 52 51 50 50 49 48 47 46 45 45 45 44 44 43 42 45 46 47 50 52 51 49 48 47 46 47 46 46 46 48 49 46 45 45 42 43 46 53 54 54 54 54 53 51 51 53 52 48 45 45 45 45 45
52 52 52 52 52 52 52 52 53 54 53 52 51 51 50 48 47 47 46 45 46 44 43 43 42 42 43 45 49 51 49 48 47 46 46 45 45 45 45 45 45 44 44 43 41 41 43 52 57 56 55 54 52 52 52 53 54 54 54 54 54 55 53
51 51 51 52 53 52 52 52 52 52 52 52 51 51 50 49 48 47 47 45 44 44 43 43 42 41 42 43 45 49 49 47 45 44 45 45 44 44 44 44 43 41 41 41 41 41 42 44 50 52 54 54 53 52 53 54 55 56 55 54 53 53 53
49 50 51 52 52 52 52 51 51 51 51 51 50 49 49 49 48 48 47 47 45 45 45 43 42 41 41 42 42 45 46 45 45 44 43 43 43 43 43 43 43 41 41 41 41 41 42 42 44 47 47 48 49 50 52 54 53 51 54 53 53 52 52
49 49 49 50 50 51 52 52 51 51 50 49 48 47 47 47 47 47 47 48 47 46 46 44 43 42 41 41 41 42 44 44 44 44 43 42 42 42 42 42 42 41 41 40 41 42 41 42 42 46 43 42 43 44 51 53 53 54 53 52 52 51 51
48 49 48 48 48 47 49 50 50 50 49 49 48 47 46 46 45 45 45 46 47 47 46 45 43 43 41 41 41 41 42 43 43 45 43 42 42 42 43 43 43 42 41 41 41 41 42 42 43 42 41 42 43 44 46 49 50 51 50 50 49 49 49
49 48 48 48 47 47 47 48 48 47 46 46 45 45 45 45 45 44 43 44 45 46 47 47 44 42 42 41 41 41 41 41 42 44 44 42 42 43 42 42 42 41 41 41 41 41 41 42 42 41 42 42 43 44 47 47 47 48 48 47 47 47 48

ECMWFFLT1_sfc_temp_114.txt.gz
Temp
64 65 66 67 67 66 65 65 64 64 65 66 65 65 65 64 64 63 63 63 63 63 64 65 65 66 66 66 66 66 66 65 64 62 62 62 60 60 62 61 61 62 62 61 60 60 59 56 57 61 62 62 62 63 62 62 62 62 62 63 63 63 62
65 66 66 65 63 63 64 64 64 64 64 64 64 64 64 64 64 63 63 63 64 64 64 65 65 65 65 65 65 65 64 64 64 64 63 62 61 60 60 61 61 61 60 61 60 60 58 57 57 58 59 60 61 62 63 63 62 62 63 63 64 64 63
63 63 64 63 63 63 64 63 64 62 63 63 63 64 64 64 63 63 63 63 63 64 64 64 65 65 65 65 66 65 65 64 64 64 63 62 62 62 62 61 60 60 59 59 59 58 59 61 58 58 59 58 57 60 62 62 62 62 62 62 63 64 63
63 63 63 63 62 62 61 62 62 63 62 62 62 62 62 63 63 63 63 63 63 63 63 63 64 64 65 65 65 65 65 64 63 63 62 63 62 62 62 61 60 61 59 58 58 59 59 57 57 59 60 61 61 59 61 62 62 63 63 62 63 63 63
65 65 63 63 62 62 62 62 62 62 62 61 61 61 61 62 62 62 63 63 63 63 63 63 64 64 64 64 64 63 64 64 64 63 62 62 62 62 62 62 62 62 61 61 61 62 61 59 60 58 59 61 61 61 62 62 63 62 62 62 63 64 64
66 66 65 64 63 63 63 62 61 61 61 61 60 60 61 61 62 62 62 62 63 63 64 63 64 65 64 63 63 63 63 63 63 63 62 62 62 62 62 63 62 62 62 62 62 63 62 61 60 57 60 62 58 59 61 61 60 62 63 63 63 64 64
67 66 66 66 66 64 63 62 61 61 61 62 61 60 61 61 61 62 63 62 63 63 63 63 64 64 63 63 63 62 62 63 63 63 63 63 63 63 63 62 62 62 62 63 63 63 61 60 59 59 59 59 59 59 60 60 62 60 61 63 64 64 64
64 64 65 64 64 63 64 63 62 61 62 62 61 62 62 61 61 61 61 62 62 63 63 63 63 63 63 63 63 63 63 63 62 63 63 63 62 62 62 62 62 62 63 63 63 63 64 63 62 60 59 57 57 58 58 60 60 61 61 63 65 64 64
63 62 62 63 62 61 62 61 61 60 61 61 61 61 61 61 61 61 61 62 62 62 63 63 63 63 63 63 63 63 62 64 63 63 63 63 63 63 62 62 62 62 63 63 63 63 63 63 63 61 61 60 58 55 58 57 58 59 63 60 63 65 64
61 61 61 61 62 62 61 61 60 61 60 60 61 60 62 62 62 61 61 61 62 62 63 63 63 63 63 63 62 62 62 63 63 63 63 63 63 63 62 62 62 62 62 63 63 63 62 62 62 62 63 62 62 58 56 56 57 57 60 63 60 62 65
63 63 63 62 62 62 61 61 61 61 61 61 61 62 62 62 61 63 62 61 62 62 63 63 64 63 63 62 62 62 63 63 63 63 63 63 63 62 62 62 62 62 62 62 62 63 62 62 61 62 62 63 62 60 59 56 56 58 58 61 63 60 63
60 60 61 60 59 60 60 60 60 60 61 61 61 61 61 61 61 61 62 62 62 62 63 63 62 62 61 61 61 62 63 63 63 62 62 63 63 62 62 62 62 62 62 62 63 63 62 62 62 62 62 62 61 62 60 59 55 56 60 59 61 64 63
60 60 60 59 60 60 60 60 61 60 61 61 61 61 60 60 61 62 62 62 62 62 62 62 62 62 62 61 61 62 63 63 62 62 62 63 63 62 62 62 62 62 63 62 62 62 61 61 62 62 62 61 60 61 60 59 57 57 60 61 60 62 63
59 60 59 59 59 60 62 61 60 61 61 60 61 60 60 61 61 61 61 61 61 61 61 62 62 62 62 62 62 62 63 62 62 61 62 61 62 62 62 62 62 63 63 62 62 62 61 61 62 62 61 60 59 60 60 59 57 56 58 59 61 61 63
61 61 60 60 60 62 63 62 61 61 60 60 60 60 61 61 61 61 61 61 61 61 62 62 62 62 62 62 62 63 62 62 61 61 61 61 61 62 62 62 62 63 63 63 62 62 62 62 61 61 60 61 60 59 59 58 57 58 57 58 60 62 61
63 63 62 61 61 62 61 61 61 60 60 60 61 60 61 61 61 61 61 61 61 62 62 63 63 62 62 62 62 62 62 62 61 61 61 61 62 62 61 61 62 63 63 62 62 62 62 62 61 61 61 61 60 60 60 60 59 57 57 57 60 60 61
62 62 61 61 59 58 59 59 60 60 60 61 61 61 62 62 61 61 61 62 62 62 62 62 62 62 62 62 62 62 62 61 62 62 62 62 62 61 61 61 61 61 61 61 61 61 61 62 61 61 60 60 60 60 59 60 60 59 59 58 59 61 61
61 61 60 59 57 57 57 59 60 61 60 61 61 61 61 61 61 62 61 60 61 61 62 62 62 62 61 62 62 62 61 61 61 62 62 62 63 63 62 61 61 61 61 60 60 60 60 60 61 60 60 60 60 60 60 60 59 60 58 58 58 60 61
58 58 58 57 56 56 57 59 60 60 60 60 60 60 61 61 61 60 60 60 60 61 62 62 62 61 61 61 61 61 61 61 61 61 61 62 62 63 63 62 62 61 61 60 60 60 60 60 60 60 60 60 60 59 59 59 59 59 58 57 57 57 58
58 58 56 55 56 58 59 59 59 59 60 59 59 59 59 58 58 58 58 59 59 60 61 61 61 61 61 62 61 61 60 60 61 61 61 61 61 61 62 62 61 62 61 60 61 60 60 60 60 60 60 60 60 59 59 59 59 58 58 57 56 58 58
59 58 56 56 57 58 58 58 58 59 59 58 58 58 57 56 56 55 56 56 56 56 56 57 58 58 60 61 60 60 60 60 60 60 60 60 60 60 61 61 61 61 61 61 61 60 60 60 59 59 58 60 59 58 58 58 58 58 57 57 56 54 58
59 57 57 57 57 57 56 57 57 57 56 56 56 56 57 56 55 55 54 54 54 54 53 52 52 51 55 60 60 59 59 59 59 59 59 60 60 60 60 60 60 60 61 62 59 59 60 60 60 58 58 59 59 58 57 57 57 57 57 57 56 56 56
58 57 57 56 56 56 56 56 55 55 54 54 54 54 54 54 54 54 53 53 52 52 52 51 50 46 46 56 61 60 59 59 59 59 59 60 60 60 61 60 60 62 59 58 55 53 53 53 56 60 60 59 58 58 58 57 57 57 57 56 57 56 55
57 57 57 56 55 55 55 55 54 53 53 52 52 52 52 51 51 51 52 52 51 50 50 49 44 41 43 51 60 60 59 59 59 59 59 59 58 59 58 58 57 59 59 57 55 50 50 50 50 52 53 56 58 60 58 57 57 58 57 57 56 57 57
56 56 56 56 55 55 54 54 53 52 52 51 51 51 50 50 50 50 51 52 51 49 49 46 42 45 47 48 52 57 56 56 57 58 59 59 58 57 57 57 58 58 58 58 54 53 52 49 48 47 46 49 52 53 51 55 57 57 58 56 55 55 57
55 55 55 55 55 54 54 53 52 51 50 51 50 49 49 49 48 49 50 50 50 49 48 44 44 45 45 46 46 51 52 52 51 50 51 53 57 58 57 57 57 56 57 59 57 54 54 51 45 45 45 45 46 45 42 42 47 57 60 58 56 56 55
54 54 55 55 54 54 53 51 51 51 51 50 49 48 48 47 47 47 48 49 50 49 46 44 44 44 45 45 45 48 52 50 49 48 48 49 50 52 56 57 56 54 55 56 56 56 55 55 54 54 53 53 53 51 48 47 45 48 54 57 58 55 52
53 53 54 54 54 53 52 51 51 50 50 49 48 47 46 46 46 47 47 48 48 48 46 42 43 43 44 44 45 47 50 50 48 48 47 47 47 49 50 53 55 55 55 54 53 55 55 54 53 51 50 50 48 48 47 49 53 55 54 53 52 52 52
53 53 52 53 53 52 51 51 50 50 50 49 49 48 47 47 46 46 47 47 46 45 44 41 42 43 43 44 46 49 49 48 47 47 47 47 47 47 48 49 50 51 52 52 48 45 49 54 53 51 50 49 48 47 45 44 43 46 48 49 49 48 47
52 52 52 52 51 51 51 51 51 51 49 48 47 47 46 46 46 46 46 46 45 44 44 42 41 42 43 44 47 49 48 47 47 46 46 47 46 46 47 48 48 48 48 48 45 45 46 51 53 52 50 49 49 48 47 47 44 43 43 43 43 43 43
51 51 51 50 50 51 51 51 51 51 49 48 47 46 46 46 46 46 45 45 45 43 43 43 41 41 42 43 47 49 48 47 47 46 46 46 46 45 46 47 48 46 45 44 42 44 46 51 52 52 51 50 50 49 50 51 51 49 46 45 45 44 44
51 51 50 50 51 50 50 50 50 50 50 49 47 46 46 46 46 46 46 45 46 44 43 43 42 41 42 42 46 48 47 47 46 45 45 45 45 44 45 45 45 43 44 42 41 41 44 51 53 53 52 51 50 50 49 51 50 48 49 49 49 50 48
50 51 50 50 51 50 50 50 49 49 48 47 46 46 46 46 45 45 46 45 45 44 43 43 42 41 42 42 43 46 46 44 44 43 44 44 43 43 43 43 43 40 40 41 41 41 41 43 48 49 51 50 49 48 51 50 50 50 50 50 50 50 50
49 50 51 50 50 50 50 49 47 47 46 46 45 45 45 45 45 45 46 46 45 45 45 43 42 40 41 42 42 44 45 44 44 43 43 42 42 42 42 42 42 41 40 41 41 41 41 42 44 46 46 45 46 47 49 51 50 50 50 49 48 48 50
49 49 49 50 49 48 49 49 48 46 45 44 44 43 43 44 43 43 44 45 45 45 45 44 43 41 41 41 41 42 44 43 44 44 43 42 42 42 42 42 42 41 40 40 40 41 41 41 42 46 43 42 42 43 48 49 50 50 50 49 49 47 46
48 48 48 48 47 47 47 46 45 45 43 43 43 42 42 42 42 42 42 43 43 45 46 46 43 43 41 40 40 40 41 42 42 45 43 41 41 41 42 42 43 42 40 40 40 40 41 41 43 42 40 41 42 43 45 46 46 47 46 46 46 45 45
47 47 47 47 46 44 44 44 44 43 43 42 42 41 41 41 41 40 40 41 42 43 45 46 44 42 42 40 40 40 40 40 41 43 43 41 41 41 41 42 42 40 41 41 41 41 41 41 41 41 41 41 42 43 46 45 45 44 43 43 44 44 45

ECMWFFLT1_sfc_temp_117.txt.gz
Temp
61 62 63 63 63 64 63 63 62 63 63 63 64 64 63 63 63 62 63 63 63 63 63 63 63 65 65 66 66 66 66 65 63 61 62 62 60 60 61 61 61 62 61 61 60 59 57 55 57 60 62 62 62 62 63 62 62 61 61 61 61 61 61
61 62 62 62 62 63 63 63 62 62 63 62 62 63 64 63 63 62 63 63 63 63 64 64 64 64 64 65 65 65 65 64 64 64 62 62 61 60 60 60 60 60 60 61 60 59 56 56 56 57 58 61 61 62 62 63 62 62 62 62 62 63 61
60 60 61 61 61 60 63 62 61 61 62 62 62 62 63 63 63 62 62 62 62 62 63 63 64 64 64 64 65 65 65 64 65 64 63 63 62 62 61 61 59 59 59 59 59 58 58 58 56 57 59 58 57 60 62 62 62 62 62 62 62 63 62
61 61 60 61 60 60 60 60 61 62 61 61 62 62 62 62 62 62 62 61 62 62 62 62 62 63 63 63 64 65 65 64 64 64 63 63 63 61 62 61 60 59 58 58 58 58 58 57 56 56 59 60 60 59 60 62 62 62 62 62 62 63 62
63 62 61 60 60 60 59 60 60 62 63 63 62 62 62 62 61 61 62 62 62 62 62 62 62 63 63 63 64 63 63 64 64 63 63 62 62 62 61 61 61 61 60 60 60 60 59 59 60 58 58 60 60 61 62 62 63 62 62 62 63 63 63
65 65 64 63 62 62 61 60 60 61 61 62 62 61 61 61 61 60 60 61 61 61 62 62 63 64 63 63 63 63 63 62 62 62 62 62 62 61 61 61 61 61 61 61 61 60 60 60 60 58 60 62 58 59 61 61 60 61 62 63 63 64 64
62 63 63 63 63 62 61 61 60 60 59 60 60 60 61 61 60 61 61 61 61 61 61 62 62 63 64 63 63 63 62 63 63 63 62 63 62 62 63 61 61 61 61 62 62 61 60 59 58 58 58 59 60 59 60 60 62 60 61 63 63 64 64
61 60 60 61 61 61 60 59 59 58 58 60 60 61 61 61 61 61 61 61 61 61 62 62 63 63 63 63 63 63 63 63 62 62 62 62 62 62 62 61 61 61 62 62 62 62 62 61 60 60 60 57 57 58 58 60 60 60 61 62 64 63 64
62 60 60 60 60 59 59 58 59 59 60 60 60 60 61 61 60 60 60 61 62 62 63 63 63 63 63 62 62 63 62 64 62 62 62 62 62 63 62 62 61 61 62 62 62 62 62 62 61 61 61 60 57 55 57 57 58 59 64 60 62 64 63
61 60 58 58 58 59 58 58 58 59 59 59 60 60 60 61 60 60 60 61 62 63 63 63 63 63 63 62 62 62 62 63 62 62 62 62 62 62 62 62 61 61 62 63 62 62 62 62 61 61 61 60 61 58 55 55 57 57 60 64 60 62 64
61 59 58 57 58 58 58 59 59 59 59 59 60 60 60 60 60 61 60 61 61 62 62 63 63 63 63 62 62 62 63 63 62 62 62 63 63 63 62 62 62 61 62 62 62 62 62 62 61 61 61 60 61 60 58 56 56 60 59 63 63 60 63
60 59 59 59 59 58 58 59 59 59 59 59 60 59 59 59 60 60 60 61 61 61 61 62 63 62 63 62 62 62 62 62 62 62 63 63 63 62 62 61 61 61 61 62 62 62 62 62 61 61 61 61 60 60 60 59 56 58 62 59 62 63 62
59 58 57 57 58 59 61 60 59 59 60 60 60 60 60 60 61 61 61 61 61 61 62 62 63 62 62 62 61 61 62 62 62 61 62 63 63 62 62 61 61 61 61 61 62 62 62 62 62 61 61 60 60 59 59 58 57 56 60 62 60 61 63
58 59 59 60 60 60 60 60 60 60 61 60 61 61 61 61 61 61 61 61 62 62 62 62 62 62 62 62 62 62 62 62 62 61 61 62 63 62 62 62 62 62 62 61 61 61 61 61 62 61 61 60 60 60 59 58 56 54 56 59 60 60 62
60 61 60 59 58 58 58 58 59 59 59 61 61 61 61 61 61 62 61 62 62 62 62 62 62 62 61 61 61 62 62 62 62 62 61 61 62 62 61 61 62 62 62 62 62 61 61 61 61 61 60 60 60 59 60 58 56 56 56 56 58 59 59
60 59 58 58 56 56 56 57 58 58 59 60 60 60 60 61 61 61 61 61 61 61 61 62 62 62 62 61 61 62 62 62 62 61 61 61 61 62 61 61 61 62 62 61 61 62 61 61 61 61 60 60 60 59 60 60 58 56 56 55 57 58 58
58 57 56 55 54 54 55 56 58 59 59 60 59 60 60 59 59 59 58 59 60 60 61 62 62 62 62 62 62 62 62 62 61 61 61 61 61 61 61 61 61 61 61 61 61 61 61 61 60 60 60 60 60 59 60 60 59 57 56 55 57 58 59
56 54 54 53 53 54 56 57 58 59 59 59 59 58 58 57 56 56 56 56 57 57 59 61 62 62 62 61 61 61 62 61 61 61 61 61 62 61 61 61 61 61 60 60 60 60 60 60 60 60 60 60 60 59 59 59 59 59 57 56 56 58 59
53 53 53 53 54 56 57 57 57 57 58 57 57 57 56 56 55 55 55 55 55 56 56 58 59 60 61 61 61 61 60 60 60 60 60 60 61 62 62 61 61 61 60 59 59 59 60 60 60 60 60 59 60 59 59 59 59 59 58 57 57 55 57
54 53 54 55 56 56 56 56 55 55 56 55 55 54 55 54 55 55 55 54 54 54 55 55 55 55 57 60 60 59 57 59 59 59 60 60 61 60 61 61 61 61 60 60 59 59 59 60 60 59 59 59 60 59 58 58 58 58 57 56 56 56 56
55 54 55 55 55 55 55 55 54 54 54 53 53 53 53 53 53 54 54 54 54 54 54 54 53 53 54 58 59 58 59 59 59 59 60 60 60 60 60 61 60 61 61 60 60 59 60 59 59 59 59 60 59 59 58 58 57 57 56 56 56 55 56
55 55 55 55 55 55 55 54 54 54 53 53 53 52 52 52 52 52 53 54 53 53 52 52 52 51 51 55 59 58 58 59 58 59 59 60 60 60 60 60 60 60 61 62 58 58 59 59 59 58 58 59 59 58 58 58 57 57 56 55 54 54 54
56 56 55 54 54 54 54 54 53 52 52 52 51 52 51 51 51 51 52 52 52 51 50 50 50 48 49 56 60 59 58 58 58 58 59 59 59 59 59 59 61 62 60 59 56 53 53 54 57 59 58 59 59 58 58 57 57 57 56 55 54 53 53
55 54 54 54 54 53 53 53 52 51 51 51 50 50 50 50 50 51 51 50 49 49 48 47 44 43 43 47 54 53 53 52 53 53 54 55 56 57 58 58 57 60 59 58 56 51 48 50 51 52 53 55 57 59 58 57 57 57 56 56 55 54 54
54 54 54 53 53 53 52 52 51 50 50 49 49 50 49 49 50 51 51 50 48 47 47 45 42 43 43 44 48 50 50 50 50 50 51 51 52 54 56 56 56 57 58 59 57 55 51 49 49 50 50 49 47 47 51 57 57 56 56 56 54 54 55
54 53 53 53 52 52 51 50 50 49 48 49 49 48 47 48 48 49 49 48 46 46 45 42 42 43 43 43 44 48 49 49 48 48 48 49 50 50 53 56 55 55 56 58 57 55 54 50 45 45 45 46 46 44 41 42 48 58 58 56 56 54 54
53 53 53 52 52 51 50 49 49 49 49 48 47 47 47 47 47 48 48 47 46 46 44 42 41 42 43 43 43 46 49 48 48 47 47 47 48 49 50 52 53 53 53 54 55 56 55 54 54 53 51 49 48 46 45 44 45 50 53 57 55 54 53
52 52 52 52 51 50 50 49 49 49 48 47 47 46 46 46 46 47 47 46 45 45 44 41 41 41 42 43 44 45 48 48 47 47 47 47 47 47 48 50 50 51 51 51 50 53 54 52 51 49 48 47 47 46 45 44 45 51 54 54 53 52 51
51 51 51 51 50 49 49 49 48 48 48 48 48 47 47 47 46 46 46 46 44 44 44 41 41 41 42 42 45 48 47 47 46 46 46 46 47 47 48 47 48 48 49 48 46 44 49 52 51 49 49 49 48 48 46 45 43 43 44 46 46 46 44
51 50 49 49 49 49 48 48 48 48 47 47 47 46 46 46 46 45 45 45 44 43 43 42 41 42 42 42 45 48 48 47 46 45 45 46 46 46 47 48 47 46 46 46 43 44 45 50 51 50 49 49 49 48 48 49 46 43 43 42 42 42 42
50 49 48 48 48 48 48 47 47 47 47 46 46 46 47 46 46 46 45 44 44 42 42 42 40 41 42 42 45 46 46 46 45 45 45 45 45 45 46 47 48 46 45 44 42 42 46 51 51 50 49 48 47 46 47 49 49 49 46 45 44 44 43
50 49 48 48 48 47 46 45 45 46 46 46 46 47 47 46 46 46 46 45 46 44 43 42 41 40 41 42 45 45 45 44 44 44 44 44 44 44 44 44 44 43 44 43 41 43 44 49 50 49 48 47 46 45 46 47 47 47 48 47 47 48 46
49 48 46 47 47 46 45 43 43 43 44 44 45 45 45 45 45 45 46 45 45 44 44 43 41 40 41 41 42 45 45 43 42 43 43 44 43 43 43 43 43 40 40 40 40 41 42 44 48 48 48 47 46 45 47 47 47 47 47 47 46 47 47
48 47 47 46 45 44 43 42 42 42 42 43 43 43 42 43 43 43 45 45 45 45 44 43 42 40 40 41 41 43 43 43 42 42 43 43 43 42 42 42 42 41 40 40 40 40 41 41 43 46 45 45 45 46 47 47 47 47 47 46 46 46 46
48 48 48 46 44 43 43 43 42 42 42 42 41 41 41 41 41 41 43 44 45 45 45 44 44 41 40 41 40 41 42 42 42 42 42 42 42 42 42 41 41 41 40 40 40 41 41 41 42 44 41 40 41 42 46 47 47 46 46 45 45 45 45
47 47 46 45 43 41 41 41 41 41 41 41 41 40 40 40 40 40 41 42 43 44 45 45 42 42 41 40 40 40 40 41 41 43 41 39 40 41 42 42 42 42 40 40 40 40 40 41 42 41 40 41 41 42 44 45 44 45 45 44 44 44 44
47 46 46 45 43 40 40 41 41 41 41 41 40 40 40 40 40 39 39 39 40 41 43 44 43 41 42 40 40 40 40 40 41 42 42 39 39 40 40 41 41 40 40 40 40 40 40 40 40 39 40 41 42 42 44 44 43 43 43 43 43 43 43

ECMWFFLT1_sfc_temp_120.txt.gz
Temp
60 63 61 61 61 63 63 63 62 62 62 62 62 62 63 63 64 64 64 64 63 64 64 63 63 64 65 66 66 66 66 65 65 63 62 62 60 61 63 62 61 62 62 61 61 59 57 55 57 61 63 63 63 63 64 64 63 63 63 63 63 63 62
60 60 61 63 63 63 62 62 62 62 62 62 62 62 62 62 64 63 63 64 63 63 64 64 64 64 64 64 64 65 65 65 65 64 63 62 62 62 61 61 61 60 60 61 61 60 57 56 56 57 58 61 62 62 63 64 64 63 63 63 63 64 62
59 60 60 60 60 59 60 61 61 61 61 62 62 62 62 63 62 62 62 62 62 62 63 63 64 64 64 64 64 64 65 64 65 64 63 64 64 63 63 62 60 60 60 59 59 59 58 58 56 57 59 58 57 60 62 62 63 62 62 62 63 64 63
61 60 60 61 60 60 60 61 60 61 61 62 62 63 62 62 62 63 62 61 62 62 63 62 62 63 63 63 64 64 64 63 63 64 63 63 63 63 63 62 61 61 60 58 59 59 59 57 57 57 59 61 60 60 61 63 63 64 63 63 63 63 63
62 62 61 60 60 61 61 61 61 61 62 62 62 62 62 62 62 61 62 61 61 61 61 62 63 63 63 63 63 63 63 63 64 64 63 63 63 62 62 63 62 62 61 61 61 60 59 59 59 58 58 60 61 62 63 62 64 62 63 63 64 64 64
63 62 61 61 60 61 61 61 61 61 61 61 61 61 62 62 61 61 61 61 61 62 62 61 62 63 63 63 63 63 63 63 63 63 63 63 63 61 61 61 61 62 62 62 62 60 60 60 59 58 59 61 59 60 62 62 60 62 63 63 64 65 65
61 61 61 61 61 62 62 61 61 60 60 60 60 60 61 61 61 61 61 61 61 61 62 62 62 62 63 63 63 63 63 63 63 63 63 63 62 63 63 61 61 62 62 62 61 61 60 60 58 58 58 58 60 60 61 60 63 60 61 62 64 65 65
59 59 59 60 60 60 60 60 60 59 59 60 60 60 61 61 61 61 61 61 62 62 62 62 62 63 63 63 63 63 63 63 63 63 62 62 62 62 62 62 62 62 62 62 62 61 61 61 60 60 59 57 57 59 58 60 61 61 62 62 64 63 64
61 60 60 60 60 60 59 59 59 60 60 59 59 60 60 60 60 61 62 62 62 62 62 63 63 63 63 63 63 63 62 64 63 63 62 62 62 63 62 63 62 62 63 62 62 62 62 62 61 61 60 59 57 55 58 57 58 59 65 62 63 64 64
59 59 59 59 59 60 60 59 59 59 59 59 60 61 61 61 61 61 62 62 62 63 63 63 63 63 63 63 62 62 62 63 62 62 63 62 62 62 62 62 62 62 62 62 62 62 62 62 62 61 61 60 60 57 56 56 57 58 61 65 60 62 65
59 59 59 59 59 59 59 59 59 59 60 60 61 61 61 61 61 62 61 62 62 63 63 63 63 63 63 62 62 62 63 63 62 63 63 63 62 62 62 62 62 62 62 62 62 62 62 62 61 61 61 61 61 59 59 57 57 61 61 63 64 61 64
59 59 60 60 59 58 59 59 60 60 60 61 61 61 61 61 61 61 62 62 62 62 62 62 63 63 63 62 62 62 63 63 62 62 63 62 63 63 62 62 62 62 62 62 62 62 62 62 61 61 61 61 61 61 60 59 57 60 64 60 64 66 64
59 59 58 58 58 58 59 59 59 59 60 61 61 61 61 61 61 61 61 62 62 62 62 62 63 63 62 62 62 62 62 62 61 61 62 63 63 63 62 62 62 62 62 62 62 62 62 62 62 61 61 61 60 60 60 58 58 58 62 64 64 65 66
59 59 58 59 58 58 58 57 57 59 60 60 61 60 60 60 60 60 60 60 61 61 61 62 62 62 62 62 62 62 62 62 61 61 62 62 63 63 62 62 62 62 62 61 61 62 62 62 62 61 61 61 60 60 60 59 57 56 58 62 64 64 65
59 59 58 57 57 56 56 55 57 59 59 60 60 59 59 58 58 58 58 58 58 59 60 61 62 62 62 62 62 62 62 62 62 62 62 62 62 62 62 62 62 62 62 62 62 61 61 61 61 61 61 60 60 60 61 59 58 56 57 59 61 63 61
58 57 56 55 54 54 55 56 58 58 58 58 59 58 57 57 57 57 57 57 57 57 58 58 60 61 62 62 62 62 62 62 62 61 61 62 62 62 62 61 62 62 62 61 62 62 62 61 62 61 61 61 60 60 60 61 59 57 57 57 60 59 60
56 55 54 53 53 54 56 57 57 56 56 57 57 57 57 56 56 56 56 56 56 56 56 57 57 59 60 61 61 61 62 62 62 62 61 62 62 61 61 61 61 62 62 61 61 61 62 62 61 61 61 60 61 60 60 60 60 59 58 56 57 60 60
53 53 52 53 54 55 55 55 55 55 55 55 56 55 55 55 55 55 55 55 55 55 55 56 56 56 58 59 61 61 61 62 61 61 61 61 62 62 61 61 61 62 62 61 61 61 61 61 61 61 60 60 60 60 60 60 60 60 58 57 57 59 60
51 52 53 54 55 55 55 55 54 55 55 54 54 54 54 54 54 54 54 55 55 54 55 55 55 55 55 57 59 61 60 60 61 61 61 61 61 62 62 61 61 61 61 61 60 61 61 61 61 60 60 60 60 60 59 59 60 59 59 58 58 57 58
53 53 54 55 55 55 54 54 54 53 54 53 53 52 53 53 54 54 54 54 53 53 52 53 52 52 54 55 57 60 60 60 60 60 60 61 61 61 61 61 61 61 61 61 61 60 60 60 60 60 60 60 60 60 59 59 59 59 58 58 57 58 57
55 55 55 55 54 54 54 54 53 53 53 52 52 52 52 52 53 53 53 52 52 51 50 50 50 51 53 55 58 58 58 58 59 60 60 60 60 60 60 61 61 61 61 61 61 61 60 60 60 60 60 60 60 59 58 58 58 58 57 57 56 56 57
55 55 54 54 53 53 53 53 52 52 52 51 51 52 52 52 52 51 51 50 50 50 49 48 48 48 51 55 55 54 54 55 55 56 58 59 59 59 59 59 59 60 62 62 59 58 59 59 60 59 59 60 59 59 58 58 58 58 57 57 56 57 56
54 54 53 52 52 52 52 52 51 51 50 51 51 51 51 52 51 50 49 49 49 48 47 47 48 46 47 51 53 52 53 52 53 53 54 55 56 58 58 57 58 59 58 57 56 53 52 52 55 59 60 59 59 59 59 58 57 57 57 56 56 55 55
54 52 52 52 52 51 51 51 50 50 50 50 50 50 50 50 50 50 48 47 47 47 46 46 44 42 42 45 51 51 50 50 51 51 52 52 52 54 56 57 56 57 58 58 55 48 46 46 47 49 51 51 53 58 59 57 57 58 57 56 56 55 55
52 52 52 51 51 51 50 50 49 49 49 49 49 49 49 48 49 49 48 47 46 45 45 44 42 43 43 42 46 50 50 49 49 49 50 50 51 52 54 54 54 55 56 58 57 54 50 44 43 43 43 43 42 40 42 52 57 57 57 56 55 55 55
52 51 51 51 51 50 50 49 48 48 48 49 49 48 47 47 47 48 47 46 46 45 45 42 42 43 43 42 43 48 49 49 48 48 48 49 49 50 51 52 52 52 53 56 56 55 53 51 47 45 46 46 45 43 41 41 42 51 58 57 56 55 55
51 51 51 51 50 49 49 48 48 48 48 48 47 47 47 46 47 47 46 46 45 46 45 42 42 42 42 43 43 46 49 48 48 47 47 47 48 49 49 50 50 50 51 52 53 53 52 50 50 49 49 48 46 46 44 42 44 44 49 56 57 56 55
50 50 50 50 49 48 48 48 48 48 48 47 47 46 46 46 46 46 46 45 45 44 44 41 41 42 42 43 44 46 49 48 47 47 46 47 47 47 48 49 50 50 50 50 51 52 51 51 50 49 49 47 47 47 45 45 45 46 46 46 46 47 47
50 50 49 49 48 47 47 47 47 48 48 48 48 47 47 47 46 45 46 45 44 43 43 40 40 41 42 42 45 49 49 48 47 46 46 46 46 46 47 48 49 49 50 50 47 44 48 51 51 49 48 48 49 48 47 46 43 44 45 45 45 44 44
49 49 48 47 47 46 46 46 47 48 47 47 47 46 46 45 45 45 45 45 44 43 43 41 40 40 41 42 46 50 49 49 47 46 45 46 46 46 46 47 47 46 47 47 43 42 44 49 50 49 48 48 48 47 47 49 45 44 43 43 42 42 42
48 48 47 46 45 46 46 47 47 48 47 46 46 47 47 46 45 45 44 44 44 42 42 42 40 40 41 41 45 48 49 49 46 46 46 46 46 45 46 47 47 45 44 44 41 41 43 49 49 48 48 47 46 46 46 48 49 48 45 45 44 44 43
48 47 46 45 45 45 45 45 46 47 47 47 46 47 46 45 45 45 45 44 45 43 42 42 40 40 40 41 45 47 48 47 45 45 45 45 45 45 45 45 45 44 44 42 40 41 42 47 49 48 48 46 45 45 45 47 47 47 47 47 47 48 47
47 46 45 44 44 44 45 45 45 45 45 46 45 44 45 44 43 44 45 44 44 44 43 42 41 40 41 41 42 46 46 45 44 44 44 45 44 44 44 43 43 40 40 40 40 40 41 42 46 46 47 45 45 44 47 47 47 47 47 46 46 47 47
45 45 44 43 43 43 43 43 43 43 43 44 43 43 42 42 43 43 44 44 44 44 44 43 42 40 40 40 41 43 45 44 44 44 44 44 43 42 42 42 42 41 39 40 40 40 40 41 43 45 44 43 43 45 46 46 46 46 46 46 46 46 46
46 44 44 43 42 42 42 43 42 42 42 42 42 41 41 42 41 41 42 42 43 43 44 43 43 41 40 40 40 41 43 43 43 44 43 43 43 42 42 41 41 41 39 39 39 40 40 40 41 44 41 40 40 41 46 46 46 46 45 45 45 44 44
45 45 44 44 43 41 41 42 42 42 42 42 41 41 40 41 41 40 41 41 41 42 43 44 41 42 40 40 40 40 40 42 41 44 42 41 41 42 42 42 42 41 40 40 39 39 40 40 41 41 39 40 40 41 44 45 45 45 44 44 44 43 43
45 45 45 44 44 42 41 41 41 41 41 41 41 40 40 40 40 39 39 40 40 41 41 42 42 41 41 39 40 39 39 39 40 43 43 41 41 42 42 42 41 39 40 40 40 40 39 39 40 39 40 40 41 42 45 45 44 44 43 43 42 42 42

ECMWFFLT1_sfc_temp_123.txt.gz
Temp
72 72 73 73 72 72 71 71 70 69 69 71 72 72 73 72 71 69 69 69 68 68 67 66 67 67 68 68 68 68 69 69 67 64 65 66 64 65 66 65 65 67 66 66 66 64 63 61 64 67 67 66 65 66 66 65 66 66 65 66 69 72 73
73 73 73 72 72 70 71 71 70 69 70 70 73 72 71 71 70 70 69 68 68 69 69 68 67 68 67 67 67 67 66 66 67 67 65 64 65 64 65 63 64 65 64 64 64 65 61 61 63 63 61 63 64 65 65 66 66 66 66 66 67 72 73
72 72 72 71 71 71 71 70 70 70 71 71 70 70 71 71 70 70 69 69 69 69 69 69 69 69 69 69 69 68 69 68 67 67 66 66 66 66 65 66 65 64 64 63 62 62 62 62 60 61 61 60 59 63 65 64 66 67 67 66 67 68 71
71 71 71 71 71 71 71 71 71 72 72 71 71 71 71 71 70 70 69 70 69 69 68 68 69 68 68 68 69 69 68 67 68 68 67 66 66 65 64 63 63 65 65 64 64 64 62 60 59 60 61 62 61 61 64 66 67 69 67 66 66 67 69
70 71 70 69 70 70 70 70 71 72 71 71 70 70 70 70 70 69 69 69 69 69 68 69 69 69 69 69 69 68 67 67 68 67 67 67 67 66 66 65 63 64 65 66 69 69 66 64 63 62 63 63 61 62 66 65 66 66 66 66 65 65 67
70 70 70 69 69 70 71 70 70 70 70 69 68 68 67 67 67 67 68 68 68 68 68 68 68 69 68 68 69 69 68 68 68 67 65 66 67 66 66 67 65 64 63 64 64 64 66 67 65 60 62 63 59 60 64 65 63 66 66 65 65 65 67
69 69 70 69 69 70 70 69 69 68 68 67 66 65 65 66 66 67 67 68 68 68 67 66 66 66 66 66 67 67 68 69 68 66 65 66 66 66 66 66 67 66 64 66 66 65 63 62 61 61 61 61 62 61 63 62 67 63 63 65 66 66 68
69 69 69 69 69 69 69 69 68 68 67 66 65 65 67 67 67 67 68 68 68 67 67 67 68 67 67 67 67 68 68 68 68 67 66 66 66 67 66 65 67 67 66 66 65 64 65 64 63 63 61 58 58 60 59 61 63 64 66 65 66 66 67
69 69 69 69 68 68 67 67 66 66 65 65 65 66 67 67 66 66 67 68 69 68 67 68 68 67 68 67 67 68 68 69 68 67 66 67 67 67 67 67 67 66 67 66 65 64 64 65 64 64 63 61 57 56 59 59 60 63 68 64 64 66 66
68 67 67 66 67 67 67 67 66 66 65 65 65 66 67 67 66 67 67 67 68 68 67 67 67 68 68 68 67 67 67 68 67 67 67 67 67 67 66 66 65 66 66 66 66 65 65 64 65 64 63 61 60 57 57 57 59 61 65 67 63 64 67
67 67 67 67 67 67 67 67 66 65 64 64 65 65 67 67 66 67 67 68 68 67 66 67 68 69 68 67 67 67 67 66 66 67 67 67 66 67 66 65 65 64 66 66 65 66 66 66 64 65 64 63 62 59 58 57 59 62 62 65 68 67 67
67 67 67 67 66 65 65 64 64 64 65 66 65 65 65 66 65 65 65 65 65 65 66 66 66 65 66 65 66 66 67 65 64 66 67 67 66 66 67 67 68 66 68 66 65 66 66 66 65 64 63 63 61 61 59 59 57 61 64 61 67 72 69
66 66 65 65 65 64 63 63 64 64 64 64 64 64 64 62 61 61 61 62 62 62 63 63 64 65 65 65 65 65 66 66 64 65 67 67 66 66 65 65 66 66 67 66 65 65 65 65 65 64 63 62 61 61 61 59 58 58 62 64 66 71 72
64 65 64 64 63 63 63 63 64 64 64 63 63 62 62 61 61 60 61 61 62 62 62 61 62 64 64 65 66 67 67 66 66 65 65 65 66 65 65 65 66 67 68 66 65 65 65 64 64 63 63 62 61 61 60 59 58 58 61 65 66 68 72
64 64 64 63 62 63 63 62 62 62 61 62 61 60 60 60 60 61 61 61 61 61 61 61 61 61 62 63 65 66 66 67 67 67 65 65 66 66 65 64 65 67 68 67 66 66 65 64 64 63 62 61 60 60 61 60 59 58 58 61 63 69 68
62 62 61 61 61 61 61 61 62 60 60 61 61 59 59 60 60 61 61 60 60 59 59 59 60 59 59 60 61 63 65 65 65 65 65 66 66 66 66 65 66 67 68 66 66 66 65 64 64 63 63 62 61 60 61 61 60 58 59 59 62 63 64
60 61 60 60 59 59 59 59 60 59 59 59 58 59 60 60 59 59 58 58 58 58 58 58 59 59 59 59 60 62 64 65 65 66 66 66 66 66 66 65 66 67 67 66 66 65 65 64 63 63 62 62 62 61 61 61 61 60 59 58 60 61 63
58 58 57 58 57 58 57 58 58 57 57 57 57 57 58 58 58 57 56 56 56 56 56 56 56 57 58 58 60 61 63 64 64 64 64 65 65 66 65 64 65 66 66 64 65 65 65 64 64 63 62 62 62 62 62 61 61 61 59 58 59 61 63
57 57 56 56 56 56 56 56 56 56 57 56 56 56 56 56 56 56 55 55 55 55 55 54 55 56 59 61 61 61 62 63 63 64 64 65 65 65 64 65 65 65 65 64 64 65 65 65 65 63 63 63 62 62 61 61 61 61 60 60 60 59 61
56 56 56 56 56 56 56 55 55 55 56 56 55 55 55 55 55 54 54 54 54 55 55 54 54 55 58 59 59 59 59 60 61 62 63 63 62 62 62 62 63 63 64 65 64 65 65 64 64 64 64 63 63 62 61 61 61 60 60 60 60 61 60
56 56 56 55 55 55 55 55 54 55 55 55 54 55 54 53 53 53 53 53 53 54 54 53 52 53 56 58 57 57 57 57 58 59 59 60 60 61 60 60 61 62 62 62 62 64 64 63 63 62 63 63 62 61 61 61 60 60 59 59 59 58 59
56 56 55 55 55 54 54 54 54 54 54 54 53 54 54 54 52 52 54 54 53 52 51 50 50 50 53 56 56 56 56 56 56 56 57 58 59 60 60 59 59 59 59 55 50 51 52 54 59 60 62 62 61 61 60 60 59 59 59 59 58 59 59
55 55 54 54 54 54 54 55 54 54 53 53 53 53 53 52 52 53 53 53 52 50 49 50 48 45 47 54 55 55 55 55 55 55 55 55 56 58 58 58 58 58 56 52 48 45 44 45 48 50 51 53 57 60 61 60 59 59 59 58 58 57 57
56 54 54 53 53 54 54 54 54 53 53 53 52 52 52 51 51 52 52 52 50 50 49 48 43 42 42 45 53 54 53 53 53 53 54 54 54 55 56 57 57 58 57 55 52 45 44 44 43 43 44 45 46 50 55 59 60 60 59 59 59 58 58
54 54 54 53 53 53 53 53 53 52 52 52 52 53 53 52 52 52 52 52 50 50 49 45 41 42 43 43 47 53 53 53 53 52 52 53 54 54 55 56 56 57 57 56 55 53 50 45 44 44 44 43 42 42 42 47 52 58 59 59 58 58 58
53 53 53 52 53 53 53 52 52 52 51 52 53 55 55 54 53 52 52 51 50 50 50 42 41 42 43 43 44 52 55 53 52 51 51 52 53 53 54 54 55 55 54 55 56 55 55 52 48 46 46 46 46 44 41 41 42 48 55 58 58 58 58
53 53 53 52 52 53 52 51 52 53 53 55 56 54 54 53 53 53 52 52 50 50 47 42 41 41 43 43 43 49 56 54 53 52 52 52 52 52 52 52 52 52 53 53 53 56 55 55 53 52 51 49 47 46 45 43 44 43 46 49 50 50 47
52 52 52 52 52 52 52 52 52 53 54 57 56 55 54 54 53 53 53 52 51 48 46 40 40 41 41 43 44 50 56 55 55 54 53 53 53 53 54 54 53 53 52 51 50 51 55 55 54 53 52 51 49 47 46 46 46 47 47 47 47 46 46
52 52 51 52 51 51 51 51 51 53 53 54 54 54 55 55 53 53 53 53 51 49 47 40 40 40 41 42 47 56 57 56 54 54 54 54 53 53 55 55 54 53 52 51 46 42 49 56 55 53 52 52 51 50 49 46 43 44 46 47 46 45 45
51 51 51 51 51 50 50 51 51 53 53 53 53 52 54 53 53 52 52 52 52 51 49 43 39 40 41 41 50 56 56 58 56 54 54 55 54 52 51 53 54 53 52 51 43 41 43 50 54 53 51 51 51 50 49 51 47 44 44 43 43 43 43
52 52 51 52 51 51 51 51 51 52 52 52 52 53 53 52 52 52 51 50 51 50 49 44 40 40 41 40 49 56 56 55 54 55 53 54 54 53 50 45 49 52 51 49 41 41 43 52 55 53 51 50 49 47 48 50 51 50 46 45 45 44 44
52 51 50 50 50 50 50 51 51 52 51 52 52 53 53 53 52 52 52 51 48 50 49 46 40 40 41 41 51 57 57 55 53 53 54 53 53 53 52 48 43 44 46 44 39 41 42 50 52 52 52 51 48 47 46 48 48 48 49 48 48 48 47
52 51 50 50 50 50 51 51 50 51 51 53 52 53 53 52 51 51 52 51 50 50 50 48 44 39 41 41 43 55 56 55 53 52 52 53 52 52 52 51 47 39 39 39 39 39 40 43 52 51 51 50 49 47 50 49 49 49 49 48 48 48 47
51 51 51 50 50 50 50 50 51 51 52 52 52 51 51 51 51 50 51 51 51 49 49 49 45 39 40 41 41 47 54 54 54 53 53 52 52 51 51 50 49 41 39 39 39 39 40 41 45 51 50 49 48 48 49 52 50 48 50 49 49 49 49
52 51 52 52 51 50 51 52 52 53 53 52 51 50 51 51 51 50 51 51 51 50 48 45 49 42 39 40 40 41 51 51 52 54 52 52 52 51 50 49 49 42 39 39 39 39 40 41 42 51 47 41 40 42 52 53 53 52 51 50 48 48 48
51 51 51 52 52 51 52 52 52 52 52 51 51 50 50 51 51 50 50 51 51 51 51 48 42 45 40 39 39 40 40 46 43 53 51 50 50 51 51 50 48 41 40 39 39 39 40 41 45 45 39 41 41 42 49 55 53 53 51 50 49 48 47
51 51 51 52 51 51 51 51 52 52 52 52 51 51 51 51 51 50 50 50 50 51 52 51 44 41 43 39 39 39 39 39 42 50 51 50 50 50 50 49 45 40 40 40 41 40 39 40 44 39 41 41 44 47 56 56 54 53 53 51 50 49 48

ECMWFFLT1_sfc_temp_126.txt.gz
Temp
78 76 78 78 79 79 78 77 76 77 78 78 78 78 78 78 77 76 76 75 74 75 74 74 73 73 74 75 75 75 75 74 72 70 70 72 69 70 73 71 73 73 72 71 70 66 67 65 68 69 70 74 73 71 71 72 72 70 70 72 76 76 75
78 78 79 79 78 78 75 77 76 77 77 77 78 78 78 78 77 76 75 75 74 74 75 75 74 74 73 73 73 73 73 74 74 73 72 71 71 70 70 70 70 71 72 71 69 70 66 64 66 68 64 68 71 73 73 73 73 71 70 69 70 74 72
77 77 78 77 75 77 74 75 74 75 76 76 76 77 77 78 76 76 76 75 74 74 75 75 75 75 74 74 74 73 73 72 74 73 72 71 72 72 69 69 66 66 67 67 66 65 66 66 63 67 70 67 61 69 72 72 72 72 71 68 69 69 70
75 75 75 75 75 75 74 74 75 75 76 76 77 76 76 76 75 76 75 75 75 75 74 74 74 74 74 74 74 74 73 72 72 73 72 73 72 71 70 70 69 67 65 65 66 65 63 65 64 64 68 70 70 69 72 73 73 74 71 70 70 71 70
75 74 73 73 74 75 75 74 75 75 75 75 75 76 75 75 74 74 75 74 75 75 74 75 75 75 75 75 74 73 73 73 73 73 73 72 72 72 71 71 68 69 69 67 70 67 64 67 65 65 67 70 70 74 76 72 72 71 69 68 71 74 72
75 75 74 73 74 74 74 73 73 73 74 74 74 73 73 72 73 73 73 73 73 74 74 73 74 74 73 73 73 73 73 73 73 73 72 72 72 71 72 73 73 71 69 68 69 68 66 64 61 60 67 66 64 69 73 73 68 68 68 66 68 72 73
75 74 74 73 73 74 74 73 72 72 72 72 72 71 72 72 72 72 72 72 73 73 73 72 72 73 72 72 72 72 72 73 74 73 73 73 72 71 72 71 71 70 67 68 70 71 70 67 65 66 63 65 68 65 71 71 72 67 65 65 66 70 72
73 73 73 74 73 72 72 72 72 72 71 71 71 71 72 71 71 71 71 71 73 73 73 73 72 72 72 72 72 72 73 74 73 73 73 73 72 71 70 69 69 72 72 71 68 69 73 70 68 67 64 62 62 63 65 69 70 70 69 67 68 68 72
74 73 73 73 73 72 71 71 71 70 70 70 71 71 71 71 71 71 72 72 72 72 73 73 72 72 72 71 72 73 73 75 73 73 73 73 72 72 71 71 70 71 72 69 67 68 68 69 69 67 66 62 59 58 61 61 66 68 72 69 67 70 72
71 71 71 70 71 72 71 71 70 70 70 70 70 71 70 72 72 71 71 70 71 71 71 71 71 71 72 72 72 72 71 73 73 73 73 72 73 73 72 71 70 71 72 71 71 72 71 69 67 64 64 62 61 59 59 61 64 64 67 70 65 69 73
72 71 71 71 71 71 71 71 70 70 70 69 70 70 70 71 70 69 69 70 70 69 68 69 71 72 71 70 71 71 73 73 72 73 73 73 73 74 73 72 72 71 72 70 68 70 72 70 67 65 66 66 66 62 61 59 63 67 66 68 71 71 72
72 72 72 71 71 70 69 69 69 69 69 69 69 69 69 69 68 68 68 68 69 69 69 68 68 68 70 70 70 72 74 74 73 73 73 73 73 74 73 72 72 71 70 68 67 67 68 71 70 68 66 65 65 62 62 60 58 65 68 63 67 73 71
72 72 71 69 69 69 68 68 68 67 66 68 68 68 68 67 67 67 68 68 68 67 67 67 68 68 69 69 70 71 72 73 73 73 74 75 74 73 73 73 73 72 72 69 66 68 67 68 68 65 64 65 66 65 65 64 61 61 64 64 65 67 73
69 70 68 68 68 68 67 67 67 67 68 68 68 68 67 67 68 67 67 67 67 66 66 66 67 67 66 66 67 69 70 71 71 73 73 73 74 74 72 73 74 73 74 69 67 70 69 69 68 67 67 67 67 68 66 63 61 60 63 64 64 64 67
68 68 67 67 66 66 66 66 66 67 66 66 66 66 66 65 66 66 66 66 66 65 64 65 65 65 64 65 66 67 68 69 70 72 71 73 74 73 72 73 73 74 74 72 69 67 67 69 68 66 65 65 66 67 67 64 61 59 59 63 62 64 65
67 66 66 65 64 64 65 64 65 64 64 64 65 64 64 64 64 65 65 64 63 62 63 62 62 62 62 63 66 67 67 69 69 69 70 71 72 73 72 72 73 73 71 68 66 67 69 68 68 67 66 67 67 65 65 65 62 59 59 60 63 63 64
64 64 64 63 62 62 63 63 64 63 64 64 63 63 64 63 62 62 61 62 62 62 61 62 63 63 64 65 65 66 68 68 68 68 68 69 70 69 70 69 70 70 70 67 68 67 67 68 67 66 65 66 66 65 65 63 62 60 60 59 61 61 62
63 62 62 62 60 61 61 62 62 63 63 62 62 61 62 61 60 60 59 62 63 63 63 64 64 65 65 65 65 65 65 66 66 66 65 65 65 66 66 67 67 67 67 65 65 64 65 66 67 66 65 66 65 66 65 64 62 61 60 59 60 62 63
61 61 61 61 61 61 62 62 62 62 62 61 60 60 60 59 58 60 62 63 64 64 64 63 63 63 64 64 63 63 63 64 65 64 64 64 65 65 63 63 63 63 63 62 62 64 64 64 65 65 65 66 67 66 65 64 62 61 60 60 60 60 61
60 60 60 60 61 62 62 61 62 61 61 60 60 59 58 59 60 61 61 62 62 62 61 60 59 60 62 64 63 63 62 63 64 63 63 63 64 63 63 61 60 58 58 58 59 60 61 63 64 65 66 64 63 64 64 63 63 61 60 60 60 61 60
60 60 61 61 60 61 61 61 60 60 60 59 58 57 57 60 62 62 61 61 60 59 59 58 57 57 60 62 62 62 62 62 63 63 63 63 63 63 62 61 59 57 55 53 54 56 57 59 64 62 60 61 62 62 63 63 62 61 61 60 59 59 60
61 61 61 61 61 61 61 61 60 59 58 57 56 58 60 61 61 61 60 59 59 58 56 54 53 52 56 60 61 62 61 61 60 60 61 61 62 61 61 61 59 57 54 52 48 48 48 50 55 54 55 59 60 60 61 63 63 61 60 59 59 59 59
60 61 60 61 61 62 61 60 59 58 57 57 58 59 62 61 61 60 59 58 58 56 55 54 48 44 46 54 62 61 61 60 60 59 59 59 60 60 60 60 60 57 54 52 49 46 45 45 47 48 49 49 51 54 56 58 59 61 61 59 59 59 58
60 60 60 61 62 62 61 60 59 58 58 58 59 61 61 60 59 58 58 57 56 55 54 50 42 42 43 44 58 62 61 60 60 59 59 59 58 59 61 61 61 59 58 57 54 45 45 45 44 44 44 45 47 48 51 53 55 57 58 59 60 60 59
59 59 60 61 61 61 60 59 59 59 59 60 62 62 60 59 58 58 57 58 56 54 54 44 40 42 42 43 48 61 61 60 59 59 59 59 59 60 61 61 60 59 58 59 61 60 54 46 45 45 45 44 43 42 43 47 49 52 54 57 58 57 58
59 59 60 60 60 60 61 61 61 61 61 62 62 61 61 59 58 57 57 57 56 55 55 43 41 41 41 42 45 57 63 62 60 59 59 59 60 60 60 60 60 59 58 57 60 61 60 60 50 48 49 48 47 45 42 42 43 48 53 53 53 50 50
59 59 60 59 59 60 62 62 62 63 63 63 62 61 60 59 58 58 58 58 56 56 53 43 40 41 42 41 46 54 65 64 61 61 60 60 60 61 61 60 60 59 59 59 58 59 61 61 60 60 58 57 55 51 47 45 45 44 47 49 49 47 48
59 58 59 59 59 60 62 63 64 64 63 63 63 62 61 59 58 59 59 58 58 56 52 40 40 40 41 40 44 55 65 63 62 61 60 59 60 61 62 61 61 59 59 58 55 50 61 60 60 58 58 56 55 54 53 52 52 51 49 48 47 47 47
59 59 59 60 60 60 62 62 62 62 63 63 63 63 62 61 60 60 59 59 58 57 54 40 39 41 41 40 46 66 65 63 62 62 61 60 58 57 58 60 61 60 59 58 49 41 50 62 60 59 58 57 56 55 53 49 44 45 48 48 48 47 46
58 58 58 58 58 58 59 62 63 65 64 64 61 62 61 60 60 60 59 60 59 57 56 45 39 40 42 38 55 65 64 64 62 61 60 61 59 56 53 54 58 58 57 56 44 41 43 55 62 61 59 58 57 57 56 57 49 45 44 44 43 43 43
58 58 59 58 57 57 58 59 61 64 64 62 61 62 63 62 61 59 58 57 57 56 55 47 39 40 41 39 50 65 65 63 62 61 60 61 61 59 54 45 49 54 54 52 41 42 42 58 63 62 60 59 59 57 57 59 60 57 48 47 46 45 44
60 59 58 57 57 57 58 59 60 62 62 62 61 62 62 62 61 60 59 56 52 55 55 50 41 40 40 41 52 66 64 63 61 61 61 60 60 60 58 52 44 44 47 45 40 42 41 54 62 61 61 60 58 57 56 58 58 58 57 57 56 56 53
60 59 57 58 58 58 59 60 60 62 62 64 62 62 61 60 59 59 58 57 56 56 55 53 46 39 40 42 42 61 64 62 60 60 60 60 59 58 57 57 51 40 39 40 41 40 42 43 59 60 59 57 57 56 60 58 57 58 57 57 57 57 56
57 57 58 57 57 58 60 61 61 61 61 61 61 60 59 59 58 58 58 57 56 54 53 54 49 39 41 41 40 49 63 61 61 61 60 59 59 57 57 56 54 43 39 40 40 41 42 42 47 58 57 56 56 55 57 61 58 52 59 57 57 57 57
57 57 58 58 59 59 61 62 62 62 62 60 59 59 59 59 58 58 58 58 57 55 51 47 53 43 40 40 40 41 56 58 59 61 59 59 58 57 56 55 54 45 40 40 40 41 41 43 44 58 52 41 42 46 63 63 62 62 60 60 59 58 58
57 59 59 60 60 59 60 61 60 61 60 59 59 58 58 59 58 58 58 58 58 57 55 51 43 48 41 40 40 41 41 50 46 59 58 57 57 57 57 56 53 42 40 41 41 41 42 43 50 50 41 42 44 46 55 64 61 61 61 60 59 58 59
60 61 62 61 60 60 60 61 61 61 61 61 60 59 60 59 59 58 57 57 58 58 57 56 46 42 45 40 41 40 41 40 44 56 58 57 57 56 56 55 51 40 41 42 43 43 43 44 50 42 43 43 48 51 63 62 61 61 59 59 59 59 59

ECMWFFLT1_sfc_temp_129.txt.gz
Temp
79 79 80 80 81 81 80 80 80 80 80 81 79 80 81 80 79 78 78 78 78 78 77 76 76 76 77 77 77 77 76 76 75 73 73 74 72 73 75 71 70 72 72 72 70 64 63 62 69 74 73 71 71 70 71 72 72 71 70 69 72 74 71
80 80 82 81 81 81 79 80 80 80 79 80 81 80 79 80 79 79 78 78 77 77 79 77 77 77 76 75 75 75 75 75 75 75 74 74 73 73 73 72 71 71 72 72 70 67 60 61 66 68 69 72 70 69 67 71 73 72 71 68 68 71 72
81 81 82 80 79 79 78 78 78 78 78 78 77 80 79 80 79 79 78 78 77 77 77 77 78 77 76 76 75 75 75 74 74 75 74 74 75 74 74 73 70 70 70 70 68 66 64 63 62 66 69 67 64 67 70 70 70 70 70 69 69 72 68
79 79 78 77 78 78 77 77 77 78 78 77 78 78 78 78 77 78 77 77 77 77 77 76 76 76 76 76 76 76 75 74 74 73 73 73 73 73 74 73 71 71 68 67 67 67 66 66 66 65 68 71 68 66 69 71 70 70 68 69 68 71 71
79 78 77 76 77 77 77 76 77 76 76 78 77 77 76 76 76 75 76 76 77 77 76 76 76 77 77 76 75 75 74 74 74 74 74 73 73 74 73 74 73 73 71 69 71 70 68 65 62 62 64 67 63 69 76 70 70 68 68 67 69 74 75
78 78 77 76 78 77 77 76 75 75 76 76 76 75 75 75 74 73 74 74 75 75 75 76 76 76 75 75 75 74 74 74 74 74 74 73 73 73 73 74 74 73 72 73 69 67 69 67 64 60 66 70 65 67 74 73 66 67 68 68 77 78 78
76 77 77 76 77 76 76 75 75 75 74 74 74 73 74 74 74 74 74 74 75 76 76 76 75 76 75 75 74 74 73 74 74 73 73 73 73 74 74 74 74 73 73 73 70 68 69 68 65 64 64 66 67 67 72 72 73 64 66 72 76 77 78
77 77 77 76 76 75 74 74 74 74 73 73 74 74 74 73 73 73 74 74 75 75 75 75 75 75 75 74 74 74 74 74 74 75 75 74 73 74 74 73 73 74 74 74 71 69 71 71 69 66 63 60 63 67 66 70 71 72 68 66 73 72 75
77 77 76 75 75 74 73 73 73 72 72 72 73 73 73 73 73 72 73 74 75 74 74 74 74 74 74 73 73 73 73 75 74 74 73 74 74 74 73 74 74 72 73 75 72 70 69 72 70 65 66 65 61 60 67 66 68 71 77 71 69 74 72
74 74 73 73 73 73 73 73 72 72 72 71 71 73 72 73 73 72 72 72 73 72 72 73 72 72 73 73 73 73 73 74 74 73 73 74 74 73 73 74 73 73 74 73 71 67 69 71 69 65 64 64 65 59 58 61 65 66 72 75 67 69 74
74 74 73 73 73 72 72 72 72 71 71 71 72 72 72 72 72 72 71 71 72 72 71 71 71 71 70 71 73 73 74 73 74 74 75 75 74 74 73 73 72 73 74 72 70 69 69 71 67 65 64 66 68 63 63 60 62 67 67 69 68 67 70
74 73 73 73 73 72 72 72 71 71 71 71 71 71 71 72 71 71 72 71 71 71 70 69 69 70 70 69 71 72 73 73 73 73 74 74 74 74 72 72 73 72 72 69 67 67 71 70 69 66 63 64 64 64 63 61 58 65 68 64 66 69 67
74 73 72 72 72 71 71 70 70 70 70 72 71 71 71 71 70 70 70 70 70 69 68 68 69 69 68 68 69 69 70 72 73 73 73 75 74 74 73 72 72 70 68 66 66 65 65 67 66 66 64 65 66 67 64 61 60 62 68 67 68 70 72
71 72 71 71 71 70 70 70 70 71 71 69 69 69 69 68 69 69 69 68 68 68 67 67 67 67 67 66 67 68 70 71 72 72 72 72 73 73 71 71 71 68 69 67 66 67 68 68 67 65 64 64 63 64 63 60 59 62 67 72 70 69 70
71 70 69 69 69 69 69 69 69 70 69 68 68 67 68 67 67 67 66 67 67 68 68 68 67 66 66 66 67 68 68 70 71 71 70 70 71 71 70 71 70 69 71 69 68 67 67 67 65 64 64 64 63 64 65 61 60 60 62 67 67 70 67
69 68 68 67 67 67 67 66 67 66 67 68 67 67 66 66 66 67 67 68 68 67 68 68 68 67 66 66 66 66 67 67 67 67 67 68 68 68 67 67 66 66 68 68 69 68 69 67 66 64 63 64 64 65 64 63 62 62 62 64 68 68 67
67 67 65 65 64 66 66 66 66 67 67 66 66 65 66 66 67 67 67 68 68 68 67 67 67 67 67 67 66 65 66 66 66 66 65 65 65 65 63 62 61 63 64 64 65 66 67 67 66 65 64 65 64 63 63 64 65 63 61 61 65 66 67
66 65 64 64 63 65 65 65 66 67 66 65 65 65 65 66 66 66 65 66 66 66 66 66 65 65 66 66 65 65 65 65 66 65 64 64 64 63 60 59 59 59 60 60 61 61 63 63 65 65 64 64 64 64 64 63 64 65 64 62 63 65 65
64 63 63 64 65 65 65 65 65 65 66 65 64 65 66 65 65 66 66 66 66 65 64 63 63 63 64 65 65 65 64 64 64 64 64 64 63 62 59 59 58 58 57 55 56 57 59 61 64 63 62 63 64 64 63 63 63 63 64 63 62 61 63
63 63 63 64 65 65 66 66 66 65 65 65 65 65 66 66 66 66 65 64 63 62 61 60 60 61 63 64 65 65 63 63 63 63 63 63 63 62 61 59 58 57 55 54 53 53 55 58 60 60 59 59 63 64 64 63 62 61 62 62 63 62 61
63 63 64 65 65 65 65 64 64 64 64 63 64 65 66 66 66 65 63 62 61 60 60 59 58 58 60 62 64 63 63 62 62 62 62 63 62 62 61 60 58 57 55 54 53 52 52 53 56 56 56 56 58 61 63 63 63 61 60 60 60 61 61
63 63 65 65 65 65 64 64 64 64 64 64 64 66 67 66 65 65 63 61 60 58 57 56 54 52 54 58 64 63 63 62 61 61 62 63 63 63 62 60 59 57 55 52 50 50 50 50 51 51 52 53 54 57 59 61 62 61 60 60 60 62 61
64 65 65 64 64 64 64 64 64 64 65 66 66 66 66 65 65 63 62 61 60 58 57 55 48 44 46 52 61 63 63 62 62 62 62 62 62 63 63 62 60 57 52 50 49 47 46 47 48 50 50 51 51 53 55 56 57 57 59 58 56 58 58
65 64 65 65 64 64 64 64 64 65 65 66 65 65 65 64 63 63 62 60 59 58 57 51 41 42 42 43 54 64 63 62 63 63 63 63 63 63 63 63 62 60 60 56 51 45 46 46 45 45 46 47 48 49 50 51 54 55 56 56 54 53 53
65 65 65 65 65 65 65 65 65 66 65 65 65 64 63 63 63 63 62 61 59 58 57 44 40 41 42 41 44 59 65 64 63 63 63 63 64 64 63 63 62 61 61 60 61 59 53 47 47 46 46 46 45 44 44 47 50 52 52 51 50 49 49
64 64 64 65 65 65 65 65 66 65 64 64 64 63 63 63 63 63 63 61 60 59 58 44 40 40 42 40 41 52 68 65 63 63 63 62 63 63 63 63 61 61 62 59 60 60 63 61 52 49 50 51 49 47 44 43 45 50 53 50 48 47 46
63 63 64 65 65 65 65 65 65 66 65 65 64 63 63 63 63 63 63 63 61 59 56 44 40 40 42 40 41 47 69 64 63 63 61 61 61 61 62 62 61 61 62 62 58 54 60 63 61 61 59 58 58 54 49 47 46 46 49 51 49 46 47
62 63 64 65 65 65 65 65 66 67 67 66 65 64 64 63 62 63 64 64 62 58 54 40 40 40 41 41 38 49 67 65 64 63 61 60 59 58 60 62 62 61 62 61 55 47 53 62 62 61 60 59 59 57 56 54 53 53 52 52 51 50 49
62 63 64 65 65 64 64 65 65 65 66 66 65 65 64 64 63 63 63 64 61 59 56 41 40 41 40 41 42 65 66 65 63 63 62 60 58 57 57 58 60 60 60 58 49 42 45 57 66 62 60 60 60 59 56 49 46 47 51 52 52 51 50
62 63 64 63 63 64 64 64 65 66 65 65 64 64 63 62 63 62 61 62 61 59 57 46 39 40 41 40 49 68 66 66 64 62 62 61 59 56 53 54 57 58 57 56 45 41 42 50 66 63 62 60 59 60 60 58 47 44 44 44 44 44 44
63 63 64 63 63 64 64 65 65 66 65 65 64 64 64 63 62 62 60 59 60 58 57 48 40 41 41 41 47 66 67 66 64 62 61 62 61 59 55 47 50 54 54 53 42 43 42 55 63 62 62 61 59 58 59 62 63 60 49 48 47 46 46
64 63 63 63 63 63 64 64 65 66 66 66 65 66 65 64 62 62 60 59 55 57 57 51 42 40 40 42 49 66 66 66 63 63 62 60 60 60 58 53 46 45 49 46 41 42 42 51 62 60 61 61 60 59 59 61 61 61 61 61 60 60 57
63 64 64 64 64 64 65 65 65 66 66 67 66 65 64 63 61 60 60 59 57 57 57 54 47 40 41 43 42 60 67 64 62 61 61 61 59 59 58 58 53 42 41 41 42 41 43 43 58 61 61 60 58 57 62 62 62 64 63 61 60 60 58
62 63 64 64 65 64 65 65 65 65 65 65 64 63 61 61 60 60 60 59 57 55 53 55 50 39 41 42 41 49 65 63 63 62 61 60 59 58 58 57 57 46 41 42 42 42 43 43 46 60 58 58 58 52 55 64 62 56 62 62 61 60 60
62 63 64 64 64 64 65 65 65 65 65 64 62 61 61 61 60 59 59 59 58 56 52 48 54 45 41 42 42 42 57 60 59 62 59 60 59 58 57 57 57 48 40 42 43 43 44 44 46 59 54 42 42 44 63 63 64 64 63 63 62 61 60
62 63 63 64 63 63 64 64 64 64 63 62 61 61 60 61 60 60 59 59 59 58 57 53 45 50 42 41 41 43 42 50 46 61 60 58 58 58 59 58 56 46 40 41 43 44 44 45 52 52 43 43 45 49 56 65 64 63 62 62 60 59 60
63 63 63 63 63 62 63 64 64 64 64 63 62 61 61 61 61 60 59 59 59 59 58 57 48 44 47 41 42 41 42 42 44 57 59 58 58 58 57 58 54 42 42 42 43 45 45 46 52 45 45 45 50 54 65 64 63 62 62 60 59 59 59

ECMWFFLT1_sfc_temp_132.txt.gz
Temp
69 72 74 75 77 76 76 75 76 76 77 77 76 78 77 77 77 75 76 75 74 74 74 73 72 73 73 73 72 72 72 71 70 68 67 68 66 67 70 69 69 68 68 66 65 61 59 57 61 66 67 66 67 67 67 68 68 68 68 68 69 69 67
72 70 76 76 75 76 75 76 76 76 76 75 77 77 78 78 76 75 75 74 73 74 75 74 73 73 72 71 71 70 70 70 70 70 68 68 68 67 67 67 68 67 67 67 66 63 60 58 59 61 63 66 66 65 66 67 68 68 68 68 69 68 67
65 65 75 74 75 75 74 74 75 74 75 75 75 77 76 77 75 75 74 74 73 73 73 73 72 72 72 72 71 71 71 70 70 70 68 68 68 68 68 67 66 66 66 65 64 62 62 62 58 59 62 61 60 63 66 66 66 67 68 68 67 67 66
65 66 69 73 73 74 74 74 74 73 74 74 74 75 75 75 73 73 72 73 73 73 72 72 71 71 71 71 71 71 71 70 69 69 69 69 69 68 68 68 66 65 64 62 61 61 60 59 60 60 62 64 62 61 64 66 66 68 69 67 67 66 66
65 65 67 72 73 73 73 73 73 74 73 74 74 73 72 72 72 71 72 72 72 71 71 72 71 72 71 71 70 70 70 70 70 70 69 68 68 68 68 68 67 67 66 63 63 62 61 60 60 59 60 63 63 65 68 65 67 67 68 65 67 68 66
65 66 68 72 73 73 74 73 73 72 72 72 71 71 71 71 70 70 70 70 70 71 71 71 71 71 71 70 70 70 70 69 69 69 68 68 68 67 67 68 68 68 66 64 63 62 63 63 61 58 61 64 60 62 66 66 63 65 67 67 67 67 66
67 65 69 73 73 73 73 72 72 71 71 71 71 69 70 71 71 71 71 70 71 71 71 70 70 71 71 71 70 69 70 70 70 69 69 69 68 69 69 67 68 68 68 67 64 63 62 62 60 59 59 61 62 61 64 66 68 61 64 66 67 67 66
65 66 70 73 73 72 72 72 71 71 70 70 70 70 71 70 70 70 70 70 70 70 70 70 70 70 70 70 70 69 70 70 70 69 69 69 69 68 68 68 66 67 66 67 65 65 65 63 62 61 60 57 58 60 60 64 65 66 63 66 67 65 66
65 68 72 72 72 72 72 72 70 69 69 69 70 70 71 70 70 69 69 69 70 69 69 69 69 69 68 68 68 69 69 71 70 69 69 69 68 69 67 67 66 65 67 67 67 65 64 65 64 63 61 59 57 55 59 59 61 64 68 63 66 67 67
71 72 71 71 71 71 71 70 70 70 69 69 69 71 71 71 69 68 68 68 68 69 69 68 68 68 68 68 67 68 68 69 69 68 68 68 69 68 67 66 65 65 66 67 67 66 65 64 64 63 62 60 60 57 55 56 59 59 65 66 60 64 67
72 72 71 71 71 70 70 70 70 69 69 70 71 70 70 70 69 70 68 69 69 68 67 68 68 68 68 67 67 67 68 68 68 69 68 68 68 68 67 67 66 64 66 66 65 65 65 64 63 62 62 63 62 58 58 55 57 61 62 65 65 63 65
71 71 71 71 71 71 70 70 69 69 69 70 70 69 69 68 68 67 67 67 67 67 67 66 67 67 67 66 66 67 68 68 68 68 67 68 68 67 66 66 65 64 66 65 66 65 65 64 63 63 62 63 62 61 59 58 56 61 65 61 63 66 64
72 71 70 70 70 70 70 69 69 69 69 69 68 69 68 67 67 67 67 66 66 66 66 66 66 66 65 65 66 66 67 68 68 67 67 68 67 66 65 64 64 63 64 65 66 65 65 65 64 63 63 62 62 62 61 59 57 57 63 63 64 65 67
69 70 70 70 68 67 68 68 69 69 68 65 67 67 67 66 66 66 66 66 66 66 66 66 66 65 65 65 66 66 66 66 66 66 66 66 66 64 62 61 61 61 62 62 64 64 64 64 65 64 63 62 62 62 61 59 58 58 61 64 63 63 66
69 68 68 68 67 67 67 67 68 68 65 65 66 66 66 65 65 66 67 67 67 67 66 66 66 65 65 64 64 65 64 65 65 64 64 63 63 61 60 59 59 59 60 61 61 62 62 62 63 62 62 62 61 61 62 60 59 58 58 62 62 65 64
68 67 66 66 65 65 65 66 67 66 66 65 65 65 65 65 66 67 67 66 66 65 65 64 64 64 64 64 64 63 64 64 63 62 62 62 61 60 59 58 57 57 58 57 57 58 59 60 62 62 61 62 61 61 62 61 59 58 58 59 61 61 61
66 66 65 64 64 65 64 65 67 66 65 65 64 64 66 67 66 65 65 64 64 63 62 62 63 63 63 63 63 63 63 63 62 62 61 61 60 59 58 57 57 56 56 55 55 55 56 58 59 59 58 59 59 59 61 62 62 59 59 58 60 60 61
64 64 63 63 63 64 64 65 65 65 64 64 64 64 65 65 64 64 62 62 61 60 60 61 61 62 63 64 63 62 62 62 62 61 61 61 60 58 57 56 56 56 56 54 54 54 54 55 57 56 55 56 56 57 59 61 62 61 59 58 59 61 61
63 63 62 63 63 64 64 64 64 64 65 64 65 65 64 64 63 62 62 61 60 60 60 59 59 60 62 63 63 62 62 62 61 61 61 60 60 58 57 57 56 56 55 54 53 53 53 53 54 53 52 53 54 56 58 60 61 61 60 59 59 59 60
63 63 63 63 64 65 64 64 64 64 64 65 65 64 64 63 62 61 60 59 59 59 59 58 56 56 58 61 62 62 61 61 61 61 61 61 60 59 58 57 56 56 55 54 53 52 53 52 52 51 51 51 53 55 57 58 59 58 59 58 58 59 59
62 63 64 64 64 64 63 63 63 63 65 65 64 64 63 62 61 61 59 58 58 59 57 55 53 53 55 57 61 61 62 61 61 62 62 62 61 59 59 58 57 55 54 53 52 52 53 51 52 51 51 51 51 52 54 56 56 56 57 55 54 54 57
63 64 64 63 63 62 63 63 63 63 64 64 64 64 64 63 61 60 59 58 59 58 56 53 50 48 50 54 57 62 61 62 61 61 61 62 62 61 60 59 57 55 54 52 49 50 51 51 51 49 50 50 50 51 52 54 53 53 53 52 50 52 52
64 64 63 62 62 62 63 63 64 64 64 64 63 63 63 62 61 60 58 58 58 56 54 51 46 44 44 47 52 61 61 61 62 62 61 61 61 61 60 60 59 56 53 52 50 47 47 48 49 51 51 50 49 49 50 51 51 51 51 49 48 48 48
64 63 62 62 62 63 63 64 64 64 63 62 62 63 63 62 60 59 59 58 57 56 53 47 42 41 42 43 49 58 61 61 61 61 61 60 60 60 60 60 60 60 58 55 51 45 45 46 46 47 47 48 49 49 48 48 50 50 49 48 48 47 46
64 63 63 63 63 63 64 64 64 63 62 61 62 62 61 61 60 59 59 58 56 55 52 43 41 41 42 42 45 58 60 60 58 58 59 58 59 60 60 60 60 60 59 58 56 55 52 47 46 46 46 46 46 45 45 48 49 49 48 47 46 45 45
63 63 63 63 63 64 64 64 63 62 61 62 62 61 61 61 60 60 58 57 55 54 51 42 41 41 42 42 40 53 61 59 57 56 56 56 56 56 58 59 58 59 58 57 55 52 53 56 49 49 48 49 48 47 44 43 45 50 51 48 47 45 45
63 63 63 63 64 64 63 62 62 62 62 61 61 61 61 61 61 60 58 57 56 53 48 42 41 41 42 41 39 49 62 59 57 56 55 54 53 53 54 57 57 56 55 55 52 48 50 55 59 59 58 57 55 53 49 47 47 47 49 50 48 46 46
62 63 63 63 63 64 63 63 63 63 62 62 61 60 60 60 60 60 59 58 57 53 48 41 41 41 41 42 40 50 61 60 58 56 54 53 52 51 52 54 55 54 54 53 50 45 50 53 58 57 57 56 55 53 53 53 53 53 52 52 50 49 48
62 63 63 63 63 63 63 62 62 62 62 61 61 61 60 60 59 59 59 58 56 54 50 41 41 41 42 41 44 61 60 59 57 57 55 53 52 51 51 52 52 52 53 51 47 43 46 54 61 57 56 57 56 54 52 49 47 48 51 52 51 50 50
63 63 63 62 62 61 61 62 62 62 61 61 59 59 58 58 58 57 57 57 55 53 51 44 40 41 42 41 48 62 60 59 58 56 55 54 53 52 51 51 51 51 51 50 44 43 44 49 60 58 57 55 55 55 54 52 45 44 44 44 45 45 46
63 62 62 62 62 62 62 62 62 62 61 60 59 59 59 58 57 56 55 55 55 53 51 46 41 42 42 42 48 61 61 60 57 56 55 55 54 53 53 52 51 48 48 48 43 43 43 51 58 57 57 55 54 54 55 57 59 56 49 48 47 46 47
63 62 62 61 62 62 61 61 62 63 62 61 60 60 60 58 56 56 55 54 53 53 51 48 42 42 42 43 50 60 60 59 56 55 55 54 54 54 53 53 50 46 46 44 42 43 43 49 55 55 54 54 53 53 54 58 57 57 56 55 55 56 54
62 62 61 61 62 62 62 62 62 62 62 63 61 60 58 57 55 54 54 53 52 52 52 49 44 41 43 44 46 58 60 57 55 54 55 55 53 52 52 52 52 45 41 42 42 43 44 43 52 54 53 52 51 52 55 57 56 56 56 56 55 55 54
61 61 62 62 62 62 62 62 61 61 60 60 58 57 56 56 55 54 54 53 51 50 50 50 46 41 43 43 44 49 56 55 56 55 54 53 53 51 51 52 52 47 42 42 42 43 44 44 46 53 51 50 49 47 53 57 56 54 55 55 55 55 54
62 62 63 62 61 61 62 63 62 61 60 59 57 56 56 55 55 54 54 53 52 51 50 49 50 44 43 44 43 45 52 52 53 56 54 53 52 51 51 50 51 47 41 42 42 43 44 45 47 52 48 42 43 49 57 56 56 55 55 55 54 54 54
61 62 62 62 61 60 61 61 61 60 59 58 57 56 56 55 54 53 53 53 53 52 51 50 47 48 43 44 44 44 44 48 47 55 53 51 51 50 51 52 52 47 41 42 42 43 44 45 49 49 45 44 46 50 53 56 54 55 53 54 53 53 53
62 62 61 61 61 60 59 59 60 60 59 58 57 56 56 55 55 54 53 52 53 53 52 51 47 46 46 43 43 44 44 44 46 52 53 51 51 51 51 50 49 42 41 43 45 45 46 46 47 46 46 47 48 51 56 55 53 54 51 52 52 52 52